GFSGL_prec_precacc24_009.txt.gz
Total_Precipitation_Accumulation
0.00 0.00 0.00 0.00 0.00 0.00 0.00 0.00 0.00 0.00 0.00 0.00 0.00 0.00 0.00 0.00 0.00 0.00 0.00 0.00 0.00 0.00 0.00 0.00 0.00 0.00 0.00 0.00 0.00 0.00 0.00 0.00 0.00 0.00 0.00 0.00 0.00 0.00 0.00 0.00 0.00 0.00 0.00
0.00 0.00 0.00 0.00 0.00 0.00 0.00 0.00 0.00 0.00 0.00 0.00 0.00 0.00 0.00 0.00 0.00 0.00 0.00 0.00 0.00 0.00 0.00 0.00 0.00 0.00 0.02 0.01 0.00 0.01 0.00 0.01 0.02 0.01 0.00 0.00 0.00 0.00 0.01 0.00 0.00 0.00 0.00
0.00 0.00 0.00 0.00 0.00 0.00 0.00 0.00 0.00 0.00 0.00 0.00 0.00 0.00 0.00 0.00 0.00 0.00 0.00 0.00 0.00 0.00 0.00 0.00 0.00 0.01 0.02 0.02 0.03 0.02 0.01 0.02 0.06 0.03 0.02 0.00 0.00 0.00 0.00 0.00 0.00 0.00 0.00
0.00 0.00 0.00 0.00 0.00 0.00 0.00 0.00 0.00 0.00 0.00 0.00 0.00 0.00 0.00 0.00 0.00 0.00 0.00 0.00 0.00 0.00 0.00 0.00 0.00 0.02 0.04 0.05 0.04 0.07 0.07 0.11 0.19 0.17 0.10 0.04 0.01 0.00 0.00 0.00 0.01 0.00 0.00
0.00 0.00 0.00 0.00 0.00 0.00 0.00 0.01 0.00 0.00 0.00 0.00 0.00 0.00 0.00 0.00 0.00 0.00 0.00 0.00 0.00 0.00 0.00 0.00 0.00 0.06 0.08 0.15 0.12 0.08 0.06 0.09 0.06 0.04 0.02 0.01 0.00 0.01 0.01 0.00 0.01 0.00 0.00
0.00 0.00 0.00 0.00 0.00 0.00 0.00 0.02 0.01 0.00 0.01 0.01 0.02 0.01 0.01 0.00 0.00 0.00 0.00 0.00 0.00 0.02 0.06 0.06 0.03 0.08 0.13 0.16 0.10 0.03 0.04 0.06 0.06 0.04 0.02 0.01 0.02 0.04 0.05 0.04 0.01 0.00 0.00
0.00 0.00 0.00 0.00 0.00 0.00 0.00 0.00 0.00 0.01 0.05 0.04 0.05 0.03 0.01 0.04 0.01 0.00 0.00 0.00 0.00 0.05 0.07 0.06 0.01 0.05 0.12 0.04 0.10 0.12 0.06 0.04 0.02 0.02 0.01 0.04 0.05 0.06 0.05 0.02 0.01 0.01 0.00
0.00 0.00 0.00 0.00 0.00 0.00 0.00 0.00 0.00 0.00 0.04 0.04 0.03 0.04 0.04 0.04 0.02 0.01 0.00 0.00 0.00 0.01 0.04 0.04 0.04 0.04 0.06 0.07 0.16 0.13 0.06 0.04 0.08 0.06 0.05 0.03 0.03 0.03 0.02 0.00 0.00 0.00 0.00
0.00 0.00 0.00 0.00 0.00 0.00 0.00 0.00 0.01 0.02 0.09 0.05 0.05 0.06 0.05 0.04 0.06 0.04 0.01 0.01 0.02 0.02 0.02 0.05 0.08 0.03 0.18 0.22 0.09 0.03 0.03 0.02 0.02 0.07 0.05 0.01 0.01 0.01 0.01 0.00 0.00 0.00 0.00
0.00 0.00 0.00 0.00 0.00 0.00 0.04 0.04 0.17 0.30 0.19 0.09 0.03 0.05 0.06 0.05 0.07 0.05 0.02 0.01 0.01 0.04 0.08 0.05 0.22 0.03 0.09 0.09 0.02 0.01 0.04 0.11 0.02 0.02 0.01 0.00 0.00 0.00 0.00 0.00 0.00 0.01 0.00
0.00 0.00 0.00 0.00 0.01 0.11 0.18 0.16 0.14 0.07 0.03 0.02 0.02 0.04 0.07 0.06 0.06 0.03 0.00 0.00 0.00 0.03 0.03 0.11 0.05 0.06 0.05 0.05 0.03 0.00 0.01 0.02 0.00 0.00 0.00 0.00 0.00 0.00 0.00 0.00 0.00 0.00 0.00
0.00 0.00 0.00 0.01 0.03 0.12 0.17 0.09 0.01 0.01 0.01 0.01 0.03 0.07 0.10 0.11 0.07 0.02 0.03 0.01 0.01 0.03 0.03 0.08 0.13 0.12 0.16 0.10 0.01 0.00 0.00 0.00 0.00 0.00 0.00 0.00 0.00 0.00 0.00 0.00 0.00 0.00 0.00
0.00 0.00 0.00 0.01 0.02 0.07 0.09 0.02 0.01 0.01 0.01 0.02 0.04 0.07 0.08 0.11 0.13 0.07 0.05 0.03 0.02 0.03 0.05 0.12 0.15 0.08 0.03 0.00 0.00 0.00 0.00 0.00 0.00 0.00 0.00 0.00 0.00 0.00 0.00 0.00 0.00 0.00 0.00
0.00 0.00 0.01 0.01 0.02 0.02 0.04 0.01 0.01 0.02 0.03 0.04 0.09 0.13 0.12 0.12 0.11 0.10 0.03 0.03 0.02 0.01 0.03 0.04 0.02 0.00 0.00 0.00 0.00 0.00 0.00 0.00 0.00 0.00 0.00 0.00 0.00 0.00 0.00 0.00 0.00 0.00 0.00
0.11 0.12 0.08 0.03 0.01 0.02 0.01 0.01 0.03 0.05 0.07 0.06 0.06 0.07 0.05 0.03 0.05 0.04 0.02 0.00 0.00 0.01 0.00 0.00 0.00 0.00 0.00 0.00 0.00 0.00 0.00 0.00 0.00 0.00 0.00 0.00 0.00 0.00 0.00 0.00 0.00 0.00 0.00
0.08 0.09 0.07 0.02 0.02 0.02 0.01 0.00 0.01 0.02 0.02 0.04 0.04 0.02 0.05 0.03 0.06 0.04 0.01 0.00 0.00 0.00 0.00 0.00 0.00 0.00 0.00 0.00 0.00 0.00 0.00 0.00 0.00 0.00 0.00 0.00 0.00 0.00 0.00 0.00 0.00 0.00 0.00
0.01 0.02 0.01 0.01 0.02 0.03 0.02 0.01 0.00 0.00 0.00 0.00 0.00 0.01 0.01 0.00 0.01 0.00 0.00 0.00 0.00 0.00 0.00 0.00 0.00 0.00 0.00 0.00 0.00 0.00 0.00 0.00 0.00 0.00 0.00 0.00 0.00 0.00 0.00 0.00 0.00 0.00 0.00
0.00 0.00 0.00 0.01 0.01 0.02 0.03 0.01 0.00 0.00 0.00 0.00 0.00 0.00 0.00 0.00 0.00 0.00 0.00 0.00 0.00 0.00 0.00 0.00 0.00 0.00 0.00 0.00 0.00 0.00 0.00 0.00 0.00 0.00 0.00 0.00 0.00 0.00 0.00 0.00 0.00 0.00 0.00
0.00 0.00 0.01 0.03 0.10 0.12 0.06 0.01 0.01 0.00 0.01 0.00 0.00 0.00 0.00 0.00 0.00 0.00 0.00 0.00 0.00 0.00 0.00 0.00 0.00 0.00 0.00 0.00 0.00 0.00 0.00 0.00 0.00 0.00 0.00 0.00 0.00 0.00 0.00 0.00 0.00 0.00 0.00
0.03 0.08 0.07 0.11 0.15 0.11 0.09 0.04 0.04 0.02 0.02 0.02 0.01 0.00 0.00 0.00 0.00 0.00 0.00 0.00 0.00 0.00 0.00 0.00 0.00 0.00 0.00 0.00 0.00 0.00 0.00 0.00 0.00 0.00 0.00 0.00 0.00 0.00 0.00 0.00 0.00 0.00 0.00
0.14 0.10 0.10 0.08 0.08 0.03 0.02 0.02 0.01 0.01 0.00 0.00 0.00 0.00 0.00 0.00 0.00 0.00 0.00 0.00 0.00 0.00 0.00 0.00 0.00 0.00 0.00 0.00 0.00 0.00 0.00 0.00 0.00 0.00 0.00 0.00 0.00 0.00 0.00 0.00 0.00 0.00 0.00
0.02 0.04 0.04 0.03 0.03 0.02 0.01 0.01 0.00 0.00 0.00 0.00 0.00 0.00 0.00 0.00 0.00 0.00 0.00 0.00 0.00 0.00 0.00 0.00 0.00 0.00 0.00 0.00 0.00 0.00 0.00 0.00 0.00 0.00 0.00 0.00 0.00 0.00 0.00 0.00 0.00 0.00 0.00
0.06 0.05 0.08 0.06 0.04 0.04 0.01 0.00 0.00 0.00 0.00 0.00 0.00 0.00 0.00 0.00 0.00 0.00 0.00 0.00 0.00 0.00 0.00 0.00 0.00 0.00 0.00 0.00 0.00 0.00 0.00 0.00 0.00 0.00 0.00 0.00 0.00 0.00 0.00 0.00 0.00 0.00 0.00
0.10 0.12 0.09 0.04 0.03 0.02 0.01 0.01 0.00 0.01 0.00 0.00 0.00 0.00 0.00 0.00 0.00 0.00 0.00 0.00 0.00 0.00 0.00 0.00 0.00 0.00 0.00 0.00 0.00 0.00 0.00 0.00 0.00 0.00 0.00 0.00 0.00 0.00 0.00 0.00 0.00 0.00 0.00
0.09 0.09 0.09 0.05 0.03 0.03 0.03 0.02 0.02 0.00 0.00 0.00 0.00 0.00 0.00 0.00 0.00 0.00 0.00 0.00 0.00 0.00 0.00 0.00 0.00 0.00 0.00 0.00 0.00 0.00 0.00 0.00 0.00 0.00 0.00 0.00 0.00 0.00 0.00 0.00 0.00 0.00 0.00
0.10 0.08 0.06 0.05 0.03 0.00 0.00 0.01 0.00 0.00 0.00 0.00 0.00 0.00 0.00 0.00 0.00 0.00 0.00 0.00 0.00 0.00 0.00 0.00 0.00 0.00 0.00 0.00 0.00 0.00 0.00 0.00 0.00 0.00 0.00 0.00 0.00 0.00 0.00 0.00 0.00 0.00 0.00

GFSGL_prec_precacc24_012.txt.gz
Total_Precipitation_Accumulation
0.00 0.00 0.00 0.00 0.00 0.00 0.00 0.00 0.00 0.00 0.00 0.00 0.00 0.00 0.00 0.00 0.00 0.00 0.00 0.00 0.00 0.00 0.00 0.00 0.00 0.00 0.00 0.00 0.00 0.00 0.00 0.00 0.00 0.00 0.00 0.00 0.00 0.00 0.00 0.00 0.00 0.00 0.00
0.00 0.00 0.00 0.00 0.00 0.00 0.00 0.00 0.00 0.00 0.00 0.00 0.00 0.00 0.00 0.00 0.00 0.00 0.00 0.00 0.00 0.00 0.00 0.00 0.00 0.00 0.02 0.01 0.00 0.01 0.00 0.01 0.02 0.01 0.00 0.00 0.00 0.00 0.01 0.00 0.00 0.00 0.00
0.00 0.00 0.00 0.00 0.00 0.00 0.00 0.00 0.00 0.00 0.00 0.00 0.00 0.00 0.00 0.00 0.00 0.00 0.00 0.00 0.00 0.00 0.00 0.00 0.00 0.01 0.02 0.02 0.03 0.02 0.01 0.02 0.06 0.04 0.02 0.01 0.00 0.00 0.00 0.00 0.00 0.00 0.00
0.00 0.00 0.00 0.00 0.00 0.00 0.00 0.00 0.00 0.00 0.00 0.00 0.00 0.00 0.00 0.00 0.01 0.00 0.01 0.00 0.00 0.00 0.00 0.00 0.00 0.02 0.04 0.05 0.04 0.07 0.07 0.12 0.19 0.18 0.10 0.04 0.01 0.00 0.00 0.00 0.01 0.00 0.00
0.00 0.00 0.00 0.00 0.00 0.00 0.00 0.01 0.00 0.00 0.00 0.00 0.00 0.00 0.01 0.01 0.01 0.01 0.01 0.02 0.00 0.00 0.00 0.00 0.00 0.06 0.08 0.15 0.12 0.09 0.06 0.09 0.06 0.04 0.02 0.01 0.00 0.01 0.01 0.00 0.01 0.00 0.00
0.00 0.00 0.00 0.00 0.00 0.00 0.00 0.02 0.01 0.00 0.01 0.01 0.02 0.02 0.05 0.04 0.03 0.02 0.04 0.02 0.04 0.02 0.06 0.06 0.03 0.08 0.14 0.18 0.14 0.07 0.05 0.08 0.08 0.08 0.02 0.01 0.02 0.04 0.05 0.04 0.01 0.00 0.00
0.00 0.00 0.00 0.00 0.00 0.00 0.00 0.00 0.00 0.01 0.05 0.04 0.05 0.06 0.12 0.11 0.11 0.15 0.14 0.04 0.06 0.06 0.07 0.06 0.02 0.07 0.16 0.09 0.17 0.22 0.09 0.06 0.04 0.05 0.02 0.04 0.05 0.06 0.05 0.02 0.01 0.01 0.00
0.00 0.00 0.00 0.00 0.00 0.00 0.00 0.00 0.00 0.00 0.04 0.04 0.04 0.10 0.22 0.29 0.28 0.09 0.07 0.05 0.02 0.02 0.04 0.04 0.06 0.10 0.13 0.14 0.21 0.15 0.11 0.09 0.14 0.10 0.05 0.03 0.03 0.03 0.02 0.00 0.00 0.00 0.00
0.00 0.00 0.00 0.00 0.00 0.00 0.00 0.00 0.01 0.02 0.13 0.29 0.53 0.51 0.41 0.28 0.13 0.07 0.04 0.02 0.02 0.02 0.02 0.06 0.11 0.06 0.24 0.27 0.11 0.05 0.04 0.04 0.05 0.07 0.09 0.04 0.02 0.01 0.01 0.00 0.00 0.00 0.00
0.00 0.00 0.00 0.00 0.00 0.00 0.04 0.04 0.17 0.38 0.32 0.17 0.14 0.11 0.08 0.07 0.11 0.07 0.03 0.01 0.01 0.04 0.09 0.06 0.23 0.04 0.14 0.12 0.05 0.02 0.05 0.14 0.04 0.03 0.02 0.00 0.00 0.00 0.00 0.00 0.00 0.01 0.00
0.00 0.00 0.00 0.00 0.01 0.11 0.18 0.17 0.22 0.24 0.06 0.03 0.06 0.07 0.09 0.07 0.08 0.04 0.00 0.00 0.00 0.03 0.03 0.11 0.05 0.06 0.07 0.08 0.12 0.14 0.09 0.04 0.00 0.00 0.00 0.00 0.00 0.00 0.00 0.00 0.00 0.00 0.00
0.00 0.00 0.00 0.01 0.03 0.12 0.19 0.19 0.18 0.08 0.02 0.03 0.06 0.09 0.12 0.12 0.07 0.02 0.03 0.01 0.01 0.03 0.03 0.08 0.13 0.13 0.25 0.22 0.14 0.05 0.01 0.00 0.00 0.00 0.00 0.00 0.00 0.00 0.00 0.00 0.00 0.00 0.00
0.00 0.00 0.00 0.01 0.02 0.07 0.15 0.10 0.03 0.05 0.06 0.05 0.06 0.09 0.08 0.11 0.13 0.07 0.05 0.03 0.02 0.03 0.05 0.12 0.15 0.10 0.05 0.02 0.00 0.00 0.00 0.00 0.00 0.00 0.00 0.00 0.00 0.00 0.00 0.00 0.00 0.00 0.00
0.00 0.00 0.01 0.03 0.09 0.13 0.28 0.10 0.09 0.10 0.06 0.06 0.09 0.13 0.12 0.12 0.11 0.10 0.03 0.03 0.02 0.02 0.03 0.04 0.03 0.02 0.00 0.00 0.00 0.00 0.00 0.00 0.00 0.00 0.00 0.00 0.00 0.00 0.00 0.00 0.00 0.00 0.00
0.13 0.24 0.31 0.31 0.22 0.16 0.33 0.26 0.25 0.21 0.12 0.06 0.06 0.07 0.05 0.03 0.05 0.04 0.02 0.00 0.00 0.01 0.01 0.00 0.00 0.00 0.00 0.00 0.00 0.00 0.00 0.00 0.00 0.00 0.00 0.00 0.00 0.00 0.00 0.00 0.00 0.00 0.00
0.27 0.28 0.29 0.27 0.35 0.35 0.28 0.16 0.06 0.03 0.02 0.04 0.05 0.02 0.05 0.03 0.06 0.04 0.01 0.01 0.00 0.00 0.00 0.00 0.00 0.00 0.00 0.00 0.00 0.00 0.00 0.00 0.00 0.00 0.00 0.00 0.00 0.00 0.00 0.00 0.00 0.00 0.00
0.08 0.08 0.09 0.20 0.23 0.23 0.22 0.20 0.02 0.00 0.00 0.00 0.00 0.01 0.01 0.00 0.02 0.01 0.00 0.00 0.00 0.00 0.00 0.00 0.00 0.00 0.00 0.00 0.00 0.00 0.00 0.00 0.00 0.00 0.00 0.00 0.00 0.00 0.00 0.00 0.00 0.00 0.00
0.12 0.17 0.09 0.07 0.03 0.02 0.03 0.02 0.00 0.00 0.00 0.00 0.00 0.00 0.00 0.00 0.00 0.00 0.00 0.00 0.00 0.00 0.00 0.00 0.00 0.00 0.00 0.00 0.00 0.00 0.00 0.00 0.00 0.00 0.00 0.00 0.00 0.00 0.00 0.00 0.00 0.00 0.00
0.08 0.07 0.04 0.04 0.10 0.13 0.08 0.03 0.01 0.00 0.01 0.00 0.00 0.00 0.00 0.00 0.00 0.00 0.00 0.00 0.00 0.00 0.00 0.00 0.00 0.00 0.00 0.00 0.00 0.00 0.00 0.00 0.00 0.00 0.00 0.00 0.00 0.00 0.00 0.00 0.00 0.00 0.00
0.04 0.13 0.11 0.14 0.24 0.22 0.22 0.16 0.08 0.03 0.02 0.02 0.01 0.00 0.00 0.00 0.00 0.00 0.00 0.00 0.00 0.00 0.00 0.00 0.00 0.00 0.00 0.00 0.00 0.00 0.00 0.00 0.00 0.00 0.00 0.00 0.00 0.00 0.00 0.00 0.00 0.00 0.00
0.24 0.18 0.21 0.20 0.16 0.12 0.10 0.13 0.11 0.09 0.09 0.05 0.02 0.00 0.00 0.00 0.00 0.00 0.00 0.00 0.00 0.00 0.00 0.00 0.00 0.00 0.00 0.00 0.00 0.00 0.00 0.00 0.00 0.00 0.00 0.00 0.00 0.00 0.00 0.00 0.00 0.00 0.00
0.08 0.08 0.08 0.12 0.12 0.10 0.09 0.08 0.04 0.06 0.06 0.05 0.02 0.00 0.00 0.00 0.00 0.00 0.00 0.00 0.00 0.00 0.00 0.00 0.00 0.00 0.00 0.00 0.00 0.00 0.00 0.00 0.00 0.00 0.00 0.00 0.00 0.00 0.00 0.00 0.00 0.00 0.00
0.16 0.12 0.12 0.13 0.13 0.15 0.16 0.12 0.05 0.03 0.02 0.02 0.02 0.01 0.00 0.00 0.00 0.00 0.00 0.00 0.00 0.00 0.00 0.00 0.00 0.00 0.00 0.00 0.00 0.00 0.00 0.00 0.00 0.00 0.00 0.00 0.00 0.00 0.00 0.00 0.00 0.00 0.00
0.16 0.15 0.16 0.13 0.13 0.08 0.07 0.05 0.03 0.01 0.00 0.00 0.00 0.00 0.00 0.00 0.00 0.00 0.00 0.00 0.00 0.00 0.00 0.00 0.00 0.00 0.00 0.00 0.00 0.00 0.00 0.00 0.00 0.00 0.00 0.00 0.00 0.00 0.00 0.00 0.00 0.00 0.00
0.10 0.09 0.13 0.11 0.09 0.05 0.06 0.04 0.02 0.01 0.00 0.00 0.00 0.00 0.00 0.00 0.00 0.00 0.00 0.00 0.00 0.00 0.00 0.00 0.00 0.00 0.00 0.00 0.00 0.00 0.00 0.00 0.00 0.00 0.00 0.00 0.00 0.00 0.00 0.00 0.00 0.00 0.00
0.11 0.10 0.11 0.08 0.04 0.02 0.01 0.01 0.00 0.00 0.00 0.00 0.00 0.00 0.00 0.00 0.00 0.00 0.00 0.00 0.00 0.00 0.00 0.00 0.00 0.00 0.00 0.00 0.00 0.00 0.00 0.00 0.00 0.00 0.00 0.00 0.00 0.00 0.00 0.00 0.00 0.00 0.00

GFSGL_prec_precacc24_015.txt.gz
Total_Precipitation_Accumulation
0.00 0.00 0.00 0.00 0.00 0.00 0.00 0.00 0.00 0.00 0.00 0.00 0.00 0.00 0.00 0.00 0.00 0.00 0.00 0.00 0.00 0.00 0.00 0.00 0.00 0.00 0.00 0.00 0.00 0.00 0.00 0.00 0.00 0.00 0.00 0.00 0.00 0.00 0.00 0.00 0.00 0.00 0.00
0.00 0.00 0.00 0.00 0.00 0.00 0.00 0.00 0.00 0.00 0.00 0.00 0.00 0.00 0.00 0.00 0.00 0.00 0.00 0.00 0.00 0.00 0.00 0.00 0.00 0.00 0.02 0.01 0.00 0.01 0.00 0.01 0.02 0.01 0.00 0.00 0.00 0.00 0.01 0.00 0.00 0.00 0.00
0.00 0.00 0.00 0.00 0.00 0.00 0.00 0.00 0.00 0.00 0.00 0.00 0.00 0.00 0.00 0.01 0.00 0.00 0.00 0.00 0.00 0.00 0.00 0.00 0.00 0.01 0.02 0.02 0.03 0.02 0.01 0.02 0.06 0.05 0.02 0.01 0.00 0.00 0.00 0.00 0.00 0.00 0.00
0.00 0.00 0.00 0.00 0.00 0.00 0.00 0.00 0.00 0.00 0.00 0.00 0.00 0.00 0.01 0.01 0.03 0.04 0.04 0.03 0.01 0.02 0.01 0.00 0.00 0.02 0.04 0.05 0.04 0.07 0.07 0.14 0.20 0.18 0.10 0.05 0.01 0.00 0.00 0.00 0.01 0.00 0.00
0.00 0.00 0.00 0.00 0.00 0.00 0.00 0.01 0.00 0.00 0.00 0.00 0.00 0.00 0.01 0.02 0.04 0.05 0.04 0.09 0.10 0.08 0.03 0.01 0.00 0.06 0.08 0.15 0.12 0.10 0.06 0.09 0.07 0.06 0.04 0.02 0.00 0.01 0.01 0.00 0.01 0.00 0.00
0.00 0.00 0.00 0.00 0.00 0.00 0.00 0.02 0.01 0.00 0.01 0.01 0.02 0.02 0.05 0.04 0.03 0.03 0.10 0.18 0.22 0.20 0.16 0.14 0.03 0.08 0.14 0.18 0.14 0.09 0.06 0.10 0.14 0.11 0.06 0.01 0.03 0.04 0.05 0.04 0.01 0.00 0.00
0.00 0.00 0.00 0.00 0.00 0.00 0.00 0.00 0.00 0.01 0.05 0.04 0.05 0.06 0.12 0.11 0.16 0.25 0.32 0.22 0.24 0.16 0.15 0.12 0.02 0.07 0.16 0.09 0.19 0.26 0.10 0.10 0.10 0.13 0.04 0.04 0.05 0.06 0.05 0.02 0.01 0.01 0.00
0.00 0.00 0.00 0.00 0.00 0.00 0.00 0.00 0.00 0.00 0.04 0.04 0.04 0.10 0.22 0.38 0.57 0.45 0.39 0.24 0.19 0.09 0.07 0.05 0.06 0.10 0.14 0.17 0.24 0.16 0.13 0.11 0.15 0.11 0.05 0.03 0.03 0.04 0.02 0.00 0.00 0.00 0.00
0.00 0.00 0.00 0.00 0.00 0.00 0.00 0.00 0.01 0.02 0.13 0.29 0.53 0.51 0.42 0.33 0.24 0.14 0.13 0.07 0.10 0.09 0.04 0.06 0.11 0.07 0.28 0.34 0.13 0.06 0.06 0.05 0.05 0.08 0.09 0.05 0.03 0.01 0.01 0.00 0.00 0.00 0.00
0.00 0.00 0.00 0.00 0.00 0.00 0.04 0.04 0.17 0.38 0.32 0.17 0.14 0.11 0.08 0.07 0.12 0.09 0.06 0.03 0.03 0.05 0.09 0.06 0.23 0.05 0.16 0.15 0.05 0.03 0.05 0.15 0.05 0.04 0.02 0.01 0.00 0.00 0.00 0.00 0.00 0.01 0.00
0.00 0.00 0.00 0.00 0.01 0.11 0.18 0.17 0.22 0.24 0.06 0.03 0.06 0.10 0.16 0.10 0.09 0.05 0.01 0.02 0.01 0.03 0.03 0.11 0.05 0.06 0.07 0.08 0.13 0.14 0.11 0.06 0.01 0.00 0.00 0.00 0.00 0.00 0.00 0.00 0.00 0.00 0.00
0.00 0.00 0.00 0.01 0.03 0.12 0.19 0.19 0.18 0.08 0.02 0.03 0.07 0.14 0.24 0.16 0.12 0.04 0.04 0.01 0.01 0.03 0.03 0.08 0.13 0.13 0.26 0.22 0.14 0.06 0.01 0.00 0.00 0.00 0.00 0.00 0.00 0.00 0.00 0.00 0.00 0.00 0.00
0.00 0.00 0.00 0.01 0.02 0.07 0.15 0.10 0.03 0.07 0.08 0.07 0.16 0.19 0.23 0.21 0.20 0.09 0.06 0.03 0.02 0.03 0.05 0.12 0.16 0.10 0.06 0.02 0.00 0.00 0.00 0.00 0.00 0.00 0.00 0.00 0.00 0.00 0.00 0.00 0.00 0.00 0.00
0.00 0.00 0.01 0.03 0.09 0.13 0.28 0.10 0.10 0.21 0.25 0.23 0.41 0.47 0.40 0.28 0.17 0.11 0.03 0.03 0.02 0.02 0.03 0.04 0.03 0.02 0.00 0.00 0.00 0.00 0.00 0.00 0.00 0.00 0.00 0.00 0.00 0.00 0.00 0.00 0.00 0.00 0.00
0.13 0.24 0.31 0.31 0.22 0.16 0.34 0.29 0.41 0.61 0.57 0.51 0.52 0.39 0.19 0.07 0.06 0.04 0.02 0.00 0.00 0.01 0.01 0.00 0.00 0.00 0.00 0.00 0.00 0.00 0.00 0.00 0.00 0.00 0.00 0.00 0.00 0.00 0.00 0.00 0.00 0.00 0.00
0.27 0.28 0.29 0.27 0.37 0.45 0.48 0.50 0.57 0.65 0.53 0.39 0.35 0.27 0.17 0.08 0.07 0.04 0.01 0.01 0.00 0.00 0.00 0.00 0.00 0.00 0.00 0.00 0.00 0.00 0.00 0.00 0.00 0.00 0.00 0.00 0.00 0.00 0.00 0.00 0.00 0.00 0.00
0.13 0.11 0.16 0.27 0.36 0.48 0.61 0.60 0.53 0.48 0.37 0.23 0.14 0.07 0.02 0.00 0.02 0.01 0.00 0.00 0.00 0.00 0.00 0.00 0.00 0.00 0.00 0.00 0.00 0.00 0.00 0.00 0.00 0.00 0.00 0.00 0.00 0.00 0.00 0.00 0.00 0.00 0.00
0.60 0.59 0.49 0.46 0.53 0.36 0.30 0.26 0.23 0.23 0.22 0.17 0.05 0.00 0.00 0.00 0.00 0.00 0.00 0.00 0.00 0.00 0.00 0.00 0.00 0.00 0.00 0.00 0.00 0.00 0.00 0.00 0.00 0.00 0.00 0.00 0.00 0.00 0.00 0.00 0.00 0.00 0.00
1.39 0.82 0.66 0.62 0.50 0.47 0.44 0.26 0.07 0.04 0.02 0.02 0.00 0.00 0.00 0.00 0.01 0.00 0.00 0.00 0.00 0.00 0.00 0.00 0.00 0.00 0.00 0.00 0.00 0.00 0.00 0.00 0.00 0.00 0.00 0.00 0.00 0.00 0.00 0.00 0.00 0.00 0.00
1.10 1.09 0.62 0.45 0.34 0.31 0.34 0.21 0.09 0.07 0.04 0.02 0.01 0.00 0.00 0.00 0.00 0.00 0.00 0.00 0.00 0.00 0.00 0.00 0.00 0.00 0.00 0.00 0.00 0.00 0.00 0.00 0.00 0.00 0.00 0.00 0.00 0.00 0.00 0.00 0.00 0.00 0.00
0.55 0.43 0.39 0.31 0.20 0.16 0.17 0.15 0.11 0.09 0.09 0.06 0.04 0.02 0.00 0.00 0.00 0.00 0.00 0.00 0.00 0.00 0.00 0.00 0.00 0.00 0.00 0.00 0.00 0.00 0.00 0.00 0.00 0.00 0.00 0.00 0.00 0.00 0.00 0.00 0.00 0.00 0.00
0.21 0.13 0.16 0.25 0.23 0.22 0.17 0.11 0.06 0.07 0.07 0.05 0.03 0.00 0.00 0.00 0.00 0.00 0.00 0.00 0.00 0.00 0.00 0.00 0.00 0.00 0.00 0.00 0.00 0.00 0.00 0.00 0.00 0.00 0.00 0.00 0.00 0.00 0.00 0.00 0.00 0.00 0.00
0.16 0.13 0.13 0.14 0.16 0.18 0.21 0.17 0.09 0.07 0.07 0.03 0.03 0.01 0.00 0.00 0.00 0.00 0.00 0.00 0.00 0.00 0.00 0.00 0.00 0.00 0.00 0.00 0.00 0.00 0.00 0.00 0.00 0.00 0.00 0.00 0.00 0.00 0.00 0.00 0.00 0.00 0.00
0.17 0.17 0.19 0.18 0.17 0.11 0.11 0.11 0.10 0.10 0.10 0.04 0.01 0.01 0.00 0.00 0.00 0.00 0.00 0.00 0.00 0.00 0.00 0.00 0.00 0.00 0.00 0.00 0.00 0.00 0.00 0.00 0.00 0.00 0.00 0.00 0.00 0.00 0.00 0.00 0.00 0.00 0.00
0.11 0.11 0.15 0.12 0.10 0.07 0.07 0.06 0.04 0.02 0.03 0.03 0.01 0.01 0.00 0.00 0.00 0.00 0.00 0.00 0.00 0.00 0.00 0.00 0.00 0.00 0.00 0.00 0.00 0.00 0.00 0.00 0.00 0.00 0.00 0.00 0.00 0.00 0.00 0.00 0.00 0.00 0.00
0.14 0.13 0.15 0.11 0.04 0.02 0.01 0.01 0.01 0.01 0.02 0.01 0.02 0.01 0.01 0.00 0.00 0.00 0.00 0.00 0.00 0.00 0.00 0.00 0.00 0.00 0.00 0.00 0.00 0.00 0.00 0.00 0.00 0.00 0.00 0.00 0.00 0.00 0.00 0.00 0.00 0.00 0.00

GFSGL_prec_precacc24_018.txt.gz
Total_Precipitation_Accumulation
0.00 0.00 0.00 0.00 0.00 0.00 0.00 0.00 0.00 0.00 0.00 0.00 0.00 0.00 0.00 0.00 0.00 0.00 0.00 0.00 0.00 0.00 0.00 0.00 0.00 0.00 0.00 0.00 0.00 0.00 0.00 0.00 0.00 0.00 0.00 0.00 0.00 0.00 0.00 0.00 0.00 0.00 0.00
0.00 0.00 0.00 0.00 0.00 0.00 0.00 0.00 0.00 0.00 0.00 0.00 0.00 0.00 0.00 0.00 0.00 0.00 0.00 0.00 0.00 0.00 0.00 0.00 0.00 0.00 0.02 0.01 0.00 0.01 0.00 0.01 0.02 0.01 0.00 0.00 0.00 0.00 0.01 0.00 0.00 0.00 0.00
0.00 0.00 0.00 0.00 0.00 0.00 0.00 0.00 0.00 0.00 0.00 0.00 0.00 0.00 0.00 0.01 0.00 0.00 0.00 0.00 0.00 0.04 0.02 0.00 0.00 0.01 0.02 0.02 0.03 0.02 0.01 0.02 0.06 0.05 0.02 0.01 0.00 0.00 0.00 0.00 0.00 0.00 0.00
0.00 0.00 0.00 0.00 0.00 0.00 0.00 0.00 0.00 0.00 0.00 0.00 0.00 0.00 0.01 0.01 0.03 0.04 0.05 0.04 0.02 0.10 0.05 0.02 0.01 0.02 0.04 0.05 0.04 0.07 0.07 0.14 0.20 0.18 0.10 0.06 0.02 0.00 0.00 0.00 0.01 0.00 0.00
0.00 0.00 0.00 0.00 0.00 0.00 0.00 0.01 0.00 0.00 0.00 0.00 0.00 0.00 0.01 0.02 0.04 0.05 0.05 0.10 0.12 0.14 0.07 0.05 0.07 0.07 0.08 0.15 0.12 0.10 0.06 0.09 0.07 0.06 0.05 0.02 0.00 0.01 0.01 0.00 0.01 0.00 0.00
0.00 0.00 0.00 0.00 0.00 0.00 0.00 0.02 0.01 0.00 0.01 0.01 0.02 0.02 0.05 0.04 0.03 0.03 0.10 0.18 0.24 0.22 0.22 0.26 0.14 0.14 0.15 0.18 0.14 0.09 0.08 0.10 0.14 0.12 0.06 0.01 0.03 0.04 0.05 0.04 0.01 0.00 0.00
0.00 0.00 0.00 0.00 0.00 0.00 0.00 0.00 0.00 0.01 0.05 0.04 0.05 0.06 0.12 0.11 0.16 0.25 0.32 0.22 0.24 0.17 0.19 0.17 0.13 0.12 0.18 0.09 0.19 0.26 0.12 0.10 0.10 0.14 0.04 0.04 0.05 0.06 0.05 0.02 0.01 0.01 0.00
0.00 0.00 0.00 0.00 0.00 0.00 0.00 0.00 0.00 0.00 0.04 0.04 0.04 0.10 0.22 0.38 0.57 0.45 0.39 0.24 0.20 0.12 0.08 0.06 0.08 0.13 0.14 0.17 0.24 0.16 0.13 0.12 0.15 0.11 0.05 0.03 0.03 0.04 0.02 0.00 0.00 0.00 0.00
0.00 0.00 0.00 0.00 0.00 0.00 0.00 0.00 0.01 0.02 0.13 0.29 0.53 0.51 0.42 0.33 0.24 0.14 0.13 0.07 0.10 0.12 0.07 0.08 0.11 0.07 0.28 0.34 0.13 0.06 0.06 0.05 0.06 0.08 0.09 0.05 0.03 0.01 0.01 0.00 0.00 0.00 0.00
0.00 0.00 0.00 0.00 0.00 0.00 0.04 0.04 0.17 0.38 0.32 0.17 0.14 0.11 0.08 0.07 0.12 0.09 0.06 0.03 0.03 0.05 0.11 0.08 0.23 0.05 0.16 0.15 0.05 0.03 0.05 0.15 0.05 0.04 0.02 0.01 0.00 0.00 0.00 0.00 0.00 0.01 0.00
0.00 0.00 0.00 0.00 0.01 0.11 0.18 0.17 0.22 0.24 0.06 0.03 0.06 0.10 0.16 0.10 0.10 0.09 0.01 0.02 0.02 0.05 0.04 0.11 0.05 0.06 0.07 0.08 0.13 0.14 0.11 0.06 0.01 0.00 0.00 0.00 0.00 0.00 0.00 0.00 0.00 0.00 0.00
0.00 0.00 0.00 0.01 0.03 0.12 0.19 0.19 0.18 0.08 0.02 0.03 0.07 0.14 0.24 0.16 0.19 0.12 0.06 0.07 0.04 0.04 0.03 0.08 0.13 0.13 0.26 0.22 0.14 0.06 0.01 0.00 0.00 0.00 0.00 0.00 0.00 0.00 0.00 0.00 0.00 0.00 0.00
0.00 0.00 0.00 0.01 0.02 0.07 0.15 0.10 0.04 0.07 0.08 0.07 0.17 0.21 0.29 0.34 0.40 0.32 0.31 0.25 0.10 0.06 0.06 0.12 0.16 0.10 0.06 0.02 0.00 0.00 0.00 0.00 0.00 0.00 0.00 0.00 0.00 0.00 0.00 0.00 0.00 0.00 0.00
0.00 0.00 0.01 0.03 0.09 0.13 0.28 0.10 0.11 0.21 0.25 0.25 0.46 0.63 0.66 0.61 0.55 0.41 0.25 0.10 0.03 0.02 0.03 0.04 0.03 0.02 0.00 0.00 0.00 0.00 0.00 0.00 0.00 0.00 0.00 0.00 0.00 0.00 0.00 0.00 0.00 0.00 0.00
0.13 0.24 0.31 0.31 0.22 0.16 0.34 0.30 0.41 0.62 0.63 0.65 0.72 0.64 0.49 0.40 0.39 0.32 0.22 0.08 0.02 0.01 0.01 0.00 0.00 0.00 0.00 0.00 0.00 0.00 0.00 0.00 0.00 0.00 0.00 0.00 0.00 0.00 0.00 0.00 0.00 0.00 0.00
0.27 0.28 0.29 0.27 0.37 0.45 0.48 0.51 0.62 0.76 0.73 0.69 0.68 0.71 0.74 0.84 1.04 0.98 0.58 0.22 0.08 0.01 0.00 0.00 0.00 0.00 0.00 0.00 0.00 0.00 0.00 0.00 0.00 0.00 0.00 0.00 0.00 0.00 0.00 0.00 0.00 0.00 0.00
0.13 0.11 0.16 0.27 0.36 0.48 0.61 0.61 0.58 0.72 0.62 0.56 0.61 0.47 0.41 0.36 0.32 0.16 0.09 0.07 0.03 0.00 0.00 0.00 0.00 0.00 0.00 0.00 0.00 0.00 0.00 0.00 0.00 0.00 0.00 0.00 0.00 0.00 0.00 0.00 0.00 0.00 0.00
0.60 0.62 0.57 0.50 0.56 0.40 0.36 0.41 0.41 0.44 0.41 0.37 0.40 0.29 0.20 0.16 0.14 0.09 0.04 0.01 0.00 0.00 0.00 0.00 0.00 0.00 0.00 0.00 0.00 0.00 0.00 0.00 0.00 0.00 0.00 0.00 0.00 0.00 0.00 0.00 0.00 0.00 0.00
1.44 0.87 0.83 1.04 1.19 0.99 0.89 0.73 0.44 0.30 0.19 0.15 0.10 0.07 0.05 0.04 0.05 0.04 0.03 0.02 0.01 0.00 0.00 0.00 0.00 0.00 0.00 0.00 0.00 0.00 0.00 0.00 0.00 0.00 0.00 0.00 0.00 0.00 0.00 0.00 0.00 0.00 0.00
1.30 1.61 1.29 1.48 2.45 2.55 1.57 0.91 0.74 0.80 0.60 0.37 0.16 0.07 0.04 0.02 0.01 0.01 0.01 0.01 0.00 0.00 0.00 0.00 0.00 0.00 0.00 0.00 0.00 0.00 0.00 0.00 0.00 0.00 0.00 0.00 0.00 0.00 0.00 0.00 0.00 0.00 0.00
0.64 0.73 0.75 0.82 0.94 0.92 0.79 0.51 0.34 0.38 0.37 0.26 0.18 0.06 0.01 0.01 0.02 0.03 0.00 0.00 0.00 0.00 0.00 0.00 0.00 0.00 0.00 0.00 0.00 0.00 0.00 0.00 0.00 0.00 0.00 0.00 0.00 0.00 0.00 0.00 0.00 0.00 0.00
0.42 0.40 0.43 0.53 0.47 0.45 0.37 0.29 0.19 0.20 0.19 0.16 0.11 0.05 0.03 0.02 0.02 0.01 0.01 0.00 0.00 0.00 0.00 0.00 0.00 0.00 0.00 0.00 0.00 0.00 0.00 0.00 0.00 0.00 0.00 0.00 0.00 0.00 0.00 0.00 0.00 0.00 0.00
0.18 0.20 0.22 0.25 0.29 0.34 0.34 0.30 0.20 0.17 0.16 0.09 0.06 0.04 0.05 0.04 0.02 0.01 0.02 0.01 0.00 0.00 0.00 0.00 0.00 0.00 0.00 0.00 0.00 0.00 0.00 0.00 0.00 0.00 0.00 0.00 0.00 0.00 0.00 0.00 0.00 0.00 0.00
0.18 0.17 0.19 0.19 0.20 0.17 0.16 0.14 0.13 0.13 0.12 0.07 0.04 0.03 0.03 0.02 0.01 0.01 0.01 0.00 0.00 0.00 0.00 0.00 0.00 0.00 0.00 0.00 0.00 0.00 0.00 0.00 0.00 0.00 0.00 0.00 0.00 0.00 0.00 0.00 0.00 0.00 0.00
0.11 0.12 0.15 0.13 0.12 0.12 0.12 0.08 0.08 0.04 0.06 0.08 0.07 0.07 0.06 0.02 0.00 0.00 0.00 0.00 0.00 0.00 0.00 0.00 0.00 0.00 0.00 0.00 0.00 0.00 0.00 0.00 0.00 0.00 0.00 0.00 0.00 0.00 0.00 0.00 0.00 0.00 0.00
0.14 0.14 0.16 0.13 0.07 0.03 0.02 0.03 0.04 0.06 0.09 0.06 0.05 0.07 0.10 0.06 0.01 0.00 0.00 0.00 0.00 0.00 0.00 0.00 0.00 0.00 0.00 0.00 0.00 0.00 0.00 0.00 0.00 0.00 0.00 0.00 0.00 0.00 0.00 0.00 0.00 0.00 0.00

GFSGL_prec_precacc24_021.txt.gz
Total_Precipitation_Accumulation
0.00 0.00 0.00 0.00 0.00 0.00 0.00 0.00 0.00 0.00 0.00 0.00 0.00 0.00 0.00 0.00 0.00 0.00 0.00 0.00 0.00 0.00 0.00 0.00 0.00 0.00 0.00 0.00 0.00 0.00 0.00 0.00 0.00 0.00 0.00 0.00 0.00 0.00 0.00 0.00 0.00 0.00 0.00
0.00 0.00 0.00 0.00 0.00 0.00 0.00 0.00 0.00 0.00 0.00 0.00 0.00 0.00 0.00 0.00 0.00 0.00 0.00 0.00 0.00 0.00 0.00 0.00 0.00 0.00 0.02 0.01 0.00 0.01 0.00 0.01 0.02 0.01 0.00 0.00 0.00 0.00 0.01 0.00 0.00 0.00 0.00
0.00 0.00 0.00 0.00 0.00 0.00 0.00 0.00 0.00 0.00 0.00 0.00 0.00 0.00 0.00 0.01 0.00 0.00 0.00 0.00 0.00 0.04 0.02 0.00 0.00 0.01 0.02 0.02 0.03 0.02 0.01 0.02 0.06 0.05 0.02 0.01 0.00 0.00 0.00 0.00 0.00 0.00 0.00
0.00 0.00 0.00 0.00 0.00 0.00 0.00 0.00 0.00 0.00 0.00 0.00 0.00 0.00 0.01 0.01 0.03 0.04 0.05 0.04 0.02 0.10 0.05 0.02 0.01 0.02 0.04 0.05 0.04 0.07 0.07 0.14 0.20 0.18 0.10 0.06 0.02 0.00 0.00 0.00 0.01 0.00 0.00
0.00 0.00 0.00 0.00 0.00 0.00 0.00 0.01 0.00 0.00 0.00 0.00 0.00 0.00 0.01 0.02 0.04 0.05 0.05 0.10 0.12 0.14 0.07 0.05 0.07 0.08 0.09 0.15 0.12 0.10 0.06 0.09 0.07 0.06 0.05 0.02 0.00 0.01 0.01 0.00 0.01 0.00 0.00
0.00 0.00 0.00 0.00 0.00 0.00 0.00 0.02 0.01 0.00 0.01 0.01 0.02 0.02 0.05 0.04 0.03 0.03 0.10 0.18 0.24 0.22 0.22 0.26 0.14 0.15 0.16 0.18 0.14 0.09 0.08 0.10 0.14 0.12 0.06 0.01 0.05 0.05 0.05 0.04 0.01 0.00 0.00
0.00 0.00 0.00 0.00 0.00 0.00 0.00 0.00 0.00 0.01 0.05 0.04 0.05 0.06 0.12 0.11 0.16 0.25 0.32 0.22 0.24 0.17 0.19 0.17 0.13 0.12 0.20 0.10 0.19 0.26 0.12 0.10 0.10 0.14 0.04 0.05 0.06 0.07 0.05 0.03 0.01 0.01 0.00
0.00 0.00 0.00 0.00 0.00 0.00 0.00 0.00 0.00 0.00 0.04 0.04 0.04 0.10 0.22 0.38 0.57 0.45 0.39 0.24 0.20 0.12 0.08 0.06 0.08 0.13 0.15 0.17 0.24 0.16 0.13 0.12 0.15 0.11 0.05 0.06 0.04 0.04 0.02 0.01 0.01 0.00 0.00
0.00 0.00 0.00 0.00 0.00 0.00 0.00 0.00 0.01 0.02 0.13 0.29 0.53 0.51 0.42 0.33 0.24 0.14 0.13 0.07 0.10 0.12 0.07 0.08 0.11 0.07 0.28 0.34 0.13 0.06 0.06 0.05 0.06 0.08 0.09 0.05 0.03 0.01 0.01 0.00 0.00 0.00 0.00
0.00 0.00 0.00 0.00 0.00 0.00 0.04 0.04 0.17 0.38 0.32 0.17 0.14 0.11 0.08 0.07 0.12 0.09 0.06 0.03 0.03 0.05 0.12 0.08 0.27 0.10 0.17 0.16 0.05 0.03 0.05 0.15 0.05 0.04 0.02 0.01 0.00 0.00 0.00 0.00 0.00 0.01 0.00
0.00 0.00 0.00 0.00 0.01 0.11 0.18 0.17 0.22 0.24 0.06 0.03 0.06 0.10 0.16 0.10 0.10 0.09 0.01 0.02 0.02 0.05 0.05 0.11 0.10 0.11 0.08 0.08 0.13 0.14 0.11 0.06 0.01 0.00 0.00 0.00 0.00 0.00 0.00 0.00 0.00 0.00 0.00
0.00 0.00 0.00 0.01 0.03 0.12 0.19 0.19 0.18 0.08 0.02 0.04 0.07 0.14 0.24 0.16 0.19 0.12 0.06 0.07 0.07 0.06 0.06 0.11 0.16 0.18 0.28 0.23 0.14 0.06 0.01 0.00 0.00 0.00 0.00 0.00 0.00 0.00 0.00 0.00 0.00 0.00 0.00
0.00 0.00 0.00 0.01 0.02 0.07 0.15 0.10 0.04 0.07 0.08 0.07 0.17 0.22 0.29 0.34 0.40 0.32 0.33 0.32 0.25 0.18 0.16 0.23 0.21 0.14 0.08 0.02 0.00 0.00 0.00 0.00 0.00 0.00 0.00 0.00 0.00 0.00 0.00 0.00 0.00 0.00 0.00
0.00 0.00 0.01 0.03 0.09 0.13 0.28 0.10 0.11 0.21 0.25 0.25 0.46 0.65 0.68 0.62 0.56 0.48 0.38 0.31 0.23 0.20 0.21 0.20 0.13 0.07 0.01 0.00 0.00 0.00 0.00 0.00 0.00 0.00 0.00 0.00 0.00 0.00 0.00 0.00 0.00 0.00 0.00
0.13 0.24 0.31 0.31 0.22 0.16 0.34 0.30 0.41 0.62 0.63 0.65 0.72 0.64 0.52 0.46 0.47 0.53 0.54 0.56 0.65 0.77 0.76 0.57 0.34 0.12 0.00 0.00 0.00 0.00 0.00 0.00 0.00 0.00 0.00 0.00 0.00 0.00 0.00 0.00 0.00 0.00 0.00
0.27 0.28 0.29 0.27 0.37 0.45 0.48 0.51 0.63 0.76 0.74 0.69 0.68 0.73 0.82 0.91 1.20 1.33 1.44 1.21 0.78 0.53 0.39 0.25 0.15 0.08 0.01 0.00 0.00 0.00 0.00 0.00 0.00 0.00 0.00 0.00 0.00 0.00 0.00 0.00 0.00 0.00 0.00
0.13 0.11 0.16 0.28 0.36 0.48 0.61 0.61 0.58 0.74 0.65 0.59 0.63 0.54 0.56 0.48 0.51 0.49 0.54 0.47 0.25 0.13 0.09 0.05 0.00 0.00 0.00 0.00 0.00 0.00 0.00 0.00 0.00 0.00 0.00 0.00 0.00 0.00 0.00 0.00 0.00 0.00 0.00
0.60 0.62 0.58 0.51 0.57 0.42 0.38 0.43 0.42 0.45 0.45 0.51 0.59 0.49 0.40 0.39 0.35 0.27 0.25 0.21 0.13 0.06 0.04 0.02 0.00 0.00 0.00 0.00 0.00 0.00 0.00 0.00 0.00 0.00 0.00 0.00 0.00 0.00 0.00 0.00 0.00 0.00 0.00
1.44 0.87 0.83 1.04 1.22 1.10 1.05 0.94 0.67 0.49 0.30 0.28 0.29 0.30 0.26 0.21 0.16 0.11 0.08 0.08 0.08 0.05 0.02 0.03 0.03 0.03 0.01 0.00 0.00 0.00 0.00 0.00 0.00 0.00 0.00 0.00 0.00 0.00 0.00 0.00 0.00 0.00 0.00
1.30 1.61 1.29 1.48 2.45 2.75 2.60 2.15 1.92 1.81 1.47 1.12 0.58 0.33 0.32 0.25 0.22 0.19 0.16 0.15 0.13 0.08 0.04 0.03 0.02 0.01 0.00 0.00 0.00 0.00 0.00 0.00 0.00 0.00 0.00 0.00 0.00 0.00 0.00 0.00 0.00 0.00 0.00
0.64 0.73 0.75 0.82 0.95 1.01 1.45 1.69 1.83 2.02 2.01 1.98 1.49 0.57 0.17 0.15 0.15 0.14 0.09 0.09 0.09 0.05 0.02 0.01 0.00 0.00 0.00 0.00 0.00 0.00 0.00 0.00 0.00 0.00 0.00 0.00 0.00 0.00 0.00 0.00 0.00 0.00 0.00
0.42 0.41 0.43 0.53 0.47 0.45 0.40 0.38 0.34 0.47 0.54 0.58 0.48 0.22 0.15 0.11 0.10 0.10 0.11 0.08 0.05 0.02 0.00 0.00 0.00 0.00 0.00 0.00 0.00 0.00 0.00 0.00 0.00 0.00 0.00 0.00 0.00 0.00 0.00 0.00 0.00 0.00 0.00
0.18 0.20 0.22 0.25 0.29 0.34 0.36 0.32 0.24 0.21 0.20 0.16 0.13 0.11 0.12 0.10 0.08 0.08 0.08 0.05 0.02 0.00 0.00 0.00 0.00 0.00 0.00 0.00 0.00 0.00 0.00 0.00 0.00 0.00 0.00 0.00 0.00 0.00 0.00 0.00 0.00 0.00 0.00
0.18 0.17 0.19 0.19 0.21 0.18 0.17 0.16 0.15 0.16 0.16 0.13 0.10 0.09 0.09 0.07 0.07 0.05 0.03 0.02 0.00 0.00 0.00 0.00 0.00 0.00 0.00 0.00 0.00 0.00 0.00 0.00 0.00 0.00 0.00 0.00 0.00 0.00 0.00 0.00 0.00 0.00 0.00
0.11 0.12 0.15 0.13 0.12 0.12 0.15 0.11 0.09 0.05 0.07 0.09 0.07 0.08 0.10 0.05 0.01 0.02 0.01 0.00 0.00 0.00 0.00 0.00 0.00 0.00 0.00 0.00 0.00 0.00 0.00 0.00 0.00 0.00 0.00 0.00 0.00 0.00 0.00 0.00 0.00 0.00 0.00
0.14 0.14 0.16 0.13 0.07 0.03 0.03 0.06 0.13 0.20 0.23 0.19 0.12 0.09 0.11 0.11 0.06 0.03 0.02 0.01 0.00 0.00 0.00 0.00 0.00 0.00 0.00 0.00 0.00 0.00 0.00 0.00 0.00 0.00 0.00 0.00 0.00 0.00 0.00 0.00 0.00 0.00 0.00

GFSGL_prec_precacc24_024.txt.gz
Total_Precipitation_Accumulation
0.00 0.00 0.00 0.00 0.00 0.00 0.00 0.00 0.00 0.00 0.00 0.00 0.00 0.00 0.00 0.00 0.00 0.00 0.00 0.00 0.00 0.00 0.00 0.00 0.00 0.00 0.00 0.00 0.00 0.00 0.00 0.00 0.00 0.00 0.00 0.00 0.00 0.00 0.00 0.00 0.00 0.00 0.00
0.00 0.00 0.00 0.00 0.00 0.00 0.00 0.00 0.00 0.00 0.00 0.00 0.00 0.00 0.00 0.00 0.00 0.00 0.00 0.00 0.00 0.00 0.00 0.00 0.00 0.00 0.02 0.01 0.00 0.01 0.00 0.01 0.02 0.01 0.00 0.00 0.00 0.00 0.01 0.00 0.00 0.00 0.00
0.00 0.00 0.00 0.00 0.00 0.00 0.00 0.00 0.00 0.00 0.00 0.00 0.00 0.00 0.00 0.01 0.00 0.00 0.00 0.00 0.00 0.04 0.02 0.00 0.00 0.01 0.02 0.02 0.03 0.02 0.01 0.02 0.06 0.05 0.02 0.01 0.00 0.00 0.00 0.00 0.00 0.00 0.00
0.00 0.00 0.00 0.00 0.00 0.00 0.00 0.00 0.00 0.00 0.00 0.00 0.00 0.00 0.01 0.01 0.03 0.04 0.05 0.04 0.02 0.10 0.05 0.02 0.01 0.02 0.04 0.05 0.04 0.07 0.07 0.14 0.20 0.18 0.10 0.06 0.02 0.00 0.00 0.00 0.01 0.00 0.00
0.00 0.00 0.00 0.00 0.00 0.00 0.00 0.01 0.00 0.00 0.00 0.00 0.00 0.00 0.01 0.02 0.04 0.05 0.05 0.10 0.12 0.14 0.07 0.05 0.07 0.08 0.09 0.15 0.12 0.10 0.06 0.09 0.07 0.06 0.05 0.02 0.00 0.01 0.01 0.00 0.01 0.00 0.00
0.00 0.00 0.00 0.00 0.00 0.00 0.00 0.02 0.01 0.00 0.01 0.01 0.02 0.02 0.05 0.04 0.03 0.03 0.10 0.18 0.24 0.22 0.22 0.26 0.14 0.15 0.16 0.18 0.14 0.09 0.08 0.10 0.14 0.12 0.06 0.01 0.05 0.06 0.05 0.04 0.01 0.00 0.00
0.00 0.00 0.00 0.00 0.00 0.00 0.00 0.00 0.00 0.01 0.05 0.04 0.05 0.06 0.12 0.11 0.16 0.25 0.32 0.22 0.24 0.17 0.19 0.17 0.13 0.12 0.20 0.11 0.21 0.27 0.12 0.11 0.10 0.14 0.04 0.05 0.06 0.09 0.06 0.05 0.01 0.01 0.00
0.00 0.00 0.00 0.00 0.00 0.00 0.00 0.00 0.00 0.00 0.04 0.04 0.04 0.10 0.22 0.38 0.57 0.45 0.39 0.24 0.20 0.12 0.08 0.06 0.08 0.13 0.16 0.21 0.28 0.17 0.16 0.12 0.15 0.11 0.05 0.07 0.06 0.05 0.05 0.04 0.04 0.00 0.00
0.00 0.00 0.00 0.00 0.00 0.00 0.00 0.00 0.01 0.02 0.13 0.29 0.53 0.51 0.42 0.33 0.24 0.14 0.13 0.07 0.10 0.12 0.07 0.08 0.11 0.07 0.31 0.39 0.14 0.07 0.08 0.06 0.07 0.08 0.09 0.05 0.03 0.02 0.02 0.01 0.00 0.00 0.00
0.00 0.00 0.00 0.00 0.00 0.00 0.04 0.04 0.17 0.38 0.32 0.17 0.14 0.11 0.08 0.07 0.12 0.09 0.06 0.03 0.03 0.05 0.12 0.09 0.27 0.11 0.21 0.18 0.07 0.03 0.06 0.16 0.06 0.05 0.02 0.01 0.00 0.00 0.00 0.00 0.00 0.01 0.00
0.00 0.00 0.00 0.00 0.01 0.11 0.18 0.17 0.22 0.24 0.07 0.04 0.06 0.10 0.16 0.10 0.10 0.09 0.01 0.02 0.02 0.05 0.05 0.11 0.10 0.12 0.10 0.16 0.23 0.15 0.15 0.08 0.01 0.00 0.00 0.00 0.00 0.00 0.00 0.00 0.00 0.00 0.00
0.00 0.00 0.00 0.01 0.03 0.12 0.19 0.19 0.18 0.09 0.03 0.04 0.07 0.15 0.24 0.16 0.19 0.12 0.06 0.07 0.07 0.06 0.06 0.11 0.16 0.19 0.30 0.37 0.27 0.11 0.06 0.02 0.00 0.00 0.00 0.00 0.00 0.00 0.00 0.00 0.00 0.00 0.00
0.00 0.00 0.00 0.01 0.02 0.07 0.15 0.10 0.04 0.08 0.08 0.08 0.18 0.22 0.29 0.34 0.40 0.32 0.33 0.32 0.25 0.19 0.16 0.23 0.24 0.16 0.14 0.13 0.09 0.06 0.05 0.01 0.00 0.00 0.00 0.00 0.00 0.00 0.00 0.00 0.00 0.00 0.00
0.00 0.00 0.01 0.03 0.09 0.13 0.28 0.10 0.11 0.21 0.26 0.25 0.46 0.65 0.68 0.62 0.57 0.48 0.38 0.31 0.27 0.24 0.21 0.23 0.18 0.13 0.13 0.12 0.10 0.07 0.03 0.01 0.02 0.01 0.00 0.00 0.00 0.00 0.00 0.00 0.00 0.00 0.00
0.13 0.24 0.31 0.31 0.22 0.16 0.34 0.30 0.41 0.62 0.63 0.65 0.72 0.64 0.52 0.47 0.48 0.55 0.55 0.58 0.71 0.88 0.90 0.78 0.64 0.49 0.40 0.30 0.20 0.14 0.08 0.04 0.01 0.01 0.00 0.00 0.00 0.00 0.00 0.00 0.00 0.00 0.00
0.27 0.28 0.29 0.27 0.37 0.45 0.48 0.51 0.63 0.76 0.74 0.69 0.68 0.73 0.82 0.91 1.21 1.33 1.50 1.30 0.95 0.77 0.69 0.55 0.35 0.22 0.14 0.11 0.08 0.07 0.04 0.01 0.00 0.00 0.00 0.00 0.00 0.00 0.00 0.00 0.00 0.00 0.00
0.13 0.11 0.16 0.28 0.36 0.48 0.62 0.62 0.58 0.74 0.65 0.60 0.64 0.55 0.56 0.49 0.52 0.52 0.59 0.64 0.47 0.41 0.31 0.25 0.20 0.18 0.12 0.10 0.05 0.02 0.00 0.00 0.00 0.00 0.00 0.00 0.00 0.00 0.00 0.00 0.00 0.00 0.00
0.60 0.62 0.58 0.51 0.57 0.42 0.38 0.43 0.43 0.47 0.46 0.51 0.62 0.51 0.42 0.42 0.40 0.33 0.33 0.35 0.30 0.20 0.20 0.15 0.09 0.05 0.02 0.01 0.00 0.00 0.00 0.00 0.00 0.00 0.00 0.00 0.00 0.00 0.00 0.00 0.00 0.00 0.00
1.44 0.87 0.83 1.04 1.22 1.10 1.05 0.94 0.67 0.50 0.32 0.32 0.33 0.41 0.41 0.42 0.40 0.31 0.33 0.29 0.25 0.16 0.15 0.13 0.08 0.05 0.01 0.00 0.00 0.00 0.00 0.00 0.00 0.00 0.00 0.00 0.00 0.00 0.00 0.00 0.00 0.00 0.00
1.30 1.61 1.29 1.48 2.45 2.75 2.60 2.15 1.92 1.81 1.47 1.24 1.05 1.07 1.07 1.02 0.99 0.85 0.69 0.43 0.27 0.17 0.11 0.08 0.04 0.02 0.01 0.02 0.01 0.00 0.00 0.00 0.00 0.00 0.00 0.00 0.00 0.00 0.00 0.00 0.00 0.00 0.00
0.64 0.73 0.75 0.82 0.95 1.01 1.45 1.69 1.83 2.02 2.02 2.06 2.07 1.95 1.95 2.15 1.98 1.97 2.03 1.46 0.54 0.13 0.06 0.02 0.02 0.01 0.03 0.02 0.00 0.00 0.00 0.00 0.00 0.00 0.00 0.00 0.00 0.00 0.00 0.00 0.00 0.00 0.00
0.42 0.41 0.43 0.53 0.47 0.45 0.40 0.38 0.34 0.47 0.55 0.62 0.76 0.76 0.73 0.67 0.78 0.90 1.08 0.77 0.29 0.06 0.02 0.03 0.02 0.00 0.01 0.00 0.00 0.00 0.00 0.00 0.00 0.00 0.00 0.00 0.00 0.00 0.00 0.00 0.00 0.00 0.00
0.18 0.20 0.22 0.26 0.30 0.35 0.37 0.33 0.25 0.21 0.20 0.16 0.14 0.18 0.26 0.25 0.23 0.17 0.14 0.12 0.08 0.03 0.01 0.02 0.03 0.01 0.00 0.00 0.00 0.00 0.00 0.00 0.00 0.00 0.00 0.00 0.00 0.00 0.00 0.00 0.00 0.00 0.00
0.18 0.17 0.19 0.19 0.21 0.18 0.17 0.16 0.15 0.16 0.16 0.13 0.11 0.12 0.16 0.17 0.19 0.15 0.11 0.08 0.05 0.03 0.01 0.02 0.01 0.00 0.00 0.00 0.00 0.00 0.00 0.00 0.00 0.00 0.00 0.00 0.00 0.00 0.00 0.00 0.00 0.00 0.00
0.11 0.12 0.15 0.13 0.12 0.13 0.15 0.11 0.09 0.05 0.07 0.10 0.09 0.11 0.12 0.08 0.05 0.06 0.06 0.04 0.01 0.00 0.00 0.00 0.00 0.00 0.00 0.00 0.00 0.00 0.00 0.00 0.00 0.00 0.00 0.00 0.00 0.00 0.00 0.00 0.00 0.00 0.00
0.14 0.14 0.16 0.13 0.07 0.03 0.03 0.06 0.13 0.20 0.23 0.20 0.12 0.10 0.12 0.12 0.07 0.03 0.03 0.02 0.01 0.01 0.00 0.00 0.00 0.00 0.00 0.00 0.00 0.00 0.00 0.00 0.00 0.00 0.00 0.00 0.00 0.00 0.00 0.00 0.00 0.00 0.00

GFSGL_prec_precacc24_027.txt.gz
Total_Precipitation_Accumulation
0.00 0.00 0.00 0.00 0.00 0.00 0.00 0.00 0.00 0.00 0.00 0.00 0.00 0.00 0.00 0.00 0.00 0.00 0.00 0.00 0.00 0.00 0.00 0.00 0.00 0.00 0.00 0.00 0.00 0.00 0.00 0.00 0.00 0.00 0.00 0.00 0.00 0.00 0.00 0.00 0.00 0.00 0.00
0.00 0.00 0.00 0.00 0.00 0.00 0.00 0.00 0.00 0.00 0.00 0.00 0.00 0.00 0.00 0.00 0.00 0.00 0.00 0.00 0.00 0.00 0.00 0.00 0.00 0.00 0.01 0.01 0.00 0.01 0.00 0.01 0.01 0.00 0.00 0.00 0.00 0.00 0.01 0.00 0.00 0.00 0.00
0.00 0.00 0.00 0.00 0.00 0.00 0.00 0.00 0.00 0.00 0.00 0.00 0.00 0.00 0.00 0.01 0.00 0.00 0.00 0.00 0.00 0.04 0.02 0.00 0.00 0.00 0.01 0.02 0.02 0.02 0.01 0.02 0.05 0.04 0.01 0.01 0.00 0.00 0.01 0.00 0.00 0.00 0.00
0.00 0.00 0.00 0.00 0.00 0.00 0.00 0.00 0.00 0.00 0.00 0.00 0.00 0.00 0.01 0.01 0.03 0.04 0.05 0.04 0.02 0.10 0.05 0.02 0.01 0.01 0.02 0.02 0.02 0.04 0.06 0.13 0.19 0.17 0.10 0.06 0.02 0.00 0.00 0.00 0.01 0.00 0.00
0.00 0.00 0.00 0.00 0.00 0.00 0.00 0.00 0.00 0.00 0.00 0.00 0.00 0.00 0.01 0.02 0.04 0.05 0.05 0.10 0.12 0.14 0.07 0.05 0.07 0.05 0.05 0.11 0.11 0.08 0.04 0.07 0.07 0.06 0.05 0.02 0.00 0.00 0.01 0.00 0.01 0.00 0.00
0.00 0.00 0.00 0.00 0.00 0.00 0.00 0.00 0.00 0.00 0.00 0.00 0.01 0.02 0.05 0.04 0.03 0.03 0.10 0.18 0.24 0.20 0.16 0.20 0.12 0.11 0.11 0.12 0.10 0.06 0.05 0.06 0.12 0.11 0.06 0.01 0.03 0.04 0.02 0.01 0.00 0.00 0.00
0.00 0.00 0.00 0.00 0.00 0.00 0.00 0.00 0.00 0.00 0.00 0.00 0.03 0.06 0.12 0.11 0.16 0.25 0.32 0.22 0.24 0.12 0.13 0.15 0.12 0.12 0.19 0.09 0.16 0.20 0.07 0.08 0.10 0.13 0.04 0.02 0.04 0.07 0.04 0.05 0.02 0.02 0.01
0.00 0.00 0.00 0.00 0.00 0.00 0.00 0.00 0.00 0.00 0.00 0.01 0.02 0.09 0.22 0.38 0.57 0.45 0.39 0.24 0.20 0.10 0.07 0.06 0.07 0.10 0.15 0.20 0.23 0.13 0.14 0.12 0.17 0.11 0.03 0.05 0.07 0.06 0.08 0.06 0.06 0.01 0.00
0.00 0.00 0.00 0.00 0.00 0.00 0.00 0.00 0.01 0.02 0.13 0.28 0.52 0.50 0.42 0.32 0.23 0.13 0.13 0.07 0.09 0.10 0.06 0.06 0.08 0.06 0.30 0.38 0.14 0.05 0.07 0.07 0.11 0.13 0.10 0.06 0.03 0.02 0.03 0.02 0.01 0.00 0.00
0.00 0.00 0.00 0.00 0.00 0.00 0.03 0.04 0.17 0.37 0.32 0.17 0.14 0.10 0.07 0.06 0.10 0.09 0.05 0.02 0.03 0.03 0.08 0.07 0.24 0.11 0.20 0.18 0.07 0.02 0.05 0.15 0.07 0.06 0.03 0.01 0.00 0.00 0.00 0.00 0.00 0.00 0.00
0.00 0.00 0.00 0.00 0.01 0.10 0.18 0.16 0.21 0.23 0.06 0.03 0.05 0.08 0.12 0.08 0.08 0.07 0.01 0.02 0.01 0.04 0.04 0.05 0.08 0.11 0.09 0.16 0.23 0.15 0.15 0.09 0.02 0.01 0.01 0.01 0.00 0.00 0.00 0.00 0.00 0.00 0.00
0.00 0.00 0.00 0.01 0.03 0.11 0.18 0.18 0.18 0.08 0.02 0.03 0.05 0.10 0.20 0.14 0.16 0.10 0.03 0.07 0.06 0.02 0.04 0.08 0.10 0.16 0.30 0.37 0.27 0.11 0.07 0.04 0.01 0.00 0.01 0.01 0.00 0.00 0.00 0.00 0.00 0.00 0.00
0.00 0.00 0.00 0.00 0.02 0.07 0.14 0.09 0.04 0.08 0.08 0.07 0.16 0.19 0.26 0.28 0.30 0.25 0.29 0.31 0.25 0.16 0.12 0.17 0.20 0.16 0.14 0.13 0.09 0.06 0.06 0.04 0.01 0.01 0.01 0.00 0.00 0.00 0.00 0.00 0.00 0.00 0.00
0.00 0.00 0.00 0.02 0.09 0.13 0.27 0.10 0.10 0.19 0.23 0.22 0.41 0.59 0.63 0.57 0.47 0.40 0.37 0.31 0.27 0.23 0.20 0.23 0.19 0.14 0.14 0.12 0.11 0.09 0.05 0.03 0.03 0.02 0.02 0.02 0.02 0.01 0.00 0.00 0.00 0.00 0.00
0.12 0.24 0.30 0.30 0.22 0.15 0.33 0.29 0.39 0.59 0.59 0.63 0.71 0.62 0.50 0.45 0.45 0.53 0.54 0.57 0.71 0.89 0.92 0.80 0.69 0.62 0.48 0.32 0.23 0.18 0.11 0.05 0.04 0.02 0.02 0.02 0.02 0.00 0.00 0.00 0.00 0.00 0.00
0.27 0.28 0.29 0.27 0.37 0.43 0.47 0.51 0.62 0.75 0.73 0.67 0.67 0.73 0.81 0.90 1.17 1.31 1.50 1.30 0.95 0.78 0.74 0.61 0.47 0.38 0.33 0.33 0.28 0.20 0.15 0.12 0.09 0.08 0.04 0.03 0.01 0.00 0.00 0.00 0.00 0.00 0.00
0.13 0.11 0.16 0.27 0.35 0.46 0.60 0.61 0.58 0.74 0.65 0.60 0.64 0.55 0.56 0.49 0.52 0.52 0.59 0.65 0.49 0.43 0.33 0.31 0.28 0.30 0.39 0.45 0.46 0.42 0.30 0.22 0.16 0.09 0.02 0.01 0.00 0.00 0.00 0.00 0.00 0.00 0.00
0.60 0.62 0.58 0.51 0.57 0.42 0.38 0.43 0.43 0.47 0.46 0.51 0.62 0.52 0.42 0.42 0.42 0.35 0.36 0.40 0.35 0.24 0.22 0.18 0.18 0.21 0.22 0.28 0.30 0.23 0.12 0.07 0.06 0.02 0.01 0.00 0.00 0.00 0.00 0.00 0.00 0.00 0.00
1.44 0.87 0.83 1.04 1.22 1.10 1.05 0.94 0.67 0.50 0.32 0.31 0.33 0.41 0.41 0.42 0.42 0.36 0.42 0.38 0.41 0.34 0.29 0.28 0.20 0.16 0.12 0.13 0.13 0.10 0.06 0.02 0.02 0.01 0.00 0.00 0.00 0.00 0.00 0.00 0.00 0.00 0.00
1.30 1.61 1.29 1.48 2.45 2.75 2.60 2.15 1.92 1.81 1.47 1.24 1.05 1.07 1.07 1.02 1.00 0.89 0.85 0.92 0.96 0.76 0.69 0.80 0.72 0.50 0.23 0.15 0.11 0.06 0.03 0.01 0.01 0.01 0.00 0.00 0.00 0.00 0.00 0.00 0.00 0.00 0.00
0.64 0.73 0.75 0.82 0.95 1.01 1.45 1.69 1.83 2.02 2.02 2.06 2.07 1.95 1.95 2.16 1.99 2.00 2.22 2.10 1.76 1.73 1.67 1.73 1.88 1.89 1.59 0.75 0.19 0.03 0.01 0.00 0.00 0.00 0.00 0.00 0.00 0.00 0.00 0.00 0.00 0.00 0.00
0.42 0.41 0.43 0.53 0.47 0.45 0.40 0.38 0.34 0.47 0.55 0.62 0.76 0.76 0.73 0.68 0.79 0.92 1.20 1.28 1.28 1.19 1.12 1.07 0.86 0.75 0.70 0.36 0.10 0.02 0.01 0.00 0.00 0.00 0.00 0.00 0.00 0.00 0.00 0.00 0.00 0.00 0.00
0.18 0.20 0.22 0.26 0.30 0.35 0.37 0.33 0.25 0.21 0.20 0.16 0.15 0.18 0.26 0.25 0.24 0.17 0.17 0.17 0.19 0.22 0.25 0.30 0.27 0.21 0.17 0.10 0.04 0.02 0.01 0.00 0.00 0.00 0.00 0.00 0.00 0.00 0.00 0.00 0.00 0.00 0.00
0.18 0.17 0.19 0.19 0.20 0.18 0.17 0.16 0.15 0.16 0.17 0.14 0.11 0.12 0.16 0.17 0.21 0.17 0.13 0.12 0.12 0.13 0.13 0.18 0.16 0.13 0.10 0.06 0.04 0.01 0.00 0.00 0.00 0.00 0.00 0.00 0.00 0.00 0.00 0.00 0.00 0.00 0.00
0.11 0.12 0.15 0.13 0.12 0.13 0.15 0.11 0.10 0.05 0.07 0.10 0.09 0.11 0.13 0.08 0.06 0.07 0.07 0.06 0.04 0.03 0.05 0.05 0.03 0.02 0.02 0.00 0.00 0.00 0.00 0.00 0.00 0.00 0.00 0.00 0.00 0.00 0.00 0.00 0.00 0.00 0.00
0.13 0.14 0.16 0.13 0.07 0.03 0.03 0.06 0.13 0.20 0.23 0.20 0.12 0.10 0.12 0.12 0.07 0.03 0.03 0.02 0.01 0.01 0.00 0.00 0.00 0.00 0.00 0.00 0.00 0.00 0.00 0.00 0.00 0.00 0.00 0.00 0.00 0.00 0.00 0.00 0.00 0.00 0.00

GFSGL_prec_precacc24_030.txt.gz
Total_Precipitation_Accumulation
0.00 0.00 0.00 0.00 0.00 0.00 0.00 0.00 0.00 0.00 0.00 0.00 0.00 0.00 0.00 0.00 0.00 0.00 0.00 0.00 0.00 0.00 0.00 0.00 0.00 0.00 0.00 0.00 0.00 0.00 0.00 0.00 0.00 0.00 0.00 0.00 0.00 0.00 0.00 0.00 0.00 0.00 0.00
0.00 0.00 0.00 0.00 0.00 0.00 0.00 0.00 0.00 0.00 0.00 0.00 0.00 0.00 0.00 0.00 0.00 0.00 0.00 0.00 0.00 0.00 0.00 0.00 0.00 0.00 0.00 0.00 0.00 0.00 0.00 0.01 0.01 0.00 0.00 0.00 0.00 0.00 0.00 0.00 0.00 0.00 0.00
0.00 0.00 0.00 0.00 0.00 0.00 0.00 0.00 0.00 0.00 0.00 0.00 0.00 0.00 0.00 0.01 0.00 0.00 0.00 0.00 0.00 0.04 0.02 0.00 0.00 0.00 0.00 0.00 0.00 0.00 0.00 0.01 0.01 0.02 0.00 0.01 0.00 0.00 0.01 0.00 0.00 0.00 0.00
0.00 0.00 0.00 0.00 0.00 0.00 0.00 0.00 0.00 0.00 0.00 0.00 0.00 0.00 0.01 0.01 0.03 0.04 0.05 0.04 0.02 0.10 0.05 0.02 0.01 0.00 0.00 0.00 0.00 0.01 0.01 0.04 0.06 0.02 0.03 0.04 0.02 0.00 0.00 0.00 0.02 0.00 0.00
0.00 0.00 0.00 0.00 0.00 0.00 0.00 0.00 0.00 0.00 0.00 0.00 0.00 0.00 0.01 0.02 0.04 0.05 0.05 0.10 0.12 0.14 0.07 0.05 0.07 0.03 0.00 0.01 0.03 0.04 0.01 0.03 0.04 0.04 0.03 0.01 0.00 0.00 0.00 0.00 0.00 0.00 0.00
0.00 0.00 0.00 0.00 0.00 0.00 0.00 0.00 0.00 0.00 0.00 0.00 0.00 0.02 0.04 0.04 0.03 0.03 0.10 0.18 0.24 0.20 0.16 0.20 0.11 0.07 0.03 0.03 0.06 0.06 0.04 0.04 0.10 0.09 0.04 0.00 0.03 0.02 0.00 0.00 0.00 0.00 0.01
0.00 0.00 0.00 0.00 0.00 0.00 0.00 0.00 0.00 0.00 0.00 0.00 0.00 0.04 0.12 0.11 0.16 0.25 0.32 0.22 0.24 0.12 0.12 0.13 0.12 0.08 0.10 0.08 0.15 0.20 0.07 0.07 0.08 0.12 0.03 0.01 0.01 0.03 0.01 0.04 0.02 0.02 0.02
0.00 0.00 0.00 0.00 0.00 0.00 0.00 0.00 0.00 0.00 0.00 0.01 0.01 0.08 0.22 0.38 0.57 0.45 0.39 0.24 0.20 0.10 0.05 0.04 0.06 0.09 0.12 0.18 0.22 0.13 0.13 0.10 0.11 0.07 0.01 0.04 0.04 0.04 0.08 0.07 0.07 0.01 0.00
0.00 0.00 0.00 0.00 0.00 0.00 0.00 0.00 0.00 0.01 0.12 0.27 0.51 0.49 0.42 0.32 0.22 0.12 0.12 0.07 0.09 0.10 0.05 0.03 0.04 0.05 0.21 0.31 0.13 0.05 0.06 0.05 0.10 0.08 0.07 0.05 0.07 0.05 0.03 0.02 0.01 0.00 0.00
0.00 0.00 0.00 0.00 0.00 0.00 0.03 0.04 0.17 0.37 0.31 0.17 0.14 0.08 0.05 0.05 0.09 0.07 0.05 0.02 0.03 0.02 0.04 0.03 0.06 0.09 0.17 0.17 0.07 0.02 0.02 0.13 0.06 0.05 0.02 0.01 0.01 0.02 0.02 0.00 0.00 0.00 0.00
0.00 0.00 0.00 0.00 0.01 0.10 0.18 0.16 0.21 0.23 0.06 0.03 0.05 0.07 0.10 0.04 0.04 0.06 0.01 0.02 0.01 0.02 0.02 0.02 0.05 0.07 0.08 0.15 0.23 0.15 0.13 0.08 0.01 0.01 0.01 0.01 0.01 0.01 0.02 0.02 0.00 0.00 0.00
0.00 0.00 0.00 0.00 0.03 0.11 0.17 0.18 0.18 0.08 0.02 0.03 0.05 0.08 0.14 0.06 0.12 0.10 0.03 0.06 0.06 0.02 0.03 0.05 0.05 0.13 0.21 0.34 0.27 0.11 0.07 0.04 0.02 0.01 0.02 0.01 0.02 0.01 0.01 0.01 0.00 0.00 0.00
0.00 0.00 0.00 0.00 0.02 0.06 0.13 0.09 0.04 0.08 0.08 0.06 0.14 0.15 0.22 0.24 0.27 0.25 0.27 0.30 0.24 0.16 0.12 0.13 0.16 0.14 0.12 0.12 0.09 0.06 0.07 0.06 0.04 0.03 0.02 0.01 0.01 0.01 0.01 0.01 0.00 0.00 0.00
0.00 0.00 0.00 0.02 0.08 0.12 0.26 0.10 0.10 0.19 0.23 0.21 0.37 0.52 0.57 0.51 0.46 0.39 0.35 0.29 0.26 0.23 0.20 0.22 0.18 0.15 0.15 0.13 0.11 0.09 0.09 0.07 0.07 0.06 0.05 0.04 0.03 0.02 0.02 0.01 0.00 0.00 0.00
0.12 0.24 0.30 0.30 0.21 0.15 0.32 0.29 0.38 0.57 0.57 0.60 0.66 0.58 0.49 0.44 0.43 0.51 0.53 0.57 0.71 0.89 0.95 0.81 0.70 0.65 0.53 0.35 0.23 0.19 0.13 0.09 0.08 0.05 0.06 0.06 0.06 0.05 0.03 0.01 0.00 0.00 0.00
0.27 0.27 0.28 0.26 0.35 0.42 0.47 0.51 0.62 0.74 0.74 0.66 0.65 0.73 0.79 0.89 1.16 1.30 1.50 1.31 0.95 0.78 0.76 0.61 0.47 0.38 0.34 0.33 0.29 0.22 0.18 0.18 0.16 0.17 0.15 0.12 0.09 0.06 0.07 0.06 0.03 0.00 0.00
0.12 0.10 0.15 0.27 0.34 0.46 0.60 0.61 0.58 0.74 0.66 0.60 0.64 0.55 0.56 0.49 0.52 0.52 0.59 0.65 0.49 0.43 0.33 0.31 0.28 0.31 0.39 0.45 0.47 0.46 0.38 0.38 0.43 0.44 0.45 0.47 0.46 0.34 0.15 0.04 0.00 0.00 0.00
0.60 0.62 0.58 0.50 0.56 0.41 0.36 0.43 0.43 0.47 0.46 0.51 0.62 0.52 0.42 0.42 0.42 0.35 0.36 0.40 0.35 0.24 0.22 0.20 0.20 0.23 0.24 0.30 0.33 0.30 0.29 0.34 0.45 0.52 0.58 0.58 0.53 0.31 0.07 0.01 0.00 0.00 0.00
1.43 0.87 0.83 1.03 1.19 1.08 1.05 0.94 0.67 0.50 0.31 0.31 0.33 0.41 0.41 0.42 0.42 0.36 0.42 0.38 0.41 0.35 0.31 0.33 0.31 0.29 0.25 0.26 0.28 0.31 0.28 0.20 0.22 0.24 0.26 0.24 0.12 0.07 0.05 0.02 0.00 0.00 0.00
1.30 1.61 1.29 1.48 2.45 2.74 2.60 2.15 1.92 1.81 1.46 1.24 1.05 1.07 1.07 1.02 1.00 0.89 0.85 0.92 0.97 0.78 0.70 0.82 0.81 0.71 0.64 0.67 0.65 0.62 0.64 0.67 0.59 0.54 0.47 0.34 0.07 0.02 0.00 0.00 0.00 0.00 0.00
0.64 0.73 0.75 0.82 0.95 1.01 1.45 1.69 1.83 2.02 2.02 2.06 2.06 1.95 1.95 2.16 1.99 2.00 2.22 2.10 1.76 1.73 1.68 1.74 1.89 1.98 2.04 2.09 2.12 2.08 2.09 2.21 2.20 1.76 1.10 0.44 0.07 0.00 0.00 0.00 0.00 0.00 0.00
0.42 0.41 0.43 0.53 0.47 0.45 0.40 0.38 0.35 0.47 0.55 0.62 0.76 0.76 0.73 0.68 0.79 0.93 1.20 1.28 1.28 1.19 1.13 1.07 0.87 0.79 0.89 1.02 1.09 1.09 1.07 1.05 0.91 0.63 0.33 0.11 0.03 0.01 0.00 0.00 0.00 0.00 0.00
0.16 0.19 0.21 0.25 0.29 0.35 0.37 0.33 0.25 0.21 0.20 0.16 0.15 0.18 0.27 0.26 0.24 0.18 0.18 0.18 0.20 0.23 0.27 0.32 0.30 0.26 0.23 0.21 0.16 0.16 0.18 0.13 0.12 0.10 0.05 0.02 0.01 0.00 0.00 0.00 0.00 0.00 0.00
0.16 0.16 0.17 0.19 0.19 0.18 0.17 0.16 0.15 0.16 0.17 0.14 0.11 0.12 0.16 0.18 0.21 0.17 0.14 0.13 0.13 0.15 0.16 0.21 0.19 0.20 0.14 0.11 0.08 0.07 0.06 0.05 0.06 0.06 0.03 0.01 0.00 0.00 0.00 0.00 0.00 0.00 0.00
0.07 0.09 0.14 0.12 0.10 0.11 0.15 0.11 0.10 0.05 0.07 0.10 0.09 0.11 0.13 0.08 0.06 0.08 0.08 0.07 0.04 0.03 0.05 0.07 0.05 0.05 0.07 0.05 0.04 0.03 0.03 0.01 0.00 0.00 0.00 0.00 0.00 0.00 0.00 0.00 0.00 0.00 0.00
0.10 0.11 0.15 0.12 0.06 0.03 0.02 0.06 0.13 0.20 0.23 0.20 0.12 0.10 0.12 0.12 0.07 0.03 0.03 0.02 0.01 0.01 0.00 0.00 0.00 0.00 0.03 0.01 0.00 0.00 0.00 0.00 0.00 0.00 0.00 0.00 0.00 0.00 0.00 0.00 0.00 0.00 0.00

GFSGL_prec_precacc24_036.txt.gz
Total_Precipitation_Accumulation
0.00 0.00 0.00 0.00 0.00 0.00 0.00 0.00 0.00 0.00 0.00 0.00 0.00 0.00 0.00 0.00 0.00 0.00 0.00 0.00 0.00 0.00 0.00 0.00 0.00 0.00 0.00 0.00 0.00 0.00 0.00 0.00 0.00 0.00 0.00 0.00 0.00 0.00 0.00 0.00 0.00 0.00 0.00
0.00 0.00 0.00 0.00 0.00 0.00 0.00 0.00 0.00 0.00 0.00 0.00 0.00 0.00 0.00 0.00 0.00 0.00 0.00 0.00 0.00 0.00 0.00 0.00 0.00 0.00 0.00 0.00 0.00 0.00 0.00 0.00 0.00 0.00 0.00 0.00 0.00 0.00 0.00 0.00 0.00 0.00 0.00
0.00 0.00 0.00 0.00 0.00 0.00 0.00 0.00 0.00 0.00 0.00 0.00 0.00 0.00 0.00 0.01 0.00 0.00 0.00 0.00 0.00 0.04 0.02 0.00 0.00 0.00 0.00 0.00 0.00 0.00 0.00 0.00 0.00 0.00 0.00 0.00 0.00 0.00 0.01 0.00 0.00 0.00 0.00
0.00 0.00 0.00 0.00 0.00 0.00 0.00 0.00 0.00 0.00 0.00 0.00 0.00 0.00 0.01 0.01 0.01 0.03 0.04 0.04 0.02 0.10 0.05 0.02 0.01 0.00 0.00 0.00 0.00 0.00 0.00 0.02 0.01 0.00 0.00 0.02 0.01 0.00 0.00 0.00 0.02 0.00 0.00
0.00 0.00 0.00 0.00 0.00 0.00 0.00 0.00 0.00 0.00 0.00 0.00 0.00 0.00 0.00 0.00 0.02 0.03 0.04 0.08 0.12 0.14 0.07 0.05 0.07 0.03 0.00 0.00 0.00 0.00 0.00 0.00 0.01 0.02 0.03 0.01 0.00 0.00 0.00 0.00 0.00 0.00 0.00
0.00 0.00 0.00 0.00 0.00 0.00 0.00 0.00 0.00 0.00 0.00 0.00 0.00 0.00 0.00 0.00 0.00 0.01 0.06 0.16 0.20 0.19 0.16 0.20 0.11 0.07 0.02 0.00 0.00 0.02 0.03 0.03 0.07 0.03 0.04 0.00 0.03 0.02 0.00 0.00 0.00 0.00 0.01
0.00 0.00 0.00 0.00 0.00 0.00 0.00 0.00 0.00 0.00 0.00 0.00 0.00 0.00 0.00 0.00 0.05 0.11 0.18 0.18 0.18 0.11 0.12 0.11 0.11 0.05 0.04 0.03 0.04 0.04 0.03 0.06 0.07 0.08 0.03 0.01 0.01 0.03 0.01 0.04 0.02 0.02 0.02
0.00 0.00 0.00 0.00 0.00 0.00 0.00 0.00 0.00 0.00 0.00 0.00 0.00 0.00 0.00 0.09 0.29 0.36 0.32 0.19 0.18 0.10 0.04 0.02 0.02 0.02 0.02 0.08 0.07 0.02 0.06 0.04 0.05 0.03 0.00 0.04 0.04 0.03 0.06 0.07 0.07 0.02 0.00
0.00 0.00 0.00 0.00 0.00 0.00 0.00 0.00 0.00 0.00 0.00 0.00 0.00 0.00 0.01 0.05 0.11 0.06 0.09 0.05 0.08 0.09 0.04 0.01 0.00 0.01 0.07 0.12 0.03 0.02 0.04 0.03 0.07 0.06 0.01 0.01 0.05 0.05 0.02 0.01 0.01 0.01 0.01
0.00 0.00 0.00 0.00 0.00 0.00 0.00 0.00 0.00 0.00 0.00 0.00 0.00 0.00 0.00 0.00 0.01 0.02 0.03 0.02 0.03 0.02 0.03 0.02 0.04 0.06 0.07 0.06 0.02 0.00 0.01 0.02 0.04 0.03 0.01 0.01 0.01 0.02 0.02 0.00 0.01 0.01 0.01
0.00 0.00 0.00 0.00 0.00 0.00 0.00 0.00 0.00 0.00 0.00 0.00 0.00 0.03 0.06 0.02 0.02 0.05 0.01 0.03 0.02 0.03 0.02 0.00 0.05 0.05 0.03 0.08 0.11 0.02 0.05 0.05 0.02 0.01 0.02 0.02 0.02 0.03 0.03 0.03 0.02 0.02 0.02
0.00 0.00 0.00 0.00 0.00 0.00 0.00 0.00 0.00 0.01 0.01 0.01 0.02 0.06 0.12 0.05 0.12 0.10 0.03 0.07 0.07 0.04 0.03 0.03 0.02 0.07 0.05 0.15 0.13 0.06 0.06 0.05 0.04 0.03 0.03 0.02 0.05 0.09 0.07 0.09 0.16 0.11 0.04
0.00 0.00 0.00 0.00 0.00 0.00 0.00 0.00 0.01 0.03 0.03 0.03 0.13 0.14 0.23 0.25 0.29 0.25 0.27 0.30 0.24 0.17 0.12 0.12 0.09 0.07 0.09 0.11 0.09 0.06 0.07 0.10 0.09 0.06 0.04 0.02 0.04 0.11 0.11 0.11 0.20 0.21 0.15
0.00 0.00 0.00 0.00 0.00 0.00 0.00 0.00 0.02 0.12 0.21 0.21 0.39 0.54 0.58 0.52 0.47 0.38 0.35 0.28 0.26 0.23 0.19 0.21 0.16 0.14 0.16 0.13 0.12 0.10 0.10 0.09 0.11 0.10 0.09 0.09 0.12 0.14 0.10 0.12 0.17 0.25 0.25
0.00 0.00 0.00 0.00 0.00 0.00 0.00 0.04 0.17 0.42 0.52 0.60 0.68 0.59 0.48 0.44 0.43 0.52 0.54 0.58 0.71 0.90 0.95 0.81 0.70 0.67 0.54 0.36 0.25 0.20 0.16 0.12 0.12 0.12 0.23 0.36 0.37 0.28 0.19 0.17 0.20 0.25 0.27
0.00 0.00 0.00 0.00 0.02 0.10 0.20 0.35 0.57 0.73 0.74 0.66 0.65 0.73 0.78 0.89 1.17 1.31 1.52 1.33 0.97 0.79 0.77 0.61 0.47 0.38 0.34 0.34 0.31 0.25 0.22 0.24 0.23 0.37 0.52 0.53 0.50 0.42 0.34 0.26 0.23 0.21 0.22
0.05 0.04 0.07 0.07 0.13 0.26 0.39 0.42 0.56 0.74 0.66 0.60 0.65 0.55 0.57 0.49 0.51 0.52 0.60 0.66 0.51 0.44 0.33 0.31 0.28 0.31 0.40 0.47 0.51 0.52 0.46 0.47 0.58 0.66 0.69 0.74 0.78 0.76 0.74 0.64 0.62 0.60 0.61
0.48 0.45 0.49 0.45 0.54 0.41 0.37 0.43 0.43 0.46 0.46 0.51 0.62 0.53 0.43 0.43 0.42 0.35 0.37 0.41 0.35 0.24 0.22 0.20 0.20 0.23 0.27 0.34 0.38 0.35 0.35 0.43 0.58 0.70 0.83 0.90 0.95 0.90 0.86 0.83 0.79 0.86 0.88
1.36 0.79 0.79 1.01 1.12 0.99 1.00 0.92 0.67 0.51 0.33 0.33 0.34 0.42 0.43 0.43 0.43 0.37 0.42 0.38 0.41 0.35 0.31 0.33 0.31 0.29 0.26 0.28 0.31 0.36 0.38 0.33 0.37 0.44 0.56 0.65 0.66 0.64 0.70 0.74 0.97 1.39 1.87
1.26 1.49 1.19 1.34 2.21 2.53 2.39 2.02 1.86 1.80 1.47 1.26 1.05 1.08 1.08 1.03 1.00 0.89 0.85 0.92 0.97 0.78 0.70 0.82 0.81 0.71 0.64 0.67 0.65 0.62 0.67 0.80 0.93 1.13 1.37 1.88 2.58 2.94 3.02 2.90 2.91 2.93 2.87
0.40 0.55 0.54 0.63 0.79 0.90 1.35 1.56 1.73 1.93 1.94 2.02 2.05 1.95 1.95 2.16 1.99 2.00 2.22 2.10 1.76 1.73 1.68 1.74 1.89 1.98 2.04 2.09 2.12 2.10 2.15 2.34 2.71 2.99 3.12 2.94 2.49 1.92 1.46 1.28 1.27 1.24 1.11
0.35 0.33 0.35 0.41 0.35 0.35 0.31 0.31 0.30 0.42 0.49 0.57 0.74 0.76 0.73 0.68 0.79 0.93 1.20 1.28 1.29 1.19 1.13 1.08 0.88 0.79 0.89 1.02 1.10 1.10 1.08 1.13 1.06 0.92 0.87 0.87 0.85 0.76 0.64 0.65 0.57 0.47 0.40
0.02 0.08 0.10 0.13 0.16 0.20 0.21 0.21 0.20 0.18 0.18 0.14 0.12 0.17 0.27 0.26 0.24 0.18 0.18 0.18 0.21 0.23 0.28 0.33 0.30 0.26 0.24 0.22 0.17 0.17 0.18 0.14 0.13 0.14 0.15 0.18 0.21 0.18 0.14 0.18 0.12 0.06 0.05
0.02 0.02 0.04 0.06 0.07 0.10 0.11 0.11 0.12 0.15 0.16 0.14 0.11 0.12 0.16 0.18 0.21 0.17 0.14 0.13 0.14 0.15 0.16 0.21 0.20 0.20 0.15 0.11 0.09 0.08 0.06 0.06 0.07 0.07 0.04 0.02 0.05 0.08 0.04 0.03 0.00 0.00 0.00
0.01 0.02 0.02 0.02 0.04 0.07 0.09 0.07 0.07 0.04 0.07 0.09 0.09 0.11 0.13 0.08 0.06 0.08 0.08 0.07 0.04 0.03 0.05 0.07 0.06 0.05 0.07 0.05 0.05 0.03 0.03 0.03 0.02 0.01 0.00 0.00 0.00 0.00 0.00 0.00 0.00 0.00 0.00
0.04 0.04 0.05 0.04 0.03 0.01 0.02 0.05 0.13 0.20 0.23 0.20 0.12 0.10 0.12 0.12 0.07 0.03 0.03 0.02 0.01 0.01 0.00 0.00 0.00 0.01 0.04 0.03 0.03 0.00 0.00 0.00 0.00 0.00 0.00 0.00 0.00 0.00 0.00 0.00 0.00 0.00 0.00

GFSGL_prec_precacc24_039.txt.gz
Total_Precipitation_Accumulation
0.00 0.00 0.00 0.00 0.00 0.00 0.00 0.00 0.00 0.00 0.00 0.00 0.00 0.00 0.00 0.00 0.00 0.00 0.00 0.00 0.00 0.00 0.00 0.00 0.00 0.00 0.00 0.00 0.00 0.00 0.00 0.00 0.00 0.00 0.00 0.00 0.00 0.00 0.00 0.00 0.00 0.00 0.00
0.00 0.00 0.00 0.00 0.00 0.00 0.00 0.00 0.00 0.00 0.00 0.00 0.00 0.00 0.00 0.00 0.00 0.00 0.00 0.00 0.00 0.00 0.00 0.00 0.00 0.00 0.00 0.00 0.00 0.00 0.00 0.00 0.00 0.00 0.00 0.00 0.00 0.00 0.00 0.00 0.00 0.00 0.00
0.00 0.00 0.00 0.00 0.00 0.00 0.00 0.00 0.00 0.00 0.00 0.00 0.00 0.00 0.00 0.00 0.00 0.00 0.00 0.00 0.00 0.04 0.02 0.00 0.00 0.00 0.00 0.00 0.00 0.00 0.00 0.00 0.00 0.00 0.00 0.00 0.00 0.00 0.01 0.00 0.00 0.00 0.00
0.00 0.00 0.00 0.00 0.00 0.00 0.00 0.00 0.00 0.00 0.00 0.00 0.00 0.00 0.00 0.00 0.00 0.00 0.00 0.01 0.01 0.07 0.04 0.02 0.01 0.00 0.00 0.00 0.00 0.00 0.00 0.00 0.00 0.00 0.00 0.01 0.01 0.00 0.00 0.00 0.02 0.00 0.00
0.00 0.00 0.00 0.00 0.00 0.00 0.00 0.00 0.00 0.00 0.00 0.00 0.00 0.00 0.00 0.00 0.00 0.00 0.00 0.01 0.02 0.06 0.04 0.04 0.07 0.03 0.00 0.00 0.00 0.00 0.00 0.00 0.00 0.00 0.00 0.00 0.00 0.00 0.00 0.00 0.00 0.00 0.00
0.00 0.00 0.00 0.00 0.00 0.00 0.00 0.00 0.00 0.00 0.00 0.00 0.00 0.00 0.00 0.00 0.00 0.00 0.00 0.00 0.01 0.02 0.06 0.12 0.11 0.07 0.02 0.00 0.00 0.00 0.02 0.00 0.00 0.00 0.00 0.00 0.02 0.02 0.00 0.00 0.00 0.00 0.01
0.00 0.00 0.00 0.00 0.00 0.00 0.00 0.00 0.00 0.00 0.00 0.00 0.00 0.00 0.00 0.00 0.00 0.00 0.00 0.00 0.00 0.01 0.04 0.06 0.10 0.05 0.04 0.02 0.02 0.01 0.02 0.02 0.01 0.00 0.00 0.01 0.01 0.03 0.01 0.04 0.02 0.02 0.02
0.00 0.00 0.00 0.00 0.00 0.00 0.00 0.00 0.00 0.00 0.00 0.00 0.00 0.00 0.00 0.00 0.00 0.00 0.00 0.00 0.00 0.02 0.01 0.01 0.02 0.02 0.02 0.04 0.04 0.01 0.04 0.02 0.04 0.01 0.00 0.04 0.04 0.03 0.06 0.07 0.07 0.02 0.00
0.00 0.00 0.00 0.00 0.00 0.00 0.00 0.00 0.00 0.00 0.00 0.00 0.00 0.00 0.00 0.00 0.00 0.00 0.00 0.00 0.01 0.03 0.02 0.01 0.00 0.00 0.03 0.05 0.01 0.01 0.03 0.03 0.07 0.05 0.01 0.01 0.04 0.04 0.02 0.01 0.02 0.02 0.01
0.00 0.00 0.00 0.00 0.00 0.00 0.00 0.00 0.00 0.00 0.00 0.00 0.00 0.00 0.00 0.00 0.00 0.00 0.00 0.00 0.00 0.01 0.03 0.02 0.04 0.06 0.05 0.04 0.02 0.00 0.01 0.01 0.02 0.02 0.04 0.03 0.03 0.02 0.02 0.00 0.08 0.05 0.02
0.00 0.00 0.00 0.00 0.00 0.00 0.00 0.00 0.00 0.00 0.00 0.00 0.00 0.00 0.00 0.00 0.01 0.04 0.00 0.01 0.01 0.03 0.02 0.00 0.05 0.05 0.03 0.08 0.11 0.02 0.04 0.04 0.05 0.02 0.02 0.02 0.07 0.09 0.06 0.04 0.16 0.22 0.12
0.00 0.00 0.00 0.00 0.00 0.00 0.00 0.00 0.00 0.01 0.01 0.01 0.01 0.01 0.00 0.01 0.07 0.09 0.02 0.07 0.07 0.05 0.04 0.04 0.02 0.07 0.05 0.15 0.13 0.06 0.06 0.06 0.06 0.07 0.07 0.03 0.05 0.09 0.08 0.10 0.22 0.25 0.22
0.00 0.00 0.00 0.00 0.00 0.00 0.00 0.00 0.01 0.02 0.02 0.02 0.02 0.03 0.07 0.14 0.22 0.24 0.27 0.30 0.24 0.18 0.14 0.12 0.09 0.07 0.08 0.11 0.09 0.07 0.09 0.12 0.14 0.11 0.08 0.04 0.05 0.12 0.12 0.11 0.20 0.24 0.20
0.00 0.00 0.00 0.00 0.00 0.00 0.00 0.00 0.00 0.01 0.02 0.04 0.07 0.20 0.30 0.35 0.41 0.39 0.36 0.29 0.27 0.25 0.21 0.23 0.17 0.15 0.17 0.15 0.13 0.11 0.10 0.10 0.14 0.12 0.11 0.12 0.15 0.18 0.14 0.14 0.20 0.29 0.31
0.00 0.00 0.00 0.00 0.00 0.00 0.00 0.01 0.01 0.01 0.07 0.16 0.22 0.27 0.34 0.41 0.43 0.52 0.54 0.58 0.72 0.92 0.96 0.82 0.71 0.67 0.55 0.36 0.25 0.20 0.16 0.13 0.13 0.13 0.24 0.37 0.38 0.30 0.23 0.21 0.24 0.31 0.37
0.00 0.00 0.00 0.00 0.00 0.00 0.00 0.01 0.06 0.11 0.24 0.31 0.35 0.48 0.67 0.85 1.16 1.31 1.52 1.33 0.97 0.80 0.77 0.62 0.48 0.38 0.34 0.34 0.31 0.25 0.22 0.25 0.23 0.37 0.53 0.54 0.51 0.43 0.36 0.32 0.32 0.31 0.30
0.00 0.00 0.00 0.00 0.00 0.00 0.01 0.02 0.06 0.26 0.29 0.37 0.51 0.49 0.56 0.49 0.51 0.52 0.60 0.66 0.51 0.45 0.34 0.32 0.28 0.31 0.40 0.47 0.51 0.52 0.46 0.47 0.58 0.66 0.69 0.74 0.78 0.76 0.76 0.67 0.68 0.70 0.68
0.00 0.03 0.08 0.06 0.04 0.08 0.11 0.18 0.20 0.23 0.24 0.34 0.57 0.52 0.43 0.43 0.42 0.35 0.37 0.41 0.36 0.24 0.22 0.20 0.20 0.23 0.27 0.34 0.38 0.35 0.35 0.43 0.58 0.70 0.83 0.90 0.95 0.91 0.87 0.83 0.79 0.87 0.93
0.05 0.04 0.17 0.43 0.72 0.64 0.64 0.69 0.62 0.48 0.31 0.31 0.34 0.42 0.43 0.44 0.42 0.37 0.43 0.38 0.41 0.35 0.31 0.33 0.31 0.29 0.26 0.28 0.31 0.36 0.38 0.33 0.37 0.44 0.56 0.65 0.66 0.64 0.70 0.74 0.97 1.39 1.88
0.19 0.52 0.68 1.03 2.11 2.44 2.27 1.97 1.86 1.78 1.46 1.26 1.06 1.08 1.08 1.04 1.00 0.88 0.85 0.92 0.97 0.78 0.70 0.82 0.81 0.71 0.64 0.67 0.65 0.62 0.67 0.80 0.93 1.13 1.37 1.88 2.58 2.94 3.02 2.90 2.91 2.94 2.87
0.09 0.30 0.36 0.51 0.76 0.85 1.28 1.55 1.73 1.94 1.95 2.02 2.04 1.95 1.96 2.17 2.00 2.00 2.22 2.10 1.76 1.73 1.68 1.74 1.89 1.98 2.04 2.09 2.12 2.10 2.15 2.34 2.71 2.99 3.12 2.94 2.49 1.92 1.46 1.28 1.27 1.24 1.11
0.21 0.28 0.28 0.29 0.25 0.23 0.22 0.27 0.29 0.41 0.49 0.58 0.73 0.77 0.74 0.68 0.79 0.93 1.20 1.28 1.29 1.19 1.13 1.08 0.88 0.79 0.89 1.02 1.10 1.10 1.09 1.13 1.06 0.92 0.87 0.87 0.85 0.76 0.64 0.65 0.57 0.47 0.40
0.01 0.07 0.09 0.12 0.14 0.17 0.16 0.16 0.16 0.14 0.14 0.13 0.12 0.17 0.27 0.26 0.24 0.18 0.18 0.18 0.21 0.23 0.28 0.33 0.30 0.26 0.24 0.22 0.17 0.17 0.19 0.14 0.13 0.15 0.15 0.18 0.21 0.18 0.14 0.18 0.12 0.06 0.05
0.01 0.00 0.00 0.01 0.04 0.08 0.07 0.05 0.06 0.07 0.07 0.09 0.10 0.11 0.16 0.18 0.21 0.17 0.14 0.13 0.14 0.15 0.16 0.21 0.20 0.20 0.15 0.11 0.09 0.08 0.06 0.06 0.07 0.07 0.04 0.02 0.05 0.09 0.04 0.03 0.00 0.00 0.00
0.00 0.00 0.00 0.01 0.02 0.06 0.08 0.06 0.06 0.04 0.04 0.06 0.08 0.10 0.12 0.08 0.06 0.08 0.08 0.07 0.04 0.03 0.05 0.07 0.06 0.05 0.07 0.05 0.05 0.03 0.04 0.03 0.03 0.01 0.00 0.00 0.00 0.00 0.00 0.00 0.00 0.00 0.00
0.04 0.03 0.02 0.02 0.02 0.01 0.02 0.05 0.12 0.19 0.21 0.19 0.11 0.08 0.11 0.12 0.07 0.03 0.03 0.02 0.01 0.01 0.00 0.00 0.00 0.01 0.04 0.03 0.03 0.02 0.01 0.01 0.00 0.00 0.00 0.00 0.00 0.00 0.00 0.00 0.00 0.00 0.00

GFSGL_prec_precacc24_042.txt.gz
Total_Precipitation_Accumulation
0.00 0.00 0.00 0.00 0.00 0.00 0.00 0.00 0.00 0.00 0.00 0.00 0.00 0.00 0.00 0.00 0.00 0.00 0.00 0.00 0.00 0.00 0.00 0.00 0.00 0.00 0.00 0.00 0.00 0.00 0.00 0.00 0.00 0.00 0.00 0.00 0.00 0.00 0.00 0.00 0.00 0.00 0.00
0.00 0.00 0.00 0.00 0.00 0.00 0.00 0.00 0.00 0.00 0.00 0.00 0.00 0.00 0.00 0.00 0.00 0.00 0.00 0.00 0.00 0.00 0.00 0.00 0.00 0.00 0.00 0.00 0.00 0.00 0.00 0.00 0.00 0.00 0.00 0.00 0.00 0.00 0.00 0.00 0.00 0.00 0.00
0.00 0.00 0.00 0.00 0.00 0.00 0.00 0.00 0.00 0.00 0.00 0.00 0.00 0.00 0.00 0.00 0.00 0.00 0.00 0.00 0.00 0.00 0.00 0.00 0.00 0.00 0.00 0.00 0.00 0.00 0.00 0.00 0.00 0.00 0.00 0.00 0.00 0.00 0.01 0.00 0.00 0.00 0.00
0.00 0.00 0.00 0.00 0.00 0.00 0.00 0.00 0.00 0.00 0.00 0.00 0.00 0.00 0.00 0.00 0.00 0.00 0.00 0.00 0.00 0.00 0.00 0.00 0.00 0.00 0.00 0.00 0.00 0.00 0.00 0.00 0.00 0.00 0.00 0.00 0.00 0.00 0.00 0.00 0.02 0.00 0.00
0.00 0.00 0.00 0.00 0.00 0.00 0.00 0.00 0.00 0.00 0.00 0.00 0.00 0.00 0.00 0.00 0.00 0.00 0.00 0.00 0.00 0.00 0.00 0.00 0.01 0.01 0.00 0.00 0.00 0.00 0.00 0.00 0.00 0.00 0.00 0.00 0.00 0.00 0.00 0.00 0.00 0.00 0.00
0.00 0.00 0.00 0.00 0.00 0.00 0.00 0.00 0.00 0.00 0.00 0.00 0.00 0.00 0.00 0.00 0.00 0.00 0.00 0.00 0.00 0.00 0.00 0.00 0.00 0.00 0.01 0.00 0.00 0.00 0.00 0.00 0.00 0.00 0.00 0.00 0.02 0.02 0.00 0.00 0.00 0.00 0.01
0.00 0.00 0.00 0.00 0.00 0.00 0.00 0.00 0.00 0.00 0.00 0.00 0.00 0.00 0.00 0.00 0.00 0.00 0.00 0.00 0.00 0.00 0.00 0.00 0.00 0.00 0.02 0.02 0.02 0.01 0.00 0.01 0.01 0.00 0.00 0.01 0.01 0.03 0.01 0.04 0.02 0.02 0.02
0.00 0.00 0.00 0.00 0.00 0.00 0.00 0.00 0.00 0.00 0.00 0.00 0.00 0.00 0.00 0.00 0.00 0.00 0.00 0.00 0.00 0.00 0.00 0.00 0.00 0.00 0.01 0.04 0.04 0.01 0.04 0.02 0.04 0.01 0.00 0.04 0.04 0.03 0.06 0.07 0.07 0.02 0.00
0.00 0.00 0.00 0.00 0.00 0.00 0.00 0.00 0.00 0.00 0.00 0.00 0.00 0.00 0.00 0.00 0.00 0.00 0.00 0.00 0.00 0.00 0.00 0.00 0.00 0.00 0.03 0.05 0.01 0.01 0.03 0.02 0.06 0.05 0.01 0.01 0.04 0.04 0.02 0.02 0.03 0.03 0.01
0.00 0.00 0.00 0.00 0.00 0.00 0.00 0.00 0.00 0.00 0.00 0.00 0.00 0.00 0.00 0.00 0.00 0.00 0.00 0.00 0.00 0.00 0.01 0.01 0.04 0.06 0.05 0.04 0.02 0.01 0.01 0.02 0.03 0.04 0.05 0.04 0.03 0.04 0.03 0.02 0.12 0.10 0.04
0.00 0.00 0.00 0.00 0.00 0.00 0.00 0.00 0.00 0.00 0.00 0.00 0.00 0.00 0.00 0.00 0.00 0.00 0.00 0.01 0.01 0.01 0.01 0.00 0.05 0.05 0.03 0.08 0.12 0.02 0.04 0.05 0.06 0.04 0.03 0.03 0.07 0.10 0.08 0.06 0.18 0.27 0.17
0.00 0.00 0.00 0.00 0.00 0.00 0.00 0.00 0.00 0.01 0.01 0.01 0.01 0.01 0.00 0.00 0.00 0.00 0.00 0.01 0.04 0.05 0.04 0.04 0.03 0.07 0.05 0.15 0.13 0.08 0.07 0.07 0.08 0.10 0.10 0.04 0.06 0.09 0.08 0.11 0.23 0.27 0.24
0.00 0.00 0.00 0.00 0.00 0.00 0.00 0.00 0.01 0.02 0.02 0.01 0.01 0.01 0.01 0.01 0.02 0.01 0.01 0.07 0.16 0.16 0.13 0.13 0.10 0.07 0.09 0.11 0.10 0.08 0.10 0.16 0.20 0.16 0.11 0.04 0.06 0.13 0.13 0.13 0.22 0.26 0.22
0.00 0.00 0.00 0.00 0.00 0.00 0.00 0.00 0.00 0.01 0.02 0.02 0.02 0.04 0.04 0.03 0.04 0.08 0.15 0.22 0.26 0.26 0.22 0.24 0.18 0.16 0.18 0.16 0.14 0.13 0.13 0.15 0.15 0.12 0.12 0.12 0.16 0.19 0.15 0.15 0.21 0.30 0.33
0.00 0.00 0.00 0.00 0.00 0.00 0.00 0.00 0.00 0.00 0.01 0.01 0.02 0.02 0.04 0.07 0.10 0.24 0.34 0.51 0.72 0.93 0.98 0.83 0.72 0.70 0.57 0.38 0.26 0.22 0.17 0.13 0.13 0.14 0.24 0.37 0.38 0.30 0.23 0.21 0.24 0.32 0.39
0.00 0.00 0.00 0.00 0.00 0.00 0.00 0.00 0.01 0.01 0.03 0.02 0.02 0.04 0.10 0.09 0.19 0.37 0.95 1.12 0.91 0.80 0.77 0.62 0.49 0.40 0.36 0.35 0.31 0.25 0.22 0.25 0.23 0.37 0.53 0.54 0.51 0.43 0.36 0.32 0.32 0.32 0.31
0.00 0.00 0.00 0.00 0.00 0.00 0.00 0.01 0.01 0.03 0.05 0.04 0.05 0.09 0.17 0.14 0.21 0.37 0.52 0.60 0.49 0.45 0.34 0.32 0.29 0.31 0.40 0.47 0.51 0.52 0.46 0.47 0.58 0.66 0.69 0.74 0.78 0.76 0.76 0.67 0.68 0.70 0.68
0.00 0.00 0.00 0.01 0.01 0.03 0.04 0.03 0.02 0.02 0.05 0.14 0.23 0.25 0.24 0.27 0.29 0.27 0.34 0.40 0.36 0.25 0.23 0.20 0.20 0.23 0.27 0.34 0.38 0.35 0.35 0.43 0.58 0.70 0.83 0.90 0.95 0.91 0.87 0.83 0.79 0.87 0.93
0.00 0.00 0.00 0.02 0.03 0.13 0.19 0.22 0.25 0.21 0.15 0.18 0.25 0.35 0.38 0.40 0.38 0.34 0.40 0.36 0.40 0.35 0.31 0.33 0.31 0.29 0.26 0.28 0.31 0.36 0.38 0.33 0.37 0.44 0.56 0.65 0.66 0.64 0.70 0.74 0.97 1.40 1.88
0.00 0.00 0.00 0.00 0.00 0.20 1.03 1.28 1.21 1.04 0.90 0.91 0.91 1.02 1.04 1.01 0.99 0.87 0.84 0.90 0.96 0.78 0.71 0.83 0.82 0.71 0.65 0.67 0.66 0.63 0.68 0.81 0.93 1.13 1.37 1.88 2.58 2.94 3.02 2.90 2.91 2.94 2.88
0.00 0.00 0.00 0.00 0.01 0.10 0.65 1.19 1.50 1.66 1.68 1.82 1.90 1.91 1.96 2.16 1.98 1.98 2.22 2.10 1.76 1.73 1.68 1.74 1.89 1.98 2.04 2.09 2.12 2.11 2.16 2.35 2.71 2.99 3.12 2.94 2.49 1.92 1.46 1.28 1.27 1.24 1.11
0.00 0.00 0.00 0.00 0.00 0.00 0.02 0.09 0.16 0.28 0.36 0.47 0.65 0.73 0.72 0.66 0.77 0.92 1.19 1.28 1.29 1.19 1.13 1.08 0.88 0.79 0.89 1.02 1.10 1.10 1.09 1.13 1.06 0.92 0.87 0.87 0.85 0.76 0.64 0.65 0.57 0.47 0.40
0.00 0.00 0.00 0.01 0.01 0.01 0.02 0.03 0.05 0.04 0.05 0.07 0.08 0.14 0.22 0.21 0.22 0.18 0.16 0.17 0.20 0.23 0.28 0.33 0.30 0.26 0.24 0.22 0.17 0.17 0.19 0.14 0.13 0.15 0.15 0.18 0.21 0.18 0.14 0.18 0.12 0.06 0.05
0.00 0.00 0.00 0.00 0.01 0.01 0.02 0.02 0.03 0.05 0.05 0.07 0.08 0.09 0.13 0.16 0.20 0.16 0.13 0.13 0.14 0.15 0.16 0.21 0.20 0.20 0.15 0.11 0.09 0.08 0.06 0.06 0.07 0.07 0.04 0.02 0.05 0.09 0.04 0.03 0.00 0.00 0.00
0.00 0.00 0.00 0.00 0.01 0.01 0.04 0.05 0.04 0.04 0.03 0.03 0.03 0.04 0.06 0.05 0.06 0.08 0.08 0.07 0.04 0.03 0.05 0.07 0.06 0.05 0.07 0.05 0.05 0.03 0.04 0.03 0.03 0.01 0.00 0.00 0.00 0.00 0.00 0.00 0.00 0.00 0.00
0.04 0.02 0.01 0.01 0.00 0.00 0.01 0.05 0.11 0.16 0.16 0.15 0.08 0.03 0.02 0.06 0.06 0.03 0.03 0.02 0.01 0.01 0.00 0.00 0.00 0.01 0.04 0.03 0.03 0.02 0.01 0.01 0.01 0.01 0.00 0.00 0.00 0.00 0.00 0.00 0.00 0.01 0.01

GFSGL_prec_precacc24_045.txt.gz
Total_Precipitation_Accumulation
0.00 0.00 0.00 0.00 0.00 0.00 0.00 0.00 0.00 0.00 0.00 0.00 0.00 0.00 0.00 0.00 0.00 0.00 0.00 0.00 0.00 0.00 0.00 0.00 0.00 0.00 0.00 0.00 0.00 0.00 0.00 0.00 0.00 0.00 0.00 0.00 0.00 0.00 0.00 0.00 0.00 0.00 0.00
0.00 0.00 0.00 0.00 0.00 0.00 0.00 0.00 0.00 0.00 0.00 0.00 0.00 0.00 0.00 0.00 0.00 0.00 0.00 0.00 0.00 0.00 0.00 0.00 0.00 0.00 0.00 0.00 0.00 0.00 0.00 0.00 0.00 0.00 0.00 0.00 0.00 0.00 0.00 0.00 0.00 0.00 0.00
0.00 0.00 0.00 0.00 0.00 0.00 0.00 0.00 0.00 0.00 0.00 0.00 0.00 0.00 0.00 0.00 0.00 0.00 0.00 0.00 0.00 0.00 0.00 0.00 0.00 0.00 0.00 0.00 0.00 0.00 0.00 0.00 0.00 0.00 0.00 0.00 0.00 0.00 0.01 0.00 0.00 0.00 0.00
0.00 0.00 0.00 0.00 0.00 0.00 0.00 0.00 0.00 0.00 0.00 0.00 0.00 0.00 0.00 0.00 0.00 0.00 0.00 0.00 0.00 0.00 0.00 0.00 0.00 0.00 0.00 0.00 0.00 0.00 0.00 0.00 0.00 0.00 0.00 0.00 0.00 0.00 0.00 0.00 0.02 0.00 0.00
0.00 0.00 0.00 0.00 0.00 0.00 0.00 0.00 0.00 0.00 0.00 0.00 0.00 0.00 0.00 0.00 0.00 0.00 0.00 0.00 0.00 0.00 0.00 0.00 0.00 0.00 0.00 0.00 0.00 0.00 0.00 0.00 0.00 0.00 0.00 0.00 0.00 0.00 0.00 0.00 0.00 0.00 0.00
0.00 0.00 0.00 0.00 0.00 0.00 0.00 0.00 0.00 0.00 0.00 0.00 0.00 0.00 0.00 0.00 0.00 0.00 0.00 0.00 0.00 0.00 0.00 0.00 0.00 0.00 0.00 0.00 0.00 0.00 0.00 0.00 0.00 0.00 0.00 0.00 0.00 0.01 0.00 0.00 0.00 0.00 0.01
0.00 0.00 0.00 0.00 0.00 0.00 0.00 0.00 0.00 0.00 0.00 0.00 0.00 0.00 0.00 0.00 0.00 0.00 0.00 0.00 0.00 0.00 0.00 0.00 0.00 0.00 0.00 0.01 0.02 0.01 0.00 0.01 0.01 0.00 0.00 0.00 0.01 0.02 0.01 0.04 0.01 0.02 0.02
0.00 0.00 0.00 0.00 0.00 0.00 0.00 0.00 0.00 0.00 0.00 0.00 0.00 0.00 0.00 0.00 0.00 0.00 0.00 0.00 0.00 0.00 0.00 0.00 0.00 0.00 0.01 0.04 0.04 0.01 0.04 0.02 0.04 0.01 0.00 0.01 0.04 0.03 0.06 0.06 0.06 0.02 0.00
0.00 0.00 0.00 0.00 0.00 0.00 0.00 0.00 0.00 0.00 0.00 0.00 0.00 0.00 0.00 0.00 0.00 0.00 0.00 0.00 0.00 0.00 0.00 0.00 0.00 0.00 0.03 0.05 0.01 0.01 0.03 0.02 0.06 0.05 0.01 0.01 0.04 0.04 0.02 0.03 0.04 0.04 0.01
0.00 0.00 0.00 0.00 0.00 0.00 0.00 0.00 0.00 0.00 0.00 0.00 0.00 0.00 0.00 0.00 0.00 0.00 0.00 0.00 0.00 0.00 0.00 0.00 0.00 0.01 0.04 0.03 0.02 0.01 0.01 0.02 0.03 0.04 0.05 0.04 0.04 0.04 0.04 0.03 0.15 0.14 0.07
0.00 0.00 0.00 0.00 0.00 0.00 0.00 0.00 0.00 0.00 0.00 0.00 0.00 0.00 0.00 0.00 0.00 0.00 0.00 0.01 0.01 0.00 0.00 0.00 0.00 0.00 0.02 0.08 0.12 0.02 0.05 0.05 0.06 0.04 0.04 0.04 0.09 0.12 0.10 0.07 0.20 0.29 0.19
0.00 0.00 0.00 0.00 0.00 0.00 0.00 0.00 0.00 0.01 0.01 0.01 0.01 0.01 0.00 0.00 0.00 0.00 0.00 0.01 0.01 0.03 0.01 0.00 0.00 0.01 0.02 0.14 0.13 0.08 0.07 0.08 0.10 0.12 0.11 0.05 0.08 0.11 0.09 0.12 0.25 0.30 0.26
0.00 0.00 0.00 0.00 0.00 0.00 0.00 0.00 0.01 0.01 0.01 0.01 0.01 0.01 0.01 0.01 0.02 0.01 0.00 0.00 0.00 0.03 0.02 0.01 0.04 0.03 0.07 0.11 0.10 0.08 0.12 0.18 0.24 0.21 0.18 0.09 0.08 0.13 0.14 0.14 0.23 0.27 0.23
0.00 0.00 0.00 0.00 0.00 0.00 0.00 0.00 0.00 0.00 0.01 0.02 0.02 0.02 0.02 0.02 0.02 0.01 0.01 0.01 0.06 0.07 0.05 0.09 0.08 0.11 0.18 0.16 0.15 0.15 0.19 0.25 0.24 0.17 0.15 0.13 0.16 0.19 0.15 0.15 0.21 0.30 0.33
0.00 0.00 0.00 0.00 0.00 0.00 0.00 0.00 0.00 0.00 0.01 0.01 0.01 0.01 0.01 0.01 0.01 0.04 0.02 0.03 0.08 0.17 0.23 0.27 0.39 0.59 0.58 0.39 0.26 0.23 0.18 0.16 0.16 0.14 0.24 0.37 0.38 0.30 0.23 0.21 0.24 0.32 0.39
0.00 0.00 0.00 0.00 0.00 0.00 0.00 0.00 0.01 0.01 0.03 0.02 0.02 0.02 0.01 0.02 0.03 0.03 0.09 0.14 0.21 0.28 0.39 0.37 0.34 0.32 0.34 0.35 0.31 0.25 0.23 0.25 0.23 0.37 0.53 0.54 0.51 0.43 0.36 0.32 0.32 0.32 0.31
0.00 0.01 0.03 0.03 0.01 0.00 0.00 0.00 0.01 0.02 0.02 0.01 0.02 0.02 0.02 0.02 0.02 0.05 0.07 0.20 0.27 0.32 0.25 0.28 0.29 0.31 0.40 0.47 0.51 0.52 0.46 0.47 0.58 0.66 0.69 0.74 0.78 0.76 0.76 0.67 0.68 0.70 0.68
0.00 0.02 0.06 0.05 0.04 0.02 0.02 0.02 0.01 0.01 0.01 0.01 0.04 0.05 0.04 0.04 0.07 0.08 0.13 0.21 0.23 0.18 0.18 0.18 0.20 0.23 0.27 0.34 0.38 0.35 0.35 0.43 0.58 0.70 0.83 0.90 0.95 0.91 0.87 0.83 0.79 0.87 0.93
0.00 0.00 0.00 0.02 0.01 0.02 0.03 0.02 0.01 0.03 0.04 0.06 0.05 0.13 0.17 0.23 0.27 0.28 0.35 0.30 0.34 0.31 0.28 0.30 0.29 0.26 0.25 0.28 0.31 0.36 0.38 0.33 0.38 0.44 0.56 0.65 0.66 0.64 0.70 0.74 0.97 1.40 1.88
0.00 0.00 0.00 0.00 0.00 0.00 0.01 0.04 0.03 0.03 0.03 0.16 0.49 0.75 0.76 0.78 0.78 0.70 0.69 0.77 0.84 0.69 0.66 0.80 0.80 0.70 0.65 0.67 0.66 0.63 0.68 0.81 0.94 1.13 1.38 1.89 2.59 2.94 3.02 2.91 2.91 2.94 2.88
0.00 0.00 0.01 0.00 0.00 0.00 0.00 0.01 0.01 0.01 0.03 0.11 0.59 1.40 1.80 2.02 1.85 1.87 2.13 2.01 1.67 1.68 1.66 1.73 1.89 1.98 2.04 2.09 2.12 2.11 2.16 2.35 2.72 3.00 3.12 2.94 2.50 1.93 1.47 1.28 1.27 1.24 1.11
0.00 0.00 0.00 0.00 0.00 0.00 0.00 0.00 0.00 0.01 0.02 0.05 0.28 0.56 0.60 0.58 0.69 0.83 1.09 1.20 1.24 1.17 1.13 1.08 0.88 0.79 0.89 1.02 1.10 1.10 1.09 1.13 1.06 0.92 0.87 0.87 0.86 0.76 0.64 0.65 0.57 0.47 0.40
0.00 0.00 0.00 0.00 0.00 0.00 0.00 0.00 0.00 0.00 0.01 0.01 0.01 0.07 0.15 0.16 0.16 0.11 0.10 0.13 0.18 0.23 0.28 0.33 0.30 0.26 0.24 0.22 0.17 0.17 0.19 0.14 0.13 0.15 0.15 0.18 0.21 0.19 0.15 0.19 0.12 0.07 0.05
0.00 0.00 0.00 0.00 0.00 0.01 0.01 0.01 0.01 0.02 0.02 0.02 0.03 0.04 0.08 0.11 0.15 0.12 0.11 0.11 0.13 0.15 0.16 0.21 0.20 0.20 0.15 0.11 0.09 0.08 0.06 0.06 0.07 0.07 0.04 0.02 0.05 0.09 0.05 0.04 0.01 0.00 0.00
0.00 0.00 0.00 0.00 0.01 0.01 0.01 0.02 0.03 0.03 0.02 0.02 0.03 0.03 0.03 0.03 0.05 0.06 0.06 0.06 0.04 0.03 0.05 0.07 0.06 0.05 0.07 0.05 0.05 0.03 0.04 0.03 0.03 0.01 0.00 0.00 0.00 0.00 0.01 0.01 0.01 0.02 0.02
0.04 0.03 0.02 0.01 0.00 0.00 0.01 0.01 0.02 0.02 0.02 0.02 0.02 0.01 0.01 0.01 0.01 0.00 0.01 0.01 0.01 0.01 0.00 0.00 0.00 0.01 0.04 0.03 0.03 0.02 0.01 0.01 0.01 0.01 0.00 0.00 0.00 0.00 0.00 0.00 0.00 0.01 0.01

GFSGL_prec_precacc24_048.txt.gz
Total_Precipitation_Accumulation
0.00 0.00 0.00 0.00 0.00 0.00 0.00 0.00 0.00 0.00 0.00 0.00 0.00 0.00 0.00 0.00 0.00 0.00 0.00 0.00 0.00 0.00 0.00 0.00 0.00 0.00 0.00 0.00 0.00 0.00 0.00 0.00 0.00 0.00 0.00 0.00 0.00 0.00 0.00 0.00 0.00 0.00 0.00
0.00 0.00 0.00 0.00 0.00 0.00 0.00 0.00 0.00 0.00 0.00 0.00 0.00 0.00 0.00 0.00 0.00 0.00 0.00 0.00 0.00 0.00 0.00 0.00 0.00 0.00 0.00 0.00 0.00 0.00 0.00 0.00 0.00 0.00 0.00 0.00 0.00 0.00 0.00 0.00 0.00 0.00 0.00
0.00 0.00 0.00 0.00 0.00 0.00 0.00 0.00 0.00 0.00 0.00 0.00 0.00 0.00 0.00 0.00 0.00 0.00 0.00 0.00 0.00 0.00 0.00 0.00 0.00 0.00 0.00 0.00 0.00 0.00 0.00 0.00 0.00 0.00 0.00 0.00 0.00 0.00 0.01 0.00 0.00 0.00 0.00
0.00 0.00 0.00 0.00 0.00 0.00 0.00 0.00 0.00 0.00 0.00 0.00 0.00 0.00 0.00 0.00 0.00 0.00 0.00 0.00 0.00 0.00 0.00 0.00 0.00 0.00 0.00 0.00 0.00 0.00 0.00 0.00 0.00 0.00 0.00 0.00 0.00 0.00 0.00 0.00 0.01 0.00 0.00
0.00 0.00 0.00 0.00 0.00 0.00 0.00 0.00 0.00 0.00 0.00 0.00 0.00 0.00 0.00 0.00 0.00 0.00 0.00 0.00 0.00 0.00 0.00 0.00 0.00 0.00 0.00 0.00 0.00 0.00 0.00 0.00 0.00 0.00 0.00 0.00 0.00 0.00 0.00 0.00 0.00 0.00 0.00
0.00 0.00 0.00 0.00 0.00 0.00 0.00 0.00 0.00 0.00 0.00 0.00 0.00 0.00 0.00 0.00 0.00 0.00 0.00 0.00 0.00 0.00 0.00 0.00 0.00 0.00 0.00 0.00 0.00 0.00 0.00 0.00 0.00 0.00 0.00 0.00 0.00 0.00 0.00 0.00 0.00 0.00 0.01
0.00 0.00 0.00 0.00 0.00 0.00 0.00 0.00 0.00 0.00 0.00 0.00 0.00 0.00 0.00 0.00 0.00 0.00 0.00 0.00 0.00 0.00 0.00 0.00 0.00 0.00 0.00 0.00 0.00 0.00 0.00 0.01 0.01 0.00 0.00 0.00 0.00 0.00 0.01 0.02 0.02 0.03 0.04
0.00 0.00 0.00 0.00 0.00 0.00 0.00 0.00 0.00 0.00 0.00 0.00 0.00 0.00 0.00 0.00 0.00 0.00 0.00 0.00 0.00 0.00 0.00 0.00 0.00 0.00 0.00 0.00 0.00 0.00 0.01 0.01 0.04 0.01 0.00 0.00 0.01 0.02 0.05 0.06 0.06 0.03 0.01
0.00 0.00 0.00 0.00 0.00 0.00 0.00 0.00 0.00 0.00 0.00 0.00 0.00 0.00 0.00 0.00 0.00 0.00 0.00 0.00 0.00 0.00 0.00 0.00 0.00 0.00 0.00 0.00 0.00 0.00 0.00 0.01 0.05 0.05 0.01 0.00 0.04 0.04 0.02 0.03 0.04 0.04 0.02
0.00 0.00 0.00 0.00 0.00 0.00 0.00 0.00 0.00 0.00 0.00 0.00 0.00 0.00 0.00 0.00 0.00 0.00 0.00 0.00 0.00 0.00 0.00 0.00 0.00 0.00 0.00 0.00 0.00 0.01 0.00 0.01 0.02 0.03 0.05 0.04 0.04 0.05 0.04 0.03 0.16 0.15 0.09
0.00 0.00 0.00 0.00 0.00 0.00 0.00 0.00 0.00 0.00 0.00 0.00 0.00 0.00 0.00 0.00 0.00 0.00 0.00 0.01 0.01 0.00 0.00 0.00 0.00 0.00 0.00 0.00 0.01 0.01 0.01 0.03 0.06 0.05 0.04 0.04 0.09 0.12 0.10 0.08 0.20 0.30 0.20
0.00 0.00 0.00 0.00 0.00 0.00 0.00 0.00 0.00 0.00 0.01 0.00 0.01 0.00 0.00 0.00 0.00 0.00 0.00 0.01 0.01 0.03 0.01 0.00 0.00 0.00 0.00 0.00 0.01 0.03 0.02 0.06 0.09 0.12 0.12 0.07 0.09 0.12 0.10 0.15 0.26 0.31 0.27
0.00 0.00 0.00 0.00 0.00 0.00 0.00 0.00 0.00 0.01 0.01 0.01 0.01 0.01 0.01 0.01 0.02 0.01 0.00 0.00 0.00 0.03 0.02 0.01 0.01 0.01 0.01 0.01 0.02 0.03 0.07 0.17 0.25 0.25 0.23 0.12 0.11 0.16 0.17 0.15 0.23 0.27 0.24
0.00 0.00 0.00 0.00 0.00 0.00 0.00 0.00 0.00 0.00 0.01 0.02 0.02 0.02 0.02 0.02 0.02 0.01 0.02 0.01 0.02 0.04 0.04 0.05 0.03 0.06 0.06 0.05 0.05 0.08 0.16 0.26 0.29 0.23 0.20 0.18 0.19 0.19 0.16 0.15 0.21 0.30 0.33
0.00 0.00 0.00 0.00 0.00 0.00 0.00 0.00 0.00 0.01 0.01 0.01 0.01 0.01 0.01 0.01 0.00 0.01 0.02 0.02 0.03 0.06 0.09 0.05 0.09 0.21 0.19 0.09 0.06 0.09 0.12 0.14 0.19 0.20 0.27 0.39 0.38 0.30 0.23 0.21 0.24 0.32 0.39
0.00 0.00 0.00 0.00 0.00 0.00 0.00 0.00 0.02 0.02 0.04 0.02 0.02 0.03 0.01 0.02 0.03 0.02 0.03 0.05 0.04 0.04 0.09 0.07 0.14 0.18 0.22 0.25 0.23 0.19 0.19 0.25 0.25 0.38 0.53 0.54 0.51 0.43 0.36 0.32 0.32 0.32 0.31
0.02 0.03 0.03 0.03 0.02 0.09 0.16 0.09 0.05 0.07 0.05 0.01 0.02 0.02 0.02 0.01 0.01 0.02 0.02 0.03 0.06 0.05 0.03 0.07 0.09 0.13 0.28 0.37 0.46 0.50 0.46 0.47 0.58 0.66 0.69 0.74 0.78 0.76 0.76 0.67 0.68 0.70 0.68
0.01 0.09 0.09 0.07 0.12 0.12 0.32 0.33 0.21 0.14 0.05 0.03 0.02 0.03 0.03 0.01 0.02 0.03 0.05 0.06 0.07 0.04 0.02 0.05 0.12 0.18 0.25 0.33 0.37 0.35 0.35 0.43 0.58 0.70 0.83 0.90 0.95 0.91 0.87 0.83 0.79 0.87 0.93
0.00 0.00 0.01 0.03 0.02 0.03 0.07 0.08 0.12 0.07 0.04 0.06 0.02 0.02 0.05 0.04 0.04 0.07 0.10 0.09 0.16 0.19 0.16 0.20 0.23 0.24 0.25 0.28 0.31 0.36 0.38 0.33 0.38 0.45 0.56 0.65 0.66 0.64 0.70 0.74 0.98 1.40 1.88
0.00 0.00 0.01 0.01 0.01 0.01 0.01 0.04 0.04 0.03 0.03 0.04 0.03 0.02 0.02 0.02 0.01 0.03 0.16 0.49 0.70 0.61 0.60 0.75 0.78 0.70 0.64 0.65 0.65 0.63 0.69 0.81 0.94 1.14 1.38 1.89 2.59 2.94 3.02 2.91 2.91 2.94 2.88
0.00 0.01 0.01 0.02 0.02 0.02 0.00 0.02 0.03 0.02 0.03 0.02 0.01 0.02 0.02 0.02 0.02 0.03 0.20 0.65 1.23 1.60 1.62 1.72 1.87 1.97 2.01 2.07 2.12 2.11 2.16 2.35 2.72 3.00 3.12 2.94 2.50 1.93 1.47 1.29 1.28 1.24 1.11
0.00 0.00 0.01 0.01 0.01 0.03 0.05 0.03 0.02 0.01 0.02 0.02 0.02 0.02 0.02 0.01 0.01 0.03 0.13 0.51 1.00 1.13 1.11 1.05 0.85 0.79 0.88 1.02 1.10 1.10 1.09 1.13 1.06 0.92 0.87 0.87 0.86 0.76 0.64 0.66 0.59 0.48 0.41
0.00 0.00 0.00 0.00 0.00 0.01 0.03 0.03 0.03 0.02 0.01 0.01 0.01 0.01 0.01 0.01 0.01 0.02 0.04 0.07 0.13 0.20 0.27 0.31 0.27 0.25 0.23 0.22 0.17 0.17 0.19 0.14 0.13 0.15 0.15 0.18 0.21 0.19 0.15 0.19 0.13 0.08 0.06
0.00 0.00 0.00 0.00 0.00 0.00 0.01 0.01 0.01 0.02 0.02 0.01 0.01 0.01 0.02 0.02 0.03 0.02 0.03 0.05 0.08 0.12 0.15 0.19 0.19 0.20 0.15 0.11 0.09 0.08 0.06 0.06 0.07 0.07 0.04 0.02 0.05 0.09 0.05 0.04 0.01 0.01 0.01
0.00 0.00 0.00 0.00 0.01 0.00 0.01 0.02 0.03 0.03 0.02 0.01 0.01 0.01 0.00 0.00 0.01 0.02 0.02 0.03 0.03 0.03 0.05 0.07 0.06 0.05 0.07 0.05 0.05 0.03 0.04 0.03 0.03 0.01 0.00 0.00 0.00 0.00 0.01 0.01 0.01 0.02 0.03
0.04 0.03 0.02 0.01 0.01 0.00 0.01 0.01 0.02 0.02 0.02 0.01 0.01 0.00 0.00 0.00 0.00 0.00 0.00 0.00 0.00 0.00 0.00 0.00 0.00 0.01 0.04 0.03 0.03 0.02 0.01 0.01 0.01 0.01 0.00 0.00 0.00 0.00 0.00 0.00 0.00 0.01 0.01

GFSGL_prec_precacc24_051.txt.gz
Total_Precipitation_Accumulation
0.00 0.00 0.00 0.00 0.00 0.00 0.00 0.00 0.00 0.00 0.00 0.00 0.00 0.00 0.00 0.00 0.00 0.00 0.00 0.00 0.00 0.00 0.00 0.00 0.00 0.00 0.00 0.00 0.00 0.00 0.00 0.00 0.00 0.00 0.00 0.00 0.00 0.00 0.00 0.00 0.00 0.00 0.00
0.00 0.00 0.00 0.00 0.00 0.00 0.00 0.00 0.00 0.00 0.00 0.00 0.00 0.00 0.00 0.00 0.00 0.00 0.00 0.00 0.00 0.00 0.00 0.00 0.00 0.00 0.00 0.00 0.00 0.00 0.00 0.00 0.00 0.00 0.00 0.00 0.00 0.00 0.00 0.00 0.00 0.00 0.00
0.00 0.00 0.00 0.00 0.00 0.00 0.00 0.00 0.00 0.00 0.00 0.00 0.00 0.00 0.00 0.00 0.00 0.00 0.00 0.00 0.00 0.00 0.00 0.00 0.00 0.00 0.00 0.00 0.00 0.00 0.00 0.00 0.00 0.00 0.00 0.00 0.00 0.00 0.00 0.00 0.00 0.00 0.00
0.00 0.00 0.00 0.00 0.00 0.00 0.00 0.00 0.00 0.00 0.00 0.00 0.00 0.00 0.00 0.00 0.00 0.00 0.00 0.00 0.00 0.00 0.00 0.00 0.00 0.00 0.00 0.00 0.00 0.00 0.00 0.00 0.00 0.00 0.00 0.00 0.00 0.00 0.00 0.00 0.00 0.00 0.00
0.00 0.00 0.00 0.00 0.00 0.00 0.00 0.00 0.00 0.00 0.00 0.00 0.00 0.00 0.00 0.00 0.00 0.00 0.00 0.00 0.00 0.00 0.00 0.00 0.00 0.00 0.00 0.00 0.00 0.00 0.00 0.00 0.00 0.00 0.00 0.00 0.00 0.00 0.00 0.00 0.00 0.00 0.00
0.00 0.00 0.00 0.00 0.00 0.00 0.00 0.00 0.00 0.00 0.00 0.00 0.00 0.00 0.00 0.00 0.00 0.00 0.00 0.00 0.00 0.00 0.00 0.00 0.00 0.00 0.00 0.00 0.00 0.00 0.00 0.00 0.00 0.00 0.00 0.00 0.00 0.00 0.00 0.00 0.00 0.00 0.01
0.00 0.00 0.00 0.00 0.00 0.00 0.00 0.00 0.00 0.00 0.00 0.00 0.00 0.00 0.00 0.00 0.00 0.00 0.00 0.00 0.00 0.00 0.00 0.00 0.00 0.00 0.00 0.00 0.00 0.00 0.00 0.00 0.00 0.00 0.00 0.00 0.00 0.00 0.00 0.01 0.01 0.03 0.04
0.00 0.00 0.00 0.00 0.00 0.00 0.00 0.00 0.00 0.00 0.00 0.00 0.00 0.00 0.00 0.00 0.00 0.00 0.00 0.00 0.00 0.00 0.00 0.00 0.00 0.00 0.00 0.00 0.00 0.00 0.00 0.00 0.00 0.00 0.00 0.00 0.00 0.01 0.02 0.05 0.06 0.03 0.02
0.00 0.00 0.00 0.00 0.00 0.00 0.00 0.00 0.00 0.00 0.00 0.00 0.00 0.00 0.00 0.00 0.00 0.00 0.00 0.00 0.00 0.00 0.00 0.00 0.00 0.00 0.00 0.00 0.00 0.00 0.00 0.00 0.00 0.00 0.00 0.00 0.04 0.04 0.00 0.02 0.02 0.04 0.02
0.00 0.00 0.00 0.00 0.00 0.00 0.00 0.00 0.00 0.00 0.00 0.00 0.00 0.00 0.00 0.00 0.00 0.00 0.00 0.00 0.00 0.00 0.00 0.00 0.00 0.00 0.00 0.00 0.00 0.01 0.00 0.01 0.01 0.02 0.04 0.05 0.05 0.06 0.04 0.03 0.16 0.16 0.10
0.00 0.00 0.00 0.00 0.00 0.00 0.00 0.00 0.00 0.00 0.00 0.00 0.00 0.00 0.00 0.00 0.00 0.00 0.00 0.01 0.01 0.00 0.00 0.00 0.00 0.00 0.00 0.00 0.01 0.01 0.01 0.03 0.06 0.05 0.04 0.04 0.09 0.15 0.15 0.13 0.25 0.33 0.21
0.00 0.00 0.00 0.00 0.00 0.00 0.00 0.00 0.00 0.00 0.00 0.00 0.00 0.00 0.00 0.00 0.00 0.00 0.00 0.01 0.01 0.03 0.01 0.00 0.00 0.00 0.00 0.00 0.01 0.03 0.01 0.03 0.08 0.12 0.11 0.07 0.10 0.14 0.11 0.16 0.27 0.32 0.31
0.00 0.00 0.00 0.00 0.00 0.00 0.00 0.00 0.00 0.00 0.01 0.01 0.01 0.01 0.01 0.01 0.02 0.01 0.00 0.00 0.00 0.03 0.02 0.01 0.01 0.01 0.01 0.01 0.02 0.02 0.06 0.15 0.24 0.24 0.23 0.13 0.11 0.17 0.18 0.16 0.23 0.29 0.25
0.00 0.00 0.00 0.00 0.00 0.00 0.00 0.00 0.00 0.00 0.01 0.02 0.02 0.02 0.02 0.02 0.02 0.01 0.02 0.01 0.02 0.04 0.04 0.05 0.02 0.05 0.06 0.04 0.04 0.07 0.14 0.24 0.27 0.22 0.19 0.17 0.18 0.19 0.16 0.16 0.21 0.30 0.33
0.00 0.00 0.00 0.00 0.00 0.00 0.00 0.00 0.00 0.01 0.01 0.01 0.01 0.01 0.01 0.01 0.00 0.01 0.02 0.02 0.03 0.05 0.07 0.03 0.04 0.09 0.11 0.07 0.03 0.05 0.09 0.13 0.17 0.19 0.28 0.40 0.38 0.31 0.24 0.21 0.24 0.32 0.39
0.00 0.00 0.00 0.00 0.00 0.00 0.00 0.01 0.11 0.11 0.09 0.03 0.06 0.05 0.02 0.03 0.05 0.03 0.03 0.05 0.05 0.04 0.04 0.01 0.02 0.02 0.03 0.03 0.03 0.06 0.08 0.14 0.16 0.31 0.49 0.52 0.50 0.43 0.36 0.32 0.32 0.32 0.31
0.03 0.03 0.03 0.03 0.02 0.10 0.17 0.10 0.05 0.07 0.13 0.09 0.21 0.21 0.20 0.20 0.13 0.08 0.10 0.03 0.04 0.04 0.02 0.02 0.02 0.01 0.01 0.03 0.05 0.10 0.16 0.25 0.42 0.57 0.67 0.72 0.78 0.76 0.76 0.67 0.68 0.70 0.68
0.03 0.11 0.10 0.07 0.12 0.13 0.37 0.44 0.28 0.20 0.15 0.08 0.11 0.12 0.15 0.29 0.17 0.19 0.18 0.09 0.03 0.01 0.01 0.01 0.02 0.02 0.04 0.06 0.07 0.13 0.23 0.36 0.52 0.68 0.82 0.90 0.95 0.91 0.87 0.83 0.79 0.87 0.93
0.03 0.02 0.02 0.05 0.04 0.09 0.14 0.16 0.22 0.19 0.25 0.20 0.16 0.15 0.18 0.12 0.06 0.04 0.03 0.01 0.02 0.03 0.04 0.09 0.13 0.14 0.14 0.15 0.18 0.26 0.32 0.31 0.36 0.44 0.56 0.65 0.66 0.64 0.70 0.74 0.98 1.40 1.88
0.07 0.02 0.01 0.01 0.02 0.02 0.04 0.08 0.07 0.04 0.04 0.06 0.04 0.03 0.05 0.04 0.04 0.06 0.05 0.13 0.15 0.06 0.03 0.04 0.10 0.21 0.42 0.52 0.55 0.58 0.66 0.80 0.93 1.13 1.38 1.89 2.59 2.95 3.03 2.91 2.92 2.94 2.88
0.07 0.02 0.01 0.02 0.03 0.03 0.02 0.03 0.04 0.03 0.03 0.03 0.01 0.03 0.04 0.04 0.05 0.06 0.06 0.09 0.03 0.01 0.01 0.01 0.01 0.09 0.45 1.34 1.93 2.07 2.15 2.35 2.72 3.00 3.12 2.94 2.50 1.93 1.48 1.30 1.28 1.25 1.11
0.01 0.02 0.02 0.01 0.02 0.06 0.08 0.08 0.03 0.02 0.03 0.03 0.03 0.04 0.05 0.03 0.02 0.02 0.02 0.02 0.02 0.01 0.01 0.02 0.01 0.04 0.19 0.66 1.00 1.08 1.08 1.13 1.06 0.92 0.87 0.87 0.86 0.76 0.64 0.66 0.60 0.49 0.42
0.01 0.02 0.01 0.01 0.02 0.07 0.08 0.09 0.09 0.05 0.04 0.04 0.04 0.04 0.05 0.02 0.01 0.02 0.02 0.02 0.01 0.01 0.03 0.03 0.04 0.05 0.07 0.13 0.13 0.15 0.18 0.14 0.13 0.15 0.15 0.18 0.21 0.19 0.15 0.19 0.13 0.08 0.07
0.00 0.00 0.01 0.01 0.01 0.03 0.04 0.05 0.07 0.10 0.09 0.05 0.04 0.04 0.04 0.03 0.02 0.02 0.01 0.01 0.01 0.02 0.03 0.03 0.03 0.07 0.04 0.05 0.05 0.06 0.06 0.06 0.07 0.07 0.04 0.02 0.05 0.09 0.05 0.04 0.01 0.01 0.01
0.00 0.00 0.00 0.00 0.01 0.00 0.01 0.03 0.04 0.06 0.08 0.05 0.03 0.01 0.02 0.02 0.02 0.01 0.01 0.00 0.00 0.00 0.01 0.02 0.03 0.03 0.05 0.05 0.05 0.03 0.04 0.03 0.03 0.01 0.00 0.00 0.00 0.00 0.01 0.01 0.01 0.02 0.03
0.04 0.03 0.02 0.02 0.01 0.01 0.01 0.01 0.02 0.04 0.03 0.02 0.02 0.01 0.00 0.00 0.00 0.00 0.00 0.00 0.00 0.00 0.00 0.00 0.00 0.01 0.04 0.03 0.03 0.02 0.01 0.01 0.01 0.01 0.00 0.00 0.00 0.00 0.00 0.00 0.00 0.01 0.01

GFSGL_prec_precacc24_054.txt.gz
Total_Precipitation_Accumulation
0.00 0.00 0.00 0.00 0.00 0.00 0.00 0.00 0.00 0.00 0.00 0.00 0.00 0.00 0.00 0.00 0.00 0.00 0.00 0.01 0.01 0.00 0.00 0.00 0.00 0.00 0.00 0.00 0.00 0.00 0.00 0.00 0.00 0.00 0.00 0.00 0.00 0.00 0.00 0.00 0.00 0.00 0.00
0.00 0.00 0.00 0.00 0.00 0.00 0.00 0.00 0.00 0.00 0.00 0.00 0.00 0.00 0.00 0.00 0.00 0.00 0.00 0.00 0.00 0.00 0.00 0.00 0.00 0.00 0.00 0.00 0.00 0.00 0.00 0.00 0.00 0.00 0.00 0.00 0.00 0.00 0.00 0.00 0.00 0.00 0.00
0.00 0.00 0.00 0.00 0.00 0.00 0.00 0.00 0.00 0.00 0.00 0.00 0.00 0.00 0.00 0.00 0.00 0.00 0.00 0.00 0.00 0.00 0.00 0.00 0.00 0.00 0.00 0.00 0.00 0.00 0.00 0.00 0.00 0.00 0.00 0.00 0.00 0.00 0.00 0.00 0.00 0.00 0.00
0.00 0.00 0.00 0.00 0.00 0.00 0.00 0.00 0.00 0.00 0.00 0.00 0.00 0.00 0.00 0.00 0.00 0.00 0.00 0.00 0.00 0.00 0.00 0.00 0.00 0.00 0.00 0.00 0.00 0.00 0.00 0.00 0.00 0.00 0.00 0.00 0.00 0.00 0.00 0.00 0.00 0.00 0.00
0.00 0.00 0.00 0.00 0.00 0.00 0.00 0.00 0.00 0.00 0.00 0.00 0.00 0.00 0.00 0.00 0.00 0.00 0.00 0.00 0.00 0.00 0.00 0.00 0.00 0.00 0.00 0.00 0.00 0.00 0.00 0.00 0.00 0.00 0.00 0.00 0.00 0.00 0.00 0.00 0.00 0.00 0.00
0.00 0.00 0.00 0.00 0.00 0.00 0.00 0.00 0.00 0.00 0.00 0.00 0.00 0.00 0.00 0.00 0.00 0.00 0.00 0.00 0.00 0.00 0.00 0.00 0.00 0.00 0.00 0.00 0.00 0.00 0.00 0.00 0.00 0.00 0.00 0.00 0.00 0.00 0.00 0.00 0.00 0.00 0.00
0.00 0.00 0.00 0.00 0.00 0.00 0.00 0.00 0.00 0.00 0.00 0.00 0.00 0.00 0.00 0.00 0.00 0.00 0.00 0.00 0.00 0.00 0.00 0.00 0.00 0.00 0.00 0.00 0.00 0.00 0.00 0.00 0.00 0.00 0.00 0.00 0.00 0.00 0.00 0.00 0.01 0.02 0.04
0.00 0.00 0.00 0.00 0.00 0.00 0.00 0.00 0.00 0.00 0.00 0.00 0.00 0.00 0.00 0.00 0.00 0.00 0.00 0.00 0.00 0.00 0.00 0.00 0.00 0.00 0.00 0.00 0.00 0.00 0.00 0.00 0.00 0.00 0.00 0.00 0.00 0.00 0.02 0.04 0.06 0.04 0.02
0.00 0.00 0.00 0.00 0.00 0.00 0.00 0.00 0.00 0.00 0.00 0.00 0.00 0.00 0.00 0.00 0.00 0.00 0.00 0.00 0.00 0.00 0.00 0.00 0.00 0.00 0.00 0.00 0.00 0.00 0.00 0.00 0.00 0.00 0.00 0.00 0.00 0.01 0.00 0.02 0.03 0.05 0.03
0.00 0.00 0.00 0.00 0.00 0.00 0.00 0.00 0.00 0.00 0.00 0.00 0.00 0.00 0.00 0.00 0.00 0.00 0.00 0.00 0.00 0.00 0.00 0.00 0.00 0.00 0.00 0.00 0.00 0.01 0.00 0.01 0.01 0.02 0.04 0.04 0.03 0.05 0.02 0.02 0.16 0.17 0.11
0.00 0.00 0.00 0.00 0.00 0.00 0.00 0.00 0.00 0.00 0.00 0.00 0.00 0.00 0.00 0.00 0.00 0.00 0.00 0.01 0.01 0.00 0.00 0.00 0.00 0.00 0.00 0.00 0.01 0.01 0.01 0.03 0.06 0.04 0.04 0.04 0.10 0.16 0.16 0.14 0.29 0.38 0.22
0.00 0.00 0.00 0.00 0.00 0.00 0.00 0.00 0.00 0.00 0.00 0.00 0.00 0.00 0.00 0.00 0.00 0.00 0.00 0.01 0.01 0.03 0.01 0.00 0.00 0.00 0.00 0.00 0.01 0.03 0.01 0.03 0.08 0.11 0.10 0.06 0.09 0.13 0.11 0.16 0.28 0.33 0.33
0.00 0.00 0.00 0.00 0.00 0.00 0.00 0.00 0.00 0.00 0.01 0.00 0.01 0.01 0.01 0.01 0.02 0.01 0.00 0.00 0.00 0.03 0.02 0.01 0.01 0.02 0.01 0.01 0.02 0.02 0.05 0.13 0.21 0.23 0.22 0.13 0.11 0.16 0.17 0.15 0.23 0.31 0.29
0.00 0.00 0.00 0.00 0.00 0.00 0.00 0.00 0.00 0.00 0.01 0.01 0.02 0.02 0.02 0.02 0.02 0.01 0.02 0.01 0.02 0.04 0.04 0.05 0.02 0.04 0.05 0.04 0.05 0.06 0.10 0.20 0.23 0.19 0.16 0.15 0.16 0.18 0.14 0.16 0.22 0.31 0.33
0.00 0.00 0.00 0.00 0.00 0.00 0.00 0.00 0.01 0.01 0.02 0.01 0.01 0.01 0.01 0.01 0.00 0.01 0.02 0.02 0.03 0.04 0.04 0.03 0.03 0.05 0.06 0.04 0.03 0.05 0.08 0.09 0.13 0.16 0.24 0.37 0.34 0.27 0.21 0.21 0.25 0.32 0.39
0.00 0.00 0.00 0.00 0.00 0.00 0.01 0.01 0.11 0.11 0.07 0.02 0.06 0.04 0.02 0.03 0.05 0.03 0.03 0.03 0.06 0.06 0.02 0.01 0.02 0.02 0.02 0.02 0.02 0.04 0.05 0.08 0.10 0.21 0.39 0.43 0.42 0.37 0.29 0.26 0.30 0.31 0.31
0.04 0.03 0.03 0.03 0.02 0.10 0.17 0.10 0.05 0.07 0.13 0.09 0.21 0.21 0.20 0.21 0.14 0.10 0.12 0.06 0.09 0.21 0.06 0.03 0.02 0.01 0.01 0.02 0.04 0.06 0.08 0.09 0.16 0.22 0.25 0.27 0.32 0.42 0.61 0.63 0.68 0.70 0.68
0.06 0.12 0.10 0.07 0.12 0.13 0.37 0.44 0.29 0.20 0.16 0.11 0.12 0.14 0.17 0.31 0.19 0.26 0.35 0.48 0.38 0.31 0.09 0.06 0.05 0.02 0.02 0.04 0.05 0.06 0.06 0.09 0.14 0.18 0.26 0.32 0.42 0.60 0.79 0.82 0.79 0.87 0.93
0.14 0.16 0.10 0.18 0.18 0.15 0.15 0.18 0.27 0.22 0.34 0.37 0.32 0.31 0.30 0.18 0.17 0.15 0.15 0.17 0.14 0.22 0.10 0.14 0.14 0.06 0.06 0.05 0.05 0.07 0.11 0.14 0.16 0.20 0.30 0.41 0.54 0.57 0.65 0.72 0.97 1.40 1.88
0.21 0.23 0.12 0.36 0.48 0.38 0.16 0.16 0.24 0.15 0.08 0.09 0.13 0.18 0.11 0.09 0.14 0.30 0.45 0.46 0.72 0.59 0.44 0.29 0.23 0.17 0.12 0.06 0.04 0.04 0.05 0.14 0.34 0.60 0.91 1.55 2.52 2.92 3.02 2.91 2.92 2.94 2.88
0.27 0.32 0.24 0.20 0.18 0.22 0.22 0.16 0.14 0.05 0.05 0.05 0.04 0.05 0.05 0.04 0.08 0.17 0.27 0.54 0.88 0.91 0.70 0.30 0.14 0.09 0.04 0.02 0.02 0.03 0.07 0.14 0.51 1.24 2.02 2.50 2.43 1.93 1.48 1.30 1.28 1.25 1.12
0.19 0.22 0.18 0.16 0.15 0.19 0.13 0.08 0.03 0.02 0.03 0.04 0.03 0.04 0.06 0.04 0.03 0.03 0.03 0.06 0.13 0.18 0.18 0.09 0.04 0.01 0.01 0.01 0.00 0.00 0.02 0.08 0.15 0.29 0.55 0.76 0.83 0.76 0.64 0.66 0.60 0.49 0.43
0.09 0.17 0.21 0.19 0.11 0.11 0.09 0.09 0.10 0.06 0.05 0.04 0.04 0.04 0.05 0.02 0.02 0.03 0.04 0.07 0.08 0.08 0.07 0.03 0.01 0.01 0.01 0.01 0.00 0.01 0.01 0.01 0.01 0.05 0.10 0.16 0.20 0.18 0.15 0.19 0.13 0.09 0.08
0.01 0.04 0.08 0.13 0.20 0.15 0.11 0.07 0.08 0.12 0.12 0.07 0.05 0.05 0.05 0.04 0.04 0.05 0.02 0.01 0.01 0.00 0.01 0.01 0.01 0.00 0.00 0.00 0.00 0.01 0.00 0.01 0.02 0.01 0.01 0.01 0.04 0.09 0.05 0.04 0.01 0.01 0.01
0.02 0.01 0.01 0.03 0.07 0.27 0.31 0.24 0.19 0.16 0.15 0.13 0.10 0.06 0.03 0.03 0.03 0.04 0.02 0.01 0.00 0.00 0.00 0.00 0.01 0.00 0.00 0.00 0.01 0.01 0.01 0.02 0.02 0.01 0.00 0.00 0.00 0.00 0.01 0.01 0.01 0.02 0.03
0.06 0.05 0.05 0.04 0.03 0.02 0.06 0.11 0.10 0.11 0.10 0.12 0.13 0.10 0.08 0.06 0.04 0.02 0.02 0.01 0.01 0.00 0.00 0.00 0.00 0.00 0.01 0.02 0.03 0.02 0.01 0.01 0.01 0.01 0.00 0.00 0.00 0.00 0.00 0.00 0.00 0.01 0.01

GFSGL_prec_precacc24_057.txt.gz
Total_Precipitation_Accumulation
0.00 0.00 0.00 0.00 0.00 0.00 0.00 0.00 0.00 0.00 0.00 0.00 0.00 0.00 0.00 0.00 0.00 0.00 0.00 0.01 0.01 0.00 0.00 0.00 0.00 0.00 0.00 0.00 0.00 0.00 0.00 0.00 0.00 0.00 0.00 0.00 0.00 0.00 0.00 0.00 0.00 0.00 0.01
0.00 0.00 0.00 0.00 0.00 0.00 0.00 0.00 0.00 0.00 0.00 0.00 0.00 0.00 0.00 0.00 0.00 0.00 0.00 0.00 0.00 0.00 0.00 0.00 0.00 0.00 0.00 0.00 0.00 0.00 0.00 0.00 0.00 0.00 0.00 0.00 0.00 0.00 0.00 0.00 0.00 0.00 0.01
0.00 0.00 0.00 0.00 0.00 0.00 0.00 0.00 0.00 0.00 0.00 0.00 0.00 0.00 0.00 0.00 0.00 0.00 0.00 0.00 0.00 0.00 0.00 0.00 0.00 0.00 0.00 0.00 0.00 0.00 0.00 0.00 0.00 0.00 0.00 0.00 0.00 0.00 0.00 0.00 0.00 0.00 0.00
0.00 0.00 0.00 0.00 0.00 0.00 0.00 0.00 0.00 0.00 0.00 0.00 0.00 0.00 0.00 0.00 0.00 0.00 0.00 0.00 0.00 0.00 0.00 0.00 0.00 0.00 0.00 0.00 0.00 0.00 0.00 0.00 0.00 0.00 0.00 0.00 0.00 0.00 0.00 0.00 0.00 0.00 0.00
0.00 0.00 0.00 0.00 0.00 0.00 0.00 0.00 0.00 0.00 0.00 0.00 0.00 0.00 0.00 0.00 0.00 0.00 0.00 0.00 0.00 0.00 0.00 0.00 0.00 0.00 0.00 0.00 0.00 0.00 0.00 0.00 0.00 0.00 0.00 0.00 0.00 0.00 0.00 0.00 0.00 0.00 0.00
0.00 0.00 0.00 0.00 0.00 0.00 0.00 0.00 0.00 0.00 0.00 0.00 0.00 0.00 0.00 0.00 0.00 0.00 0.00 0.00 0.00 0.00 0.00 0.00 0.00 0.00 0.00 0.00 0.00 0.00 0.00 0.00 0.00 0.00 0.00 0.00 0.00 0.00 0.00 0.00 0.00 0.00 0.00
0.00 0.00 0.00 0.00 0.00 0.00 0.00 0.00 0.00 0.00 0.00 0.00 0.00 0.00 0.00 0.00 0.00 0.00 0.00 0.00 0.00 0.00 0.00 0.00 0.00 0.00 0.00 0.00 0.00 0.00 0.00 0.00 0.00 0.00 0.00 0.00 0.00 0.00 0.00 0.00 0.01 0.02 0.04
0.00 0.00 0.00 0.00 0.00 0.00 0.00 0.00 0.00 0.00 0.00 0.00 0.00 0.00 0.00 0.00 0.00 0.00 0.00 0.00 0.00 0.00 0.00 0.00 0.00 0.00 0.00 0.00 0.00 0.00 0.00 0.00 0.00 0.00 0.00 0.00 0.00 0.00 0.02 0.04 0.06 0.04 0.03
0.00 0.00 0.00 0.00 0.00 0.00 0.00 0.00 0.00 0.00 0.00 0.00 0.00 0.00 0.00 0.00 0.00 0.00 0.00 0.00 0.00 0.00 0.00 0.00 0.00 0.00 0.00 0.00 0.00 0.00 0.00 0.00 0.00 0.00 0.00 0.00 0.00 0.00 0.00 0.02 0.03 0.04 0.02
0.00 0.00 0.00 0.00 0.00 0.00 0.00 0.00 0.00 0.00 0.00 0.00 0.00 0.00 0.00 0.00 0.00 0.00 0.00 0.00 0.00 0.00 0.00 0.00 0.00 0.00 0.00 0.00 0.00 0.01 0.00 0.01 0.01 0.02 0.04 0.04 0.03 0.05 0.02 0.02 0.16 0.16 0.10
0.01 0.00 0.00 0.00 0.00 0.00 0.00 0.00 0.00 0.00 0.00 0.00 0.00 0.00 0.00 0.00 0.00 0.00 0.00 0.01 0.00 0.00 0.00 0.00 0.00 0.00 0.00 0.00 0.01 0.01 0.01 0.03 0.06 0.04 0.04 0.04 0.10 0.16 0.16 0.13 0.27 0.37 0.21
0.04 0.03 0.00 0.00 0.00 0.00 0.00 0.00 0.00 0.00 0.00 0.00 0.00 0.00 0.00 0.00 0.00 0.00 0.00 0.00 0.01 0.02 0.01 0.00 0.00 0.00 0.00 0.00 0.00 0.03 0.01 0.03 0.07 0.11 0.10 0.06 0.09 0.12 0.10 0.13 0.26 0.32 0.33
0.00 0.05 0.02 0.00 0.00 0.00 0.00 0.00 0.00 0.00 0.00 0.00 0.00 0.00 0.00 0.00 0.01 0.01 0.00 0.00 0.00 0.02 0.02 0.01 0.01 0.01 0.01 0.01 0.02 0.02 0.05 0.11 0.20 0.23 0.22 0.13 0.11 0.16 0.16 0.12 0.19 0.28 0.28
0.00 0.00 0.01 0.00 0.00 0.00 0.00 0.00 0.00 0.00 0.00 0.00 0.00 0.01 0.01 0.01 0.01 0.01 0.02 0.02 0.02 0.03 0.04 0.04 0.02 0.04 0.04 0.04 0.04 0.06 0.10 0.19 0.22 0.18 0.16 0.14 0.14 0.13 0.12 0.12 0.18 0.25 0.28
0.00 0.00 0.00 0.00 0.00 0.00 0.00 0.01 0.00 0.00 0.01 0.01 0.01 0.01 0.00 0.00 0.00 0.01 0.01 0.02 0.03 0.04 0.04 0.02 0.02 0.04 0.05 0.03 0.02 0.04 0.07 0.08 0.12 0.15 0.18 0.27 0.26 0.23 0.16 0.12 0.18 0.26 0.30
0.01 0.00 0.00 0.00 0.00 0.00 0.01 0.01 0.11 0.11 0.06 0.02 0.05 0.03 0.01 0.01 0.03 0.02 0.02 0.03 0.05 0.05 0.02 0.01 0.02 0.02 0.02 0.02 0.01 0.03 0.04 0.07 0.07 0.08 0.11 0.15 0.21 0.22 0.16 0.16 0.21 0.23 0.20
0.04 0.03 0.03 0.03 0.02 0.10 0.17 0.10 0.05 0.07 0.13 0.09 0.20 0.21 0.20 0.20 0.14 0.10 0.12 0.06 0.09 0.21 0.05 0.03 0.02 0.01 0.01 0.01 0.01 0.03 0.05 0.06 0.07 0.05 0.03 0.02 0.04 0.10 0.14 0.14 0.17 0.23 0.24
0.09 0.16 0.11 0.06 0.12 0.12 0.35 0.43 0.29 0.21 0.18 0.11 0.12 0.14 0.17 0.32 0.19 0.26 0.36 0.52 0.41 0.35 0.18 0.17 0.13 0.17 0.18 0.16 0.12 0.13 0.09 0.07 0.03 0.03 0.03 0.06 0.13 0.21 0.30 0.42 0.48 0.63 0.80
0.18 0.22 0.16 0.23 0.22 0.16 0.13 0.17 0.27 0.26 0.38 0.38 0.33 0.36 0.36 0.23 0.19 0.17 0.23 0.27 0.30 0.44 0.37 0.43 0.39 0.35 0.36 0.36 0.45 0.36 0.21 0.16 0.07 0.02 0.01 0.03 0.08 0.19 0.25 0.30 0.50 1.01 1.72
0.24 0.26 0.15 0.42 0.73 0.66 0.45 0.26 0.26 0.16 0.13 0.22 0.26 0.37 0.26 0.17 0.19 0.34 0.61 0.63 0.79 0.66 0.60 0.55 0.48 0.44 0.53 0.49 0.40 0.25 0.18 0.14 0.09 0.04 0.03 0.05 0.04 0.16 0.48 0.96 1.61 2.07 2.42
0.33 0.39 0.35 0.32 0.31 0.39 0.55 0.67 0.58 0.29 0.15 0.17 0.21 0.23 0.18 0.12 0.14 0.20 0.29 0.58 0.93 0.99 0.93 0.80 0.93 0.79 0.55 0.39 0.24 0.14 0.07 0.06 0.04 0.03 0.02 0.00 0.00 0.02 0.09 0.29 0.56 0.82 0.93
0.35 0.36 0.34 0.35 0.33 0.35 0.26 0.42 0.91 0.76 0.41 0.27 0.21 0.17 0.18 0.11 0.05 0.03 0.03 0.07 0.14 0.20 0.24 0.30 0.29 0.31 0.31 0.22 0.14 0.11 0.08 0.05 0.03 0.01 0.00 0.00 0.00 0.01 0.05 0.14 0.29 0.34 0.37
0.15 0.38 0.40 0.41 0.33 0.37 0.32 0.36 0.36 0.48 0.80 0.55 0.15 0.09 0.06 0.03 0.02 0.03 0.03 0.07 0.08 0.09 0.07 0.04 0.03 0.03 0.05 0.09 0.08 0.06 0.05 0.04 0.02 0.01 0.00 0.00 0.00 0.00 0.01 0.04 0.06 0.07 0.07
0.05 0.12 0.27 0.33 0.38 0.28 0.23 0.18 0.19 0.22 0.19 0.19 0.10 0.07 0.05 0.04 0.04 0.05 0.02 0.01 0.02 0.01 0.01 0.03 0.04 0.02 0.04 0.05 0.03 0.02 0.01 0.01 0.00 0.00 0.00 0.00 0.00 0.02 0.01 0.02 0.01 0.01 0.01
0.04 0.02 0.04 0.12 0.20 0.47 0.55 0.35 0.24 0.22 0.20 0.16 0.13 0.08 0.04 0.03 0.04 0.04 0.04 0.02 0.01 0.01 0.02 0.02 0.02 0.02 0.02 0.01 0.00 0.00 0.00 0.01 0.01 0.00 0.00 0.00 0.00 0.00 0.01 0.01 0.01 0.02 0.03
0.06 0.05 0.05 0.04 0.04 0.08 0.35 0.61 0.69 0.54 0.47 0.41 0.28 0.19 0.14 0.11 0.07 0.04 0.02 0.02 0.02 0.02 0.02 0.03 0.03 0.02 0.02 0.03 0.02 0.02 0.01 0.01 0.01 0.01 0.00 0.00 0.00 0.00 0.00 0.00 0.00 0.01 0.01

GFSGL_prec_precacc24_060.txt.gz
Total_Precipitation_Accumulation
0.00 0.00 0.00 0.00 0.00 0.00 0.00 0.00 0.00 0.00 0.00 0.00 0.00 0.00 0.00 0.00 0.00 0.00 0.00 0.01 0.01 0.00 0.00 0.00 0.00 0.00 0.00 0.00 0.00 0.00 0.00 0.00 0.00 0.00 0.00 0.00 0.00 0.00 0.00 0.00 0.00 0.00 0.01
0.00 0.00 0.00 0.00 0.00 0.00 0.00 0.00 0.00 0.00 0.00 0.00 0.00 0.00 0.00 0.00 0.00 0.00 0.00 0.00 0.00 0.00 0.00 0.00 0.00 0.00 0.00 0.00 0.00 0.00 0.00 0.00 0.00 0.00 0.00 0.00 0.00 0.00 0.00 0.00 0.00 0.00 0.01
0.00 0.00 0.00 0.00 0.00 0.00 0.00 0.00 0.00 0.00 0.00 0.00 0.00 0.00 0.00 0.00 0.00 0.00 0.00 0.00 0.00 0.00 0.00 0.00 0.00 0.00 0.00 0.00 0.00 0.00 0.00 0.00 0.00 0.00 0.00 0.00 0.00 0.00 0.00 0.00 0.00 0.00 0.00
0.00 0.00 0.00 0.00 0.00 0.00 0.00 0.00 0.00 0.00 0.00 0.00 0.00 0.00 0.00 0.00 0.00 0.00 0.00 0.00 0.00 0.00 0.00 0.00 0.00 0.00 0.00 0.00 0.00 0.00 0.00 0.00 0.00 0.00 0.00 0.00 0.00 0.00 0.00 0.00 0.00 0.00 0.00
0.00 0.00 0.00 0.00 0.00 0.00 0.00 0.00 0.00 0.00 0.00 0.00 0.00 0.00 0.00 0.00 0.00 0.00 0.00 0.00 0.00 0.00 0.00 0.00 0.00 0.00 0.00 0.00 0.00 0.00 0.00 0.00 0.00 0.00 0.00 0.00 0.00 0.00 0.00 0.00 0.00 0.00 0.00
0.00 0.00 0.00 0.00 0.00 0.00 0.00 0.00 0.00 0.00 0.00 0.00 0.00 0.00 0.00 0.00 0.00 0.00 0.00 0.00 0.00 0.00 0.00 0.00 0.00 0.00 0.00 0.00 0.00 0.00 0.00 0.00 0.00 0.00 0.00 0.00 0.00 0.00 0.00 0.00 0.00 0.00 0.00
0.01 0.00 0.00 0.00 0.00 0.00 0.00 0.00 0.00 0.00 0.00 0.00 0.00 0.00 0.00 0.00 0.00 0.00 0.00 0.00 0.00 0.00 0.00 0.00 0.00 0.00 0.00 0.00 0.00 0.00 0.00 0.00 0.00 0.00 0.00 0.00 0.00 0.00 0.00 0.00 0.01 0.02 0.04
0.08 0.01 0.00 0.00 0.00 0.00 0.00 0.00 0.00 0.00 0.00 0.00 0.00 0.00 0.00 0.00 0.00 0.00 0.00 0.00 0.00 0.00 0.00 0.00 0.00 0.00 0.00 0.00 0.00 0.00 0.00 0.00 0.00 0.00 0.00 0.00 0.00 0.00 0.02 0.04 0.06 0.04 0.03
0.05 0.02 0.00 0.00 0.00 0.00 0.00 0.00 0.00 0.00 0.00 0.00 0.00 0.00 0.00 0.00 0.00 0.00 0.00 0.00 0.00 0.00 0.00 0.00 0.00 0.00 0.00 0.00 0.00 0.00 0.00 0.00 0.00 0.00 0.00 0.00 0.00 0.00 0.00 0.02 0.03 0.05 0.03
0.07 0.02 0.04 0.00 0.00 0.00 0.00 0.00 0.00 0.00 0.00 0.00 0.00 0.00 0.00 0.00 0.00 0.00 0.00 0.00 0.00 0.00 0.00 0.00 0.00 0.00 0.00 0.00 0.00 0.01 0.00 0.01 0.01 0.02 0.04 0.04 0.03 0.05 0.02 0.02 0.16 0.17 0.11
0.11 0.10 0.07 0.00 0.00 0.00 0.00 0.00 0.00 0.00 0.00 0.00 0.00 0.00 0.00 0.00 0.00 0.00 0.00 0.00 0.00 0.00 0.00 0.00 0.00 0.00 0.00 0.00 0.01 0.01 0.01 0.02 0.05 0.04 0.03 0.04 0.09 0.15 0.16 0.13 0.27 0.37 0.22
0.10 0.11 0.04 0.00 0.00 0.00 0.00 0.00 0.00 0.00 0.00 0.00 0.00 0.00 0.00 0.00 0.00 0.00 0.00 0.00 0.00 0.01 0.00 0.00 0.00 0.00 0.00 0.00 0.00 0.02 0.01 0.02 0.06 0.10 0.09 0.05 0.06 0.06 0.05 0.08 0.13 0.24 0.31
0.06 0.09 0.08 0.05 0.01 0.00 0.00 0.01 0.00 0.00 0.00 0.00 0.00 0.00 0.00 0.00 0.00 0.00 0.00 0.00 0.00 0.01 0.01 0.01 0.01 0.01 0.01 0.01 0.02 0.02 0.05 0.09 0.16 0.20 0.20 0.12 0.08 0.06 0.07 0.05 0.04 0.10 0.15
0.11 0.06 0.08 0.14 0.07 0.04 0.01 0.05 0.01 0.00 0.00 0.00 0.00 0.00 0.00 0.00 0.00 0.00 0.01 0.02 0.02 0.03 0.03 0.03 0.02 0.03 0.04 0.03 0.04 0.05 0.09 0.17 0.19 0.15 0.12 0.09 0.08 0.07 0.06 0.05 0.06 0.06 0.09
0.00 0.03 0.08 0.10 0.13 0.10 0.05 0.04 0.02 0.01 0.02 0.00 0.00 0.00 0.00 0.00 0.00 0.01 0.01 0.02 0.03 0.04 0.12 0.04 0.02 0.04 0.05 0.03 0.02 0.03 0.05 0.06 0.09 0.09 0.07 0.07 0.04 0.05 0.06 0.05 0.05 0.07 0.12
0.01 0.00 0.01 0.05 0.05 0.03 0.04 0.01 0.12 0.13 0.08 0.03 0.08 0.03 0.01 0.01 0.03 0.01 0.01 0.01 0.05 0.09 0.10 0.01 0.02 0.02 0.02 0.02 0.01 0.01 0.02 0.03 0.03 0.02 0.02 0.02 0.02 0.01 0.02 0.06 0.09 0.11 0.09
0.04 0.03 0.03 0.03 0.03 0.10 0.17 0.10 0.05 0.08 0.14 0.09 0.21 0.21 0.19 0.20 0.14 0.10 0.15 0.08 0.10 0.26 0.07 0.03 0.02 0.01 0.01 0.01 0.00 0.01 0.01 0.02 0.03 0.07 0.12 0.14 0.06 0.01 0.02 0.02 0.06 0.10 0.07
0.09 0.16 0.11 0.07 0.12 0.12 0.35 0.43 0.29 0.21 0.18 0.11 0.12 0.13 0.16 0.32 0.19 0.26 0.41 0.59 0.43 0.36 0.18 0.17 0.14 0.18 0.20 0.16 0.15 0.19 0.20 0.23 0.28 0.33 0.32 0.20 0.10 0.02 0.01 0.00 0.01 0.01 0.05
0.18 0.22 0.17 0.25 0.24 0.18 0.16 0.21 0.26 0.25 0.37 0.37 0.33 0.36 0.36 0.26 0.20 0.19 0.26 0.28 0.31 0.44 0.37 0.43 0.40 0.37 0.39 0.37 0.49 0.65 0.78 0.82 0.79 0.68 0.41 0.22 0.17 0.08 0.04 0.02 0.00 0.01 0.02
0.24 0.26 0.16 0.45 0.82 0.80 0.64 0.41 0.27 0.16 0.13 0.19 0.25 0.37 0.33 0.26 0.26 0.46 0.75 0.73 0.80 0.66 0.60 0.56 0.54 0.53 0.62 0.55 0.51 0.53 0.51 0.45 0.39 0.36 0.28 0.19 0.12 0.04 0.02 0.01 0.01 0.01 0.01
0.33 0.40 0.35 0.32 0.34 0.43 0.69 0.91 0.71 0.35 0.20 0.26 0.26 0.32 0.37 0.27 0.33 0.53 0.54 0.73 0.99 1.03 1.00 0.95 1.08 0.93 0.65 0.47 0.29 0.18 0.12 0.10 0.07 0.05 0.04 0.04 0.04 0.05 0.04 0.02 0.02 0.01 0.01
0.36 0.37 0.34 0.35 0.34 0.37 0.30 0.49 1.05 0.85 0.52 0.42 0.41 0.53 0.64 0.40 0.33 0.26 0.17 0.26 0.34 0.40 0.44 0.45 0.43 0.44 0.39 0.24 0.15 0.11 0.08 0.05 0.04 0.03 0.03 0.03 0.03 0.02 0.01 0.02 0.03 0.03 0.02
0.17 0.41 0.44 0.43 0.34 0.39 0.39 0.47 0.49 0.63 0.96 0.97 0.69 0.48 0.36 0.24 0.21 0.17 0.12 0.18 0.20 0.21 0.17 0.11 0.07 0.06 0.06 0.10 0.09 0.06 0.05 0.04 0.02 0.01 0.02 0.01 0.01 0.01 0.00 0.01 0.01 0.02 0.02
0.13 0.19 0.32 0.39 0.43 0.34 0.31 0.30 0.37 0.37 0.31 0.34 0.33 0.32 0.25 0.17 0.13 0.11 0.05 0.03 0.03 0.03 0.03 0.04 0.05 0.03 0.06 0.07 0.05 0.04 0.02 0.01 0.01 0.01 0.00 0.00 0.00 0.01 0.01 0.00 0.01 0.01 0.01
0.12 0.10 0.12 0.27 0.47 0.60 0.64 0.45 0.36 0.41 0.33 0.22 0.19 0.16 0.11 0.09 0.09 0.08 0.05 0.02 0.02 0.02 0.02 0.03 0.03 0.02 0.03 0.01 0.01 0.01 0.01 0.01 0.01 0.01 0.00 0.00 0.00 0.00 0.01 0.01 0.01 0.02 0.03
0.43 0.23 0.12 0.09 0.21 0.52 0.96 1.06 0.91 0.82 0.70 0.62 0.38 0.26 0.23 0.23 0.19 0.15 0.11 0.08 0.06 0.04 0.03 0.03 0.03 0.04 0.03 0.04 0.02 0.03 0.02 0.01 0.01 0.01 0.00 0.00 0.00 0.00 0.00 0.00 0.00 0.01 0.01

GFSGL_prec_precacc24_063.txt.gz
Total_Precipitation_Accumulation
0.00 0.00 0.00 0.00 0.00 0.00 0.00 0.00 0.00 0.00 0.00 0.00 0.00 0.00 0.01 0.00 0.00 0.00 0.00 0.01 0.01 0.00 0.00 0.00 0.00 0.00 0.00 0.00 0.00 0.00 0.00 0.00 0.00 0.00 0.00 0.00 0.00 0.00 0.00 0.00 0.00 0.00 0.01
0.00 0.00 0.00 0.00 0.00 0.00 0.00 0.00 0.00 0.00 0.00 0.01 0.00 0.00 0.00 0.00 0.00 0.00 0.00 0.00 0.00 0.00 0.00 0.00 0.00 0.00 0.00 0.00 0.00 0.00 0.00 0.00 0.00 0.00 0.00 0.00 0.00 0.00 0.00 0.00 0.00 0.00 0.01
0.00 0.00 0.00 0.00 0.00 0.00 0.00 0.00 0.00 0.00 0.00 0.00 0.00 0.00 0.00 0.00 0.00 0.00 0.00 0.00 0.00 0.00 0.00 0.00 0.00 0.00 0.00 0.00 0.00 0.00 0.00 0.00 0.00 0.00 0.00 0.00 0.00 0.00 0.00 0.00 0.00 0.00 0.00
0.00 0.00 0.00 0.00 0.00 0.00 0.00 0.00 0.00 0.00 0.00 0.00 0.00 0.00 0.00 0.00 0.00 0.00 0.00 0.00 0.00 0.00 0.00 0.00 0.00 0.00 0.00 0.00 0.00 0.00 0.00 0.00 0.00 0.00 0.00 0.00 0.00 0.00 0.00 0.00 0.00 0.00 0.00
0.01 0.00 0.00 0.00 0.00 0.00 0.00 0.00 0.00 0.00 0.00 0.00 0.00 0.00 0.00 0.00 0.00 0.00 0.00 0.00 0.00 0.00 0.00 0.00 0.00 0.00 0.00 0.00 0.00 0.00 0.00 0.00 0.00 0.00 0.00 0.00 0.00 0.00 0.00 0.00 0.00 0.00 0.00
0.00 0.01 0.02 0.00 0.00 0.00 0.00 0.00 0.00 0.00 0.00 0.00 0.00 0.00 0.00 0.00 0.00 0.00 0.00 0.00 0.00 0.00 0.00 0.00 0.00 0.00 0.00 0.00 0.00 0.00 0.00 0.00 0.00 0.00 0.00 0.00 0.00 0.00 0.00 0.00 0.00 0.00 0.00
0.01 0.01 0.01 0.01 0.00 0.00 0.00 0.00 0.00 0.00 0.00 0.00 0.00 0.00 0.00 0.00 0.00 0.00 0.00 0.00 0.00 0.00 0.00 0.00 0.00 0.00 0.00 0.00 0.00 0.00 0.00 0.00 0.00 0.00 0.00 0.00 0.00 0.00 0.00 0.00 0.01 0.02 0.04
0.08 0.01 0.00 0.00 0.00 0.00 0.00 0.00 0.00 0.00 0.00 0.00 0.00 0.00 0.00 0.00 0.00 0.00 0.00 0.00 0.00 0.00 0.00 0.00 0.00 0.00 0.00 0.00 0.00 0.00 0.00 0.00 0.00 0.00 0.00 0.00 0.00 0.00 0.02 0.04 0.06 0.04 0.03
0.06 0.02 0.00 0.00 0.00 0.00 0.00 0.00 0.00 0.00 0.00 0.00 0.00 0.00 0.00 0.00 0.00 0.00 0.00 0.00 0.00 0.00 0.00 0.00 0.00 0.00 0.00 0.00 0.00 0.00 0.00 0.00 0.00 0.00 0.00 0.00 0.00 0.00 0.00 0.02 0.02 0.04 0.03
0.07 0.02 0.04 0.01 0.00 0.00 0.00 0.01 0.00 0.00 0.00 0.00 0.00 0.00 0.00 0.00 0.00 0.00 0.00 0.00 0.00 0.00 0.00 0.00 0.00 0.00 0.00 0.00 0.00 0.00 0.00 0.01 0.01 0.02 0.01 0.02 0.02 0.05 0.02 0.02 0.08 0.14 0.11
0.11 0.10 0.07 0.02 0.03 0.04 0.05 0.04 0.03 0.01 0.00 0.00 0.00 0.00 0.00 0.00 0.00 0.00 0.00 0.00 0.00 0.00 0.00 0.00 0.00 0.00 0.00 0.00 0.00 0.00 0.01 0.01 0.02 0.03 0.03 0.03 0.04 0.09 0.12 0.11 0.13 0.17 0.13
0.10 0.11 0.04 0.02 0.04 0.07 0.03 0.03 0.04 0.02 0.01 0.00 0.00 0.00 0.00 0.00 0.00 0.00 0.00 0.00 0.00 0.00 0.00 0.00 0.00 0.00 0.00 0.00 0.00 0.02 0.01 0.01 0.03 0.05 0.05 0.05 0.05 0.05 0.04 0.06 0.07 0.10 0.13
0.06 0.09 0.08 0.05 0.02 0.04 0.02 0.02 0.00 0.00 0.00 0.00 0.00 0.00 0.00 0.00 0.00 0.00 0.00 0.00 0.00 0.00 0.00 0.00 0.01 0.01 0.01 0.01 0.01 0.02 0.03 0.07 0.11 0.15 0.16 0.10 0.06 0.05 0.06 0.05 0.04 0.07 0.10
0.11 0.06 0.08 0.14 0.07 0.05 0.04 0.08 0.01 0.00 0.00 0.00 0.00 0.00 0.00 0.00 0.00 0.00 0.01 0.01 0.01 0.01 0.01 0.02 0.01 0.02 0.02 0.02 0.03 0.05 0.09 0.16 0.17 0.14 0.10 0.07 0.04 0.03 0.02 0.03 0.02 0.02 0.03
0.00 0.03 0.08 0.11 0.14 0.11 0.06 0.07 0.04 0.03 0.05 0.01 0.01 0.01 0.01 0.00 0.01 0.00 0.01 0.01 0.02 0.02 0.15 0.05 0.02 0.03 0.04 0.03 0.02 0.03 0.05 0.06 0.08 0.08 0.06 0.06 0.03 0.03 0.03 0.01 0.02 0.01 0.02
0.01 0.00 0.01 0.06 0.11 0.08 0.07 0.05 0.17 0.18 0.12 0.07 0.17 0.04 0.03 0.06 0.05 0.02 0.01 0.01 0.04 0.10 0.14 0.01 0.01 0.02 0.02 0.02 0.01 0.01 0.01 0.02 0.03 0.02 0.02 0.02 0.02 0.02 0.05 0.06 0.01 0.00 0.01
0.04 0.03 0.03 0.03 0.04 0.16 0.21 0.11 0.06 0.11 0.17 0.15 0.27 0.27 0.26 0.24 0.17 0.13 0.18 0.10 0.10 0.28 0.07 0.02 0.02 0.01 0.01 0.01 0.00 0.01 0.01 0.02 0.03 0.07 0.13 0.18 0.19 0.15 0.09 0.08 0.02 0.00 0.00
0.09 0.16 0.11 0.07 0.12 0.13 0.37 0.48 0.31 0.21 0.18 0.12 0.16 0.20 0.20 0.34 0.22 0.28 0.49 0.72 0.45 0.35 0.18 0.18 0.16 0.20 0.21 0.17 0.16 0.21 0.21 0.23 0.28 0.33 0.33 0.26 0.23 0.18 0.09 0.05 0.04 0.01 0.00
0.18 0.22 0.17 0.25 0.24 0.20 0.19 0.22 0.28 0.27 0.37 0.37 0.33 0.37 0.37 0.27 0.22 0.24 0.44 0.38 0.33 0.45 0.39 0.48 0.44 0.42 0.41 0.38 0.52 0.67 0.84 0.87 0.84 0.71 0.47 0.27 0.20 0.12 0.06 0.04 0.03 0.03 0.01
0.24 0.26 0.16 0.45 0.82 0.81 0.67 0.44 0.29 0.16 0.12 0.18 0.25 0.38 0.36 0.35 0.32 0.56 0.86 0.88 0.87 0.70 0.63 0.59 0.58 0.59 0.71 0.67 0.66 0.68 0.65 0.55 0.50 0.46 0.38 0.22 0.13 0.06 0.03 0.01 0.02 0.02 0.02
0.33 0.40 0.36 0.32 0.34 0.44 0.70 0.92 0.72 0.35 0.19 0.26 0.27 0.36 0.49 0.34 0.36 0.58 0.62 0.89 1.07 1.10 1.04 0.99 1.13 1.00 0.75 0.60 0.41 0.28 0.25 0.24 0.19 0.16 0.11 0.07 0.05 0.05 0.04 0.04 0.06 0.07 0.07
0.36 0.37 0.34 0.36 0.34 0.37 0.30 0.49 1.05 0.84 0.51 0.41 0.41 0.54 0.66 0.41 0.34 0.30 0.24 0.31 0.40 0.47 0.55 0.58 0.60 0.64 0.64 0.48 0.34 0.25 0.21 0.15 0.11 0.07 0.05 0.03 0.03 0.04 0.05 0.07 0.09 0.08 0.05
0.17 0.41 0.45 0.43 0.34 0.40 0.39 0.47 0.49 0.63 0.96 0.97 0.70 0.52 0.40 0.26 0.27 0.33 0.25 0.31 0.37 0.33 0.29 0.26 0.22 0.23 0.23 0.22 0.18 0.13 0.09 0.07 0.04 0.02 0.02 0.01 0.01 0.02 0.03 0.03 0.03 0.03 0.03
0.15 0.21 0.33 0.40 0.45 0.34 0.31 0.30 0.37 0.37 0.31 0.34 0.33 0.33 0.27 0.20 0.18 0.23 0.22 0.24 0.21 0.16 0.10 0.11 0.14 0.14 0.16 0.14 0.08 0.06 0.04 0.02 0.01 0.01 0.01 0.01 0.01 0.01 0.01 0.01 0.01 0.01 0.01
0.19 0.19 0.20 0.30 0.49 0.61 0.66 0.46 0.38 0.43 0.37 0.23 0.20 0.18 0.13 0.11 0.12 0.12 0.09 0.07 0.05 0.06 0.05 0.04 0.03 0.03 0.03 0.02 0.01 0.01 0.00 0.01 0.01 0.01 0.00 0.00 0.00 0.00 0.00 0.01 0.01 0.02 0.03
0.60 0.36 0.26 0.23 0.28 0.58 1.03 1.11 0.96 0.93 0.83 0.76 0.59 0.38 0.31 0.30 0.24 0.19 0.15 0.11 0.08 0.06 0.06 0.07 0.06 0.05 0.03 0.04 0.02 0.02 0.01 0.01 0.01 0.01 0.00 0.00 0.00 0.00 0.00 0.00 0.00 0.01 0.01

GFSGL_prec_precacc24_066.txt.gz
Total_Precipitation_Accumulation
0.00 0.00 0.00 0.00 0.00 0.00 0.00 0.00 0.00 0.00 0.00 0.00 0.00 0.02 0.02 0.03 0.02 0.01 0.00 0.01 0.01 0.00 0.00 0.00 0.00 0.00 0.00 0.00 0.00 0.00 0.00 0.00 0.00 0.00 0.00 0.00 0.00 0.00 0.00 0.00 0.00 0.00 0.01
0.00 0.00 0.00 0.00 0.00 0.00 0.00 0.00 0.00 0.00 0.00 0.01 0.00 0.00 0.00 0.00 0.02 0.00 0.01 0.00 0.00 0.00 0.00 0.00 0.00 0.00 0.00 0.00 0.00 0.00 0.00 0.00 0.00 0.00 0.00 0.00 0.00 0.00 0.00 0.00 0.00 0.00 0.01
0.00 0.00 0.00 0.00 0.00 0.00 0.00 0.00 0.00 0.00 0.00 0.00 0.00 0.00 0.00 0.00 0.00 0.00 0.00 0.00 0.00 0.00 0.00 0.00 0.00 0.00 0.00 0.00 0.00 0.00 0.00 0.00 0.00 0.00 0.00 0.00 0.00 0.00 0.00 0.00 0.00 0.00 0.00
0.00 0.00 0.00 0.00 0.00 0.00 0.00 0.00 0.00 0.00 0.00 0.00 0.00 0.00 0.00 0.00 0.00 0.00 0.00 0.00 0.00 0.00 0.00 0.00 0.00 0.00 0.00 0.00 0.00 0.00 0.00 0.00 0.00 0.00 0.00 0.00 0.00 0.00 0.00 0.00 0.00 0.00 0.00
0.01 0.00 0.00 0.00 0.00 0.00 0.00 0.00 0.00 0.00 0.00 0.00 0.00 0.00 0.00 0.00 0.00 0.00 0.00 0.00 0.00 0.00 0.00 0.00 0.00 0.00 0.00 0.00 0.00 0.00 0.00 0.00 0.00 0.00 0.00 0.00 0.00 0.00 0.00 0.00 0.00 0.00 0.00
0.00 0.01 0.02 0.00 0.00 0.00 0.00 0.00 0.00 0.00 0.00 0.00 0.00 0.00 0.00 0.00 0.00 0.00 0.00 0.00 0.00 0.00 0.00 0.00 0.00 0.00 0.00 0.00 0.00 0.00 0.00 0.00 0.00 0.00 0.00 0.00 0.00 0.00 0.00 0.00 0.00 0.00 0.00
0.01 0.03 0.03 0.02 0.00 0.00 0.00 0.00 0.00 0.00 0.00 0.00 0.00 0.00 0.00 0.00 0.00 0.00 0.00 0.00 0.00 0.00 0.00 0.00 0.00 0.00 0.00 0.00 0.00 0.00 0.00 0.00 0.00 0.00 0.00 0.00 0.00 0.00 0.00 0.00 0.01 0.02 0.04
0.08 0.01 0.00 0.03 0.01 0.01 0.00 0.00 0.00 0.00 0.00 0.00 0.00 0.00 0.00 0.00 0.00 0.00 0.00 0.00 0.00 0.00 0.00 0.00 0.00 0.00 0.00 0.00 0.00 0.00 0.00 0.00 0.00 0.00 0.00 0.00 0.00 0.00 0.02 0.04 0.06 0.04 0.03
0.06 0.02 0.00 0.00 0.01 0.02 0.00 0.01 0.00 0.00 0.00 0.00 0.00 0.00 0.00 0.00 0.00 0.00 0.00 0.00 0.00 0.00 0.00 0.00 0.00 0.00 0.00 0.00 0.00 0.00 0.00 0.00 0.00 0.00 0.00 0.00 0.00 0.00 0.00 0.01 0.01 0.03 0.03
0.07 0.02 0.04 0.01 0.00 0.00 0.01 0.03 0.02 0.00 0.00 0.00 0.00 0.00 0.00 0.00 0.00 0.00 0.00 0.00 0.00 0.00 0.00 0.00 0.00 0.00 0.00 0.00 0.00 0.00 0.00 0.00 0.00 0.00 0.00 0.01 0.01 0.03 0.01 0.00 0.05 0.09 0.09
0.11 0.10 0.07 0.02 0.03 0.04 0.06 0.05 0.04 0.03 0.03 0.00 0.00 0.00 0.00 0.00 0.00 0.00 0.00 0.00 0.00 0.00 0.00 0.00 0.00 0.00 0.00 0.00 0.00 0.00 0.00 0.00 0.00 0.01 0.02 0.02 0.04 0.08 0.11 0.09 0.11 0.12 0.08
0.11 0.11 0.04 0.02 0.04 0.08 0.03 0.04 0.07 0.06 0.02 0.00 0.00 0.00 0.00 0.00 0.00 0.00 0.00 0.00 0.00 0.00 0.00 0.00 0.00 0.00 0.00 0.00 0.00 0.00 0.00 0.00 0.01 0.02 0.02 0.04 0.05 0.05 0.04 0.06 0.06 0.08 0.12
0.07 0.10 0.09 0.05 0.02 0.04 0.04 0.07 0.02 0.02 0.01 0.00 0.00 0.00 0.00 0.00 0.00 0.00 0.00 0.00 0.00 0.00 0.00 0.00 0.00 0.00 0.00 0.00 0.00 0.01 0.02 0.03 0.05 0.09 0.13 0.09 0.06 0.04 0.05 0.03 0.02 0.06 0.08
0.11 0.06 0.08 0.14 0.08 0.06 0.04 0.08 0.01 0.00 0.00 0.00 0.00 0.00 0.00 0.00 0.00 0.00 0.00 0.00 0.00 0.00 0.00 0.00 0.00 0.01 0.01 0.01 0.02 0.03 0.07 0.12 0.15 0.13 0.10 0.07 0.04 0.01 0.01 0.01 0.01 0.01 0.01
0.00 0.03 0.08 0.11 0.14 0.11 0.07 0.07 0.04 0.03 0.05 0.01 0.01 0.01 0.01 0.00 0.03 0.02 0.00 0.00 0.00 0.01 0.13 0.04 0.00 0.01 0.02 0.01 0.01 0.02 0.04 0.05 0.08 0.08 0.06 0.06 0.02 0.02 0.03 0.01 0.01 0.01 0.01
0.01 0.00 0.01 0.06 0.11 0.08 0.07 0.05 0.17 0.18 0.12 0.06 0.17 0.05 0.03 0.06 0.09 0.06 0.04 0.04 0.09 0.12 0.14 0.00 0.00 0.00 0.00 0.00 0.00 0.01 0.01 0.02 0.03 0.02 0.02 0.02 0.02 0.02 0.05 0.06 0.01 0.00 0.00
0.04 0.03 0.03 0.03 0.04 0.16 0.21 0.12 0.06 0.11 0.17 0.15 0.27 0.27 0.25 0.24 0.19 0.18 0.27 0.15 0.18 0.33 0.07 0.01 0.01 0.02 0.01 0.01 0.00 0.01 0.01 0.02 0.03 0.07 0.13 0.18 0.19 0.15 0.09 0.08 0.02 0.00 0.00
0.09 0.16 0.11 0.07 0.12 0.13 0.37 0.48 0.31 0.21 0.18 0.12 0.16 0.20 0.21 0.35 0.26 0.36 0.57 0.76 0.45 0.36 0.20 0.24 0.23 0.23 0.22 0.17 0.16 0.21 0.23 0.24 0.29 0.34 0.33 0.26 0.23 0.18 0.09 0.06 0.06 0.05 0.08
0.18 0.22 0.17 0.25 0.24 0.20 0.19 0.22 0.28 0.27 0.38 0.37 0.33 0.37 0.38 0.33 0.30 0.31 0.47 0.39 0.33 0.45 0.39 0.50 0.50 0.44 0.42 0.39 0.53 0.68 0.86 0.89 0.86 0.73 0.50 0.30 0.24 0.16 0.10 0.12 0.13 0.14 0.15
0.24 0.26 0.16 0.45 0.82 0.81 0.67 0.44 0.29 0.16 0.13 0.19 0.25 0.39 0.37 0.37 0.33 0.57 0.89 0.91 0.87 0.71 0.64 0.62 0.67 0.62 0.74 0.68 0.68 0.70 0.66 0.57 0.56 0.53 0.46 0.31 0.27 0.16 0.09 0.09 0.06 0.03 0.03
0.33 0.40 0.36 0.32 0.34 0.44 0.70 0.93 0.72 0.36 0.20 0.29 0.29 0.38 0.50 0.35 0.36 0.58 0.62 0.90 1.09 1.17 1.14 1.09 1.21 1.04 0.79 0.62 0.43 0.30 0.29 0.28 0.26 0.25 0.23 0.21 0.23 0.23 0.16 0.10 0.07 0.07 0.08
0.37 0.38 0.34 0.36 0.34 0.37 0.31 0.49 1.05 0.85 0.52 0.42 0.42 0.56 0.71 0.45 0.35 0.30 0.24 0.32 0.41 0.48 0.61 0.67 0.66 0.71 0.69 0.53 0.36 0.27 0.24 0.22 0.22 0.19 0.17 0.15 0.13 0.12 0.12 0.12 0.11 0.09 0.07
0.18 0.41 0.45 0.44 0.34 0.41 0.39 0.47 0.49 0.63 0.96 0.97 0.71 0.53 0.43 0.28 0.28 0.33 0.26 0.32 0.38 0.35 0.30 0.28 0.26 0.26 0.25 0.25 0.19 0.14 0.12 0.12 0.12 0.11 0.07 0.05 0.04 0.04 0.03 0.03 0.03 0.03 0.03
0.15 0.21 0.33 0.41 0.46 0.36 0.31 0.30 0.37 0.38 0.32 0.34 0.34 0.33 0.27 0.20 0.18 0.24 0.23 0.27 0.25 0.21 0.18 0.15 0.17 0.16 0.18 0.17 0.11 0.09 0.06 0.05 0.04 0.03 0.03 0.03 0.02 0.01 0.01 0.01 0.01 0.01 0.01
0.19 0.20 0.21 0.31 0.50 0.61 0.67 0.46 0.37 0.42 0.35 0.23 0.21 0.19 0.13 0.12 0.12 0.13 0.11 0.10 0.10 0.14 0.15 0.15 0.14 0.12 0.11 0.09 0.05 0.03 0.02 0.01 0.01 0.01 0.01 0.01 0.01 0.01 0.00 0.01 0.01 0.02 0.03
0.62 0.38 0.27 0.24 0.30 0.60 1.06 1.12 0.96 0.94 0.84 0.77 0.61 0.40 0.34 0.34 0.27 0.21 0.17 0.14 0.10 0.08 0.09 0.10 0.09 0.09 0.08 0.08 0.05 0.05 0.04 0.03 0.03 0.03 0.03 0.05 0.06 0.04 0.01 0.01 0.00 0.01 0.01

GFSGL_prec_precacc24_069.txt.gz
Total_Precipitation_Accumulation
0.00 0.00 0.00 0.00 0.00 0.00 0.00 0.00 0.00 0.00 0.00 0.00 0.00 0.02 0.02 0.03 0.02 0.02 0.00 0.01 0.01 0.00 0.00 0.00 0.00 0.00 0.00 0.00 0.00 0.00 0.00 0.00 0.00 0.00 0.00 0.00 0.00 0.00 0.00 0.00 0.00 0.00 0.01
0.00 0.00 0.00 0.00 0.00 0.00 0.00 0.00 0.00 0.00 0.00 0.01 0.00 0.00 0.00 0.00 0.02 0.01 0.06 0.00 0.00 0.00 0.00 0.00 0.00 0.00 0.00 0.00 0.00 0.00 0.00 0.00 0.00 0.00 0.00 0.00 0.00 0.00 0.00 0.00 0.00 0.00 0.01
0.00 0.00 0.00 0.00 0.00 0.00 0.00 0.00 0.00 0.00 0.00 0.00 0.00 0.00 0.00 0.00 0.00 0.00 0.02 0.02 0.00 0.00 0.00 0.00 0.00 0.00 0.00 0.00 0.00 0.00 0.00 0.00 0.00 0.00 0.00 0.00 0.00 0.00 0.00 0.00 0.00 0.00 0.00
0.00 0.00 0.00 0.00 0.00 0.00 0.00 0.00 0.00 0.00 0.00 0.00 0.00 0.00 0.00 0.00 0.00 0.00 0.00 0.00 0.00 0.00 0.00 0.00 0.00 0.00 0.00 0.01 0.00 0.00 0.00 0.00 0.00 0.00 0.00 0.00 0.00 0.00 0.00 0.00 0.00 0.00 0.00
0.01 0.00 0.00 0.00 0.00 0.00 0.00 0.00 0.00 0.00 0.00 0.00 0.00 0.00 0.00 0.00 0.00 0.00 0.00 0.00 0.00 0.00 0.00 0.00 0.00 0.00 0.00 0.00 0.00 0.00 0.00 0.00 0.00 0.00 0.00 0.00 0.00 0.00 0.00 0.00 0.00 0.00 0.00
0.01 0.01 0.02 0.00 0.00 0.00 0.00 0.00 0.00 0.00 0.00 0.00 0.00 0.00 0.00 0.00 0.00 0.00 0.00 0.00 0.00 0.00 0.00 0.00 0.00 0.00 0.00 0.00 0.00 0.00 0.00 0.00 0.00 0.00 0.00 0.00 0.00 0.00 0.00 0.00 0.00 0.00 0.00
0.02 0.03 0.03 0.02 0.00 0.00 0.00 0.00 0.00 0.00 0.00 0.00 0.00 0.00 0.00 0.00 0.00 0.00 0.00 0.00 0.00 0.00 0.00 0.00 0.00 0.00 0.00 0.00 0.00 0.00 0.00 0.00 0.00 0.00 0.00 0.00 0.00 0.00 0.00 0.00 0.01 0.02 0.04
0.09 0.01 0.00 0.03 0.01 0.01 0.00 0.00 0.00 0.00 0.00 0.00 0.00 0.00 0.00 0.00 0.00 0.00 0.00 0.00 0.00 0.00 0.00 0.00 0.00 0.00 0.00 0.00 0.00 0.00 0.00 0.00 0.00 0.00 0.00 0.00 0.00 0.00 0.01 0.03 0.05 0.04 0.03
0.07 0.03 0.00 0.00 0.01 0.02 0.00 0.01 0.01 0.00 0.00 0.00 0.00 0.00 0.00 0.00 0.00 0.00 0.00 0.00 0.00 0.00 0.00 0.00 0.00 0.00 0.00 0.00 0.00 0.00 0.00 0.00 0.00 0.00 0.00 0.00 0.00 0.00 0.00 0.00 0.00 0.02 0.03
0.09 0.03 0.04 0.01 0.00 0.00 0.02 0.04 0.02 0.00 0.00 0.00 0.00 0.00 0.00 0.00 0.00 0.00 0.00 0.00 0.00 0.00 0.00 0.00 0.00 0.00 0.00 0.00 0.00 0.00 0.00 0.00 0.00 0.00 0.00 0.01 0.01 0.03 0.00 0.00 0.01 0.05 0.06
0.12 0.11 0.08 0.03 0.03 0.04 0.06 0.06 0.06 0.04 0.03 0.00 0.00 0.00 0.00 0.00 0.00 0.00 0.00 0.00 0.00 0.00 0.00 0.00 0.00 0.00 0.00 0.00 0.00 0.00 0.00 0.00 0.00 0.01 0.01 0.01 0.02 0.06 0.09 0.08 0.09 0.10 0.05
0.11 0.12 0.04 0.03 0.05 0.08 0.03 0.05 0.08 0.07 0.03 0.01 0.00 0.00 0.00 0.00 0.00 0.00 0.00 0.00 0.00 0.00 0.00 0.00 0.00 0.00 0.00 0.00 0.00 0.00 0.00 0.00 0.00 0.01 0.01 0.02 0.03 0.03 0.03 0.05 0.04 0.05 0.09
0.07 0.10 0.09 0.06 0.02 0.04 0.04 0.07 0.04 0.05 0.03 0.04 0.00 0.00 0.00 0.00 0.00 0.00 0.00 0.00 0.00 0.00 0.00 0.00 0.00 0.00 0.00 0.00 0.00 0.00 0.00 0.00 0.01 0.04 0.06 0.05 0.03 0.04 0.04 0.02 0.01 0.04 0.07
0.11 0.06 0.08 0.14 0.08 0.06 0.05 0.08 0.01 0.01 0.01 0.01 0.00 0.00 0.00 0.00 0.00 0.00 0.00 0.00 0.00 0.00 0.00 0.00 0.00 0.00 0.00 0.00 0.00 0.00 0.00 0.02 0.06 0.08 0.07 0.06 0.04 0.01 0.01 0.01 0.01 0.01 0.01
0.00 0.03 0.08 0.11 0.14 0.11 0.07 0.07 0.04 0.03 0.05 0.01 0.01 0.01 0.01 0.00 0.04 0.03 0.01 0.01 0.01 0.01 0.13 0.04 0.00 0.00 0.00 0.00 0.00 0.01 0.02 0.03 0.05 0.07 0.06 0.06 0.02 0.02 0.03 0.01 0.01 0.01 0.01
0.01 0.00 0.01 0.06 0.11 0.08 0.07 0.05 0.17 0.19 0.14 0.07 0.21 0.08 0.03 0.06 0.11 0.10 0.09 0.08 0.14 0.14 0.14 0.00 0.00 0.00 0.00 0.00 0.00 0.01 0.01 0.02 0.03 0.02 0.02 0.02 0.02 0.02 0.05 0.06 0.01 0.00 0.00
0.04 0.02 0.00 0.00 0.03 0.16 0.21 0.12 0.06 0.11 0.18 0.17 0.28 0.31 0.27 0.25 0.21 0.25 0.41 0.25 0.25 0.34 0.07 0.01 0.01 0.02 0.01 0.01 0.00 0.01 0.01 0.02 0.03 0.07 0.13 0.18 0.19 0.15 0.09 0.08 0.02 0.00 0.00
0.09 0.15 0.05 0.02 0.08 0.12 0.37 0.48 0.31 0.21 0.18 0.12 0.16 0.20 0.22 0.39 0.31 0.48 0.75 0.80 0.46 0.36 0.22 0.24 0.23 0.23 0.23 0.17 0.16 0.21 0.23 0.25 0.29 0.34 0.33 0.26 0.23 0.18 0.09 0.06 0.06 0.05 0.09
0.19 0.22 0.17 0.25 0.24 0.21 0.19 0.22 0.28 0.27 0.38 0.37 0.33 0.37 0.38 0.38 0.40 0.46 0.57 0.39 0.33 0.45 0.39 0.50 0.50 0.44 0.44 0.40 0.53 0.67 0.86 0.89 0.86 0.73 0.50 0.30 0.25 0.17 0.10 0.12 0.13 0.15 0.16
0.24 0.26 0.16 0.45 0.82 0.81 0.67 0.44 0.29 0.16 0.13 0.19 0.25 0.39 0.37 0.42 0.40 0.62 0.94 0.95 0.87 0.71 0.64 0.62 0.67 0.62 0.75 0.70 0.70 0.72 0.66 0.57 0.55 0.52 0.45 0.31 0.27 0.17 0.11 0.11 0.08 0.05 0.05
0.34 0.40 0.37 0.32 0.34 0.44 0.70 0.93 0.72 0.36 0.20 0.29 0.29 0.38 0.50 0.40 0.45 0.69 0.74 1.02 1.15 1.19 1.15 1.09 1.22 1.04 0.80 0.63 0.43 0.32 0.30 0.28 0.26 0.25 0.23 0.20 0.23 0.24 0.19 0.13 0.12 0.11 0.11
0.37 0.39 0.35 0.36 0.34 0.38 0.31 0.49 1.05 0.85 0.52 0.42 0.42 0.57 0.72 0.48 0.42 0.39 0.33 0.39 0.49 0.57 0.66 0.69 0.68 0.73 0.70 0.54 0.39 0.31 0.26 0.22 0.22 0.19 0.17 0.15 0.12 0.12 0.13 0.14 0.14 0.13 0.10
0.18 0.42 0.46 0.44 0.35 0.42 0.40 0.48 0.50 0.64 0.96 0.97 0.71 0.54 0.44 0.29 0.31 0.39 0.35 0.39 0.45 0.44 0.37 0.34 0.31 0.32 0.28 0.28 0.20 0.15 0.13 0.12 0.13 0.12 0.07 0.05 0.05 0.05 0.04 0.04 0.04 0.04 0.04
0.16 0.21 0.34 0.41 0.46 0.37 0.32 0.31 0.38 0.39 0.32 0.34 0.34 0.34 0.28 0.20 0.19 0.26 0.27 0.31 0.30 0.25 0.24 0.23 0.26 0.21 0.23 0.23 0.18 0.12 0.07 0.06 0.05 0.03 0.04 0.04 0.03 0.02 0.01 0.01 0.01 0.01 0.01
0.19 0.20 0.21 0.32 0.50 0.62 0.67 0.47 0.37 0.42 0.36 0.23 0.22 0.20 0.14 0.12 0.13 0.14 0.13 0.12 0.12 0.16 0.16 0.16 0.16 0.13 0.14 0.15 0.13 0.08 0.07 0.07 0.05 0.05 0.05 0.03 0.03 0.02 0.02 0.02 0.02 0.02 0.03
0.63 0.37 0.27 0.24 0.30 0.60 1.06 1.12 0.97 0.95 0.85 0.78 0.61 0.41 0.36 0.35 0.29 0.23 0.18 0.16 0.12 0.10 0.10 0.11 0.10 0.10 0.09 0.09 0.09 0.13 0.13 0.11 0.08 0.07 0.06 0.07 0.07 0.07 0.07 0.08 0.09 0.10 0.09

GFSGL_prec_precacc24_072.txt.gz
Total_Precipitation_Accumulation
0.00 0.00 0.00 0.00 0.00 0.00 0.00 0.00 0.00 0.00 0.00 0.01 0.06 0.08 0.07 0.05 0.02 0.04 0.02 0.01 0.01 0.00 0.00 0.00 0.00 0.00 0.00 0.00 0.00 0.00 0.00 0.00 0.00 0.00 0.00 0.00 0.00 0.00 0.00 0.00 0.00 0.00 0.01
0.00 0.00 0.00 0.00 0.00 0.00 0.00 0.00 0.00 0.00 0.00 0.02 0.07 0.05 0.05 0.01 0.02 0.05 0.07 0.01 0.01 0.00 0.00 0.00 0.00 0.00 0.00 0.00 0.00 0.00 0.00 0.00 0.00 0.00 0.00 0.00 0.00 0.00 0.00 0.00 0.00 0.00 0.01
0.00 0.00 0.00 0.00 0.00 0.00 0.00 0.00 0.00 0.00 0.00 0.00 0.01 0.07 0.07 0.05 0.02 0.02 0.05 0.04 0.02 0.00 0.00 0.00 0.00 0.00 0.00 0.00 0.00 0.00 0.00 0.00 0.00 0.00 0.00 0.00 0.00 0.00 0.00 0.00 0.00 0.00 0.00
0.00 0.00 0.00 0.00 0.00 0.00 0.00 0.00 0.00 0.00 0.00 0.00 0.00 0.01 0.03 0.04 0.03 0.04 0.04 0.03 0.03 0.01 0.00 0.00 0.00 0.00 0.00 0.01 0.00 0.00 0.00 0.00 0.00 0.00 0.00 0.00 0.00 0.00 0.00 0.00 0.00 0.00 0.00
0.01 0.00 0.00 0.00 0.00 0.00 0.00 0.00 0.00 0.00 0.00 0.00 0.00 0.00 0.00 0.00 0.00 0.00 0.00 0.01 0.01 0.00 0.00 0.00 0.00 0.00 0.00 0.00 0.00 0.00 0.00 0.00 0.00 0.00 0.00 0.00 0.00 0.00 0.00 0.00 0.00 0.00 0.00
0.01 0.01 0.02 0.00 0.00 0.00 0.00 0.00 0.00 0.00 0.00 0.00 0.00 0.00 0.00 0.00 0.00 0.00 0.00 0.00 0.00 0.00 0.00 0.00 0.00 0.00 0.00 0.00 0.00 0.00 0.00 0.00 0.00 0.00 0.00 0.00 0.00 0.00 0.00 0.00 0.00 0.00 0.00
0.03 0.04 0.03 0.02 0.00 0.00 0.00 0.00 0.00 0.00 0.00 0.00 0.00 0.00 0.00 0.00 0.00 0.00 0.00 0.00 0.00 0.00 0.00 0.00 0.00 0.00 0.00 0.00 0.00 0.00 0.00 0.00 0.00 0.00 0.00 0.00 0.00 0.00 0.00 0.00 0.00 0.01 0.02
0.10 0.02 0.01 0.03 0.01 0.01 0.00 0.00 0.00 0.00 0.00 0.00 0.00 0.00 0.00 0.00 0.00 0.00 0.00 0.00 0.00 0.00 0.00 0.00 0.00 0.00 0.00 0.00 0.00 0.00 0.00 0.00 0.00 0.00 0.00 0.00 0.00 0.00 0.00 0.01 0.03 0.03 0.03
0.11 0.09 0.03 0.01 0.01 0.03 0.01 0.02 0.01 0.00 0.00 0.00 0.00 0.00 0.00 0.00 0.00 0.00 0.00 0.00 0.00 0.00 0.00 0.00 0.00 0.00 0.00 0.00 0.00 0.00 0.00 0.00 0.00 0.00 0.00 0.00 0.00 0.00 0.00 0.00 0.00 0.02 0.03
0.10 0.08 0.07 0.04 0.01 0.01 0.07 0.09 0.09 0.05 0.01 0.00 0.00 0.00 0.00 0.00 0.00 0.00 0.00 0.00 0.00 0.00 0.00 0.00 0.00 0.00 0.00 0.00 0.00 0.00 0.00 0.00 0.00 0.00 0.00 0.00 0.01 0.02 0.00 0.00 0.01 0.04 0.04
0.12 0.13 0.12 0.04 0.04 0.04 0.07 0.12 0.17 0.14 0.08 0.02 0.00 0.00 0.00 0.00 0.00 0.00 0.00 0.00 0.00 0.00 0.00 0.00 0.00 0.00 0.00 0.00 0.00 0.00 0.00 0.00 0.00 0.00 0.01 0.01 0.02 0.06 0.08 0.07 0.09 0.09 0.05
0.11 0.12 0.05 0.03 0.05 0.08 0.04 0.05 0.11 0.19 0.16 0.08 0.05 0.01 0.00 0.00 0.00 0.00 0.00 0.00 0.00 0.00 0.00 0.00 0.00 0.00 0.00 0.00 0.00 0.00 0.00 0.00 0.00 0.00 0.00 0.00 0.01 0.02 0.01 0.02 0.02 0.04 0.08
0.07 0.10 0.10 0.06 0.02 0.04 0.04 0.07 0.05 0.06 0.10 0.16 0.10 0.03 0.00 0.00 0.00 0.00 0.00 0.00 0.00 0.00 0.00 0.00 0.00 0.00 0.00 0.00 0.00 0.00 0.00 0.00 0.00 0.00 0.01 0.02 0.01 0.00 0.01 0.01 0.01 0.04 0.07
0.11 0.06 0.08 0.14 0.08 0.06 0.05 0.08 0.01 0.01 0.01 0.02 0.05 0.05 0.03 0.00 0.00 0.00 0.00 0.00 0.00 0.00 0.00 0.00 0.00 0.00 0.00 0.00 0.00 0.00 0.00 0.00 0.00 0.01 0.00 0.01 0.01 0.01 0.01 0.01 0.01 0.01 0.01
0.00 0.03 0.08 0.11 0.14 0.11 0.07 0.07 0.04 0.03 0.04 0.01 0.02 0.05 0.07 0.01 0.04 0.04 0.04 0.04 0.03 0.04 0.15 0.04 0.00 0.00 0.00 0.00 0.00 0.01 0.02 0.00 0.00 0.01 0.03 0.04 0.02 0.02 0.03 0.01 0.01 0.01 0.01
0.01 0.00 0.01 0.06 0.11 0.08 0.06 0.04 0.16 0.18 0.14 0.07 0.22 0.10 0.04 0.07 0.15 0.14 0.16 0.19 0.26 0.19 0.15 0.00 0.00 0.00 0.00 0.00 0.00 0.00 0.01 0.01 0.01 0.01 0.02 0.02 0.02 0.02 0.05 0.06 0.01 0.00 0.00
0.03 0.01 0.01 0.00 0.02 0.06 0.06 0.03 0.01 0.05 0.15 0.17 0.28 0.32 0.29 0.26 0.27 0.31 0.55 0.49 0.32 0.34 0.06 0.01 0.01 0.02 0.01 0.01 0.00 0.01 0.01 0.02 0.03 0.07 0.13 0.18 0.19 0.15 0.09 0.08 0.02 0.00 0.00
0.09 0.09 0.03 0.01 0.01 0.02 0.07 0.16 0.09 0.07 0.13 0.10 0.16 0.19 0.22 0.40 0.35 0.64 1.09 1.05 0.56 0.37 0.22 0.24 0.23 0.24 0.23 0.18 0.16 0.21 0.23 0.25 0.29 0.34 0.33 0.26 0.23 0.18 0.09 0.06 0.06 0.05 0.09
0.19 0.22 0.17 0.24 0.23 0.19 0.15 0.16 0.18 0.22 0.35 0.34 0.33 0.36 0.35 0.36 0.44 0.60 0.76 0.43 0.34 0.46 0.41 0.50 0.50 0.44 0.45 0.40 0.53 0.68 0.86 0.89 0.86 0.73 0.50 0.30 0.25 0.17 0.10 0.12 0.13 0.15 0.16
0.24 0.27 0.16 0.45 0.81 0.81 0.67 0.43 0.29 0.16 0.13 0.19 0.25 0.39 0.37 0.41 0.40 0.64 0.99 0.98 0.89 0.71 0.65 0.62 0.68 0.62 0.76 0.70 0.71 0.72 0.67 0.58 0.56 0.52 0.45 0.31 0.26 0.16 0.10 0.10 0.07 0.05 0.05
0.34 0.40 0.37 0.31 0.32 0.42 0.70 0.92 0.71 0.36 0.20 0.29 0.29 0.38 0.50 0.40 0.45 0.69 0.74 1.02 1.15 1.20 1.15 1.09 1.22 1.04 0.81 0.64 0.45 0.33 0.31 0.29 0.27 0.26 0.24 0.21 0.23 0.24 0.18 0.12 0.12 0.11 0.11
0.38 0.39 0.34 0.36 0.34 0.35 0.26 0.46 1.04 0.84 0.51 0.42 0.41 0.56 0.72 0.48 0.42 0.39 0.33 0.41 0.51 0.60 0.70 0.70 0.68 0.75 0.74 0.57 0.41 0.36 0.31 0.24 0.23 0.20 0.18 0.16 0.14 0.14 0.14 0.14 0.13 0.13 0.11
0.20 0.43 0.46 0.44 0.36 0.42 0.38 0.45 0.47 0.62 0.96 0.97 0.70 0.53 0.44 0.29 0.31 0.40 0.35 0.40 0.49 0.50 0.44 0.41 0.39 0.40 0.38 0.40 0.30 0.22 0.18 0.16 0.20 0.22 0.16 0.12 0.11 0.09 0.08 0.07 0.06 0.04 0.03
0.17 0.22 0.34 0.42 0.48 0.38 0.32 0.31 0.38 0.39 0.31 0.34 0.34 0.34 0.28 0.21 0.19 0.26 0.27 0.32 0.30 0.28 0.31 0.30 0.33 0.30 0.31 0.30 0.27 0.27 0.17 0.13 0.12 0.12 0.15 0.16 0.13 0.09 0.05 0.04 0.04 0.03 0.02
0.20 0.20 0.21 0.32 0.51 0.62 0.68 0.47 0.37 0.42 0.36 0.23 0.22 0.20 0.14 0.12 0.13 0.14 0.13 0.13 0.13 0.17 0.18 0.19 0.18 0.18 0.19 0.19 0.19 0.20 0.23 0.24 0.23 0.22 0.23 0.25 0.21 0.13 0.10 0.07 0.06 0.06 0.04
0.63 0.38 0.28 0.24 0.30 0.60 1.06 1.12 0.97 0.95 0.85 0.78 0.62 0.41 0.36 0.35 0.29 0.23 0.18 0.16 0.13 0.11 0.11 0.12 0.11 0.12 0.12 0.11 0.11 0.16 0.20 0.18 0.15 0.12 0.09 0.09 0.12 0.12 0.11 0.12 0.13 0.15 0.16

GFSGL_prec_precacc24_075.txt.gz
Total_Precipitation_Accumulation
0.00 0.00 0.00 0.00 0.00 0.00 0.00 0.00 0.00 0.00 0.00 0.03 0.07 0.08 0.08 0.05 0.02 0.05 0.02 0.01 0.01 0.00 0.00 0.00 0.00 0.00 0.00 0.00 0.00 0.00 0.00 0.00 0.00 0.00 0.00 0.00 0.00 0.00 0.00 0.00 0.00 0.00 0.01
0.00 0.00 0.00 0.00 0.00 0.00 0.00 0.00 0.00 0.00 0.00 0.04 0.07 0.05 0.05 0.01 0.02 0.05 0.07 0.01 0.01 0.00 0.00 0.00 0.00 0.00 0.00 0.00 0.00 0.00 0.00 0.00 0.00 0.00 0.00 0.00 0.00 0.00 0.00 0.00 0.00 0.00 0.01
0.00 0.00 0.00 0.00 0.00 0.00 0.00 0.00 0.00 0.00 0.00 0.00 0.01 0.07 0.07 0.06 0.05 0.07 0.07 0.04 0.02 0.00 0.00 0.00 0.00 0.00 0.00 0.00 0.00 0.00 0.00 0.00 0.00 0.00 0.00 0.00 0.00 0.00 0.00 0.00 0.00 0.00 0.00
0.02 0.00 0.00 0.00 0.00 0.00 0.00 0.00 0.00 0.00 0.00 0.00 0.00 0.01 0.03 0.04 0.03 0.05 0.10 0.05 0.03 0.01 0.00 0.00 0.00 0.00 0.00 0.01 0.00 0.00 0.00 0.00 0.00 0.00 0.00 0.00 0.00 0.00 0.00 0.00 0.00 0.00 0.00
0.04 0.02 0.03 0.00 0.00 0.00 0.00 0.00 0.00 0.00 0.00 0.00 0.00 0.00 0.00 0.00 0.00 0.00 0.00 0.02 0.02 0.00 0.00 0.00 0.00 0.00 0.00 0.00 0.00 0.00 0.00 0.00 0.00 0.00 0.00 0.00 0.00 0.00 0.00 0.00 0.00 0.00 0.00
0.09 0.06 0.02 0.01 0.01 0.01 0.00 0.00 0.00 0.00 0.00 0.00 0.00 0.00 0.00 0.00 0.00 0.00 0.00 0.00 0.01 0.00 0.00 0.00 0.00 0.00 0.00 0.00 0.00 0.00 0.00 0.00 0.00 0.00 0.00 0.00 0.00 0.00 0.00 0.00 0.00 0.00 0.00
0.10 0.06 0.04 0.02 0.00 0.01 0.02 0.01 0.00 0.00 0.00 0.00 0.00 0.00 0.00 0.00 0.00 0.00 0.00 0.00 0.00 0.00 0.01 0.00 0.00 0.00 0.00 0.00 0.00 0.00 0.00 0.00 0.00 0.00 0.00 0.00 0.00 0.00 0.00 0.00 0.00 0.00 0.01
0.11 0.02 0.01 0.03 0.02 0.02 0.02 0.03 0.01 0.00 0.00 0.00 0.00 0.00 0.00 0.00 0.00 0.00 0.00 0.00 0.00 0.00 0.00 0.00 0.01 0.00 0.00 0.00 0.00 0.00 0.00 0.00 0.00 0.00 0.00 0.00 0.00 0.00 0.00 0.00 0.01 0.01 0.02
0.12 0.13 0.07 0.02 0.02 0.04 0.02 0.05 0.05 0.02 0.00 0.00 0.00 0.00 0.00 0.00 0.00 0.00 0.00 0.00 0.00 0.00 0.00 0.00 0.00 0.00 0.00 0.00 0.00 0.00 0.00 0.00 0.00 0.00 0.00 0.00 0.00 0.00 0.00 0.00 0.00 0.02 0.02
0.10 0.09 0.10 0.07 0.03 0.04 0.09 0.11 0.13 0.10 0.04 0.02 0.01 0.00 0.00 0.00 0.00 0.00 0.00 0.00 0.00 0.00 0.00 0.00 0.00 0.00 0.00 0.00 0.00 0.00 0.00 0.00 0.00 0.00 0.00 0.00 0.00 0.01 0.00 0.00 0.00 0.03 0.03
0.12 0.13 0.12 0.05 0.05 0.05 0.08 0.13 0.19 0.20 0.17 0.09 0.04 0.03 0.02 0.01 0.00 0.00 0.00 0.00 0.00 0.00 0.00 0.00 0.00 0.00 0.00 0.00 0.00 0.00 0.00 0.00 0.00 0.00 0.00 0.00 0.01 0.03 0.04 0.02 0.04 0.06 0.04
0.11 0.12 0.05 0.03 0.05 0.08 0.04 0.05 0.11 0.22 0.25 0.19 0.17 0.09 0.05 0.03 0.01 0.00 0.00 0.00 0.00 0.00 0.00 0.00 0.00 0.00 0.00 0.00 0.00 0.00 0.00 0.00 0.00 0.00 0.00 0.00 0.00 0.01 0.00 0.00 0.02 0.02 0.04
0.07 0.10 0.10 0.06 0.02 0.04 0.04 0.07 0.05 0.07 0.13 0.23 0.22 0.13 0.09 0.08 0.02 0.00 0.01 0.01 0.00 0.00 0.00 0.00 0.00 0.00 0.00 0.00 0.00 0.00 0.00 0.00 0.00 0.00 0.00 0.00 0.00 0.00 0.00 0.00 0.01 0.03 0.06
0.11 0.06 0.08 0.14 0.08 0.06 0.05 0.08 0.01 0.01 0.02 0.02 0.11 0.17 0.17 0.11 0.06 0.03 0.03 0.08 0.08 0.02 0.00 0.00 0.00 0.00 0.00 0.00 0.00 0.00 0.00 0.00 0.00 0.00 0.00 0.00 0.00 0.00 0.00 0.01 0.01 0.01 0.01
0.00 0.03 0.08 0.11 0.14 0.11 0.07 0.07 0.04 0.03 0.04 0.01 0.03 0.09 0.16 0.11 0.08 0.22 0.27 0.26 0.22 0.14 0.21 0.04 0.00 0.00 0.00 0.00 0.00 0.00 0.01 0.00 0.00 0.00 0.00 0.01 0.01 0.01 0.02 0.01 0.01 0.01 0.01
0.01 0.00 0.01 0.06 0.11 0.08 0.06 0.04 0.08 0.09 0.09 0.06 0.18 0.08 0.05 0.10 0.29 0.35 0.40 0.52 0.66 0.55 0.34 0.01 0.00 0.00 0.00 0.00 0.00 0.00 0.01 0.01 0.01 0.01 0.01 0.01 0.02 0.02 0.05 0.06 0.01 0.00 0.00
0.03 0.01 0.01 0.00 0.02 0.06 0.05 0.02 0.01 0.05 0.06 0.09 0.09 0.13 0.11 0.07 0.16 0.29 0.59 0.72 0.60 0.63 0.12 0.01 0.01 0.02 0.01 0.01 0.00 0.01 0.01 0.02 0.03 0.07 0.12 0.18 0.19 0.15 0.09 0.08 0.02 0.00 0.00
0.07 0.08 0.02 0.01 0.01 0.02 0.03 0.05 0.02 0.01 0.03 0.04 0.07 0.11 0.10 0.12 0.19 0.48 0.97 1.05 0.60 0.40 0.22 0.25 0.23 0.24 0.23 0.18 0.16 0.21 0.23 0.25 0.29 0.34 0.33 0.26 0.23 0.18 0.09 0.06 0.06 0.05 0.09
0.16 0.21 0.16 0.22 0.21 0.14 0.08 0.08 0.08 0.10 0.14 0.20 0.18 0.23 0.22 0.28 0.40 0.58 0.76 0.43 0.33 0.45 0.40 0.47 0.48 0.44 0.45 0.40 0.53 0.68 0.87 0.91 0.88 0.75 0.54 0.35 0.26 0.18 0.11 0.12 0.13 0.15 0.16
0.17 0.26 0.16 0.45 0.80 0.80 0.64 0.40 0.25 0.15 0.12 0.17 0.24 0.37 0.34 0.39 0.36 0.58 0.94 0.85 0.75 0.67 0.62 0.61 0.68 0.62 0.76 0.71 0.71 0.75 0.71 0.65 0.66 0.59 0.50 0.43 0.38 0.29 0.27 0.27 0.20 0.15 0.09
0.28 0.39 0.37 0.32 0.32 0.41 0.68 0.91 0.70 0.35 0.20 0.29 0.29 0.37 0.48 0.38 0.41 0.63 0.68 0.93 1.12 1.19 1.15 1.09 1.26 1.10 0.84 0.68 0.48 0.35 0.34 0.36 0.34 0.32 0.28 0.24 0.27 0.26 0.20 0.16 0.18 0.19 0.19
0.37 0.38 0.34 0.36 0.34 0.32 0.23 0.42 1.03 0.84 0.50 0.40 0.40 0.54 0.68 0.47 0.41 0.37 0.32 0.39 0.50 0.60 0.70 0.72 0.74 0.85 0.88 0.72 0.58 0.48 0.40 0.32 0.31 0.30 0.26 0.27 0.26 0.20 0.17 0.21 0.26 0.24 0.14
0.19 0.42 0.46 0.44 0.34 0.37 0.35 0.40 0.41 0.59 0.93 0.94 0.67 0.50 0.39 0.27 0.30 0.38 0.35 0.40 0.49 0.50 0.44 0.41 0.40 0.48 0.52 0.57 0.47 0.34 0.22 0.19 0.26 0.30 0.21 0.17 0.22 0.23 0.19 0.18 0.23 0.22 0.15
0.18 0.23 0.35 0.42 0.49 0.38 0.31 0.28 0.33 0.32 0.25 0.31 0.31 0.31 0.25 0.19 0.18 0.25 0.27 0.32 0.30 0.28 0.31 0.30 0.33 0.30 0.33 0.35 0.33 0.30 0.18 0.14 0.13 0.15 0.18 0.18 0.16 0.14 0.13 0.12 0.15 0.16 0.11
0.20 0.21 0.22 0.33 0.52 0.64 0.68 0.47 0.36 0.40 0.31 0.21 0.20 0.20 0.13 0.11 0.11 0.13 0.13 0.13 0.13 0.17 0.18 0.19 0.18 0.18 0.19 0.20 0.20 0.22 0.24 0.28 0.26 0.24 0.25 0.26 0.24 0.17 0.17 0.16 0.13 0.09 0.08
0.64 0.39 0.28 0.24 0.30 0.60 1.06 1.13 0.97 0.94 0.84 0.78 0.61 0.42 0.37 0.36 0.29 0.23 0.19 0.16 0.13 0.11 0.11 0.12 0.11 0.12 0.12 0.11 0.12 0.17 0.21 0.20 0.18 0.16 0.12 0.12 0.14 0.13 0.13 0.13 0.16 0.17 0.17

GFSGL_prec_precacc24_078.txt.gz
Total_Precipitation_Accumulation
0.00 0.00 0.00 0.00 0.00 0.00 0.00 0.00 0.00 0.00 0.04 0.24 0.74 0.14 0.14 0.06 0.03 0.06 0.09 0.05 0.03 0.01 0.00 0.01 0.00 0.01 0.00 0.00 0.00 0.00 0.00 0.00 0.00 0.00 0.00 0.00 0.00 0.00 0.00 0.00 0.00 0.00 0.01
0.00 0.01 0.00 0.00 0.00 0.00 0.00 0.00 0.00 0.00 0.01 0.06 0.10 0.12 0.12 0.04 0.07 0.10 0.09 0.04 0.06 0.01 0.00 0.01 0.01 0.00 0.01 0.00 0.00 0.00 0.00 0.00 0.00 0.00 0.00 0.00 0.00 0.00 0.00 0.00 0.00 0.00 0.01
0.02 0.00 0.00 0.00 0.00 0.00 0.01 0.00 0.00 0.00 0.00 0.00 0.01 0.09 0.11 0.09 0.13 0.18 0.13 0.06 0.06 0.02 0.00 0.01 0.00 0.00 0.02 0.00 0.01 0.00 0.00 0.00 0.00 0.00 0.00 0.00 0.00 0.00 0.00 0.00 0.00 0.00 0.00
0.14 0.15 0.07 0.01 0.00 0.00 0.01 0.02 0.02 0.01 0.00 0.00 0.00 0.03 0.06 0.05 0.04 0.08 0.14 0.10 0.08 0.05 0.03 0.00 0.00 0.00 0.01 0.01 0.00 0.00 0.00 0.00 0.00 0.00 0.00 0.00 0.00 0.00 0.00 0.00 0.00 0.00 0.00
0.20 0.35 0.54 0.57 0.11 0.01 0.02 0.05 0.05 0.03 0.00 0.00 0.00 0.00 0.01 0.01 0.00 0.00 0.02 0.04 0.09 0.05 0.06 0.04 0.00 0.00 0.00 0.01 0.00 0.01 0.01 0.00 0.00 0.00 0.00 0.00 0.00 0.00 0.00 0.00 0.00 0.00 0.00
0.29 0.30 0.27 0.56 0.29 0.11 0.05 0.03 0.04 0.02 0.02 0.01 0.00 0.00 0.00 0.00 0.00 0.00 0.00 0.00 0.02 0.04 0.02 0.02 0.00 0.00 0.00 0.00 0.00 0.00 0.01 0.01 0.01 0.00 0.00 0.00 0.00 0.01 0.00 0.00 0.00 0.00 0.00
0.22 0.16 0.15 0.21 0.17 0.13 0.08 0.05 0.04 0.04 0.03 0.02 0.01 0.00 0.00 0.00 0.00 0.00 0.00 0.00 0.01 0.04 0.05 0.03 0.01 0.00 0.00 0.00 0.00 0.00 0.00 0.00 0.00 0.00 0.00 0.00 0.00 0.00 0.00 0.00 0.00 0.00 0.00
0.13 0.03 0.03 0.05 0.06 0.13 0.09 0.08 0.08 0.07 0.05 0.04 0.02 0.02 0.00 0.00 0.00 0.00 0.00 0.00 0.00 0.00 0.01 0.02 0.01 0.00 0.00 0.01 0.01 0.00 0.00 0.00 0.00 0.00 0.00 0.00 0.00 0.00 0.00 0.00 0.00 0.00 0.01
0.13 0.13 0.07 0.02 0.02 0.09 0.11 0.13 0.14 0.10 0.06 0.05 0.04 0.02 0.01 0.00 0.00 0.00 0.00 0.00 0.00 0.00 0.00 0.00 0.00 0.00 0.00 0.00 0.00 0.00 0.00 0.00 0.00 0.00 0.00 0.00 0.00 0.00 0.00 0.00 0.00 0.01 0.02
0.10 0.09 0.10 0.08 0.04 0.05 0.14 0.15 0.16 0.14 0.09 0.08 0.05 0.04 0.02 0.01 0.00 0.00 0.00 0.00 0.00 0.00 0.00 0.00 0.00 0.00 0.00 0.00 0.00 0.00 0.00 0.00 0.00 0.00 0.00 0.00 0.00 0.00 0.00 0.00 0.00 0.02 0.02
0.12 0.13 0.12 0.05 0.05 0.05 0.09 0.15 0.25 0.24 0.21 0.13 0.08 0.07 0.07 0.05 0.03 0.01 0.01 0.01 0.00 0.00 0.00 0.00 0.00 0.00 0.00 0.00 0.00 0.00 0.00 0.00 0.00 0.00 0.00 0.00 0.00 0.00 0.00 0.00 0.00 0.00 0.02
0.11 0.12 0.05 0.03 0.05 0.08 0.04 0.05 0.11 0.23 0.25 0.21 0.20 0.11 0.07 0.05 0.02 0.01 0.02 0.02 0.01 0.00 0.00 0.00 0.00 0.00 0.00 0.00 0.00 0.00 0.00 0.00 0.00 0.00 0.00 0.00 0.00 0.00 0.00 0.00 0.00 0.01 0.02
0.07 0.10 0.10 0.06 0.02 0.04 0.03 0.06 0.04 0.06 0.12 0.24 0.22 0.13 0.09 0.09 0.04 0.02 0.03 0.08 0.07 0.07 0.00 0.00 0.00 0.00 0.00 0.00 0.00 0.00 0.00 0.00 0.00 0.00 0.00 0.00 0.00 0.00 0.00 0.00 0.00 0.01 0.01
0.11 0.06 0.08 0.14 0.08 0.06 0.05 0.08 0.01 0.01 0.01 0.02 0.11 0.17 0.18 0.15 0.11 0.12 0.23 0.26 0.22 0.09 0.04 0.00 0.00 0.00 0.00 0.00 0.00 0.00 0.00 0.00 0.00 0.00 0.00 0.00 0.00 0.00 0.00 0.00 0.00 0.00 0.01
0.00 0.03 0.08 0.11 0.14 0.11 0.06 0.07 0.04 0.03 0.04 0.01 0.03 0.09 0.16 0.12 0.15 0.33 0.48 0.62 0.44 0.32 0.41 0.09 0.00 0.00 0.00 0.00 0.00 0.00 0.00 0.00 0.00 0.00 0.00 0.01 0.01 0.01 0.01 0.00 0.01 0.01 0.01
0.01 0.00 0.01 0.06 0.10 0.07 0.06 0.03 0.07 0.09 0.09 0.06 0.17 0.08 0.04 0.10 0.30 0.41 0.52 0.72 0.91 0.71 0.41 0.09 0.03 0.00 0.00 0.00 0.00 0.00 0.00 0.00 0.00 0.01 0.01 0.01 0.02 0.02 0.05 0.06 0.01 0.00 0.00
0.02 0.01 0.01 0.00 0.02 0.06 0.05 0.02 0.01 0.05 0.06 0.09 0.09 0.13 0.10 0.07 0.15 0.27 0.56 0.70 0.58 0.57 0.13 0.03 0.02 0.04 0.06 0.07 0.04 0.03 0.02 0.02 0.03 0.07 0.12 0.17 0.19 0.15 0.09 0.08 0.02 0.00 0.00
0.04 0.06 0.02 0.01 0.01 0.02 0.03 0.05 0.02 0.01 0.02 0.02 0.05 0.09 0.08 0.10 0.17 0.41 0.81 0.65 0.25 0.13 0.16 0.19 0.19 0.23 0.24 0.21 0.21 0.26 0.23 0.25 0.29 0.37 0.34 0.26 0.23 0.18 0.09 0.06 0.06 0.05 0.09
0.06 0.07 0.08 0.09 0.08 0.08 0.07 0.07 0.03 0.07 0.05 0.02 0.03 0.07 0.10 0.22 0.29 0.47 0.63 0.27 0.21 0.24 0.32 0.37 0.36 0.39 0.40 0.39 0.53 0.75 1.00 0.95 0.94 0.76 0.58 0.40 0.31 0.25 0.16 0.14 0.14 0.17 0.18
0.04 0.06 0.06 0.10 0.34 0.44 0.52 0.31 0.09 0.05 0.08 0.15 0.16 0.22 0.28 0.34 0.26 0.35 0.54 0.52 0.18 0.13 0.21 0.34 0.45 0.46 0.64 0.65 0.73 0.82 0.79 0.74 0.74 0.64 0.53 0.50 0.50 0.48 0.44 0.43 0.33 0.31 0.22
0.07 0.09 0.15 0.15 0.18 0.23 0.49 0.78 0.60 0.33 0.18 0.27 0.27 0.35 0.48 0.38 0.38 0.52 0.47 0.48 0.27 0.29 0.45 0.79 1.13 1.06 0.85 0.73 0.57 0.51 0.46 0.44 0.45 0.41 0.31 0.25 0.32 0.36 0.29 0.30 0.28 0.39 0.44
0.20 0.18 0.19 0.21 0.21 0.19 0.19 0.42 1.03 0.84 0.50 0.40 0.39 0.54 0.67 0.45 0.39 0.36 0.31 0.35 0.39 0.43 0.53 0.64 0.71 0.85 0.90 0.82 0.78 0.75 0.69 0.59 0.57 0.52 0.45 0.42 0.38 0.31 0.25 0.27 0.31 0.28 0.21
0.13 0.27 0.27 0.27 0.26 0.34 0.34 0.40 0.41 0.58 0.93 0.94 0.67 0.50 0.39 0.26 0.29 0.37 0.32 0.34 0.41 0.42 0.39 0.39 0.40 0.49 0.53 0.61 0.59 0.55 0.47 0.53 0.66 0.72 0.65 0.51 0.45 0.36 0.27 0.19 0.24 0.22 0.15
0.17 0.20 0.28 0.30 0.31 0.27 0.25 0.27 0.33 0.32 0.23 0.29 0.31 0.31 0.24 0.18 0.15 0.22 0.25 0.31 0.30 0.28 0.30 0.29 0.33 0.30 0.33 0.35 0.34 0.34 0.24 0.21 0.22 0.28 0.33 0.34 0.29 0.27 0.26 0.20 0.18 0.17 0.12
0.18 0.20 0.22 0.31 0.47 0.38 0.40 0.27 0.22 0.31 0.25 0.14 0.15 0.17 0.12 0.10 0.10 0.10 0.11 0.13 0.13 0.18 0.18 0.19 0.18 0.18 0.18 0.20 0.20 0.22 0.27 0.31 0.29 0.26 0.26 0.27 0.25 0.18 0.19 0.18 0.14 0.10 0.09
0.63 0.37 0.26 0.23 0.29 0.59 1.02 1.04 0.90 0.87 0.77 0.68 0.51 0.33 0.30 0.31 0.26 0.21 0.17 0.16 0.13 0.10 0.11 0.12 0.11 0.12 0.12 0.11 0.12 0.17 0.22 0.21 0.21 0.21 0.16 0.14 0.15 0.13 0.13 0.13 0.16 0.17 0.18

GFSGL_prec_precacc24_081.txt.gz
Total_Precipitation_Accumulation
0.04 0.05 0.05 0.05 0.02 0.02 0.03 0.02 0.04 0.07 0.12 0.27 0.80 0.15 0.16 0.09 0.04 0.06 0.09 0.05 0.03 0.01 0.00 0.01 0.00 0.01 0.00 0.00 0.00 0.00 0.00 0.00 0.00 0.00 0.00 0.00 0.00 0.00 0.00 0.00 0.00 0.00 0.00
0.16 0.16 0.09 0.05 0.05 0.07 0.02 0.01 0.00 0.02 0.03 0.08 0.11 0.12 0.13 0.05 0.10 0.13 0.10 0.04 0.07 0.01 0.00 0.01 0.01 0.00 0.01 0.00 0.00 0.00 0.00 0.00 0.00 0.00 0.00 0.00 0.00 0.00 0.00 0.00 0.00 0.00 0.00
0.16 0.17 0.20 0.19 0.13 0.10 0.06 0.00 0.01 0.01 0.03 0.01 0.02 0.10 0.12 0.10 0.14 0.18 0.13 0.08 0.07 0.02 0.01 0.01 0.00 0.00 0.02 0.00 0.01 0.00 0.00 0.00 0.00 0.00 0.00 0.00 0.00 0.00 0.00 0.00 0.00 0.00 0.00
0.36 0.32 0.30 0.24 0.20 0.17 0.11 0.05 0.02 0.02 0.01 0.01 0.00 0.03 0.06 0.05 0.04 0.08 0.14 0.11 0.09 0.05 0.03 0.01 0.01 0.00 0.01 0.01 0.00 0.00 0.00 0.00 0.00 0.00 0.00 0.00 0.00 0.00 0.00 0.00 0.00 0.00 0.00
0.39 0.49 0.89 1.18 0.54 0.43 0.26 0.20 0.11 0.04 0.01 0.00 0.00 0.00 0.01 0.01 0.00 0.00 0.02 0.04 0.09 0.05 0.06 0.04 0.01 0.00 0.00 0.01 0.00 0.01 0.01 0.00 0.00 0.00 0.00 0.00 0.00 0.00 0.00 0.00 0.00 0.00 0.00
0.41 0.42 0.40 0.92 0.81 0.62 0.59 0.29 0.15 0.08 0.04 0.03 0.02 0.00 0.00 0.00 0.00 0.00 0.00 0.00 0.02 0.04 0.02 0.02 0.00 0.01 0.00 0.00 0.00 0.00 0.01 0.01 0.01 0.00 0.00 0.00 0.00 0.01 0.00 0.00 0.00 0.00 0.00
0.29 0.34 0.36 0.36 0.22 0.15 0.21 0.27 0.24 0.13 0.10 0.06 0.03 0.01 0.03 0.01 0.00 0.00 0.00 0.00 0.01 0.04 0.05 0.03 0.01 0.00 0.00 0.00 0.00 0.00 0.00 0.00 0.00 0.00 0.00 0.00 0.00 0.00 0.00 0.00 0.00 0.00 0.00
0.14 0.06 0.07 0.19 0.15 0.16 0.16 0.23 0.28 0.21 0.13 0.09 0.07 0.07 0.04 0.01 0.00 0.00 0.00 0.00 0.00 0.00 0.01 0.02 0.01 0.00 0.00 0.01 0.01 0.00 0.00 0.00 0.00 0.00 0.00 0.00 0.00 0.00 0.00 0.00 0.00 0.00 0.01
0.12 0.14 0.08 0.03 0.04 0.10 0.15 0.20 0.23 0.17 0.11 0.07 0.05 0.06 0.06 0.02 0.03 0.01 0.04 0.08 0.01 0.00 0.00 0.00 0.00 0.00 0.00 0.00 0.00 0.00 0.00 0.00 0.00 0.00 0.00 0.00 0.00 0.00 0.00 0.00 0.00 0.01 0.01
0.10 0.09 0.10 0.08 0.04 0.05 0.14 0.17 0.20 0.25 0.16 0.13 0.09 0.06 0.04 0.02 0.04 0.05 0.08 0.15 0.12 0.02 0.00 0.00 0.00 0.00 0.00 0.00 0.00 0.00 0.00 0.00 0.00 0.00 0.00 0.00 0.00 0.00 0.00 0.00 0.00 0.01 0.01
0.11 0.13 0.12 0.05 0.05 0.05 0.09 0.16 0.26 0.27 0.26 0.20 0.13 0.10 0.07 0.05 0.04 0.03 0.06 0.05 0.08 0.10 0.01 0.00 0.00 0.00 0.00 0.00 0.00 0.00 0.00 0.00 0.00 0.00 0.00 0.00 0.00 0.00 0.00 0.00 0.00 0.00 0.01
0.07 0.08 0.04 0.03 0.05 0.08 0.04 0.05 0.11 0.23 0.26 0.23 0.23 0.13 0.07 0.05 0.04 0.04 0.08 0.06 0.09 0.14 0.02 0.00 0.00 0.00 0.00 0.00 0.00 0.00 0.00 0.00 0.00 0.00 0.00 0.00 0.00 0.00 0.00 0.00 0.00 0.00 0.01
0.07 0.05 0.07 0.06 0.02 0.04 0.03 0.06 0.04 0.06 0.12 0.24 0.22 0.13 0.09 0.09 0.05 0.07 0.12 0.16 0.12 0.15 0.05 0.04 0.02 0.01 0.00 0.00 0.00 0.00 0.00 0.00 0.00 0.00 0.00 0.00 0.00 0.00 0.00 0.00 0.00 0.01 0.01
0.11 0.06 0.07 0.14 0.08 0.06 0.05 0.08 0.01 0.01 0.01 0.02 0.11 0.17 0.18 0.15 0.12 0.14 0.26 0.27 0.24 0.13 0.07 0.02 0.03 0.02 0.00 0.00 0.00 0.00 0.00 0.00 0.00 0.00 0.00 0.00 0.00 0.00 0.00 0.00 0.00 0.00 0.01
0.00 0.03 0.08 0.11 0.14 0.11 0.06 0.07 0.04 0.03 0.04 0.01 0.03 0.09 0.16 0.12 0.15 0.36 0.53 0.63 0.45 0.38 0.50 0.15 0.06 0.02 0.00 0.00 0.00 0.00 0.00 0.00 0.00 0.00 0.00 0.00 0.01 0.01 0.01 0.00 0.00 0.00 0.01
0.00 0.00 0.01 0.06 0.10 0.07 0.06 0.03 0.07 0.09 0.09 0.06 0.17 0.08 0.04 0.10 0.30 0.41 0.52 0.73 0.92 0.72 0.41 0.10 0.05 0.00 0.00 0.00 0.00 0.01 0.00 0.00 0.00 0.00 0.01 0.01 0.02 0.02 0.05 0.05 0.01 0.00 0.00
0.02 0.01 0.01 0.00 0.02 0.06 0.05 0.02 0.01 0.04 0.06 0.09 0.09 0.13 0.10 0.06 0.14 0.26 0.56 0.70 0.58 0.57 0.13 0.03 0.02 0.05 0.06 0.10 0.05 0.04 0.04 0.08 0.11 0.10 0.13 0.17 0.19 0.15 0.09 0.08 0.02 0.00 0.00
0.01 0.02 0.01 0.01 0.00 0.01 0.03 0.05 0.02 0.01 0.00 0.01 0.05 0.08 0.07 0.09 0.16 0.40 0.79 0.62 0.22 0.09 0.07 0.08 0.10 0.06 0.05 0.06 0.10 0.13 0.16 0.21 0.41 0.60 0.47 0.32 0.30 0.23 0.11 0.06 0.06 0.05 0.09
0.01 0.01 0.01 0.03 0.03 0.05 0.06 0.06 0.03 0.02 0.00 0.00 0.00 0.02 0.04 0.17 0.26 0.45 0.55 0.17 0.05 0.02 0.05 0.08 0.11 0.09 0.10 0.07 0.13 0.45 0.84 0.82 0.98 1.00 0.84 0.72 0.62 0.53 0.26 0.20 0.17 0.19 0.20
0.01 0.03 0.03 0.04 0.10 0.16 0.23 0.21 0.06 0.02 0.02 0.02 0.02 0.03 0.13 0.26 0.21 0.30 0.38 0.34 0.10 0.05 0.05 0.07 0.20 0.19 0.23 0.23 0.37 0.61 0.65 0.68 0.70 0.67 0.59 0.76 0.84 0.89 0.75 0.62 0.41 0.42 0.39
0.01 0.02 0.05 0.02 0.04 0.06 0.16 0.27 0.16 0.09 0.08 0.14 0.09 0.17 0.34 0.29 0.32 0.50 0.45 0.44 0.22 0.21 0.22 0.29 0.34 0.35 0.34 0.37 0.35 0.39 0.46 0.47 0.50 0.50 0.52 0.48 0.57 0.71 0.61 0.56 0.46 0.56 0.62
0.03 0.04 0.03 0.03 0.03 0.04 0.06 0.08 0.16 0.10 0.13 0.17 0.22 0.41 0.55 0.38 0.37 0.36 0.31 0.34 0.37 0.41 0.46 0.42 0.46 0.55 0.60 0.61 0.65 0.66 0.64 0.61 0.69 0.79 0.76 0.78 0.79 0.69 0.62 0.62 0.67 0.61 0.52
0.07 0.06 0.08 0.05 0.05 0.08 0.11 0.14 0.15 0.16 0.18 0.44 0.57 0.46 0.38 0.26 0.29 0.37 0.32 0.33 0.41 0.41 0.37 0.37 0.38 0.46 0.48 0.53 0.51 0.49 0.43 0.51 0.69 0.81 0.87 0.97 1.06 0.98 0.91 0.90 0.85 0.52 0.36
0.14 0.12 0.09 0.10 0.13 0.15 0.13 0.16 0.22 0.22 0.17 0.18 0.27 0.30 0.24 0.18 0.15 0.22 0.25 0.30 0.28 0.27 0.29 0.27 0.29 0.27 0.29 0.31 0.31 0.33 0.23 0.21 0.23 0.30 0.35 0.43 0.55 0.71 0.70 0.60 0.49 0.37 0.24
0.17 0.19 0.19 0.23 0.33 0.18 0.16 0.17 0.18 0.24 0.20 0.11 0.12 0.15 0.11 0.10 0.10 0.10 0.10 0.12 0.12 0.16 0.17 0.16 0.16 0.16 0.16 0.19 0.20 0.22 0.27 0.31 0.29 0.27 0.26 0.27 0.25 0.19 0.22 0.23 0.20 0.17 0.14
0.63 0.37 0.26 0.23 0.28 0.53 0.73 0.54 0.31 0.44 0.40 0.39 0.37 0.25 0.24 0.27 0.23 0.19 0.17 0.15 0.12 0.09 0.10 0.09 0.08 0.10 0.10 0.09 0.11 0.17 0.22 0.21 0.21 0.21 0.16 0.15 0.16 0.14 0.14 0.14 0.17 0.18 0.19

GFSGL_prec_precacc24_084.txt.gz
Total_Precipitation_Accumulation
0.16 0.13 0.11 0.08 0.03 0.02 0.03 0.03 0.06 0.07 0.13 0.27 0.83 0.15 0.16 0.09 0.04 0.06 0.09 0.05 0.03 0.01 0.00 0.01 0.00 0.01 0.00 0.00 0.00 0.00 0.00 0.00 0.00 0.00 0.00 0.00 0.00 0.00 0.00 0.00 0.00 0.00 0.00
0.19 0.21 0.19 0.20 0.17 0.12 0.02 0.01 0.04 0.02 0.03 0.08 0.11 0.12 0.13 0.05 0.10 0.13 0.10 0.04 0.07 0.01 0.00 0.01 0.01 0.00 0.01 0.00 0.00 0.00 0.00 0.00 0.00 0.00 0.00 0.00 0.00 0.00 0.00 0.00 0.00 0.00 0.00
0.32 0.23 0.27 0.31 0.33 0.25 0.13 0.04 0.03 0.02 0.03 0.01 0.02 0.10 0.12 0.11 0.15 0.18 0.13 0.08 0.07 0.02 0.01 0.01 0.00 0.00 0.02 0.00 0.01 0.00 0.00 0.00 0.00 0.00 0.00 0.00 0.00 0.00 0.00 0.00 0.00 0.00 0.00
0.63 0.50 0.44 0.41 0.38 0.31 0.22 0.20 0.15 0.11 0.02 0.01 0.00 0.03 0.06 0.05 0.04 0.08 0.14 0.11 0.09 0.05 0.03 0.01 0.01 0.00 0.01 0.01 0.00 0.00 0.00 0.00 0.00 0.00 0.00 0.00 0.00 0.00 0.00 0.00 0.00 0.00 0.00
0.67 0.75 1.01 1.34 0.83 0.73 0.44 0.43 0.28 0.21 0.13 0.08 0.02 0.01 0.01 0.01 0.00 0.00 0.03 0.04 0.09 0.05 0.06 0.04 0.01 0.00 0.00 0.01 0.00 0.01 0.01 0.00 0.00 0.00 0.00 0.00 0.00 0.00 0.00 0.00 0.00 0.00 0.00
0.44 0.50 0.54 1.02 0.98 0.75 0.79 0.50 0.37 0.25 0.21 0.15 0.12 0.04 0.00 0.00 0.00 0.00 0.00 0.01 0.03 0.04 0.02 0.02 0.00 0.01 0.00 0.00 0.00 0.00 0.01 0.01 0.01 0.00 0.00 0.00 0.00 0.01 0.00 0.00 0.00 0.00 0.00
0.29 0.37 0.40 0.41 0.28 0.21 0.24 0.32 0.33 0.26 0.25 0.17 0.17 0.19 0.13 0.03 0.00 0.02 0.02 0.00 0.02 0.04 0.05 0.03 0.01 0.00 0.00 0.00 0.00 0.00 0.00 0.00 0.00 0.00 0.00 0.00 0.00 0.00 0.00 0.00 0.00 0.00 0.00
0.06 0.05 0.08 0.25 0.36 0.28 0.19 0.25 0.31 0.27 0.24 0.22 0.15 0.15 0.14 0.09 0.07 0.06 0.08 0.02 0.00 0.00 0.01 0.02 0.01 0.00 0.00 0.01 0.01 0.00 0.00 0.00 0.00 0.00 0.00 0.00 0.00 0.00 0.00 0.00 0.00 0.00 0.00
0.08 0.12 0.08 0.03 0.04 0.13 0.19 0.24 0.30 0.27 0.19 0.12 0.14 0.15 0.12 0.09 0.19 0.13 0.22 0.21 0.03 0.00 0.00 0.00 0.00 0.00 0.00 0.01 0.00 0.00 0.00 0.00 0.00 0.00 0.00 0.00 0.00 0.00 0.00 0.00 0.00 0.00 0.00
0.04 0.07 0.05 0.07 0.04 0.05 0.15 0.21 0.24 0.29 0.23 0.19 0.14 0.13 0.11 0.07 0.10 0.11 0.16 0.26 0.20 0.10 0.01 0.00 0.00 0.00 0.00 0.00 0.01 0.00 0.00 0.00 0.00 0.00 0.00 0.00 0.00 0.00 0.00 0.00 0.00 0.01 0.01
0.01 0.03 0.05 0.05 0.05 0.05 0.09 0.16 0.26 0.28 0.29 0.24 0.18 0.20 0.14 0.09 0.09 0.08 0.16 0.09 0.11 0.23 0.13 0.01 0.00 0.01 0.01 0.00 0.00 0.00 0.00 0.00 0.00 0.00 0.00 0.00 0.00 0.00 0.00 0.00 0.00 0.00 0.00
0.00 0.00 0.01 0.02 0.04 0.08 0.04 0.05 0.11 0.23 0.26 0.23 0.24 0.15 0.09 0.07 0.04 0.06 0.15 0.09 0.15 0.16 0.03 0.01 0.00 0.00 0.01 0.00 0.00 0.00 0.00 0.00 0.00 0.00 0.00 0.00 0.00 0.00 0.00 0.00 0.00 0.00 0.00
0.01 0.01 0.01 0.01 0.02 0.04 0.03 0.06 0.04 0.06 0.12 0.24 0.22 0.13 0.10 0.09 0.05 0.08 0.16 0.24 0.21 0.18 0.08 0.06 0.04 0.01 0.00 0.00 0.00 0.00 0.00 0.00 0.00 0.00 0.00 0.00 0.00 0.00 0.00 0.00 0.00 0.01 0.01
0.00 0.00 0.00 0.01 0.01 0.02 0.03 0.03 0.00 0.01 0.01 0.02 0.11 0.17 0.18 0.15 0.12 0.14 0.26 0.27 0.24 0.14 0.08 0.02 0.03 0.02 0.00 0.00 0.00 0.00 0.00 0.00 0.00 0.00 0.00 0.00 0.00 0.00 0.00 0.00 0.00 0.00 0.01
0.00 0.00 0.00 0.01 0.01 0.02 0.01 0.03 0.02 0.02 0.03 0.01 0.03 0.09 0.16 0.12 0.15 0.36 0.53 0.63 0.45 0.37 0.41 0.13 0.06 0.02 0.00 0.00 0.00 0.00 0.00 0.00 0.00 0.00 0.00 0.00 0.00 0.00 0.00 0.00 0.00 0.00 0.00
0.00 0.00 0.00 0.00 0.05 0.05 0.03 0.03 0.06 0.07 0.07 0.05 0.15 0.08 0.04 0.10 0.30 0.41 0.52 0.73 0.92 0.69 0.33 0.10 0.05 0.00 0.00 0.00 0.00 0.02 0.01 0.00 0.01 0.02 0.02 0.01 0.00 0.01 0.05 0.05 0.01 0.00 0.00
0.02 0.01 0.01 0.00 0.02 0.05 0.05 0.02 0.01 0.04 0.06 0.08 0.08 0.13 0.10 0.06 0.14 0.26 0.52 0.67 0.56 0.51 0.11 0.03 0.02 0.04 0.06 0.09 0.05 0.05 0.05 0.12 0.23 0.13 0.07 0.08 0.15 0.15 0.10 0.09 0.02 0.00 0.00
0.01 0.02 0.01 0.00 0.00 0.01 0.03 0.05 0.02 0.01 0.00 0.01 0.05 0.08 0.07 0.09 0.16 0.40 0.74 0.54 0.19 0.08 0.07 0.08 0.10 0.06 0.04 0.05 0.07 0.06 0.04 0.04 0.15 0.28 0.16 0.18 0.34 0.40 0.33 0.20 0.18 0.14 0.13
0.01 0.01 0.00 0.01 0.01 0.03 0.02 0.02 0.02 0.02 0.00 0.00 0.00 0.01 0.03 0.13 0.25 0.42 0.52 0.16 0.04 0.02 0.04 0.08 0.11 0.07 0.07 0.06 0.08 0.16 0.28 0.16 0.26 0.35 0.47 0.67 0.67 0.75 0.58 0.42 0.37 0.32 0.32
0.01 0.02 0.02 0.01 0.01 0.02 0.03 0.04 0.03 0.01 0.01 0.01 0.01 0.02 0.05 0.17 0.14 0.19 0.24 0.25 0.09 0.05 0.05 0.06 0.14 0.10 0.14 0.17 0.26 0.32 0.33 0.37 0.40 0.35 0.35 0.67 0.83 1.10 1.09 0.81 0.56 0.58 0.53
0.01 0.02 0.04 0.02 0.02 0.01 0.02 0.03 0.02 0.02 0.01 0.05 0.05 0.08 0.15 0.15 0.13 0.16 0.20 0.29 0.16 0.17 0.15 0.14 0.19 0.21 0.25 0.29 0.31 0.36 0.43 0.45 0.48 0.50 0.52 0.48 0.68 0.82 0.83 0.87 0.74 0.80 0.83
0.03 0.03 0.03 0.03 0.02 0.02 0.02 0.02 0.02 0.02 0.02 0.02 0.01 0.05 0.09 0.08 0.09 0.13 0.17 0.15 0.17 0.20 0.26 0.27 0.32 0.42 0.52 0.58 0.64 0.66 0.64 0.61 0.69 0.79 0.74 0.78 0.84 0.79 0.76 0.82 0.92 0.94 0.89
0.04 0.03 0.03 0.03 0.03 0.05 0.05 0.02 0.02 0.02 0.02 0.02 0.03 0.07 0.08 0.05 0.11 0.23 0.24 0.22 0.29 0.29 0.28 0.30 0.33 0.43 0.47 0.52 0.51 0.50 0.44 0.52 0.70 0.82 0.86 0.96 1.05 0.99 0.94 0.99 1.23 1.20 0.99
0.05 0.04 0.03 0.04 0.08 0.09 0.05 0.04 0.04 0.08 0.06 0.03 0.04 0.05 0.05 0.06 0.07 0.15 0.22 0.29 0.27 0.25 0.28 0.25 0.29 0.27 0.28 0.29 0.29 0.30 0.23 0.21 0.22 0.30 0.35 0.43 0.55 0.71 0.70 0.60 0.51 0.45 0.35
0.09 0.11 0.11 0.07 0.07 0.05 0.07 0.07 0.06 0.06 0.07 0.05 0.06 0.07 0.05 0.04 0.04 0.07 0.10 0.12 0.12 0.17 0.17 0.16 0.16 0.16 0.16 0.19 0.20 0.22 0.27 0.32 0.29 0.27 0.27 0.28 0.25 0.19 0.22 0.23 0.20 0.18 0.16
0.25 0.19 0.18 0.18 0.12 0.10 0.12 0.09 0.09 0.16 0.18 0.19 0.27 0.18 0.16 0.15 0.11 0.09 0.09 0.10 0.08 0.08 0.09 0.09 0.08 0.09 0.09 0.08 0.10 0.16 0.22 0.21 0.21 0.22 0.16 0.15 0.16 0.14 0.14 0.14 0.17 0.18 0.20

GFSGL_prec_precacc24_087.txt.gz
Total_Precipitation_Accumulation
0.18 0.14 0.11 0.08 0.03 0.05 0.03 0.03 0.07 0.12 0.16 0.28 0.84 0.15 0.15 0.09 0.04 0.06 0.09 0.05 0.03 0.01 0.00 0.01 0.00 0.01 0.00 0.00 0.00 0.00 0.00 0.00 0.00 0.00 0.00 0.00 0.00 0.00 0.00 0.00 0.00 0.00 0.00
0.24 0.22 0.19 0.20 0.17 0.15 0.06 0.03 0.07 0.03 0.05 0.15 0.12 0.12 0.13 0.05 0.10 0.13 0.10 0.04 0.07 0.01 0.00 0.01 0.01 0.00 0.01 0.00 0.00 0.00 0.00 0.00 0.00 0.00 0.00 0.00 0.00 0.00 0.00 0.00 0.00 0.00 0.00
0.50 0.28 0.27 0.31 0.33 0.26 0.16 0.09 0.06 0.05 0.09 0.08 0.06 0.13 0.13 0.11 0.16 0.19 0.15 0.08 0.07 0.02 0.01 0.02 0.00 0.00 0.02 0.00 0.01 0.00 0.00 0.00 0.00 0.00 0.00 0.00 0.00 0.00 0.00 0.00 0.00 0.00 0.00
1.15 0.78 0.47 0.43 0.41 0.35 0.26 0.23 0.16 0.12 0.04 0.03 0.03 0.07 0.07 0.05 0.04 0.08 0.16 0.15 0.12 0.05 0.04 0.03 0.02 0.00 0.01 0.01 0.00 0.00 0.00 0.00 0.00 0.00 0.00 0.00 0.00 0.00 0.00 0.00 0.00 0.00 0.00
0.80 1.00 1.19 1.38 0.87 0.82 0.56 0.57 0.36 0.23 0.13 0.09 0.03 0.02 0.02 0.01 0.00 0.00 0.04 0.10 0.12 0.05 0.06 0.04 0.01 0.00 0.00 0.01 0.00 0.01 0.01 0.00 0.00 0.00 0.00 0.00 0.00 0.00 0.00 0.00 0.00 0.00 0.00
0.44 0.52 0.63 1.14 1.02 0.77 0.83 0.58 0.45 0.36 0.33 0.24 0.15 0.08 0.05 0.03 0.04 0.02 0.00 0.01 0.05 0.04 0.02 0.02 0.00 0.01 0.00 0.00 0.00 0.00 0.02 0.01 0.01 0.00 0.00 0.00 0.00 0.01 0.00 0.00 0.00 0.00 0.00
0.29 0.35 0.40 0.45 0.34 0.25 0.26 0.32 0.33 0.28 0.28 0.24 0.30 0.33 0.22 0.10 0.09 0.10 0.06 0.01 0.02 0.04 0.06 0.03 0.01 0.00 0.00 0.00 0.00 0.00 0.00 0.01 0.01 0.00 0.00 0.00 0.00 0.00 0.00 0.00 0.00 0.00 0.00
0.06 0.05 0.08 0.25 0.36 0.29 0.22 0.27 0.32 0.28 0.25 0.25 0.21 0.25 0.32 0.28 0.26 0.17 0.22 0.06 0.00 0.00 0.01 0.02 0.01 0.00 0.00 0.01 0.01 0.00 0.00 0.00 0.00 0.00 0.00 0.00 0.00 0.00 0.00 0.00 0.00 0.00 0.00
0.07 0.12 0.10 0.05 0.04 0.13 0.20 0.25 0.32 0.28 0.20 0.14 0.18 0.20 0.17 0.25 0.40 0.34 0.35 0.30 0.07 0.02 0.02 0.00 0.01 0.00 0.01 0.05 0.03 0.00 0.00 0.00 0.00 0.00 0.00 0.00 0.00 0.00 0.00 0.00 0.00 0.00 0.00
0.04 0.07 0.05 0.06 0.04 0.06 0.15 0.20 0.23 0.30 0.23 0.20 0.17 0.15 0.14 0.14 0.19 0.21 0.28 0.36 0.27 0.20 0.04 0.00 0.02 0.01 0.01 0.02 0.01 0.00 0.00 0.00 0.00 0.00 0.00 0.00 0.00 0.00 0.00 0.00 0.00 0.00 0.00
0.01 0.03 0.05 0.02 0.02 0.02 0.03 0.11 0.23 0.27 0.29 0.25 0.20 0.20 0.15 0.11 0.12 0.11 0.20 0.16 0.17 0.33 0.17 0.04 0.01 0.03 0.03 0.00 0.00 0.00 0.00 0.00 0.00 0.00 0.00 0.00 0.00 0.00 0.00 0.00 0.00 0.00 0.00
0.00 0.00 0.01 0.01 0.01 0.01 0.01 0.02 0.07 0.21 0.25 0.23 0.24 0.16 0.10 0.07 0.04 0.06 0.16 0.10 0.16 0.16 0.03 0.02 0.03 0.04 0.02 0.03 0.00 0.01 0.01 0.01 0.00 0.00 0.00 0.00 0.00 0.00 0.00 0.00 0.00 0.00 0.00
0.01 0.01 0.01 0.01 0.01 0.00 0.01 0.05 0.04 0.06 0.12 0.24 0.22 0.13 0.10 0.10 0.05 0.08 0.16 0.24 0.21 0.18 0.08 0.06 0.04 0.01 0.00 0.00 0.00 0.00 0.01 0.00 0.00 0.00 0.00 0.00 0.00 0.00 0.00 0.00 0.00 0.01 0.00
0.00 0.00 0.00 0.01 0.01 0.01 0.01 0.00 0.00 0.00 0.01 0.02 0.11 0.17 0.18 0.15 0.12 0.14 0.26 0.27 0.24 0.14 0.08 0.02 0.03 0.02 0.00 0.00 0.00 0.00 0.00 0.00 0.00 0.00 0.00 0.00 0.00 0.00 0.00 0.00 0.00 0.00 0.00
0.00 0.00 0.00 0.00 0.00 0.00 0.00 0.00 0.00 0.00 0.00 0.00 0.02 0.09 0.16 0.12 0.14 0.36 0.53 0.63 0.45 0.37 0.37 0.11 0.06 0.02 0.00 0.00 0.00 0.00 0.00 0.00 0.00 0.00 0.00 0.00 0.00 0.00 0.00 0.00 0.00 0.00 0.00
0.00 0.00 0.00 0.00 0.00 0.00 0.00 0.00 0.00 0.01 0.03 0.01 0.05 0.07 0.03 0.05 0.28 0.41 0.51 0.72 0.92 0.66 0.29 0.10 0.05 0.00 0.00 0.00 0.00 0.02 0.01 0.00 0.01 0.03 0.06 0.04 0.02 0.01 0.00 0.00 0.00 0.00 0.00
0.02 0.01 0.01 0.00 0.00 0.00 0.00 0.00 0.00 0.01 0.02 0.03 0.02 0.06 0.04 0.03 0.11 0.22 0.49 0.65 0.55 0.49 0.11 0.03 0.02 0.04 0.06 0.09 0.05 0.05 0.05 0.12 0.23 0.13 0.07 0.06 0.05 0.02 0.01 0.00 0.00 0.00 0.00
0.01 0.02 0.01 0.00 0.00 0.00 0.00 0.00 0.00 0.00 0.00 0.00 0.00 0.01 0.03 0.06 0.13 0.38 0.65 0.41 0.17 0.08 0.07 0.07 0.07 0.04 0.02 0.04 0.06 0.05 0.03 0.04 0.15 0.28 0.15 0.11 0.22 0.25 0.26 0.16 0.17 0.15 0.15
0.01 0.01 0.00 0.00 0.01 0.00 0.00 0.00 0.00 0.00 0.00 0.00 0.00 0.00 0.01 0.12 0.22 0.37 0.33 0.06 0.01 0.01 0.03 0.03 0.06 0.03 0.05 0.05 0.05 0.14 0.21 0.11 0.21 0.32 0.41 0.63 0.64 0.75 0.58 0.41 0.39 0.38 0.38
0.01 0.02 0.02 0.01 0.01 0.01 0.00 0.00 0.00 0.00 0.01 0.01 0.00 0.01 0.01 0.07 0.08 0.08 0.13 0.10 0.03 0.01 0.02 0.03 0.10 0.04 0.05 0.05 0.11 0.17 0.18 0.27 0.29 0.26 0.26 0.66 0.84 1.12 1.11 0.85 0.57 0.59 0.54
0.01 0.02 0.03 0.02 0.02 0.01 0.01 0.02 0.01 0.01 0.01 0.03 0.02 0.03 0.02 0.06 0.10 0.12 0.12 0.13 0.08 0.10 0.11 0.10 0.14 0.15 0.14 0.17 0.19 0.25 0.29 0.31 0.37 0.41 0.47 0.49 0.72 0.86 0.85 0.87 0.72 0.77 0.80
0.03 0.03 0.03 0.02 0.02 0.02 0.02 0.02 0.02 0.02 0.02 0.02 0.01 0.03 0.06 0.08 0.08 0.09 0.09 0.09 0.11 0.14 0.16 0.14 0.15 0.21 0.27 0.34 0.45 0.51 0.51 0.52 0.63 0.76 0.74 0.81 0.86 0.79 0.74 0.78 0.87 0.92 0.90
0.04 0.03 0.03 0.03 0.03 0.05 0.05 0.02 0.02 0.02 0.02 0.02 0.02 0.02 0.04 0.03 0.04 0.07 0.10 0.09 0.12 0.17 0.16 0.15 0.18 0.27 0.31 0.40 0.42 0.44 0.41 0.49 0.67 0.81 0.87 0.97 1.07 0.99 0.93 0.98 1.22 1.20 0.99
0.03 0.03 0.03 0.03 0.06 0.08 0.05 0.04 0.04 0.07 0.05 0.03 0.03 0.03 0.02 0.02 0.02 0.03 0.05 0.08 0.09 0.11 0.20 0.19 0.20 0.16 0.17 0.22 0.26 0.28 0.21 0.21 0.23 0.30 0.35 0.42 0.55 0.73 0.71 0.61 0.51 0.45 0.35
0.02 0.02 0.03 0.04 0.05 0.04 0.05 0.05 0.03 0.03 0.03 0.04 0.05 0.05 0.03 0.02 0.02 0.03 0.05 0.07 0.09 0.12 0.15 0.16 0.15 0.15 0.16 0.19 0.20 0.22 0.27 0.32 0.30 0.28 0.27 0.28 0.25 0.19 0.22 0.23 0.21 0.18 0.16
0.05 0.04 0.04 0.04 0.04 0.04 0.05 0.04 0.04 0.05 0.05 0.04 0.06 0.06 0.08 0.08 0.06 0.05 0.05 0.06 0.06 0.06 0.06 0.05 0.05 0.07 0.09 0.07 0.10 0.16 0.22 0.22 0.23 0.25 0.19 0.15 0.16 0.15 0.14 0.15 0.18 0.19 0.21

GFSGL_prec_precacc24_090.txt.gz
Total_Precipitation_Accumulation
0.36 0.16 0.11 0.08 0.03 0.05 0.03 0.03 0.07 0.15 0.20 0.41 0.91 0.13 0.16 0.10 0.03 0.06 0.09 0.05 0.03 0.01 0.00 0.01 0.00 0.01 0.00 0.00 0.01 0.00 0.00 0.00 0.00 0.00 0.00 0.00 0.00 0.00 0.00 0.00 0.00 0.00 0.00
0.50 0.32 0.21 0.21 0.17 0.19 0.08 0.06 0.08 0.08 0.15 0.28 0.19 0.16 0.14 0.07 0.08 0.13 0.11 0.08 0.10 0.02 0.00 0.01 0.01 0.00 0.01 0.00 0.01 0.00 0.00 0.00 0.00 0.00 0.00 0.00 0.00 0.00 0.00 0.00 0.00 0.00 0.00
0.87 0.57 0.37 0.32 0.33 0.27 0.17 0.12 0.07 0.06 0.12 0.17 0.13 0.26 0.23 0.14 0.16 0.19 0.16 0.16 0.12 0.07 0.02 0.02 0.02 0.00 0.02 0.00 0.01 0.00 0.00 0.00 0.00 0.00 0.00 0.00 0.00 0.00 0.00 0.00 0.00 0.00 0.00
1.35 1.11 0.60 0.45 0.41 0.35 0.26 0.23 0.16 0.12 0.04 0.05 0.06 0.14 0.13 0.08 0.04 0.08 0.17 0.18 0.15 0.11 0.11 0.05 0.05 0.01 0.01 0.01 0.00 0.00 0.00 0.00 0.00 0.00 0.00 0.00 0.00 0.00 0.00 0.00 0.00 0.00 0.00
0.84 1.19 1.54 1.50 0.88 0.82 0.57 0.58 0.38 0.27 0.17 0.11 0.05 0.04 0.03 0.03 0.01 0.00 0.05 0.11 0.12 0.06 0.08 0.06 0.03 0.04 0.02 0.01 0.01 0.04 0.03 0.01 0.00 0.00 0.00 0.00 0.00 0.00 0.00 0.00 0.00 0.00 0.00
0.44 0.53 0.66 1.26 1.08 0.78 0.83 0.58 0.45 0.37 0.35 0.26 0.16 0.10 0.08 0.05 0.07 0.02 0.00 0.01 0.06 0.05 0.04 0.03 0.02 0.02 0.01 0.02 0.01 0.01 0.03 0.02 0.01 0.01 0.00 0.00 0.00 0.01 0.00 0.00 0.00 0.00 0.00
0.29 0.34 0.38 0.45 0.36 0.27 0.27 0.33 0.34 0.28 0.30 0.25 0.31 0.36 0.26 0.16 0.13 0.15 0.11 0.02 0.02 0.04 0.06 0.03 0.01 0.00 0.01 0.04 0.06 0.03 0.02 0.01 0.01 0.00 0.00 0.00 0.00 0.00 0.00 0.00 0.00 0.00 0.00
0.06 0.05 0.08 0.22 0.35 0.29 0.23 0.28 0.32 0.28 0.25 0.26 0.21 0.26 0.35 0.38 0.35 0.25 0.26 0.08 0.00 0.00 0.01 0.02 0.01 0.00 0.02 0.04 0.02 0.02 0.02 0.02 0.00 0.01 0.00 0.00 0.00 0.00 0.00 0.00 0.00 0.00 0.00
0.07 0.12 0.10 0.05 0.03 0.10 0.19 0.24 0.31 0.28 0.20 0.14 0.18 0.20 0.17 0.27 0.46 0.42 0.38 0.31 0.08 0.02 0.02 0.01 0.02 0.00 0.03 0.06 0.04 0.00 0.00 0.00 0.00 0.00 0.00 0.00 0.00 0.00 0.00 0.00 0.00 0.00 0.00
0.04 0.07 0.05 0.06 0.04 0.06 0.14 0.18 0.22 0.29 0.23 0.20 0.17 0.16 0.14 0.14 0.20 0.22 0.29 0.37 0.27 0.21 0.06 0.02 0.06 0.01 0.02 0.04 0.02 0.00 0.00 0.00 0.00 0.00 0.00 0.00 0.00 0.00 0.00 0.00 0.00 0.00 0.00
0.01 0.03 0.05 0.02 0.02 0.02 0.03 0.10 0.21 0.24 0.27 0.25 0.20 0.21 0.16 0.11 0.12 0.11 0.21 0.16 0.17 0.33 0.18 0.06 0.03 0.05 0.04 0.01 0.01 0.00 0.03 0.01 0.00 0.00 0.00 0.00 0.00 0.00 0.00 0.00 0.00 0.00 0.00
0.00 0.00 0.00 0.01 0.01 0.00 0.00 0.01 0.04 0.17 0.23 0.23 0.24 0.16 0.10 0.07 0.04 0.06 0.16 0.10 0.16 0.16 0.03 0.02 0.04 0.08 0.06 0.07 0.04 0.06 0.06 0.03 0.00 0.00 0.00 0.00 0.00 0.00 0.00 0.00 0.00 0.00 0.00
0.00 0.00 0.00 0.00 0.01 0.00 0.00 0.00 0.02 0.05 0.12 0.24 0.22 0.13 0.10 0.10 0.05 0.08 0.16 0.24 0.21 0.18 0.08 0.06 0.04 0.02 0.01 0.01 0.01 0.02 0.03 0.00 0.00 0.00 0.00 0.00 0.00 0.00 0.00 0.00 0.00 0.01 0.00
0.00 0.00 0.00 0.00 0.00 0.00 0.01 0.00 0.00 0.00 0.01 0.02 0.11 0.17 0.18 0.15 0.12 0.14 0.26 0.27 0.24 0.14 0.08 0.02 0.03 0.02 0.00 0.00 0.00 0.00 0.00 0.00 0.00 0.00 0.00 0.00 0.00 0.00 0.00 0.00 0.00 0.00 0.00
0.00 0.00 0.00 0.00 0.00 0.00 0.00 0.00 0.00 0.00 0.00 0.00 0.02 0.09 0.16 0.12 0.12 0.34 0.53 0.63 0.45 0.37 0.37 0.11 0.06 0.02 0.00 0.00 0.00 0.00 0.00 0.00 0.00 0.00 0.00 0.00 0.00 0.00 0.00 0.00 0.00 0.00 0.00
0.00 0.00 0.00 0.00 0.00 0.00 0.00 0.00 0.00 0.01 0.03 0.01 0.05 0.07 0.03 0.05 0.24 0.37 0.48 0.69 0.86 0.64 0.29 0.10 0.05 0.00 0.00 0.00 0.00 0.02 0.01 0.00 0.01 0.03 0.06 0.04 0.02 0.01 0.00 0.00 0.00 0.00 0.00
0.02 0.01 0.01 0.00 0.00 0.00 0.00 0.00 0.00 0.00 0.01 0.02 0.02 0.06 0.04 0.02 0.09 0.17 0.40 0.60 0.47 0.43 0.11 0.03 0.02 0.03 0.05 0.09 0.05 0.05 0.05 0.12 0.23 0.13 0.07 0.06 0.05 0.02 0.02 0.01 0.00 0.00 0.00
0.01 0.02 0.01 0.00 0.00 0.00 0.00 0.00 0.00 0.00 0.00 0.00 0.00 0.01 0.02 0.05 0.09 0.31 0.57 0.37 0.16 0.07 0.04 0.01 0.01 0.01 0.01 0.04 0.06 0.05 0.01 0.03 0.15 0.28 0.15 0.11 0.22 0.26 0.26 0.16 0.16 0.12 0.08
0.01 0.01 0.00 0.00 0.01 0.00 0.00 0.00 0.00 0.00 0.00 0.00 0.00 0.00 0.01 0.06 0.14 0.30 0.30 0.05 0.01 0.01 0.03 0.00 0.00 0.01 0.04 0.04 0.04 0.14 0.20 0.09 0.20 0.31 0.39 0.60 0.61 0.72 0.55 0.35 0.30 0.28 0.25
0.01 0.02 0.02 0.01 0.01 0.01 0.00 0.00 0.00 0.00 0.00 0.00 0.00 0.00 0.00 0.04 0.06 0.07 0.10 0.07 0.02 0.00 0.00 0.00 0.00 0.00 0.02 0.04 0.08 0.15 0.17 0.25 0.24 0.19 0.18 0.57 0.71 1.03 1.07 0.79 0.55 0.59 0.54
0.01 0.01 0.03 0.02 0.02 0.01 0.01 0.01 0.01 0.01 0.00 0.00 0.00 0.00 0.00 0.05 0.10 0.11 0.12 0.12 0.07 0.03 0.01 0.00 0.05 0.11 0.11 0.15 0.17 0.23 0.25 0.26 0.30 0.31 0.35 0.35 0.55 0.69 0.76 0.84 0.73 0.79 0.82
0.02 0.02 0.02 0.02 0.02 0.02 0.02 0.01 0.01 0.01 0.01 0.01 0.00 0.00 0.01 0.04 0.08 0.09 0.09 0.09 0.11 0.12 0.09 0.05 0.08 0.15 0.22 0.30 0.44 0.50 0.48 0.45 0.53 0.65 0.63 0.70 0.77 0.72 0.68 0.76 0.88 0.94 0.93
0.04 0.03 0.03 0.02 0.03 0.04 0.04 0.02 0.02 0.01 0.01 0.02 0.01 0.01 0.01 0.01 0.03 0.07 0.10 0.08 0.10 0.15 0.15 0.13 0.15 0.23 0.28 0.37 0.42 0.44 0.38 0.45 0.61 0.73 0.82 0.94 1.05 0.99 0.93 1.00 1.24 1.22 1.01
0.03 0.02 0.02 0.03 0.05 0.06 0.04 0.04 0.03 0.05 0.03 0.02 0.02 0.03 0.02 0.02 0.01 0.02 0.04 0.05 0.05 0.07 0.13 0.15 0.17 0.14 0.15 0.19 0.23 0.26 0.19 0.18 0.21 0.29 0.35 0.42 0.56 0.75 0.72 0.61 0.52 0.46 0.37
0.02 0.02 0.02 0.02 0.03 0.03 0.04 0.04 0.02 0.03 0.03 0.03 0.03 0.03 0.03 0.02 0.02 0.02 0.04 0.04 0.03 0.04 0.05 0.04 0.05 0.07 0.08 0.11 0.15 0.20 0.26 0.31 0.30 0.28 0.27 0.28 0.26 0.20 0.23 0.24 0.23 0.20 0.18
0.02 0.02 0.02 0.02 0.02 0.02 0.02 0.01 0.01 0.02 0.02 0.02 0.03 0.04 0.04 0.03 0.03 0.03 0.03 0.04 0.04 0.03 0.04 0.03 0.03 0.03 0.04 0.04 0.07 0.13 0.19 0.19 0.20 0.22 0.16 0.11 0.12 0.13 0.14 0.15 0.18 0.19 0.21

GFSGL_prec_precacc24_093.txt.gz
Total_Precipitation_Accumulation
0.51 0.23 0.16 0.15 0.09 0.08 0.05 0.03 0.09 0.18 0.21 0.42 0.92 0.13 0.19 0.18 0.06 0.09 0.12 0.06 0.03 0.01 0.00 0.01 0.00 0.01 0.00 0.00 0.01 0.00 0.00 0.00 0.00 0.00 0.00 0.00 0.00 0.00 0.00 0.00 0.00 0.00 0.00
0.64 0.61 0.34 0.27 0.23 0.23 0.10 0.06 0.08 0.09 0.16 0.28 0.21 0.17 0.19 0.16 0.16 0.17 0.08 0.09 0.13 0.05 0.02 0.01 0.01 0.00 0.01 0.00 0.01 0.00 0.00 0.00 0.00 0.00 0.00 0.00 0.00 0.00 0.00 0.00 0.00 0.00 0.00
1.15 0.86 0.58 0.46 0.40 0.30 0.19 0.12 0.07 0.06 0.17 0.22 0.14 0.28 0.29 0.20 0.18 0.20 0.16 0.19 0.18 0.14 0.05 0.04 0.02 0.00 0.02 0.00 0.01 0.00 0.00 0.00 0.00 0.00 0.00 0.00 0.00 0.00 0.00 0.00 0.00 0.00 0.00
1.59 1.59 0.89 0.55 0.46 0.38 0.26 0.23 0.16 0.12 0.05 0.06 0.07 0.14 0.15 0.11 0.05 0.09 0.17 0.19 0.20 0.21 0.18 0.10 0.08 0.01 0.01 0.01 0.01 0.01 0.00 0.00 0.00 0.00 0.00 0.00 0.00 0.00 0.00 0.00 0.00 0.00 0.00
0.92 1.33 1.73 1.69 0.95 0.82 0.57 0.58 0.38 0.27 0.17 0.11 0.05 0.04 0.05 0.06 0.06 0.04 0.05 0.11 0.13 0.16 0.16 0.10 0.06 0.09 0.02 0.01 0.01 0.07 0.06 0.03 0.00 0.00 0.00 0.00 0.00 0.00 0.00 0.00 0.00 0.00 0.00
0.46 0.54 0.67 1.28 1.24 0.88 0.83 0.58 0.45 0.37 0.35 0.26 0.16 0.11 0.09 0.06 0.09 0.03 0.01 0.01 0.06 0.05 0.05 0.12 0.11 0.06 0.01 0.02 0.01 0.01 0.05 0.06 0.05 0.03 0.00 0.00 0.01 0.02 0.00 0.00 0.00 0.00 0.00
0.32 0.34 0.38 0.45 0.36 0.31 0.29 0.33 0.34 0.28 0.30 0.26 0.31 0.36 0.28 0.17 0.14 0.16 0.11 0.02 0.03 0.06 0.08 0.08 0.08 0.01 0.03 0.10 0.13 0.04 0.02 0.02 0.02 0.03 0.01 0.01 0.01 0.02 0.02 0.01 0.00 0.00 0.00
0.07 0.05 0.08 0.22 0.35 0.29 0.23 0.28 0.32 0.28 0.25 0.26 0.22 0.27 0.35 0.38 0.35 0.25 0.26 0.08 0.00 0.00 0.02 0.05 0.03 0.04 0.09 0.10 0.07 0.06 0.08 0.05 0.03 0.02 0.00 0.00 0.01 0.02 0.02 0.00 0.00 0.00 0.00
0.07 0.11 0.09 0.05 0.03 0.10 0.19 0.24 0.31 0.29 0.20 0.14 0.18 0.20 0.17 0.27 0.46 0.42 0.38 0.31 0.08 0.02 0.02 0.02 0.04 0.01 0.07 0.08 0.04 0.00 0.00 0.00 0.00 0.00 0.00 0.00 0.00 0.00 0.00 0.00 0.00 0.00 0.00
0.02 0.05 0.05 0.06 0.04 0.06 0.13 0.17 0.21 0.29 0.23 0.20 0.17 0.16 0.14 0.14 0.20 0.22 0.29 0.37 0.27 0.22 0.09 0.03 0.10 0.05 0.12 0.10 0.03 0.01 0.00 0.00 0.00 0.00 0.00 0.00 0.00 0.00 0.00 0.00 0.00 0.00 0.00
0.00 0.01 0.04 0.02 0.02 0.02 0.03 0.10 0.20 0.23 0.27 0.25 0.20 0.21 0.16 0.11 0.12 0.11 0.21 0.16 0.17 0.33 0.18 0.07 0.04 0.11 0.12 0.12 0.08 0.07 0.06 0.03 0.04 0.01 0.00 0.00 0.00 0.00 0.00 0.00 0.00 0.00 0.00
0.00 0.00 0.00 0.00 0.00 0.00 0.00 0.01 0.03 0.16 0.22 0.22 0.24 0.16 0.10 0.07 0.04 0.06 0.16 0.10 0.16 0.16 0.03 0.02 0.05 0.10 0.07 0.11 0.09 0.11 0.09 0.04 0.01 0.00 0.00 0.00 0.00 0.00 0.00 0.00 0.00 0.00 0.00
0.00 0.00 0.00 0.00 0.00 0.00 0.00 0.00 0.00 0.02 0.10 0.19 0.22 0.13 0.10 0.10 0.05 0.08 0.16 0.24 0.21 0.18 0.08 0.06 0.04 0.02 0.01 0.01 0.01 0.02 0.04 0.00 0.00 0.00 0.00 0.00 0.00 0.00 0.00 0.00 0.00 0.01 0.00
0.00 0.00 0.00 0.00 0.00 0.00 0.00 0.00 0.00 0.00 0.00 0.02 0.11 0.17 0.18 0.15 0.12 0.14 0.26 0.27 0.24 0.14 0.08 0.02 0.03 0.02 0.00 0.00 0.00 0.00 0.00 0.00 0.00 0.00 0.00 0.00 0.00 0.00 0.00 0.00 0.00 0.00 0.00
0.00 0.00 0.00 0.00 0.00 0.00 0.00 0.00 0.00 0.00 0.00 0.00 0.02 0.09 0.16 0.12 0.11 0.33 0.52 0.63 0.45 0.37 0.37 0.11 0.06 0.02 0.00 0.00 0.00 0.00 0.00 0.00 0.00 0.00 0.00 0.00 0.00 0.00 0.00 0.00 0.00 0.00 0.00
0.00 0.00 0.00 0.00 0.00 0.00 0.00 0.00 0.00 0.00 0.00 0.00 0.01 0.04 0.03 0.05 0.22 0.32 0.43 0.65 0.81 0.62 0.29 0.10 0.05 0.00 0.00 0.00 0.00 0.02 0.01 0.00 0.01 0.03 0.06 0.04 0.02 0.01 0.00 0.00 0.00 0.00 0.00
0.01 0.00 0.01 0.00 0.00 0.00 0.00 0.00 0.00 0.00 0.00 0.00 0.00 0.01 0.02 0.01 0.07 0.09 0.25 0.49 0.40 0.42 0.11 0.03 0.02 0.03 0.05 0.09 0.05 0.05 0.05 0.12 0.23 0.13 0.07 0.06 0.05 0.02 0.02 0.01 0.00 0.00 0.00
0.00 0.01 0.00 0.00 0.00 0.00 0.00 0.00 0.00 0.00 0.00 0.00 0.00 0.00 0.00 0.01 0.04 0.18 0.39 0.33 0.16 0.07 0.02 0.01 0.00 0.00 0.01 0.04 0.06 0.05 0.01 0.02 0.15 0.28 0.15 0.12 0.23 0.26 0.27 0.16 0.16 0.13 0.09
0.01 0.01 0.00 0.00 0.00 0.00 0.00 0.00 0.00 0.00 0.00 0.00 0.00 0.00 0.00 0.00 0.04 0.14 0.20 0.04 0.01 0.01 0.03 0.00 0.00 0.00 0.01 0.02 0.04 0.14 0.20 0.09 0.19 0.30 0.39 0.60 0.61 0.71 0.55 0.35 0.30 0.27 0.24
0.01 0.02 0.01 0.01 0.01 0.01 0.00 0.00 0.00 0.00 0.00 0.00 0.00 0.00 0.00 0.00 0.00 0.02 0.05 0.03 0.02 0.00 0.00 0.00 0.00 0.00 0.01 0.02 0.06 0.13 0.17 0.24 0.23 0.19 0.18 0.57 0.71 1.02 1.06 0.78 0.54 0.58 0.54
0.01 0.01 0.02 0.02 0.01 0.01 0.01 0.01 0.01 0.00 0.00 0.00 0.00 0.00 0.00 0.00 0.00 0.00 0.00 0.00 0.00 0.00 0.00 0.00 0.05 0.10 0.09 0.13 0.17 0.22 0.24 0.26 0.30 0.31 0.35 0.36 0.55 0.69 0.73 0.82 0.70 0.77 0.81
0.02 0.02 0.02 0.02 0.02 0.01 0.01 0.01 0.01 0.01 0.01 0.01 0.00 0.00 0.00 0.00 0.00 0.00 0.00 0.01 0.02 0.04 0.04 0.03 0.07 0.13 0.21 0.29 0.41 0.46 0.47 0.45 0.53 0.65 0.63 0.70 0.77 0.72 0.68 0.74 0.86 0.91 0.90
0.03 0.02 0.02 0.02 0.02 0.03 0.03 0.02 0.01 0.01 0.01 0.01 0.01 0.01 0.01 0.01 0.00 0.01 0.01 0.01 0.04 0.06 0.07 0.07 0.10 0.17 0.25 0.33 0.40 0.43 0.38 0.44 0.59 0.72 0.83 0.94 1.05 0.98 0.93 1.00 1.24 1.21 1.02
0.03 0.02 0.02 0.02 0.04 0.05 0.04 0.03 0.02 0.04 0.03 0.02 0.02 0.01 0.01 0.01 0.01 0.00 0.00 0.00 0.00 0.02 0.07 0.07 0.07 0.09 0.11 0.13 0.16 0.22 0.18 0.17 0.21 0.29 0.34 0.41 0.54 0.74 0.72 0.62 0.53 0.47 0.37
0.01 0.01 0.02 0.02 0.02 0.03 0.03 0.03 0.02 0.02 0.03 0.03 0.02 0.02 0.02 0.01 0.01 0.01 0.01 0.02 0.01 0.02 0.03 0.03 0.03 0.05 0.05 0.05 0.08 0.15 0.21 0.26 0.26 0.25 0.23 0.26 0.24 0.19 0.22 0.23 0.21 0.19 0.16
0.02 0.02 0.02 0.02 0.02 0.01 0.01 0.01 0.01 0.01 0.01 0.01 0.02 0.02 0.03 0.02 0.02 0.01 0.01 0.02 0.02 0.02 0.02 0.02 0.02 0.02 0.03 0.02 0.03 0.06 0.11 0.11 0.15 0.18 0.12 0.09 0.10 0.09 0.08 0.08 0.10 0.10 0.13

GFSGL_prec_precacc24_096.txt.gz
Total_Precipitation_Accumulation
0.51 0.23 0.24 0.22 0.11 0.11 0.12 0.12 0.17 0.22 0.23 0.49 0.98 0.15 0.27 0.26 0.14 0.17 0.16 0.07 0.03 0.01 0.01 0.01 0.00 0.01 0.00 0.00 0.01 0.00 0.00 0.00 0.00 0.00 0.00 0.00 0.00 0.00 0.00 0.00 0.00 0.00 0.00
0.67 0.62 0.34 0.30 0.28 0.24 0.11 0.11 0.16 0.16 0.25 0.35 0.18 0.22 0.34 0.17 0.20 0.17 0.11 0.12 0.14 0.06 0.02 0.01 0.01 0.00 0.01 0.00 0.01 0.00 0.00 0.00 0.00 0.00 0.00 0.00 0.00 0.00 0.00 0.00 0.00 0.00 0.00
1.22 0.94 0.63 0.52 0.48 0.34 0.21 0.13 0.09 0.11 0.32 0.27 0.22 0.32 0.34 0.25 0.27 0.29 0.17 0.18 0.16 0.14 0.06 0.05 0.03 0.00 0.02 0.00 0.01 0.00 0.00 0.00 0.00 0.00 0.00 0.00 0.00 0.00 0.00 0.00 0.00 0.00 0.00
1.73 1.69 0.98 0.62 0.50 0.42 0.28 0.24 0.18 0.14 0.11 0.07 0.08 0.18 0.16 0.09 0.03 0.06 0.14 0.16 0.19 0.20 0.19 0.11 0.09 0.03 0.03 0.03 0.01 0.01 0.00 0.00 0.00 0.00 0.00 0.00 0.00 0.00 0.00 0.00 0.00 0.00 0.00
0.98 1.36 1.77 1.74 1.00 0.88 0.59 0.59 0.39 0.27 0.17 0.12 0.07 0.05 0.05 0.07 0.07 0.05 0.05 0.10 0.13 0.16 0.16 0.10 0.07 0.14 0.05 0.03 0.02 0.09 0.07 0.03 0.00 0.00 0.00 0.00 0.00 0.00 0.00 0.00 0.00 0.00 0.00
0.47 0.57 0.69 1.29 1.26 0.96 0.85 0.59 0.45 0.37 0.35 0.26 0.18 0.13 0.10 0.08 0.11 0.04 0.01 0.01 0.06 0.05 0.07 0.16 0.14 0.07 0.04 0.05 0.01 0.02 0.06 0.08 0.06 0.04 0.00 0.00 0.01 0.02 0.01 0.00 0.00 0.00 0.00
0.32 0.38 0.39 0.45 0.37 0.36 0.41 0.37 0.35 0.28 0.30 0.26 0.31 0.36 0.28 0.17 0.14 0.16 0.12 0.02 0.05 0.09 0.10 0.12 0.10 0.02 0.14 0.17 0.17 0.06 0.03 0.03 0.03 0.07 0.03 0.02 0.03 0.06 0.05 0.02 0.01 0.00 0.00
0.07 0.06 0.08 0.22 0.35 0.29 0.23 0.28 0.33 0.28 0.25 0.26 0.22 0.27 0.35 0.38 0.35 0.25 0.26 0.08 0.00 0.00 0.03 0.09 0.06 0.10 0.16 0.12 0.08 0.07 0.11 0.07 0.09 0.05 0.02 0.04 0.05 0.05 0.05 0.02 0.00 0.00 0.00
0.04 0.05 0.06 0.04 0.03 0.10 0.19 0.23 0.31 0.28 0.20 0.14 0.18 0.20 0.17 0.27 0.46 0.42 0.38 0.31 0.08 0.02 0.03 0.05 0.08 0.04 0.13 0.13 0.05 0.00 0.01 0.02 0.03 0.02 0.01 0.02 0.01 0.00 0.00 0.00 0.00 0.00 0.00
0.01 0.01 0.02 0.04 0.03 0.05 0.08 0.12 0.15 0.25 0.22 0.20 0.17 0.16 0.14 0.14 0.20 0.22 0.29 0.37 0.27 0.22 0.09 0.04 0.13 0.10 0.16 0.12 0.05 0.01 0.01 0.02 0.02 0.04 0.01 0.02 0.04 0.02 0.05 0.03 0.00 0.00 0.00
0.00 0.00 0.00 0.00 0.01 0.01 0.01 0.03 0.09 0.14 0.22 0.23 0.20 0.21 0.16 0.11 0.12 0.11 0.21 0.16 0.17 0.33 0.18 0.07 0.04 0.12 0.14 0.14 0.09 0.07 0.06 0.03 0.05 0.02 0.00 0.00 0.00 0.00 0.00 0.01 0.05 0.03 0.01
0.00 0.00 0.00 0.00 0.00 0.00 0.00 0.00 0.00 0.03 0.09 0.15 0.19 0.16 0.10 0.07 0.04 0.06 0.16 0.10 0.16 0.16 0.03 0.02 0.05 0.10 0.07 0.11 0.10 0.11 0.09 0.04 0.01 0.00 0.00 0.00 0.00 0.00 0.00 0.00 0.00 0.00 0.00
0.00 0.00 0.00 0.00 0.00 0.00 0.00 0.00 0.00 0.00 0.02 0.08 0.12 0.10 0.10 0.10 0.05 0.08 0.16 0.24 0.21 0.18 0.08 0.06 0.04 0.02 0.01 0.01 0.01 0.02 0.04 0.00 0.00 0.00 0.00 0.00 0.00 0.00 0.00 0.00 0.00 0.01 0.00
0.00 0.00 0.00 0.00 0.00 0.00 0.00 0.00 0.00 0.00 0.00 0.00 0.06 0.12 0.15 0.15 0.12 0.14 0.26 0.27 0.24 0.14 0.08 0.02 0.03 0.02 0.00 0.00 0.00 0.00 0.00 0.00 0.00 0.00 0.00 0.00 0.00 0.00 0.00 0.00 0.00 0.00 0.00
0.00 0.00 0.00 0.00 0.00 0.00 0.00 0.00 0.00 0.00 0.00 0.00 0.01 0.04 0.10 0.11 0.11 0.32 0.49 0.60 0.42 0.34 0.36 0.11 0.06 0.02 0.00 0.00 0.00 0.00 0.00 0.00 0.00 0.00 0.00 0.00 0.00 0.00 0.00 0.00 0.00 0.00 0.00
0.00 0.00 0.00 0.00 0.00 0.00 0.00 0.00 0.00 0.00 0.00 0.00 0.00 0.00 0.01 0.04 0.18 0.28 0.36 0.54 0.69 0.56 0.27 0.10 0.05 0.00 0.00 0.00 0.00 0.02 0.01 0.00 0.01 0.03 0.06 0.04 0.02 0.01 0.00 0.00 0.00 0.00 0.00
0.00 0.00 0.00 0.00 0.00 0.00 0.00 0.00 0.00 0.00 0.00 0.00 0.00 0.00 0.00 0.00 0.01 0.04 0.12 0.26 0.32 0.41 0.11 0.03 0.02 0.03 0.05 0.09 0.05 0.05 0.05 0.12 0.23 0.13 0.07 0.06 0.05 0.02 0.02 0.01 0.00 0.00 0.00
0.00 0.00 0.00 0.00 0.00 0.00 0.00 0.00 0.00 0.00 0.00 0.00 0.00 0.00 0.00 0.00 0.00 0.02 0.05 0.07 0.05 0.06 0.02 0.01 0.00 0.00 0.01 0.04 0.06 0.05 0.01 0.02 0.15 0.28 0.15 0.12 0.23 0.26 0.27 0.16 0.16 0.13 0.09
0.00 0.00 0.00 0.00 0.00 0.00 0.00 0.00 0.00 0.00 0.00 0.00 0.00 0.00 0.00 0.00 0.00 0.00 0.01 0.01 0.00 0.00 0.00 0.00 0.00 0.00 0.01 0.02 0.04 0.13 0.19 0.09 0.19 0.30 0.39 0.60 0.60 0.71 0.55 0.35 0.30 0.27 0.24
0.00 0.01 0.01 0.01 0.00 0.00 0.00 0.00 0.00 0.00 0.00 0.00 0.00 0.00 0.00 0.00 0.00 0.00 0.00 0.00 0.00 0.00 0.00 0.00 0.00 0.00 0.00 0.01 0.05 0.12 0.16 0.23 0.23 0.19 0.18 0.57 0.71 1.02 1.06 0.78 0.54 0.58 0.54
0.01 0.01 0.01 0.01 0.01 0.01 0.01 0.01 0.00 0.00 0.00 0.00 0.00 0.00 0.00 0.00 0.00 0.00 0.00 0.00 0.00 0.00 0.00 0.00 0.05 0.10 0.09 0.12 0.15 0.20 0.23 0.25 0.29 0.31 0.35 0.35 0.55 0.69 0.73 0.82 0.69 0.76 0.80
0.01 0.01 0.01 0.01 0.01 0.01 0.01 0.01 0.01 0.01 0.01 0.00 0.00 0.00 0.00 0.00 0.00 0.00 0.00 0.00 0.00 0.00 0.00 0.02 0.06 0.12 0.17 0.26 0.39 0.41 0.42 0.43 0.52 0.64 0.63 0.69 0.76 0.70 0.66 0.73 0.85 0.90 0.89
0.02 0.01 0.01 0.01 0.02 0.02 0.02 0.01 0.01 0.01 0.01 0.01 0.01 0.01 0.00 0.00 0.00 0.00 0.00 0.00 0.00 0.00 0.00 0.00 0.02 0.09 0.16 0.21 0.31 0.36 0.32 0.40 0.52 0.61 0.74 0.88 0.99 0.95 0.90 0.96 1.22 1.20 1.01
0.01 0.01 0.01 0.01 0.02 0.04 0.03 0.02 0.02 0.03 0.03 0.02 0.01 0.01 0.01 0.01 0.00 0.00 0.00 0.00 0.00 0.00 0.00 0.00 0.00 0.00 0.02 0.06 0.07 0.08 0.08 0.10 0.14 0.20 0.23 0.30 0.45 0.67 0.67 0.59 0.50 0.45 0.36
0.01 0.01 0.01 0.01 0.02 0.02 0.03 0.03 0.02 0.02 0.02 0.02 0.02 0.02 0.01 0.01 0.01 0.01 0.01 0.01 0.01 0.01 0.01 0.00 0.00 0.00 0.00 0.01 0.01 0.02 0.05 0.09 0.08 0.08 0.05 0.04 0.07 0.08 0.14 0.18 0.17 0.15 0.15
0.01 0.01 0.01 0.01 0.01 0.01 0.01 0.01 0.01 0.01 0.01 0.01 0.02 0.02 0.03 0.02 0.01 0.01 0.01 0.01 0.01 0.01 0.01 0.01 0.00 0.01 0.01 0.00 0.01 0.03 0.04 0.05 0.09 0.13 0.10 0.06 0.05 0.05 0.04 0.04 0.06 0.06 0.06

GFSGL_prec_precacc24_099.txt.gz
Total_Precipitation_Accumulation
0.55 0.29 0.35 0.22 0.11 0.11 0.12 0.12 0.17 0.23 0.31 0.52 0.97 0.14 0.26 0.26 0.14 0.16 0.16 0.08 0.03 0.01 0.01 0.01 0.00 0.01 0.00 0.00 0.01 0.00 0.00 0.00 0.00 0.00 0.00 0.00 0.00 0.00 0.00 0.00 0.00 0.00 0.00
0.71 0.69 0.44 0.31 0.30 0.27 0.13 0.11 0.16 0.17 0.26 0.42 0.25 0.33 0.35 0.17 0.20 0.23 0.11 0.13 0.14 0.06 0.02 0.01 0.01 0.00 0.00 0.00 0.01 0.00 0.00 0.00 0.00 0.00 0.00 0.00 0.00 0.00 0.00 0.00 0.00 0.00 0.00
1.28 1.05 0.75 0.56 0.53 0.37 0.28 0.15 0.09 0.14 0.33 0.27 0.24 0.39 0.34 0.25 0.27 0.26 0.16 0.18 0.16 0.14 0.06 0.05 0.03 0.00 0.01 0.00 0.01 0.00 0.00 0.00 0.00 0.00 0.00 0.00 0.00 0.00 0.00 0.00 0.00 0.00 0.00
1.74 1.75 1.05 0.65 0.50 0.46 0.33 0.31 0.20 0.16 0.12 0.07 0.08 0.18 0.16 0.10 0.05 0.05 0.08 0.14 0.19 0.20 0.19 0.11 0.09 0.03 0.03 0.03 0.01 0.01 0.00 0.00 0.00 0.00 0.00 0.00 0.00 0.00 0.00 0.00 0.00 0.00 0.00
0.95 1.38 1.77 1.76 1.02 0.91 0.66 0.68 0.48 0.31 0.20 0.15 0.11 0.10 0.08 0.09 0.23 0.20 0.09 0.09 0.12 0.17 0.16 0.10 0.08 0.16 0.06 0.03 0.02 0.11 0.09 0.05 0.00 0.00 0.00 0.00 0.00 0.00 0.00 0.00 0.00 0.00 0.00
0.43 0.55 0.70 1.32 1.33 1.06 0.98 0.70 0.52 0.42 0.39 0.29 0.25 0.24 0.28 0.20 0.19 0.13 0.06 0.05 0.09 0.09 0.09 0.18 0.16 0.13 0.05 0.05 0.02 0.02 0.07 0.12 0.07 0.04 0.00 0.01 0.02 0.03 0.01 0.01 0.00 0.00 0.00
0.29 0.38 0.39 0.46 0.38 0.37 0.42 0.45 0.42 0.36 0.34 0.28 0.34 0.41 0.41 0.27 0.19 0.17 0.12 0.03 0.10 0.16 0.17 0.20 0.11 0.05 0.15 0.18 0.19 0.10 0.05 0.05 0.04 0.10 0.05 0.02 0.06 0.07 0.07 0.03 0.03 0.02 0.01
0.08 0.06 0.07 0.22 0.35 0.28 0.21 0.26 0.33 0.28 0.25 0.26 0.23 0.27 0.35 0.38 0.35 0.25 0.26 0.09 0.03 0.12 0.18 0.20 0.12 0.21 0.26 0.17 0.11 0.10 0.12 0.09 0.13 0.09 0.05 0.06 0.07 0.09 0.08 0.06 0.03 0.01 0.00
0.07 0.05 0.03 0.03 0.02 0.09 0.17 0.21 0.28 0.27 0.20 0.14 0.18 0.20 0.16 0.27 0.46 0.42 0.38 0.31 0.13 0.10 0.16 0.19 0.16 0.10 0.16 0.15 0.06 0.01 0.02 0.05 0.10 0.11 0.03 0.03 0.01 0.01 0.03 0.01 0.00 0.00 0.00
0.07 0.04 0.01 0.00 0.01 0.02 0.06 0.11 0.10 0.19 0.20 0.19 0.17 0.15 0.14 0.14 0.20 0.22 0.29 0.37 0.27 0.23 0.12 0.05 0.13 0.11 0.16 0.12 0.05 0.01 0.01 0.02 0.04 0.06 0.02 0.02 0.04 0.03 0.12 0.09 0.09 0.07 0.06
0.01 0.01 0.01 0.00 0.00 0.00 0.01 0.03 0.07 0.07 0.13 0.16 0.16 0.18 0.13 0.10 0.12 0.11 0.21 0.16 0.17 0.33 0.18 0.07 0.04 0.12 0.14 0.14 0.09 0.07 0.06 0.03 0.05 0.02 0.00 0.00 0.00 0.00 0.00 0.04 0.16 0.10 0.06
0.00 0.00 0.00 0.00 0.00 0.00 0.00 0.00 0.00 0.00 0.01 0.04 0.07 0.07 0.05 0.04 0.03 0.06 0.16 0.10 0.16 0.16 0.03 0.02 0.05 0.10 0.07 0.11 0.10 0.11 0.09 0.04 0.01 0.00 0.00 0.00 0.00 0.00 0.00 0.00 0.00 0.00 0.00
0.00 0.00 0.00 0.00 0.00 0.00 0.00 0.00 0.00 0.00 0.00 0.00 0.00 0.00 0.01 0.02 0.03 0.08 0.15 0.23 0.20 0.18 0.08 0.06 0.04 0.02 0.01 0.01 0.01 0.02 0.04 0.00 0.00 0.00 0.00 0.00 0.00 0.00 0.00 0.00 0.00 0.00 0.00
0.00 0.00 0.00 0.00 0.00 0.00 0.00 0.00 0.00 0.00 0.00 0.00 0.00 0.00 0.01 0.04 0.05 0.11 0.23 0.19 0.16 0.12 0.08 0.02 0.03 0.02 0.00 0.00 0.00 0.00 0.00 0.00 0.00 0.00 0.00 0.00 0.00 0.00 0.00 0.00 0.00 0.00 0.00
0.00 0.00 0.00 0.00 0.00 0.00 0.00 0.00 0.00 0.00 0.00 0.00 0.00 0.00 0.00 0.01 0.07 0.14 0.27 0.38 0.24 0.24 0.30 0.11 0.06 0.02 0.00 0.00 0.00 0.00 0.00 0.00 0.00 0.00 0.00 0.00 0.00 0.00 0.00 0.00 0.00 0.00 0.00
0.00 0.00 0.00 0.00 0.00 0.00 0.00 0.00 0.00 0.00 0.00 0.00 0.00 0.00 0.00 0.00 0.01 0.07 0.12 0.21 0.27 0.20 0.08 0.09 0.05 0.00 0.00 0.00 0.00 0.02 0.01 0.00 0.01 0.03 0.06 0.04 0.02 0.01 0.00 0.00 0.00 0.00 0.00
0.00 0.00 0.00 0.00 0.00 0.00 0.00 0.00 0.00 0.00 0.00 0.00 0.00 0.00 0.00 0.00 0.00 0.00 0.00 0.01 0.04 0.11 0.05 0.03 0.02 0.03 0.05 0.09 0.05 0.05 0.05 0.12 0.23 0.13 0.07 0.06 0.05 0.02 0.02 0.01 0.00 0.00 0.00
0.00 0.00 0.00 0.00 0.00 0.00 0.00 0.00 0.00 0.00 0.00 0.00 0.00 0.00 0.00 0.00 0.00 0.00 0.00 0.00 0.00 0.02 0.02 0.00 0.00 0.00 0.01 0.04 0.06 0.05 0.01 0.02 0.15 0.28 0.15 0.12 0.23 0.26 0.27 0.16 0.16 0.13 0.09
0.00 0.00 0.00 0.00 0.00 0.00 0.00 0.00 0.00 0.00 0.00 0.00 0.00 0.00 0.00 0.00 0.00 0.00 0.00 0.00 0.00 0.00 0.00 0.00 0.00 0.00 0.01 0.02 0.04 0.13 0.18 0.07 0.17 0.29 0.34 0.54 0.59 0.70 0.55 0.35 0.30 0.27 0.24
0.00 0.00 0.00 0.00 0.00 0.00 0.00 0.00 0.00 0.00 0.00 0.00 0.00 0.00 0.00 0.00 0.00 0.00 0.00 0.00 0.00 0.00 0.00 0.00 0.00 0.00 0.00 0.01 0.05 0.10 0.11 0.15 0.13 0.12 0.13 0.44 0.59 0.89 0.89 0.62 0.41 0.48 0.50
0.00 0.00 0.00 0.00 0.00 0.00 0.01 0.01 0.00 0.00 0.00 0.00 0.00 0.00 0.00 0.00 0.00 0.00 0.00 0.00 0.00 0.00 0.00 0.00 0.00 0.04 0.06 0.08 0.12 0.18 0.19 0.17 0.21 0.24 0.30 0.32 0.51 0.66 0.71 0.78 0.62 0.68 0.72
0.00 0.00 0.00 0.01 0.00 0.01 0.00 0.01 0.01 0.01 0.01 0.00 0.00 0.00 0.00 0.00 0.00 0.00 0.00 0.00 0.00 0.00 0.00 0.00 0.00 0.01 0.03 0.11 0.22 0.29 0.33 0.35 0.44 0.54 0.55 0.58 0.64 0.64 0.63 0.66 0.72 0.78 0.85
0.00 0.00 0.00 0.00 0.01 0.01 0.01 0.01 0.01 0.01 0.01 0.01 0.01 0.01 0.00 0.00 0.00 0.00 0.00 0.00 0.00 0.00 0.00 0.00 0.00 0.00 0.01 0.04 0.14 0.24 0.28 0.37 0.47 0.53 0.69 0.82 0.88 0.80 0.78 0.86 1.04 1.02 0.89
0.00 0.00 0.00 0.00 0.01 0.01 0.01 0.01 0.01 0.03 0.02 0.01 0.01 0.01 0.01 0.01 0.00 0.00 0.00 0.00 0.00 0.00 0.00 0.00 0.00 0.00 0.00 0.00 0.01 0.04 0.07 0.10 0.13 0.17 0.20 0.28 0.42 0.62 0.60 0.51 0.39 0.32 0.27
0.00 0.00 0.00 0.00 0.00 0.01 0.01 0.01 0.01 0.01 0.01 0.01 0.02 0.01 0.01 0.01 0.01 0.01 0.01 0.01 0.01 0.01 0.01 0.00 0.00 0.00 0.00 0.00 0.00 0.01 0.03 0.06 0.05 0.06 0.04 0.03 0.03 0.05 0.07 0.09 0.11 0.12 0.11
0.02 0.00 0.00 0.00 0.01 0.01 0.01 0.01 0.01 0.00 0.01 0.01 0.01 0.01 0.02 0.01 0.01 0.01 0.01 0.01 0.01 0.01 0.01 0.01 0.00 0.01 0.00 0.00 0.00 0.01 0.02 0.02 0.05 0.09 0.07 0.04 0.04 0.04 0.03 0.03 0.03 0.03 0.05

GFSGL_prec_precacc24_102.txt.gz
Total_Precipitation_Accumulation
0.55 0.38 0.47 0.28 0.12 0.12 0.12 0.12 0.18 0.31 0.55 0.44 0.44 0.14 0.21 0.26 0.14 0.16 0.11 0.06 0.06 0.04 0.01 0.02 0.02 0.00 0.00 0.00 0.01 0.00 0.00 0.00 0.00 0.01 0.04 0.10 0.05 0.01 0.00 0.00 0.00 0.00 0.00
0.72 0.70 0.48 0.62 0.43 0.30 0.19 0.17 0.18 0.18 0.29 0.47 0.29 0.35 0.36 0.21 0.24 0.23 0.09 0.11 0.13 0.07 0.03 0.01 0.00 0.00 0.01 0.00 0.01 0.00 0.00 0.00 0.00 0.00 0.00 0.00 0.00 0.00 0.00 0.00 0.00 0.00 0.00
1.29 1.09 0.80 0.66 0.58 0.47 0.43 0.52 0.26 0.18 0.36 0.29 0.34 0.55 0.41 0.29 0.34 0.26 0.19 0.23 0.17 0.14 0.07 0.05 0.04 0.01 0.01 0.00 0.00 0.00 0.00 0.00 0.00 0.00 0.00 0.00 0.00 0.00 0.00 0.00 0.00 0.00 0.00
1.62 1.64 1.02 0.67 0.53 0.48 0.35 0.30 0.20 0.19 0.17 0.09 0.17 0.31 0.26 0.16 0.16 0.13 0.16 0.20 0.16 0.18 0.17 0.10 0.09 0.03 0.04 0.05 0.02 0.01 0.01 0.01 0.01 0.01 0.00 0.00 0.00 0.00 0.00 0.00 0.00 0.00 0.00
0.80 1.06 1.27 1.20 0.91 0.90 0.65 0.65 0.46 0.32 0.23 0.16 0.14 0.17 0.23 0.27 0.37 0.36 0.32 0.26 0.19 0.21 0.16 0.10 0.10 0.24 0.11 0.06 0.03 0.12 0.12 0.08 0.02 0.00 0.00 0.00 0.00 0.00 0.00 0.00 0.00 0.00 0.00
0.24 0.36 0.50 0.78 1.07 0.99 0.96 0.72 0.59 0.53 0.43 0.34 0.32 0.34 0.42 0.42 0.43 0.31 0.14 0.13 0.25 0.24 0.15 0.20 0.21 0.24 0.10 0.09 0.08 0.04 0.08 0.12 0.09 0.07 0.02 0.01 0.03 0.04 0.01 0.01 0.00 0.00 0.00
0.20 0.32 0.35 0.34 0.23 0.29 0.42 0.51 0.52 0.52 0.44 0.39 0.43 0.50 0.50 0.35 0.23 0.18 0.12 0.03 0.11 0.22 0.29 0.28 0.16 0.15 0.21 0.23 0.36 0.28 0.13 0.13 0.10 0.16 0.06 0.03 0.06 0.09 0.08 0.03 0.04 0.03 0.01
0.10 0.06 0.08 0.22 0.30 0.17 0.15 0.21 0.27 0.30 0.31 0.33 0.30 0.29 0.35 0.38 0.35 0.25 0.26 0.09 0.04 0.18 0.24 0.23 0.17 0.40 0.39 0.17 0.12 0.12 0.16 0.15 0.22 0.15 0.09 0.08 0.10 0.12 0.09 0.07 0.04 0.01 0.00
0.12 0.05 0.04 0.03 0.02 0.03 0.09 0.13 0.19 0.21 0.17 0.20 0.22 0.21 0.16 0.27 0.46 0.42 0.38 0.32 0.19 0.21 0.41 0.25 0.17 0.16 0.22 0.16 0.06 0.01 0.03 0.07 0.23 0.23 0.11 0.05 0.02 0.02 0.05 0.01 0.02 0.02 0.00
0.10 0.06 0.02 0.01 0.01 0.01 0.02 0.06 0.08 0.17 0.18 0.16 0.14 0.12 0.12 0.13 0.19 0.22 0.29 0.37 0.27 0.25 0.16 0.10 0.13 0.11 0.17 0.12 0.05 0.01 0.01 0.03 0.10 0.10 0.05 0.03 0.04 0.03 0.12 0.12 0.16 0.17 0.12
0.03 0.06 0.03 0.01 0.02 0.01 0.01 0.00 0.01 0.03 0.09 0.12 0.12 0.14 0.09 0.07 0.09 0.09 0.19 0.15 0.17 0.33 0.18 0.07 0.04 0.12 0.14 0.14 0.09 0.07 0.06 0.03 0.05 0.02 0.00 0.00 0.00 0.00 0.00 0.05 0.22 0.16 0.11
0.01 0.01 0.01 0.01 0.01 0.00 0.00 0.00 0.00 0.00 0.00 0.02 0.03 0.05 0.04 0.02 0.02 0.05 0.14 0.08 0.15 0.16 0.03 0.02 0.05 0.10 0.07 0.11 0.10 0.11 0.09 0.04 0.01 0.00 0.00 0.00 0.00 0.00 0.00 0.01 0.01 0.00 0.00
0.00 0.01 0.00 0.00 0.00 0.00 0.00 0.00 0.00 0.00 0.00 0.00 0.00 0.00 0.01 0.01 0.01 0.06 0.13 0.16 0.14 0.11 0.08 0.06 0.04 0.02 0.01 0.01 0.01 0.02 0.04 0.00 0.00 0.00 0.00 0.00 0.00 0.00 0.00 0.00 0.00 0.00 0.00
0.00 0.00 0.00 0.00 0.00 0.00 0.01 0.01 0.00 0.00 0.00 0.00 0.00 0.00 0.00 0.00 0.01 0.02 0.03 0.01 0.03 0.05 0.04 0.02 0.03 0.02 0.00 0.00 0.00 0.00 0.00 0.00 0.00 0.00 0.00 0.00 0.00 0.00 0.00 0.00 0.00 0.00 0.00
0.00 0.00 0.00 0.00 0.00 0.00 0.00 0.00 0.00 0.00 0.00 0.00 0.00 0.00 0.00 0.00 0.00 0.03 0.05 0.02 0.01 0.05 0.09 0.07 0.06 0.02 0.00 0.00 0.00 0.00 0.00 0.00 0.00 0.00 0.00 0.00 0.00 0.00 0.00 0.00 0.00 0.00 0.00
0.00 0.00 0.00 0.00 0.00 0.00 0.00 0.00 0.00 0.00 0.00 0.00 0.00 0.00 0.00 0.00 0.00 0.00 0.00 0.00 0.01 0.01 0.00 0.01 0.01 0.00 0.00 0.00 0.00 0.02 0.01 0.00 0.01 0.03 0.06 0.04 0.02 0.01 0.00 0.00 0.00 0.00 0.00
0.00 0.00 0.00 0.00 0.00 0.00 0.00 0.00 0.00 0.00 0.00 0.00 0.00 0.00 0.00 0.00 0.00 0.00 0.00 0.00 0.00 0.00 0.00 0.00 0.00 0.00 0.00 0.03 0.01 0.03 0.04 0.12 0.23 0.13 0.07 0.06 0.05 0.02 0.02 0.01 0.00 0.00 0.00
0.00 0.00 0.00 0.00 0.00 0.00 0.00 0.00 0.00 0.00 0.00 0.00 0.00 0.00 0.00 0.00 0.00 0.00 0.00 0.00 0.00 0.00 0.00 0.00 0.00 0.00 0.00 0.00 0.00 0.00 0.01 0.02 0.14 0.25 0.15 0.12 0.23 0.26 0.27 0.16 0.16 0.13 0.09
0.00 0.00 0.00 0.00 0.00 0.00 0.00 0.00 0.00 0.00 0.00 0.00 0.00 0.00 0.00 0.00 0.00 0.00 0.00 0.00 0.00 0.00 0.00 0.00 0.00 0.00 0.00 0.00 0.02 0.05 0.04 0.03 0.11 0.27 0.31 0.50 0.54 0.63 0.50 0.33 0.29 0.26 0.22
0.00 0.00 0.00 0.00 0.00 0.00 0.00 0.00 0.00 0.00 0.00 0.00 0.00 0.00 0.00 0.00 0.00 0.00 0.00 0.00 0.00 0.00 0.00 0.00 0.00 0.00 0.00 0.00 0.00 0.00 0.03 0.06 0.04 0.08 0.10 0.37 0.47 0.70 0.72 0.46 0.28 0.32 0.36
0.00 0.00 0.00 0.00 0.00 0.00 0.00 0.00 0.00 0.00 0.00 0.00 0.00 0.00 0.00 0.00 0.00 0.00 0.00 0.00 0.00 0.00 0.00 0.00 0.00 0.00 0.00 0.01 0.02 0.02 0.07 0.10 0.10 0.16 0.27 0.31 0.46 0.57 0.62 0.64 0.52 0.48 0.46
0.00 0.00 0.00 0.00 0.00 0.00 0.00 0.00 0.00 0.00 0.00 0.00 0.00 0.00 0.00 0.00 0.00 0.00 0.00 0.00 0.00 0.00 0.00 0.00 0.00 0.00 0.00 0.00 0.02 0.02 0.03 0.08 0.18 0.32 0.36 0.43 0.51 0.54 0.55 0.59 0.66 0.74 0.77
0.00 0.00 0.00 0.00 0.00 0.00 0.00 0.00 0.00 0.00 0.00 0.01 0.01 0.01 0.00 0.00 0.00 0.00 0.00 0.00 0.00 0.00 0.00 0.00 0.00 0.00 0.00 0.00 0.02 0.03 0.03 0.03 0.07 0.11 0.25 0.49 0.65 0.68 0.71 0.85 1.03 1.02 0.89
0.00 0.00 0.00 0.00 0.00 0.00 0.00 0.00 0.00 0.01 0.01 0.01 0.01 0.01 0.01 0.01 0.00 0.00 0.00 0.00 0.00 0.00 0.00 0.00 0.00 0.00 0.00 0.00 0.00 0.01 0.01 0.02 0.03 0.04 0.04 0.12 0.29 0.49 0.47 0.43 0.36 0.31 0.26
0.03 0.00 0.00 0.00 0.00 0.00 0.00 0.00 0.00 0.00 0.00 0.00 0.00 0.00 0.00 0.00 0.01 0.01 0.01 0.00 0.00 0.01 0.01 0.00 0.00 0.00 0.00 0.00 0.00 0.00 0.01 0.03 0.02 0.03 0.02 0.02 0.03 0.04 0.05 0.07 0.10 0.11 0.10
0.08 0.04 0.01 0.00 0.00 0.00 0.00 0.00 0.00 0.00 0.00 0.00 0.01 0.01 0.01 0.00 0.00 0.01 0.00 0.00 0.00 0.01 0.01 0.01 0.00 0.01 0.00 0.00 0.00 0.01 0.01 0.01 0.02 0.04 0.03 0.01 0.02 0.03 0.03 0.03 0.03 0.03 0.04

GFSGL_prec_precacc24_105.txt.gz
Total_Precipitation_Accumulation
0.52 0.44 0.57 0.28 0.13 0.11 0.11 0.12 0.17 0.31 0.50 0.43 0.42 0.23 0.21 0.24 0.14 0.16 0.10 0.07 0.06 0.04 0.01 0.02 0.03 0.00 0.00 0.00 0.01 0.00 0.00 0.00 0.01 0.02 0.06 0.11 0.05 0.01 0.00 0.00 0.00 0.00 0.00
0.69 0.74 0.50 0.67 0.54 0.32 0.22 0.19 0.21 0.18 0.27 0.46 0.30 0.37 0.38 0.22 0.22 0.21 0.11 0.13 0.14 0.08 0.04 0.03 0.01 0.00 0.01 0.00 0.01 0.00 0.00 0.00 0.00 0.00 0.00 0.00 0.00 0.00 0.00 0.00 0.00 0.00 0.00
1.24 1.04 0.73 0.59 0.59 0.51 0.43 0.58 0.29 0.18 0.34 0.29 0.35 0.55 0.41 0.30 0.36 0.27 0.21 0.27 0.19 0.18 0.09 0.06 0.04 0.02 0.01 0.00 0.00 0.00 0.00 0.00 0.00 0.00 0.00 0.00 0.00 0.00 0.00 0.00 0.00 0.00 0.01
1.41 1.48 0.81 0.52 0.45 0.42 0.28 0.30 0.22 0.22 0.18 0.09 0.17 0.32 0.30 0.25 0.30 0.22 0.33 0.38 0.21 0.22 0.21 0.13 0.12 0.09 0.07 0.06 0.02 0.01 0.01 0.01 0.01 0.01 0.00 0.00 0.01 0.00 0.00 0.01 0.00 0.00 0.01
0.62 0.92 0.92 0.61 0.49 0.49 0.41 0.50 0.43 0.32 0.26 0.18 0.16 0.18 0.30 0.54 0.58 0.61 0.47 0.46 0.25 0.30 0.25 0.13 0.28 0.34 0.17 0.12 0.05 0.13 0.12 0.08 0.02 0.01 0.00 0.00 0.01 0.00 0.00 0.01 0.00 0.00 0.00
0.11 0.23 0.38 0.45 0.55 0.50 0.44 0.46 0.48 0.48 0.45 0.44 0.42 0.39 0.44 0.51 0.58 0.44 0.17 0.16 0.30 0.31 0.27 0.30 0.30 0.26 0.15 0.18 0.16 0.07 0.10 0.13 0.09 0.07 0.02 0.01 0.05 0.05 0.01 0.02 0.00 0.00 0.00
0.14 0.15 0.15 0.20 0.21 0.29 0.30 0.29 0.33 0.44 0.39 0.44 0.47 0.53 0.48 0.34 0.23 0.18 0.12 0.03 0.11 0.25 0.32 0.32 0.28 0.18 0.36 0.35 0.53 0.36 0.21 0.18 0.15 0.23 0.09 0.04 0.06 0.12 0.10 0.04 0.04 0.03 0.01
0.10 0.05 0.04 0.08 0.22 0.14 0.08 0.06 0.08 0.16 0.26 0.35 0.30 0.25 0.32 0.37 0.35 0.25 0.26 0.09 0.05 0.21 0.33 0.31 0.26 0.44 0.40 0.17 0.12 0.13 0.17 0.20 0.26 0.17 0.12 0.14 0.13 0.15 0.11 0.07 0.04 0.01 0.00
0.13 0.06 0.04 0.01 0.00 0.02 0.05 0.06 0.10 0.14 0.13 0.22 0.21 0.18 0.11 0.24 0.43 0.40 0.33 0.25 0.22 0.29 0.49 0.25 0.19 0.17 0.22 0.16 0.06 0.01 0.03 0.09 0.26 0.23 0.12 0.07 0.06 0.03 0.05 0.01 0.02 0.02 0.00
0.12 0.11 0.05 0.02 0.02 0.01 0.01 0.04 0.03 0.06 0.12 0.12 0.10 0.09 0.10 0.12 0.16 0.16 0.22 0.22 0.16 0.24 0.17 0.10 0.13 0.11 0.17 0.12 0.05 0.01 0.01 0.03 0.11 0.10 0.06 0.03 0.04 0.03 0.13 0.12 0.16 0.18 0.12
0.05 0.09 0.06 0.02 0.03 0.01 0.01 0.00 0.00 0.01 0.03 0.05 0.08 0.11 0.09 0.06 0.09 0.08 0.15 0.11 0.10 0.23 0.17 0.07 0.04 0.12 0.14 0.14 0.09 0.07 0.06 0.03 0.05 0.02 0.00 0.00 0.00 0.00 0.01 0.05 0.22 0.16 0.11
0.01 0.02 0.03 0.02 0.01 0.00 0.00 0.00 0.00 0.00 0.00 0.00 0.01 0.04 0.03 0.01 0.00 0.02 0.07 0.05 0.07 0.02 0.01 0.02 0.04 0.10 0.07 0.11 0.10 0.11 0.09 0.04 0.01 0.00 0.00 0.00 0.00 0.00 0.00 0.01 0.01 0.00 0.00
0.00 0.01 0.00 0.00 0.00 0.00 0.00 0.00 0.00 0.00 0.00 0.00 0.00 0.00 0.01 0.01 0.00 0.02 0.04 0.08 0.08 0.03 0.03 0.02 0.02 0.01 0.01 0.01 0.01 0.02 0.04 0.00 0.00 0.00 0.00 0.00 0.00 0.00 0.00 0.00 0.00 0.00 0.00
0.00 0.00 0.00 0.00 0.00 0.00 0.01 0.01 0.01 0.00 0.00 0.00 0.00 0.00 0.00 0.00 0.00 0.00 0.00 0.00 0.00 0.00 0.01 0.00 0.00 0.00 0.00 0.00 0.00 0.00 0.00 0.00 0.00 0.00 0.00 0.00 0.00 0.00 0.00 0.00 0.00 0.00 0.00
0.00 0.00 0.00 0.00 0.00 0.00 0.00 0.00 0.00 0.00 0.00 0.00 0.00 0.00 0.00 0.00 0.00 0.00 0.00 0.00 0.00 0.00 0.00 0.00 0.00 0.00 0.00 0.00 0.00 0.00 0.00 0.00 0.00 0.00 0.00 0.00 0.00 0.00 0.00 0.00 0.00 0.00 0.00
0.00 0.00 0.00 0.00 0.00 0.00 0.00 0.00 0.00 0.00 0.00 0.00 0.00 0.00 0.00 0.00 0.00 0.00 0.00 0.00 0.00 0.00 0.00 0.00 0.00 0.00 0.00 0.00 0.00 0.01 0.00 0.00 0.01 0.03 0.06 0.04 0.02 0.01 0.00 0.00 0.00 0.00 0.00
0.00 0.00 0.00 0.00 0.00 0.00 0.00 0.00 0.00 0.00 0.00 0.00 0.00 0.00 0.00 0.00 0.00 0.00 0.00 0.00 0.00 0.00 0.00 0.00 0.00 0.00 0.00 0.00 0.00 0.02 0.01 0.05 0.15 0.10 0.06 0.06 0.05 0.02 0.02 0.01 0.00 0.00 0.00
0.00 0.00 0.00 0.00 0.00 0.00 0.00 0.00 0.00 0.00 0.00 0.00 0.00 0.00 0.00 0.00 0.00 0.00 0.00 0.00 0.00 0.00 0.00 0.00 0.00 0.00 0.00 0.00 0.00 0.00 0.00 0.00 0.00 0.01 0.01 0.06 0.16 0.21 0.25 0.16 0.16 0.13 0.09
0.00 0.00 0.00 0.00 0.00 0.00 0.00 0.00 0.00 0.00 0.00 0.00 0.00 0.00 0.00 0.00 0.00 0.00 0.00 0.00 0.00 0.00 0.00 0.00 0.00 0.00 0.00 0.00 0.00 0.00 0.00 0.00 0.00 0.01 0.04 0.17 0.23 0.35 0.40 0.27 0.26 0.23 0.20
0.00 0.00 0.00 0.00 0.00 0.00 0.00 0.00 0.00 0.00 0.00 0.00 0.00 0.00 0.00 0.00 0.00 0.00 0.00 0.00 0.00 0.00 0.00 0.00 0.00 0.00 0.00 0.00 0.00 0.00 0.00 0.00 0.00 0.01 0.02 0.11 0.12 0.29 0.41 0.27 0.20 0.21 0.19
0.00 0.00 0.00 0.00 0.00 0.00 0.00 0.00 0.00 0.00 0.00 0.00 0.00 0.00 0.00 0.00 0.00 0.00 0.00 0.00 0.00 0.00 0.00 0.00 0.00 0.00 0.00 0.00 0.00 0.01 0.01 0.01 0.02 0.04 0.05 0.08 0.21 0.22 0.30 0.37 0.34 0.31 0.29
0.01 0.00 0.00 0.00 0.00 0.00 0.00 0.00 0.00 0.00 0.00 0.00 0.00 0.00 0.00 0.00 0.00 0.00 0.00 0.00 0.00 0.00 0.00 0.00 0.00 0.00 0.00 0.00 0.00 0.00 0.01 0.02 0.03 0.04 0.05 0.07 0.10 0.16 0.18 0.25 0.30 0.41 0.47
0.06 0.04 0.01 0.00 0.00 0.00 0.00 0.00 0.00 0.00 0.00 0.00 0.00 0.00 0.00 0.00 0.00 0.00 0.00 0.00 0.00 0.00 0.00 0.00 0.00 0.00 0.00 0.00 0.01 0.02 0.03 0.02 0.02 0.02 0.03 0.02 0.04 0.06 0.06 0.14 0.42 0.72 0.67
0.07 0.05 0.03 0.01 0.00 0.00 0.00 0.00 0.00 0.00 0.00 0.00 0.00 0.00 0.00 0.00 0.00 0.00 0.00 0.00 0.00 0.00 0.00 0.00 0.00 0.00 0.00 0.00 0.00 0.01 0.01 0.02 0.03 0.02 0.02 0.02 0.02 0.05 0.03 0.03 0.05 0.11 0.14
0.14 0.11 0.07 0.02 0.00 0.00 0.00 0.00 0.00 0.00 0.00 0.00 0.00 0.00 0.00 0.00 0.00 0.00 0.00 0.00 0.00 0.00 0.00 0.00 0.00 0.00 0.00 0.00 0.00 0.00 0.01 0.03 0.02 0.03 0.02 0.02 0.02 0.02 0.02 0.02 0.03 0.04 0.05
0.15 0.17 0.12 0.07 0.02 0.00 0.00 0.00 0.00 0.00 0.00 0.00 0.00 0.00 0.00 0.00 0.00 0.00 0.00 0.00 0.00 0.00 0.00 0.00 0.00 0.01 0.00 0.00 0.00 0.01 0.01 0.01 0.02 0.04 0.03 0.01 0.02 0.02 0.02 0.02 0.02 0.02 0.03

GFSGL_prec_precacc24_108.txt.gz
Total_Precipitation_Accumulation
0.42 0.36 0.51 0.25 0.12 0.11 0.11 0.11 0.15 0.31 0.49 0.42 0.40 0.23 0.21 0.24 0.14 0.16 0.10 0.07 0.06 0.04 0.01 0.02 0.03 0.01 0.00 0.00 0.01 0.00 0.00 0.01 0.01 0.02 0.06 0.11 0.05 0.01 0.00 0.00 0.00 0.00 0.00
0.92 1.00 0.58 0.62 0.52 0.32 0.24 0.19 0.17 0.18 0.27 0.46 0.30 0.37 0.38 0.22 0.23 0.21 0.12 0.14 0.15 0.09 0.06 0.04 0.01 0.00 0.01 0.00 0.01 0.00 0.00 0.00 0.00 0.00 0.00 0.01 0.01 0.00 0.00 0.00 0.00 0.00 0.01
1.36 1.36 0.95 0.58 0.48 0.45 0.44 0.66 0.34 0.17 0.36 0.31 0.35 0.55 0.41 0.31 0.37 0.31 0.28 0.35 0.24 0.20 0.13 0.08 0.05 0.03 0.01 0.01 0.00 0.00 0.00 0.00 0.00 0.00 0.00 0.00 0.00 0.00 0.00 0.00 0.00 0.00 0.01
1.39 1.52 0.83 0.47 0.34 0.39 0.28 0.32 0.18 0.15 0.25 0.19 0.21 0.32 0.30 0.27 0.33 0.31 0.48 0.60 0.34 0.29 0.26 0.21 0.16 0.09 0.07 0.06 0.02 0.01 0.01 0.01 0.01 0.01 0.00 0.00 0.01 0.01 0.01 0.01 0.00 0.00 0.01
0.46 0.75 0.81 0.47 0.24 0.26 0.34 0.37 0.35 0.18 0.16 0.15 0.20 0.25 0.33 0.57 0.63 0.67 0.55 0.50 0.29 0.34 0.40 0.31 0.49 0.50 0.34 0.23 0.19 0.15 0.12 0.12 0.03 0.01 0.00 0.00 0.01 0.00 0.00 0.01 0.00 0.00 0.00
0.31 0.29 0.25 0.35 0.39 0.37 0.24 0.25 0.27 0.31 0.27 0.32 0.34 0.39 0.47 0.52 0.58 0.44 0.19 0.20 0.38 0.39 0.33 0.33 0.38 0.33 0.32 0.30 0.24 0.09 0.12 0.14 0.09 0.07 0.02 0.02 0.07 0.06 0.01 0.02 0.00 0.00 0.00
0.21 0.15 0.11 0.15 0.16 0.23 0.27 0.24 0.24 0.30 0.24 0.33 0.33 0.35 0.38 0.32 0.23 0.16 0.10 0.02 0.16 0.29 0.36 0.37 0.29 0.19 0.37 0.37 0.57 0.42 0.27 0.26 0.20 0.24 0.11 0.07 0.08 0.12 0.10 0.04 0.04 0.03 0.01
0.15 0.06 0.03 0.03 0.01 0.02 0.04 0.04 0.04 0.10 0.15 0.22 0.21 0.17 0.22 0.30 0.28 0.19 0.18 0.07 0.05 0.22 0.34 0.33 0.28 0.44 0.41 0.19 0.13 0.13 0.19 0.23 0.27 0.17 0.12 0.16 0.13 0.15 0.11 0.07 0.04 0.01 0.00
0.14 0.07 0.04 0.02 0.00 0.03 0.02 0.02 0.04 0.05 0.04 0.16 0.13 0.09 0.05 0.18 0.27 0.29 0.16 0.14 0.21 0.30 0.50 0.27 0.20 0.17 0.21 0.15 0.05 0.01 0.03 0.09 0.27 0.24 0.12 0.09 0.06 0.03 0.05 0.01 0.02 0.02 0.00
0.18 0.18 0.11 0.10 0.09 0.03 0.03 0.02 0.00 0.01 0.05 0.06 0.05 0.03 0.03 0.07 0.10 0.11 0.13 0.12 0.08 0.15 0.15 0.10 0.13 0.11 0.17 0.12 0.05 0.01 0.01 0.03 0.11 0.10 0.06 0.03 0.04 0.03 0.13 0.12 0.16 0.18 0.12
0.09 0.15 0.10 0.06 0.06 0.02 0.02 0.00 0.00 0.00 0.01 0.01 0.02 0.01 0.01 0.02 0.03 0.02 0.05 0.07 0.07 0.11 0.05 0.06 0.04 0.12 0.12 0.14 0.09 0.07 0.06 0.03 0.05 0.02 0.00 0.00 0.00 0.00 0.01 0.05 0.22 0.16 0.11
0.05 0.06 0.06 0.04 0.02 0.00 0.00 0.00 0.00 0.00 0.00 0.00 0.00 0.02 0.01 0.00 0.00 0.00 0.01 0.01 0.01 0.00 0.00 0.01 0.04 0.10 0.06 0.11 0.10 0.11 0.09 0.04 0.01 0.00 0.00 0.00 0.00 0.00 0.00 0.01 0.01 0.00 0.00
0.01 0.01 0.01 0.01 0.00 0.00 0.00 0.00 0.00 0.00 0.00 0.00 0.00 0.00 0.00 0.01 0.00 0.00 0.00 0.00 0.00 0.00 0.00 0.00 0.00 0.01 0.01 0.01 0.01 0.02 0.03 0.00 0.00 0.00 0.00 0.00 0.00 0.00 0.00 0.00 0.00 0.00 0.00
0.00 0.00 0.00 0.00 0.00 0.00 0.01 0.01 0.01 0.00 0.00 0.00 0.00 0.00 0.00 0.00 0.00 0.00 0.00 0.00 0.00 0.00 0.00 0.00 0.00 0.00 0.00 0.00 0.00 0.00 0.00 0.00 0.00 0.00 0.00 0.00 0.00 0.00 0.00 0.00 0.00 0.00 0.00
0.00 0.00 0.00 0.00 0.00 0.00 0.00 0.00 0.00 0.00 0.00 0.00 0.00 0.00 0.00 0.00 0.00 0.00 0.00 0.00 0.00 0.00 0.00 0.00 0.00 0.00 0.00 0.00 0.00 0.00 0.00 0.00 0.00 0.00 0.00 0.00 0.00 0.00 0.00 0.00 0.00 0.00 0.00
0.00 0.00 0.00 0.00 0.00 0.00 0.00 0.00 0.00 0.00 0.00 0.00 0.00 0.00 0.00 0.00 0.00 0.00 0.00 0.00 0.00 0.00 0.00 0.00 0.00 0.00 0.00 0.00 0.00 0.00 0.00 0.00 0.00 0.01 0.04 0.03 0.02 0.01 0.00 0.00 0.00 0.00 0.00
0.00 0.00 0.00 0.00 0.00 0.00 0.00 0.00 0.00 0.00 0.00 0.00 0.00 0.00 0.00 0.00 0.00 0.00 0.00 0.00 0.00 0.00 0.00 0.00 0.00 0.00 0.00 0.00 0.00 0.00 0.00 0.00 0.00 0.00 0.00 0.02 0.03 0.01 0.01 0.00 0.00 0.00 0.00
0.00 0.00 0.00 0.00 0.00 0.00 0.00 0.00 0.00 0.00 0.00 0.00 0.00 0.00 0.00 0.00 0.00 0.00 0.00 0.00 0.00 0.00 0.00 0.00 0.00 0.00 0.00 0.00 0.00 0.00 0.00 0.00 0.00 0.00 0.00 0.00 0.01 0.01 0.02 0.02 0.04 0.04 0.04
0.00 0.00 0.00 0.00 0.00 0.00 0.00 0.00 0.00 0.00 0.00 0.00 0.00 0.00 0.00 0.00 0.00 0.00 0.00 0.00 0.00 0.00 0.00 0.00 0.00 0.00 0.00 0.00 0.00 0.00 0.00 0.00 0.00 0.00 0.00 0.01 0.01 0.05 0.04 0.03 0.06 0.10 0.08
0.00 0.00 0.00 0.00 0.00 0.00 0.00 0.00 0.00 0.00 0.00 0.00 0.00 0.00 0.00 0.00 0.00 0.00 0.00 0.00 0.00 0.00 0.00 0.00 0.00 0.00 0.00 0.00 0.00 0.00 0.00 0.00 0.00 0.00 0.01 0.02 0.03 0.05 0.06 0.07 0.05 0.05 0.06
0.01 0.01 0.00 0.00 0.00 0.00 0.00 0.00 0.00 0.00 0.00 0.00 0.00 0.00 0.00 0.00 0.00 0.00 0.00 0.00 0.00 0.00 0.00 0.00 0.00 0.00 0.00 0.00 0.00 0.00 0.00 0.00 0.01 0.01 0.02 0.04 0.06 0.07 0.05 0.05 0.06 0.07 0.07
0.03 0.03 0.02 0.00 0.00 0.00 0.00 0.00 0.00 0.00 0.00 0.00 0.00 0.00 0.00 0.00 0.00 0.00 0.00 0.00 0.00 0.00 0.00 0.00 0.00 0.00 0.00 0.00 0.00 0.00 0.01 0.02 0.02 0.03 0.04 0.04 0.03 0.03 0.04 0.05 0.06 0.07 0.09
0.07 0.06 0.02 0.01 0.00 0.00 0.00 0.00 0.00 0.00 0.00 0.00 0.00 0.00 0.00 0.00 0.00 0.00 0.00 0.00 0.00 0.00 0.00 0.00 0.00 0.00 0.00 0.00 0.01 0.02 0.02 0.01 0.01 0.01 0.02 0.02 0.04 0.04 0.04 0.04 0.04 0.04 0.04
0.09 0.08 0.06 0.02 0.01 0.00 0.00 0.00 0.00 0.00 0.00 0.00 0.00 0.00 0.00 0.00 0.00 0.00 0.00 0.00 0.00 0.00 0.00 0.00 0.00 0.00 0.00 0.00 0.00 0.01 0.01 0.01 0.02 0.02 0.02 0.02 0.02 0.05 0.03 0.03 0.03 0.03 0.03
0.16 0.16 0.13 0.07 0.03 0.02 0.00 0.00 0.00 0.00 0.00 0.00 0.00 0.00 0.00 0.00 0.00 0.00 0.00 0.00 0.00 0.00 0.00 0.00 0.00 0.00 0.00 0.00 0.00 0.00 0.00 0.01 0.01 0.02 0.02 0.01 0.02 0.02 0.02 0.02 0.03 0.03 0.03
0.16 0.18 0.15 0.11 0.08 0.05 0.03 0.01 0.00 0.00 0.00 0.00 0.00 0.00 0.00 0.00 0.00 0.00 0.00 0.00 0.00 0.00 0.00 0.00 0.00 0.00 0.00 0.00 0.00 0.01 0.01 0.01 0.02 0.03 0.02 0.01 0.02 0.02 0.02 0.02 0.02 0.02 0.02

GFSGL_prec_precacc24_111.txt.gz
Total_Precipitation_Accumulation
0.39 0.36 0.51 0.25 0.12 0.09 0.11 0.11 0.14 0.26 0.46 0.41 0.39 0.23 0.21 0.24 0.14 0.16 0.10 0.07 0.06 0.04 0.01 0.02 0.03 0.01 0.00 0.00 0.01 0.01 0.00 0.01 0.01 0.02 0.06 0.11 0.05 0.01 0.00 0.00 0.00 0.00 0.00
0.95 1.13 0.74 0.74 0.59 0.31 0.21 0.18 0.14 0.18 0.25 0.38 0.28 0.37 0.38 0.23 0.24 0.21 0.12 0.14 0.15 0.09 0.06 0.06 0.01 0.00 0.01 0.00 0.01 0.00 0.00 0.00 0.00 0.00 0.00 0.01 0.01 0.00 0.00 0.00 0.00 0.00 0.01
1.29 1.44 1.19 0.78 0.68 0.66 0.54 0.65 0.32 0.15 0.30 0.25 0.31 0.52 0.41 0.31 0.37 0.41 0.30 0.35 0.24 0.20 0.13 0.07 0.06 0.04 0.02 0.03 0.02 0.00 0.00 0.00 0.00 0.00 0.00 0.00 0.00 0.00 0.00 0.00 0.00 0.00 0.01
0.93 1.28 0.97 0.70 0.47 0.43 0.41 0.44 0.30 0.26 0.36 0.19 0.25 0.33 0.29 0.27 0.35 0.38 0.50 0.59 0.31 0.30 0.25 0.19 0.14 0.11 0.13 0.10 0.05 0.04 0.04 0.04 0.01 0.01 0.00 0.00 0.01 0.01 0.01 0.01 0.00 0.00 0.01
0.40 0.56 0.74 0.56 0.37 0.22 0.34 0.41 0.40 0.27 0.24 0.16 0.20 0.30 0.44 0.59 0.64 0.70 0.54 0.45 0.26 0.38 0.40 0.32 0.50 0.54 0.35 0.24 0.22 0.20 0.16 0.21 0.04 0.01 0.00 0.00 0.01 0.01 0.01 0.01 0.00 0.00 0.00
0.39 0.41 0.31 0.43 0.44 0.38 0.28 0.21 0.23 0.23 0.17 0.23 0.31 0.40 0.50 0.57 0.56 0.43 0.18 0.20 0.38 0.41 0.35 0.34 0.43 0.35 0.33 0.32 0.24 0.09 0.13 0.21 0.14 0.12 0.06 0.04 0.10 0.07 0.01 0.02 0.00 0.00 0.00
0.32 0.30 0.23 0.29 0.16 0.21 0.26 0.25 0.26 0.30 0.22 0.26 0.19 0.21 0.29 0.26 0.14 0.08 0.06 0.02 0.18 0.35 0.38 0.37 0.30 0.19 0.37 0.37 0.57 0.43 0.31 0.34 0.24 0.27 0.12 0.07 0.09 0.13 0.10 0.04 0.04 0.03 0.01
0.43 0.32 0.12 0.10 0.02 0.01 0.01 0.01 0.03 0.09 0.15 0.18 0.15 0.07 0.04 0.10 0.09 0.07 0.04 0.03 0.06 0.29 0.43 0.39 0.29 0.44 0.40 0.18 0.13 0.13 0.20 0.26 0.30 0.19 0.12 0.16 0.13 0.15 0.11 0.07 0.04 0.01 0.00
0.47 0.24 0.11 0.03 0.01 0.03 0.02 0.01 0.02 0.03 0.04 0.15 0.09 0.04 0.00 0.01 0.06 0.07 0.03 0.06 0.20 0.33 0.53 0.30 0.21 0.17 0.20 0.11 0.03 0.01 0.03 0.09 0.27 0.24 0.12 0.09 0.06 0.03 0.05 0.01 0.02 0.02 0.00
0.97 0.38 0.15 0.12 0.11 0.05 0.09 0.09 0.05 0.01 0.05 0.05 0.02 0.00 0.00 0.00 0.01 0.01 0.01 0.01 0.01 0.05 0.13 0.11 0.12 0.10 0.15 0.10 0.04 0.01 0.01 0.03 0.11 0.10 0.06 0.03 0.04 0.03 0.13 0.12 0.16 0.18 0.12
0.51 0.51 0.31 0.21 0.15 0.07 0.10 0.09 0.08 0.03 0.00 0.00 0.01 0.00 0.00 0.00 0.00 0.00 0.00 0.00 0.00 0.00 0.01 0.03 0.03 0.10 0.11 0.14 0.09 0.07 0.06 0.03 0.05 0.02 0.00 0.00 0.00 0.00 0.01 0.05 0.22 0.16 0.11
0.36 0.40 0.33 0.20 0.11 0.02 0.02 0.02 0.01 0.01 0.00 0.00 0.00 0.00 0.00 0.00 0.00 0.00 0.00 0.00 0.00 0.00 0.00 0.00 0.02 0.06 0.05 0.08 0.09 0.10 0.07 0.03 0.01 0.00 0.00 0.00 0.00 0.00 0.00 0.01 0.01 0.00 0.00
0.10 0.08 0.05 0.02 0.01 0.01 0.01 0.00 0.00 0.00 0.00 0.00 0.00 0.00 0.00 0.00 0.00 0.00 0.00 0.00 0.00 0.00 0.00 0.00 0.00 0.01 0.01 0.01 0.01 0.02 0.02 0.00 0.00 0.00 0.00 0.00 0.00 0.00 0.00 0.00 0.00 0.00 0.00
0.00 0.00 0.00 0.01 0.00 0.00 0.01 0.01 0.01 0.00 0.00 0.00 0.00 0.00 0.00 0.00 0.00 0.00 0.00 0.00 0.00 0.00 0.00 0.00 0.00 0.00 0.00 0.00 0.00 0.00 0.00 0.00 0.00 0.00 0.00 0.00 0.00 0.00 0.00 0.00 0.00 0.00 0.00
0.00 0.00 0.00 0.00 0.00 0.00 0.00 0.00 0.00 0.00 0.00 0.00 0.00 0.00 0.00 0.00 0.00 0.00 0.00 0.00 0.00 0.00 0.00 0.00 0.00 0.00 0.00 0.00 0.00 0.00 0.00 0.00 0.00 0.00 0.00 0.00 0.00 0.00 0.00 0.00 0.00 0.00 0.00
0.00 0.00 0.00 0.00 0.00 0.00 0.00 0.00 0.00 0.00 0.00 0.00 0.00 0.00 0.00 0.00 0.00 0.00 0.00 0.00 0.00 0.00 0.00 0.00 0.00 0.00 0.00 0.00 0.00 0.00 0.00 0.00 0.00 0.00 0.00 0.00 0.00 0.00 0.00 0.00 0.00 0.00 0.00
0.00 0.00 0.00 0.00 0.00 0.00 0.00 0.00 0.00 0.00 0.00 0.00 0.00 0.00 0.00 0.00 0.00 0.00 0.00 0.00 0.00 0.00 0.00 0.00 0.00 0.00 0.00 0.00 0.00 0.00 0.00 0.00 0.00 0.00 0.00 0.00 0.00 0.00 0.00 0.00 0.00 0.00 0.00
0.00 0.00 0.00 0.00 0.00 0.00 0.00 0.00 0.00 0.00 0.00 0.00 0.00 0.00 0.00 0.00 0.00 0.00 0.00 0.00 0.00 0.00 0.00 0.00 0.00 0.00 0.00 0.00 0.00 0.00 0.00 0.00 0.00 0.00 0.00 0.00 0.01 0.01 0.01 0.01 0.01 0.02 0.02
0.00 0.00 0.00 0.00 0.00 0.00 0.00 0.00 0.00 0.00 0.00 0.00 0.00 0.00 0.00 0.00 0.00 0.00 0.00 0.00 0.00 0.00 0.00 0.00 0.00 0.00 0.00 0.00 0.00 0.00 0.00 0.00 0.00 0.00 0.00 0.01 0.01 0.01 0.02 0.02 0.02 0.02 0.02
0.00 0.00 0.00 0.00 0.00 0.00 0.00 0.00 0.00 0.00 0.00 0.00 0.00 0.00 0.00 0.00 0.00 0.00 0.00 0.00 0.00 0.00 0.00 0.00 0.00 0.00 0.00 0.00 0.00 0.00 0.00 0.00 0.00 0.00 0.00 0.00 0.01 0.01 0.02 0.03 0.03 0.03 0.03
0.02 0.01 0.00 0.00 0.00 0.00 0.00 0.00 0.00 0.00 0.00 0.00 0.00 0.00 0.00 0.00 0.00 0.00 0.00 0.00 0.00 0.00 0.00 0.00 0.00 0.00 0.00 0.00 0.00 0.00 0.00 0.00 0.00 0.00 0.00 0.01 0.01 0.02 0.03 0.04 0.04 0.04 0.04
0.03 0.03 0.02 0.01 0.00 0.00 0.00 0.00 0.00 0.00 0.00 0.00 0.00 0.00 0.00 0.00 0.00 0.00 0.00 0.00 0.00 0.00 0.00 0.00 0.00 0.00 0.00 0.00 0.00 0.00 0.01 0.01 0.01 0.01 0.02 0.01 0.01 0.01 0.02 0.03 0.04 0.05 0.05
0.07 0.06 0.02 0.01 0.00 0.00 0.00 0.00 0.00 0.00 0.00 0.00 0.00 0.00 0.00 0.00 0.00 0.00 0.00 0.00 0.00 0.00 0.00 0.00 0.00 0.00 0.00 0.00 0.00 0.00 0.01 0.01 0.01 0.01 0.01 0.01 0.02 0.02 0.03 0.03 0.03 0.04 0.04
0.09 0.08 0.06 0.02 0.01 0.01 0.00 0.00 0.00 0.00 0.00 0.00 0.00 0.00 0.00 0.00 0.00 0.00 0.00 0.00 0.00 0.00 0.00 0.00 0.00 0.00 0.00 0.00 0.00 0.00 0.00 0.00 0.01 0.01 0.02 0.01 0.01 0.02 0.02 0.02 0.03 0.03 0.03
0.16 0.16 0.13 0.07 0.03 0.02 0.01 0.00 0.01 0.01 0.01 0.00 0.00 0.00 0.00 0.00 0.00 0.00 0.00 0.00 0.00 0.00 0.00 0.00 0.00 0.00 0.00 0.00 0.00 0.00 0.00 0.00 0.00 0.00 0.01 0.01 0.01 0.02 0.02 0.02 0.02 0.03 0.02
0.16 0.18 0.15 0.11 0.08 0.05 0.04 0.04 0.04 0.03 0.02 0.01 0.00 0.00 0.00 0.00 0.00 0.00 0.00 0.00 0.00 0.00 0.00 0.00 0.00 0.00 0.00 0.00 0.00 0.00 0.00 0.00 0.00 0.00 0.00 0.00 0.01 0.02 0.01 0.01 0.02 0.02 0.01

GFSGL_prec_precacc24_114.txt.gz
Total_Precipitation_Accumulation
0.21 0.34 0.51 0.25 0.12 0.10 0.12 0.20 0.19 0.24 0.42 0.29 0.33 0.23 0.27 0.20 0.13 0.16 0.12 0.07 0.06 0.04 0.01 0.02 0.03 0.01 0.00 0.00 0.00 0.01 0.00 0.01 0.01 0.02 0.06 0.11 0.05 0.01 0.00 0.00 0.00 0.00 0.00
0.70 1.03 0.72 0.74 0.59 0.28 0.19 0.19 0.17 0.14 0.15 0.25 0.21 0.33 0.41 0.24 0.25 0.23 0.11 0.11 0.13 0.09 0.06 0.06 0.01 0.00 0.01 0.00 0.01 0.00 0.00 0.00 0.00 0.00 0.00 0.01 0.01 0.00 0.00 0.00 0.00 0.00 0.01
0.97 1.22 1.12 0.78 0.68 0.69 0.57 0.66 0.37 0.18 0.27 0.16 0.25 0.39 0.31 0.27 0.37 0.47 0.47 0.38 0.23 0.16 0.12 0.07 0.05 0.04 0.04 0.03 0.02 0.01 0.00 0.00 0.00 0.00 0.00 0.00 0.00 0.00 0.00 0.00 0.00 0.00 0.01
0.78 1.00 0.92 0.71 0.48 0.49 0.45 0.47 0.35 0.35 0.45 0.21 0.24 0.28 0.24 0.25 0.35 0.41 0.57 0.72 0.39 0.26 0.18 0.17 0.11 0.10 0.15 0.10 0.05 0.04 0.04 0.05 0.01 0.01 0.00 0.00 0.01 0.01 0.01 0.01 0.00 0.00 0.01
0.42 0.45 0.48 0.48 0.41 0.28 0.39 0.46 0.43 0.32 0.33 0.30 0.34 0.41 0.52 0.64 0.66 0.70 0.55 0.44 0.29 0.42 0.41 0.34 0.56 0.57 0.34 0.23 0.21 0.18 0.14 0.20 0.05 0.01 0.00 0.00 0.01 0.01 0.01 0.01 0.00 0.00 0.00
0.44 0.51 0.35 0.35 0.53 0.48 0.36 0.32 0.33 0.30 0.22 0.27 0.33 0.41 0.56 0.61 0.56 0.44 0.18 0.20 0.37 0.42 0.34 0.36 0.47 0.41 0.34 0.30 0.23 0.09 0.13 0.22 0.16 0.12 0.07 0.04 0.10 0.07 0.01 0.02 0.00 0.00 0.00
0.39 0.38 0.34 0.43 0.27 0.34 0.33 0.32 0.37 0.39 0.29 0.33 0.24 0.20 0.25 0.19 0.10 0.03 0.01 0.01 0.18 0.43 0.51 0.51 0.39 0.24 0.37 0.33 0.51 0.40 0.31 0.35 0.25 0.28 0.14 0.07 0.09 0.13 0.10 0.04 0.04 0.03 0.01
0.47 0.42 0.25 0.23 0.14 0.08 0.04 0.03 0.04 0.10 0.17 0.20 0.15 0.06 0.01 0.00 0.00 0.00 0.00 0.00 0.06 0.31 0.47 0.47 0.37 0.51 0.44 0.17 0.12 0.11 0.18 0.25 0.29 0.18 0.12 0.16 0.13 0.15 0.11 0.07 0.04 0.01 0.00
0.54 0.35 0.20 0.10 0.09 0.16 0.14 0.11 0.07 0.04 0.04 0.15 0.09 0.04 0.00 0.00 0.00 0.00 0.01 0.05 0.20 0.33 0.54 0.31 0.23 0.20 0.20 0.09 0.02 0.01 0.03 0.09 0.27 0.24 0.12 0.09 0.06 0.03 0.05 0.01 0.02 0.02 0.00
1.05 0.56 0.29 0.28 0.31 0.32 0.42 0.39 0.21 0.03 0.05 0.05 0.01 0.00 0.00 0.00 0.00 0.00 0.00 0.00 0.01 0.05 0.12 0.10 0.08 0.11 0.15 0.08 0.04 0.01 0.01 0.03 0.11 0.10 0.06 0.03 0.04 0.03 0.13 0.12 0.16 0.18 0.12
0.90 1.09 0.71 0.46 0.43 0.32 0.29 0.38 0.35 0.09 0.01 0.00 0.00 0.00 0.00 0.00 0.00 0.00 0.00 0.00 0.00 0.00 0.00 0.00 0.01 0.08 0.10 0.13 0.08 0.07 0.03 0.02 0.05 0.02 0.00 0.00 0.00 0.00 0.01 0.05 0.22 0.16 0.11
0.85 0.87 1.36 1.06 0.72 0.25 0.11 0.09 0.12 0.07 0.04 0.01 0.00 0.00 0.00 0.00 0.00 0.00 0.00 0.00 0.00 0.00 0.00 0.00 0.00 0.02 0.02 0.04 0.05 0.05 0.02 0.01 0.01 0.00 0.00 0.00 0.00 0.00 0.00 0.01 0.01 0.00 0.00
0.27 0.47 0.62 0.93 0.45 0.14 0.03 0.01 0.00 0.00 0.00 0.00 0.00 0.00 0.00 0.00 0.00 0.00 0.00 0.00 0.00 0.00 0.00 0.00 0.00 0.00 0.00 0.00 0.00 0.00 0.00 0.00 0.00 0.00 0.00 0.00 0.00 0.00 0.00 0.00 0.00 0.00 0.00
0.01 0.02 0.05 0.09 0.07 0.05 0.04 0.02 0.03 0.01 0.00 0.00 0.00 0.00 0.00 0.00 0.00 0.00 0.00 0.00 0.00 0.00 0.00 0.00 0.00 0.00 0.00 0.00 0.00 0.00 0.00 0.00 0.00 0.00 0.00 0.00 0.00 0.00 0.00 0.00 0.00 0.00 0.00
0.00 0.00 0.00 0.00 0.00 0.00 0.00 0.00 0.00 0.00 0.00 0.00 0.00 0.00 0.00 0.00 0.00 0.00 0.00 0.00 0.00 0.00 0.00 0.00 0.00 0.00 0.00 0.00 0.00 0.00 0.00 0.00 0.00 0.00 0.00 0.00 0.00 0.00 0.00 0.00 0.00 0.00 0.00
0.00 0.00 0.00 0.00 0.00 0.00 0.00 0.00 0.00 0.00 0.00 0.00 0.00 0.00 0.00 0.00 0.00 0.00 0.00 0.00 0.00 0.00 0.00 0.00 0.00 0.00 0.00 0.00 0.00 0.00 0.00 0.00 0.00 0.00 0.00 0.00 0.00 0.00 0.00 0.00 0.00 0.00 0.00
0.00 0.00 0.00 0.00 0.00 0.00 0.00 0.00 0.00 0.00 0.00 0.00 0.00 0.00 0.00 0.00 0.00 0.00 0.00 0.00 0.00 0.00 0.00 0.00 0.00 0.00 0.00 0.00 0.00 0.00 0.00 0.00 0.00 0.00 0.00 0.00 0.00 0.00 0.00 0.00 0.00 0.00 0.00
0.00 0.00 0.00 0.00 0.00 0.00 0.00 0.00 0.00 0.00 0.00 0.00 0.00 0.00 0.00 0.00 0.00 0.00 0.00 0.00 0.00 0.00 0.00 0.00 0.00 0.00 0.00 0.00 0.00 0.00 0.00 0.00 0.00 0.00 0.00 0.00 0.00 0.00 0.01 0.00 0.01 0.01 0.01
0.00 0.00 0.00 0.00 0.00 0.00 0.00 0.00 0.00 0.00 0.00 0.00 0.00 0.00 0.00 0.00 0.00 0.00 0.00 0.00 0.00 0.00 0.00 0.00 0.00 0.00 0.00 0.00 0.00 0.00 0.00 0.00 0.00 0.00 0.00 0.00 0.00 0.00 0.01 0.01 0.01 0.01 0.01
0.00 0.00 0.00 0.00 0.00 0.00 0.00 0.00 0.00 0.00 0.00 0.00 0.00 0.00 0.00 0.00 0.00 0.00 0.00 0.00 0.00 0.00 0.00 0.00 0.00 0.00 0.00 0.00 0.00 0.00 0.00 0.00 0.00 0.00 0.00 0.00 0.00 0.00 0.01 0.01 0.01 0.01 0.02
0.02 0.01 0.00 0.00 0.00 0.00 0.00 0.00 0.00 0.00 0.00 0.00 0.00 0.00 0.00 0.00 0.00 0.00 0.00 0.00 0.00 0.00 0.00 0.00 0.00 0.00 0.00 0.00 0.00 0.00 0.00 0.00 0.00 0.00 0.00 0.00 0.00 0.01 0.01 0.01 0.01 0.01 0.02
0.03 0.03 0.02 0.01 0.00 0.00 0.00 0.00 0.00 0.00 0.00 0.00 0.00 0.00 0.00 0.00 0.00 0.00 0.00 0.00 0.00 0.00 0.00 0.00 0.00 0.00 0.00 0.00 0.00 0.00 0.00 0.00 0.00 0.00 0.00 0.00 0.00 0.00 0.00 0.01 0.01 0.01 0.01
0.07 0.06 0.02 0.01 0.00 0.00 0.00 0.00 0.00 0.00 0.00 0.00 0.00 0.00 0.00 0.00 0.00 0.00 0.00 0.00 0.00 0.00 0.00 0.00 0.00 0.00 0.00 0.00 0.00 0.00 0.00 0.00 0.00 0.00 0.00 0.00 0.01 0.01 0.01 0.01 0.01 0.01 0.01
0.09 0.08 0.06 0.02 0.01 0.01 0.00 0.00 0.00 0.00 0.00 0.00 0.00 0.00 0.00 0.00 0.00 0.00 0.00 0.00 0.00 0.00 0.00 0.00 0.00 0.00 0.00 0.00 0.00 0.00 0.00 0.00 0.00 0.00 0.00 0.00 0.00 0.01 0.01 0.01 0.01 0.01 0.01
0.16 0.16 0.13 0.07 0.03 0.02 0.01 0.00 0.01 0.01 0.01 0.01 0.01 0.01 0.01 0.00 0.00 0.00 0.00 0.00 0.00 0.00 0.00 0.00 0.00 0.00 0.00 0.00 0.00 0.00 0.00 0.00 0.00 0.00 0.00 0.00 0.00 0.00 0.00 0.00 0.00 0.01 0.00
0.16 0.18 0.15 0.11 0.08 0.05 0.04 0.04 0.04 0.03 0.03 0.02 0.02 0.02 0.02 0.01 0.00 0.00 0.00 0.00 0.00 0.00 0.00 0.00 0.00 0.00 0.00 0.00 0.00 0.00 0.00 0.00 0.00 0.00 0.00 0.00 0.00 0.00 0.00 0.00 0.01 0.01 0.01

GFSGL_prec_precacc24_117.txt.gz
Total_Precipitation_Accumulation
0.06 0.27 0.46 0.18 0.06 0.09 0.14 0.21 0.22 0.23 0.41 0.28 0.31 0.23 0.24 0.12 0.10 0.11 0.12 0.10 0.08 0.04 0.02 0.02 0.03 0.01 0.00 0.00 0.00 0.01 0.00 0.01 0.01 0.02 0.06 0.11 0.05 0.01 0.00 0.00 0.00 0.00 0.00
0.56 0.74 0.59 0.67 0.54 0.24 0.17 0.18 0.17 0.15 0.15 0.25 0.20 0.33 0.36 0.16 0.17 0.18 0.10 0.13 0.16 0.12 0.09 0.07 0.02 0.00 0.03 0.03 0.01 0.01 0.01 0.00 0.00 0.00 0.00 0.01 0.01 0.00 0.00 0.00 0.00 0.00 0.01
0.69 0.93 0.90 0.64 0.62 0.66 0.56 0.66 0.37 0.18 0.21 0.11 0.24 0.37 0.25 0.21 0.36 0.48 0.50 0.37 0.22 0.15 0.13 0.08 0.06 0.04 0.12 0.09 0.08 0.08 0.02 0.01 0.03 0.01 0.00 0.00 0.00 0.00 0.00 0.00 0.00 0.00 0.01
0.54 0.52 0.63 0.62 0.44 0.47 0.46 0.47 0.35 0.35 0.45 0.20 0.24 0.28 0.23 0.23 0.34 0.43 0.62 0.73 0.36 0.16 0.20 0.19 0.17 0.17 0.28 0.22 0.16 0.11 0.08 0.13 0.08 0.05 0.02 0.00 0.01 0.01 0.01 0.01 0.00 0.00 0.01
0.40 0.35 0.33 0.36 0.36 0.28 0.39 0.46 0.44 0.32 0.33 0.30 0.36 0.45 0.56 0.67 0.67 0.69 0.55 0.44 0.28 0.33 0.35 0.48 0.73 0.75 0.54 0.35 0.30 0.23 0.18 0.28 0.16 0.10 0.07 0.04 0.04 0.03 0.03 0.01 0.00 0.00 0.00
0.45 0.62 0.53 0.44 0.40 0.39 0.35 0.34 0.34 0.31 0.23 0.29 0.35 0.44 0.62 0.64 0.59 0.48 0.23 0.21 0.37 0.42 0.34 0.29 0.46 0.46 0.38 0.32 0.25 0.11 0.13 0.25 0.20 0.18 0.19 0.13 0.14 0.09 0.02 0.01 0.00 0.00 0.00
0.41 0.46 0.41 0.46 0.29 0.32 0.33 0.34 0.40 0.43 0.34 0.37 0.30 0.31 0.29 0.20 0.11 0.03 0.01 0.01 0.18 0.41 0.49 0.47 0.36 0.24 0.37 0.28 0.45 0.39 0.30 0.35 0.24 0.26 0.14 0.07 0.08 0.11 0.08 0.03 0.04 0.03 0.01
0.55 0.55 0.34 0.34 0.28 0.18 0.10 0.05 0.07 0.15 0.24 0.31 0.19 0.08 0.03 0.02 0.01 0.00 0.00 0.00 0.06 0.31 0.46 0.45 0.36 0.48 0.38 0.11 0.06 0.07 0.12 0.22 0.27 0.17 0.12 0.16 0.12 0.13 0.09 0.07 0.04 0.01 0.01
0.67 0.52 0.32 0.20 0.16 0.23 0.21 0.22 0.20 0.12 0.10 0.24 0.14 0.05 0.00 0.00 0.00 0.00 0.01 0.05 0.20 0.33 0.54 0.31 0.22 0.20 0.16 0.08 0.02 0.01 0.03 0.09 0.27 0.24 0.12 0.09 0.06 0.03 0.05 0.01 0.02 0.02 0.01
1.14 0.75 0.64 0.59 0.41 0.36 0.50 0.51 0.44 0.32 0.22 0.20 0.11 0.03 0.00 0.00 0.00 0.00 0.00 0.00 0.01 0.04 0.09 0.09 0.05 0.07 0.06 0.02 0.02 0.00 0.01 0.03 0.11 0.10 0.06 0.03 0.04 0.03 0.13 0.12 0.16 0.18 0.12
1.01 1.17 0.80 0.72 0.65 0.51 0.55 0.69 0.73 0.62 0.43 0.18 0.11 0.04 0.01 0.00 0.00 0.00 0.00 0.00 0.00 0.00 0.00 0.00 0.00 0.01 0.02 0.02 0.01 0.00 0.00 0.00 0.01 0.01 0.00 0.00 0.00 0.00 0.01 0.05 0.22 0.16 0.11
1.05 1.16 1.55 1.18 1.14 0.97 0.98 0.92 0.58 0.57 0.36 0.12 0.04 0.01 0.00 0.00 0.00 0.00 0.00 0.00 0.00 0.00 0.00 0.00 0.00 0.00 0.00 0.00 0.00 0.00 0.00 0.00 0.00 0.00 0.00 0.00 0.00 0.00 0.00 0.01 0.01 0.00 0.00
0.34 0.52 0.72 1.21 0.93 0.89 0.72 0.56 0.41 0.26 0.09 0.03 0.00 0.00 0.00 0.00 0.00 0.00 0.00 0.00 0.00 0.00 0.00 0.00 0.00 0.00 0.00 0.00 0.00 0.00 0.00 0.00 0.00 0.00 0.00 0.00 0.00 0.00 0.00 0.00 0.00 0.00 0.00
0.04 0.03 0.08 0.18 0.17 0.21 0.20 0.18 0.19 0.20 0.12 0.04 0.01 0.01 0.01 0.00 0.00 0.00 0.00 0.00 0.00 0.00 0.00 0.00 0.00 0.00 0.00 0.00 0.00 0.00 0.00 0.00 0.00 0.00 0.00 0.00 0.00 0.00 0.00 0.00 0.00 0.00 0.00
0.00 0.00 0.00 0.00 0.02 0.05 0.06 0.06 0.04 0.06 0.05 0.04 0.01 0.00 0.00 0.00 0.00 0.00 0.00 0.00 0.00 0.00 0.00 0.00 0.00 0.00 0.00 0.00 0.00 0.00 0.00 0.00 0.00 0.00 0.00 0.00 0.00 0.00 0.00 0.00 0.00 0.00 0.00
0.00 0.00 0.00 0.00 0.00 0.00 0.00 0.00 0.00 0.00 0.00 0.00 0.00 0.00 0.00 0.00 0.00 0.00 0.00 0.00 0.00 0.00 0.00 0.00 0.00 0.00 0.00 0.00 0.00 0.00 0.00 0.00 0.00 0.00 0.00 0.00 0.00 0.00 0.00 0.00 0.00 0.00 0.00
0.00 0.00 0.00 0.00 0.00 0.00 0.00 0.00 0.00 0.00 0.00 0.00 0.00 0.00 0.00 0.00 0.00 0.00 0.00 0.00 0.00 0.00 0.00 0.00 0.00 0.00 0.00 0.00 0.00 0.00 0.00 0.00 0.00 0.00 0.00 0.00 0.00 0.00 0.00 0.00 0.00 0.00 0.00
0.00 0.00 0.00 0.00 0.00 0.00 0.00 0.00 0.00 0.00 0.00 0.00 0.00 0.00 0.00 0.00 0.00 0.00 0.00 0.00 0.00 0.00 0.00 0.00 0.00 0.00 0.00 0.00 0.00 0.00 0.00 0.00 0.00 0.00 0.00 0.00 0.00 0.00 0.00 0.00 0.00 0.00 0.00
0.00 0.00 0.00 0.00 0.00 0.00 0.00 0.00 0.00 0.00 0.00 0.00 0.00 0.00 0.00 0.00 0.00 0.00 0.00 0.00 0.00 0.00 0.00 0.00 0.00 0.00 0.00 0.00 0.00 0.00 0.00 0.00 0.00 0.00 0.00 0.00 0.00 0.00 0.00 0.00 0.00 0.00 0.00
0.00 0.00 0.00 0.00 0.00 0.00 0.00 0.00 0.00 0.00 0.00 0.00 0.00 0.00 0.00 0.00 0.00 0.00 0.00 0.00 0.00 0.00 0.00 0.00 0.00 0.00 0.00 0.00 0.00 0.00 0.00 0.00 0.00 0.00 0.00 0.00 0.00 0.00 0.00 0.00 0.00 0.00 0.00
0.02 0.01 0.00 0.00 0.00 0.00 0.00 0.00 0.00 0.00 0.00 0.00 0.00 0.00 0.00 0.00 0.00 0.00 0.00 0.00 0.00 0.00 0.00 0.00 0.00 0.00 0.00 0.00 0.00 0.00 0.00 0.00 0.00 0.00 0.00 0.00 0.00 0.00 0.00 0.00 0.00 0.00 0.00
0.03 0.03 0.02 0.01 0.00 0.00 0.00 0.00 0.00 0.00 0.00 0.00 0.00 0.00 0.00 0.00 0.00 0.00 0.00 0.00 0.00 0.00 0.00 0.00 0.00 0.00 0.00 0.00 0.00 0.00 0.00 0.00 0.00 0.00 0.00 0.00 0.00 0.00 0.00 0.00 0.00 0.00 0.00
0.07 0.06 0.02 0.01 0.00 0.00 0.00 0.00 0.00 0.00 0.00 0.00 0.00 0.00 0.00 0.00 0.00 0.00 0.00 0.00 0.00 0.00 0.00 0.00 0.00 0.00 0.00 0.00 0.00 0.00 0.00 0.00 0.00 0.00 0.00 0.00 0.00 0.00 0.00 0.00 0.00 0.00 0.00
0.09 0.08 0.06 0.02 0.01 0.01 0.00 0.00 0.00 0.00 0.00 0.00 0.00 0.00 0.00 0.00 0.00 0.00 0.00 0.00 0.00 0.00 0.00 0.00 0.00 0.00 0.00 0.00 0.00 0.00 0.00 0.00 0.00 0.00 0.00 0.00 0.00 0.00 0.00 0.00 0.00 0.00 0.00
0.16 0.16 0.13 0.07 0.03 0.02 0.01 0.00 0.01 0.01 0.01 0.01 0.01 0.01 0.01 0.01 0.01 0.01 0.01 0.00 0.00 0.00 0.00 0.00 0.00 0.00 0.00 0.00 0.00 0.00 0.00 0.00 0.00 0.00 0.00 0.00 0.00 0.00 0.00 0.00 0.00 0.00 0.00
0.16 0.18 0.15 0.11 0.08 0.05 0.04 0.04 0.04 0.03 0.03 0.02 0.02 0.02 0.02 0.02 0.02 0.01 0.01 0.00 0.00 0.00 0.00 0.00 0.00 0.00 0.00 0.00 0.00 0.00 0.00 0.00 0.00 0.00 0.00 0.00 0.00 0.00 0.00 0.00 0.00 0.00 0.00

GFSGL_prec_precacc24_120.txt.gz
Total_Precipitation_Accumulation
0.06 0.27 0.38 0.11 0.04 0.06 0.08 0.15 0.23 0.26 0.41 0.19 0.19 0.15 0.12 0.08 0.04 0.05 0.12 0.10 0.09 0.06 0.02 0.04 0.04 0.02 0.00 0.00 0.00 0.01 0.00 0.01 0.01 0.02 0.06 0.11 0.05 0.01 0.00 0.00 0.00 0.00 0.00
0.53 0.74 0.59 0.64 0.49 0.22 0.21 0.16 0.14 0.13 0.14 0.16 0.16 0.23 0.16 0.14 0.14 0.16 0.17 0.11 0.14 0.11 0.09 0.09 0.04 0.02 0.07 0.06 0.02 0.01 0.02 0.02 0.01 0.00 0.02 0.01 0.01 0.00 0.00 0.00 0.00 0.00 0.01
0.62 0.85 0.85 0.57 0.53 0.61 0.54 0.65 0.34 0.13 0.09 0.06 0.15 0.26 0.13 0.11 0.25 0.44 0.60 0.40 0.25 0.16 0.14 0.07 0.06 0.06 0.15 0.14 0.15 0.15 0.05 0.05 0.10 0.03 0.02 0.01 0.00 0.00 0.00 0.00 0.00 0.00 0.01
0.40 0.42 0.54 0.54 0.41 0.43 0.44 0.46 0.34 0.33 0.39 0.19 0.22 0.23 0.19 0.21 0.34 0.49 0.73 0.85 0.41 0.19 0.31 0.22 0.24 0.21 0.31 0.23 0.21 0.22 0.17 0.21 0.17 0.11 0.12 0.05 0.02 0.01 0.01 0.02 0.01 0.00 0.01
0.34 0.32 0.29 0.36 0.39 0.32 0.40 0.47 0.44 0.32 0.33 0.28 0.34 0.45 0.56 0.66 0.66 0.68 0.57 0.48 0.31 0.35 0.39 0.63 0.79 0.81 0.64 0.42 0.39 0.31 0.26 0.34 0.20 0.14 0.14 0.13 0.13 0.08 0.07 0.02 0.00 0.00 0.01
0.45 0.63 0.63 0.58 0.51 0.42 0.39 0.40 0.38 0.32 0.23 0.29 0.34 0.42 0.60 0.62 0.57 0.48 0.23 0.21 0.37 0.42 0.35 0.31 0.49 0.50 0.37 0.30 0.26 0.10 0.14 0.33 0.30 0.23 0.23 0.20 0.22 0.17 0.04 0.02 0.00 0.01 0.05
0.46 0.47 0.46 0.56 0.38 0.37 0.29 0.39 0.47 0.49 0.35 0.37 0.31 0.31 0.29 0.20 0.12 0.03 0.01 0.00 0.15 0.38 0.47 0.46 0.36 0.24 0.28 0.21 0.41 0.37 0.29 0.34 0.24 0.24 0.17 0.12 0.10 0.08 0.05 0.03 0.05 0.04 0.03
0.56 0.61 0.46 0.42 0.38 0.32 0.21 0.13 0.12 0.18 0.25 0.34 0.22 0.10 0.05 0.04 0.04 0.01 0.00 0.00 0.06 0.31 0.45 0.41 0.37 0.43 0.31 0.09 0.05 0.05 0.09 0.19 0.20 0.14 0.10 0.13 0.08 0.09 0.06 0.05 0.03 0.02 0.02
0.70 0.54 0.37 0.30 0.32 0.40 0.36 0.38 0.34 0.21 0.18 0.32 0.20 0.06 0.02 0.01 0.01 0.01 0.01 0.05 0.20 0.33 0.54 0.28 0.18 0.17 0.11 0.03 0.01 0.00 0.02 0.08 0.23 0.21 0.11 0.06 0.05 0.02 0.05 0.01 0.02 0.03 0.06
1.19 0.83 0.72 0.77 0.64 0.64 0.96 0.88 0.76 0.58 0.35 0.30 0.27 0.17 0.09 0.04 0.01 0.00 0.00 0.00 0.01 0.04 0.09 0.08 0.02 0.02 0.01 0.00 0.00 0.00 0.00 0.01 0.08 0.05 0.04 0.01 0.00 0.01 0.07 0.09 0.16 0.17 0.12
1.11 1.25 0.87 0.87 1.07 0.92 0.78 0.89 0.96 0.86 0.78 0.49 0.39 0.23 0.10 0.05 0.02 0.01 0.00 0.00 0.00 0.00 0.00 0.00 0.00 0.00 0.00 0.00 0.00 0.00 0.00 0.00 0.00 0.00 0.00 0.00 0.00 0.00 0.00 0.04 0.17 0.13 0.10
1.09 1.24 1.75 1.36 1.30 1.29 1.30 1.25 1.13 1.09 1.06 0.65 0.41 0.30 0.14 0.04 0.02 0.01 0.01 0.00 0.00 0.00 0.00 0.00 0.00 0.00 0.00 0.00 0.00 0.00 0.00 0.00 0.00 0.00 0.00 0.00 0.00 0.00 0.00 0.01 0.01 0.00 0.00
0.43 0.61 0.85 1.31 0.95 0.93 0.84 0.78 0.69 0.55 0.41 0.25 0.15 0.12 0.08 0.04 0.03 0.01 0.00 0.00 0.00 0.00 0.00 0.00 0.00 0.00 0.00 0.00 0.00 0.00 0.00 0.00 0.00 0.00 0.00 0.00 0.00 0.00 0.00 0.00 0.00 0.00 0.00
0.05 0.04 0.10 0.20 0.18 0.21 0.22 0.27 0.39 0.45 0.48 0.44 0.22 0.12 0.06 0.02 0.00 0.00 0.00 0.00 0.00 0.00 0.00 0.00 0.00 0.00 0.00 0.00 0.00 0.00 0.00 0.00 0.00 0.00 0.00 0.00 0.00 0.00 0.00 0.00 0.00 0.00 0.00
0.00 0.00 0.00 0.00 0.02 0.06 0.07 0.12 0.14 0.17 0.20 0.33 0.29 0.12 0.05 0.01 0.00 0.00 0.00 0.00 0.00 0.00 0.00 0.00 0.00 0.00 0.00 0.00 0.00 0.00 0.00 0.00 0.00 0.00 0.00 0.00 0.00 0.00 0.00 0.00 0.00 0.00 0.00
0.00 0.00 0.00 0.00 0.00 0.00 0.00 0.00 0.01 0.03 0.03 0.02 0.02 0.01 0.00 0.00 0.00 0.00 0.00 0.00 0.00 0.00 0.00 0.00 0.00 0.00 0.00 0.00 0.00 0.00 0.00 0.00 0.00 0.00 0.00 0.00 0.00 0.00 0.00 0.00 0.00 0.00 0.00
0.00 0.00 0.00 0.00 0.00 0.00 0.00 0.00 0.00 0.00 0.00 0.00 0.00 0.00 0.00 0.00 0.00 0.00 0.00 0.00 0.00 0.00 0.00 0.00 0.00 0.00 0.00 0.00 0.00 0.00 0.00 0.00 0.00 0.00 0.00 0.00 0.00 0.00 0.00 0.00 0.00 0.00 0.00
0.00 0.00 0.00 0.00 0.00 0.00 0.00 0.00 0.00 0.00 0.00 0.00 0.00 0.00 0.00 0.00 0.00 0.00 0.00 0.00 0.00 0.00 0.00 0.00 0.00 0.00 0.00 0.00 0.00 0.00 0.00 0.00 0.00 0.00 0.00 0.00 0.00 0.00 0.00 0.00 0.00 0.00 0.00
0.00 0.00 0.00 0.00 0.00 0.00 0.00 0.00 0.00 0.00 0.00 0.00 0.00 0.00 0.00 0.00 0.00 0.00 0.00 0.00 0.00 0.00 0.00 0.00 0.00 0.00 0.00 0.00 0.00 0.00 0.00 0.00 0.00 0.00 0.00 0.00 0.00 0.00 0.00 0.00 0.00 0.00 0.00
0.00 0.00 0.00 0.00 0.00 0.00 0.00 0.00 0.00 0.00 0.00 0.00 0.00 0.00 0.00 0.00 0.00 0.00 0.00 0.00 0.00 0.00 0.00 0.00 0.00 0.00 0.00 0.00 0.00 0.00 0.00 0.00 0.00 0.00 0.00 0.00 0.00 0.00 0.00 0.00 0.00 0.00 0.00
0.02 0.01 0.00 0.00 0.00 0.00 0.00 0.00 0.00 0.00 0.00 0.00 0.00 0.00 0.00 0.00 0.00 0.00 0.00 0.00 0.00 0.00 0.00 0.00 0.00 0.00 0.00 0.00 0.00 0.00 0.00 0.00 0.00 0.00 0.00 0.00 0.00 0.00 0.00 0.00 0.00 0.00 0.00
0.03 0.03 0.02 0.01 0.00 0.00 0.00 0.00 0.00 0.00 0.00 0.00 0.00 0.00 0.00 0.00 0.00 0.00 0.00 0.00 0.00 0.00 0.00 0.00 0.00 0.00 0.00 0.00 0.00 0.00 0.00 0.00 0.00 0.00 0.00 0.00 0.00 0.00 0.00 0.00 0.00 0.00 0.00
0.07 0.06 0.02 0.01 0.00 0.00 0.00 0.00 0.00 0.00 0.00 0.00 0.00 0.00 0.00 0.00 0.00 0.00 0.00 0.00 0.00 0.00 0.00 0.00 0.00 0.00 0.00 0.00 0.00 0.00 0.00 0.00 0.00 0.00 0.00 0.00 0.00 0.00 0.00 0.00 0.00 0.00 0.00
0.09 0.08 0.06 0.02 0.01 0.01 0.00 0.00 0.00 0.00 0.00 0.00 0.00 0.00 0.00 0.00 0.00 0.00 0.00 0.00 0.00 0.00 0.00 0.00 0.00 0.00 0.00 0.00 0.00 0.00 0.00 0.00 0.00 0.00 0.00 0.00 0.00 0.00 0.00 0.00 0.00 0.00 0.00
0.16 0.16 0.13 0.07 0.03 0.02 0.01 0.00 0.01 0.01 0.01 0.01 0.01 0.01 0.01 0.01 0.01 0.01 0.01 0.00 0.00 0.00 0.00 0.00 0.00 0.00 0.00 0.00 0.00 0.00 0.00 0.00 0.00 0.00 0.00 0.00 0.00 0.00 0.00 0.00 0.00 0.00 0.00
0.15 0.18 0.15 0.11 0.08 0.05 0.04 0.04 0.04 0.03 0.03 0.02 0.02 0.02 0.02 0.02 0.02 0.01 0.01 0.00 0.00 0.00 0.00 0.00 0.00 0.00 0.00 0.00 0.00 0.00 0.00 0.00 0.00 0.00 0.00 0.00 0.00 0.00 0.00 0.00 0.00 0.00 0.00

GFSGL_prec_precacc24_123.txt.gz
Total_Precipitation_Accumulation
0.03 0.21 0.27 0.11 0.04 0.06 0.08 0.19 0.29 0.31 0.40 0.20 0.22 0.23 0.19 0.13 0.10 0.16 0.16 0.09 0.11 0.08 0.02 0.03 0.04 0.02 0.00 0.00 0.00 0.01 0.00 0.01 0.01 0.02 0.06 0.11 0.05 0.01 0.00 0.00 0.00 0.00 0.04
0.48 0.66 0.49 0.63 0.47 0.20 0.19 0.17 0.21 0.19 0.21 0.17 0.16 0.18 0.20 0.18 0.21 0.21 0.24 0.14 0.20 0.15 0.10 0.09 0.04 0.02 0.08 0.06 0.02 0.02 0.02 0.02 0.01 0.01 0.02 0.01 0.02 0.01 0.00 0.00 0.00 0.01 0.01
0.56 0.74 0.73 0.54 0.48 0.58 0.47 0.63 0.36 0.15 0.10 0.12 0.22 0.26 0.18 0.16 0.26 0.45 0.66 0.42 0.29 0.20 0.14 0.08 0.06 0.07 0.17 0.17 0.17 0.15 0.05 0.09 0.20 0.14 0.05 0.03 0.13 0.13 0.04 0.00 0.00 0.01 0.05
0.37 0.35 0.47 0.52 0.41 0.39 0.39 0.39 0.32 0.32 0.39 0.20 0.25 0.28 0.23 0.21 0.32 0.54 0.79 0.87 0.45 0.25 0.41 0.31 0.31 0.31 0.38 0.33 0.28 0.31 0.27 0.26 0.22 0.17 0.21 0.10 0.03 0.14 0.23 0.05 0.09 0.07 0.07
0.34 0.28 0.26 0.33 0.39 0.33 0.37 0.41 0.38 0.30 0.31 0.26 0.30 0.40 0.55 0.66 0.51 0.57 0.58 0.51 0.32 0.39 0.46 0.68 0.81 0.86 0.81 0.58 0.52 0.41 0.33 0.36 0.24 0.21 0.23 0.20 0.16 0.09 0.12 0.04 0.01 0.01 0.10
0.48 0.64 0.64 0.60 0.49 0.36 0.31 0.37 0.39 0.33 0.24 0.30 0.30 0.35 0.47 0.53 0.48 0.40 0.18 0.17 0.34 0.40 0.35 0.31 0.51 0.51 0.36 0.30 0.27 0.14 0.18 0.36 0.37 0.31 0.30 0.27 0.28 0.22 0.11 0.04 0.00 0.05 0.15
0.48 0.47 0.46 0.61 0.41 0.37 0.31 0.43 0.55 0.54 0.42 0.43 0.35 0.33 0.23 0.15 0.07 0.01 0.01 0.00 0.11 0.34 0.44 0.44 0.44 0.25 0.31 0.21 0.39 0.33 0.27 0.32 0.25 0.26 0.22 0.20 0.16 0.18 0.06 0.06 0.07 0.10 0.12
0.60 0.64 0.49 0.47 0.47 0.43 0.31 0.23 0.19 0.22 0.29 0.40 0.27 0.18 0.13 0.09 0.06 0.02 0.01 0.00 0.03 0.23 0.32 0.32 0.41 0.42 0.23 0.05 0.02 0.03 0.08 0.17 0.17 0.10 0.07 0.16 0.06 0.05 0.03 0.02 0.02 0.04 0.05
0.77 0.54 0.38 0.34 0.36 0.47 0.46 0.49 0.41 0.26 0.23 0.37 0.21 0.08 0.04 0.03 0.05 0.02 0.02 0.06 0.16 0.26 0.40 0.14 0.12 0.14 0.08 0.01 0.00 0.00 0.00 0.05 0.17 0.13 0.09 0.06 0.05 0.02 0.02 0.00 0.03 0.06 0.14
1.35 0.90 0.74 0.81 0.69 0.69 1.07 1.19 1.05 0.90 0.66 0.46 0.38 0.27 0.15 0.06 0.05 0.01 0.00 0.01 0.03 0.03 0.06 0.07 0.02 0.02 0.02 0.00 0.00 0.01 0.01 0.01 0.07 0.04 0.03 0.01 0.00 0.00 0.01 0.03 0.08 0.11 0.07
1.28 1.39 0.98 0.95 1.15 1.06 1.09 1.26 1.32 1.30 1.29 1.01 0.81 0.45 0.23 0.09 0.04 0.03 0.02 0.02 0.03 0.03 0.01 0.00 0.00 0.00 0.00 0.00 0.00 0.00 0.00 0.00 0.00 0.00 0.00 0.00 0.00 0.00 0.00 0.01 0.06 0.06 0.05
1.29 1.34 1.87 1.48 1.38 1.33 1.37 1.43 1.41 1.39 1.28 0.98 0.96 0.83 0.48 0.22 0.11 0.08 0.06 0.02 0.01 0.01 0.00 0.00 0.00 0.00 0.00 0.00 0.00 0.00 0.00 0.00 0.00 0.00 0.00 0.00 0.00 0.00 0.00 0.01 0.00 0.00 0.00
0.56 0.76 1.06 1.68 1.13 0.96 0.86 0.81 0.81 0.69 0.48 0.32 0.33 0.40 0.35 0.25 0.18 0.11 0.05 0.03 0.02 0.01 0.01 0.01 0.00 0.00 0.00 0.00 0.00 0.00 0.00 0.00 0.00 0.00 0.00 0.00 0.00 0.00 0.00 0.00 0.00 0.00 0.00
0.13 0.16 0.18 0.28 0.24 0.22 0.22 0.27 0.39 0.47 0.55 0.57 0.38 0.26 0.24 0.19 0.11 0.03 0.02 0.00 0.00 0.00 0.00 0.00 0.00 0.00 0.00 0.00 0.00 0.00 0.00 0.00 0.00 0.00 0.00 0.00 0.00 0.00 0.00 0.00 0.00 0.00 0.00
0.01 0.00 0.00 0.01 0.03 0.06 0.07 0.12 0.14 0.17 0.22 0.39 0.51 0.27 0.15 0.08 0.03 0.01 0.00 0.00 0.00 0.00 0.00 0.00 0.00 0.00 0.00 0.00 0.00 0.00 0.00 0.00 0.00 0.00 0.00 0.00 0.00 0.00 0.00 0.00 0.00 0.00 0.00
0.00 0.00 0.00 0.00 0.00 0.00 0.00 0.00 0.01 0.04 0.04 0.03 0.04 0.04 0.02 0.01 0.00 0.00 0.00 0.00 0.00 0.00 0.00 0.00 0.00 0.00 0.00 0.00 0.00 0.00 0.00 0.00 0.00 0.00 0.00 0.00 0.00 0.00 0.00 0.00 0.00 0.00 0.00
0.00 0.00 0.00 0.00 0.00 0.00 0.00 0.00 0.00 0.00 0.00 0.00 0.00 0.00 0.00 0.00 0.00 0.00 0.00 0.00 0.00 0.00 0.00 0.00 0.00 0.00 0.00 0.00 0.00 0.00 0.00 0.00 0.00 0.00 0.00 0.00 0.00 0.00 0.00 0.00 0.00 0.00 0.00
0.00 0.00 0.00 0.00 0.00 0.00 0.00 0.00 0.00 0.00 0.00 0.00 0.00 0.00 0.00 0.00 0.00 0.00 0.00 0.00 0.00 0.00 0.00 0.00 0.00 0.00 0.00 0.00 0.00 0.00 0.00 0.00 0.00 0.00 0.00 0.00 0.00 0.00 0.00 0.00 0.00 0.00 0.00
0.00 0.00 0.00 0.00 0.00 0.00 0.00 0.00 0.00 0.00 0.00 0.00 0.00 0.00 0.00 0.00 0.00 0.00 0.00 0.00 0.00 0.00 0.00 0.00 0.00 0.00 0.00 0.00 0.00 0.00 0.00 0.00 0.00 0.00 0.00 0.00 0.00 0.00 0.00 0.00 0.00 0.00 0.00
0.00 0.00 0.00 0.00 0.00 0.00 0.00 0.00 0.00 0.00 0.00 0.00 0.00 0.00 0.00 0.00 0.00 0.00 0.00 0.00 0.00 0.00 0.00 0.00 0.00 0.00 0.00 0.00 0.00 0.00 0.00 0.00 0.00 0.00 0.00 0.00 0.00 0.00 0.00 0.00 0.00 0.00 0.00
0.02 0.01 0.00 0.00 0.00 0.00 0.00 0.00 0.00 0.00 0.00 0.00 0.00 0.00 0.00 0.00 0.00 0.00 0.00 0.00 0.00 0.00 0.00 0.00 0.00 0.00 0.00 0.00 0.00 0.00 0.00 0.00 0.00 0.00 0.00 0.00 0.00 0.00 0.00 0.00 0.00 0.00 0.00
0.03 0.03 0.02 0.01 0.00 0.00 0.00 0.00 0.00 0.00 0.00 0.00 0.00 0.00 0.00 0.00 0.00 0.00 0.00 0.00 0.00 0.00 0.00 0.00 0.00 0.00 0.00 0.00 0.00 0.00 0.00 0.00 0.00 0.00 0.00 0.00 0.00 0.00 0.00 0.00 0.00 0.00 0.00
0.07 0.06 0.02 0.01 0.00 0.00 0.00 0.00 0.00 0.00 0.00 0.00 0.00 0.00 0.00 0.00 0.00 0.00 0.00 0.00 0.00 0.00 0.00 0.00 0.00 0.00 0.00 0.00 0.00 0.00 0.00 0.00 0.00 0.00 0.00 0.00 0.00 0.00 0.00 0.00 0.00 0.00 0.00
0.09 0.08 0.06 0.02 0.01 0.01 0.00 0.00 0.00 0.00 0.00 0.00 0.00 0.00 0.00 0.00 0.00 0.00 0.00 0.00 0.00 0.00 0.00 0.00 0.00 0.00 0.00 0.00 0.00 0.00 0.00 0.00 0.00 0.00 0.00 0.00 0.00 0.00 0.00 0.00 0.00 0.00 0.00
0.16 0.16 0.13 0.07 0.03 0.02 0.01 0.00 0.01 0.01 0.01 0.01 0.01 0.01 0.01 0.01 0.01 0.01 0.01 0.00 0.00 0.00 0.00 0.00 0.00 0.01 0.01 0.00 0.00 0.00 0.00 0.00 0.00 0.00 0.00 0.00 0.00 0.00 0.00 0.00 0.00 0.00 0.00
0.14 0.18 0.15 0.11 0.08 0.05 0.04 0.04 0.04 0.03 0.03 0.02 0.02 0.02 0.02 0.02 0.02 0.01 0.01 0.00 0.00 0.00 0.00 0.01 0.00 0.01 0.02 0.03 0.01 0.00 0.00 0.00 0.00 0.00 0.00 0.00 0.00 0.00 0.00 0.00 0.00 0.00 0.00

GFSGL_prec_precacc24_126.txt.gz
Total_Precipitation_Accumulation
0.02 0.12 0.15 0.05 0.03 0.06 0.11 0.24 0.34 0.32 0.17 0.15 0.11 0.19 0.20 0.16 0.14 0.18 0.17 0.12 0.13 0.09 0.02 0.04 0.04 0.02 0.00 0.00 0.00 0.01 0.00 0.01 0.01 0.01 0.01 0.01 0.01 0.00 0.01 0.00 0.00 0.03 0.11
0.48 0.65 0.45 0.33 0.34 0.16 0.13 0.13 0.25 0.34 0.27 0.13 0.19 0.18 0.19 0.22 0.25 0.19 0.27 0.21 0.21 0.19 0.14 0.14 0.06 0.03 0.10 0.07 0.02 0.02 0.02 0.03 0.02 0.01 0.02 0.02 0.03 0.08 0.11 0.13 0.04 0.05 0.09
0.53 0.69 0.69 0.44 0.43 0.49 0.33 0.28 0.25 0.23 0.16 0.16 0.30 0.32 0.32 0.31 0.31 0.50 0.66 0.45 0.32 0.27 0.22 0.20 0.14 0.15 0.24 0.21 0.20 0.16 0.07 0.11 0.20 0.14 0.05 0.05 0.18 0.33 0.48 0.32 0.16 0.21 0.25
0.37 0.32 0.44 0.50 0.40 0.37 0.37 0.41 0.35 0.33 0.38 0.23 0.22 0.20 0.22 0.25 0.33 0.54 0.76 0.86 0.53 0.30 0.53 0.44 0.40 0.46 0.52 0.39 0.32 0.37 0.31 0.27 0.22 0.16 0.22 0.13 0.10 0.30 0.52 0.19 0.19 0.42 0.45
0.34 0.28 0.25 0.33 0.40 0.36 0.39 0.42 0.37 0.28 0.29 0.26 0.30 0.34 0.41 0.48 0.39 0.43 0.37 0.38 0.26 0.37 0.49 0.71 0.86 0.85 0.82 0.60 0.56 0.42 0.36 0.36 0.25 0.24 0.30 0.25 0.23 0.19 0.16 0.06 0.06 0.15 0.24
0.53 0.65 0.64 0.62 0.51 0.36 0.31 0.35 0.31 0.23 0.23 0.28 0.27 0.28 0.36 0.33 0.26 0.24 0.15 0.13 0.19 0.24 0.30 0.29 0.48 0.43 0.32 0.26 0.21 0.13 0.24 0.41 0.43 0.34 0.33 0.32 0.34 0.33 0.19 0.10 0.10 0.21 0.26
0.85 0.54 0.49 0.62 0.46 0.39 0.30 0.39 0.45 0.40 0.38 0.40 0.36 0.38 0.23 0.10 0.06 0.04 0.02 0.00 0.11 0.28 0.31 0.40 0.45 0.27 0.41 0.23 0.26 0.16 0.19 0.24 0.20 0.21 0.25 0.24 0.20 0.22 0.06 0.08 0.12 0.18 0.23
0.90 1.00 0.68 0.59 0.57 0.53 0.38 0.30 0.28 0.24 0.29 0.42 0.32 0.23 0.18 0.13 0.12 0.04 0.01 0.00 0.03 0.22 0.36 0.35 0.41 0.33 0.29 0.13 0.04 0.01 0.03 0.12 0.08 0.03 0.03 0.14 0.04 0.03 0.02 0.01 0.02 0.07 0.10
0.89 0.79 0.66 0.48 0.42 0.50 0.49 0.57 0.55 0.40 0.30 0.32 0.17 0.07 0.05 0.04 0.08 0.04 0.03 0.05 0.11 0.19 0.17 0.08 0.10 0.08 0.04 0.01 0.00 0.00 0.01 0.02 0.03 0.01 0.01 0.03 0.04 0.00 0.00 0.00 0.01 0.06 0.20
1.49 1.06 1.00 1.11 0.84 0.73 1.08 1.25 1.13 0.95 0.69 0.47 0.42 0.32 0.23 0.13 0.13 0.08 0.03 0.01 0.05 0.07 0.04 0.02 0.03 0.02 0.02 0.01 0.01 0.04 0.14 0.05 0.02 0.00 0.00 0.00 0.00 0.00 0.01 0.00 0.00 0.00 0.02
1.61 1.77 1.31 1.22 1.32 1.13 1.11 1.33 1.45 1.41 1.40 1.14 1.01 0.75 0.59 0.42 0.20 0.08 0.03 0.03 0.06 0.14 0.16 0.04 0.01 0.00 0.00 0.00 0.00 0.00 0.03 0.03 0.02 0.01 0.00 0.00 0.00 0.00 0.00 0.00 0.00 0.00 0.00
1.62 1.61 2.14 1.78 1.60 1.48 1.45 1.49 1.47 1.50 1.43 1.13 1.10 1.06 0.87 0.77 0.57 0.33 0.15 0.05 0.04 0.04 0.05 0.04 0.04 0.01 0.00 0.00 0.00 0.00 0.00 0.00 0.00 0.00 0.00 0.00 0.00 0.00 0.00 0.00 0.00 0.00 0.00
0.81 0.94 1.38 2.32 1.53 1.12 0.96 0.85 0.83 0.75 0.56 0.40 0.44 0.52 0.54 0.52 0.45 0.29 0.14 0.07 0.06 0.07 0.06 0.04 0.02 0.01 0.01 0.01 0.01 0.01 0.01 0.01 0.01 0.01 0.00 0.00 0.00 0.00 0.00 0.00 0.00 0.00 0.00
0.48 0.54 0.54 0.73 0.47 0.30 0.23 0.26 0.39 0.47 0.55 0.57 0.39 0.29 0.30 0.24 0.18 0.12 0.08 0.03 0.01 0.00 0.00 0.00 0.00 0.00 0.00 0.00 0.00 0.00 0.00 0.00 0.00 0.00 0.00 0.00 0.00 0.00 0.00 0.00 0.00 0.00 0.00
0.11 0.07 0.04 0.07 0.10 0.07 0.08 0.12 0.14 0.17 0.22 0.40 0.52 0.28 0.17 0.10 0.04 0.02 0.01 0.00 0.00 0.00 0.00 0.00 0.00 0.00 0.00 0.00 0.00 0.00 0.00 0.00 0.00 0.00 0.00 0.00 0.00 0.00 0.00 0.00 0.00 0.00 0.00
0.01 0.00 0.00 0.00 0.00 0.00 0.00 0.00 0.01 0.04 0.04 0.03 0.04 0.05 0.03 0.02 0.00 0.00 0.00 0.00 0.00 0.00 0.00 0.00 0.00 0.00 0.00 0.00 0.00 0.00 0.00 0.00 0.00 0.00 0.00 0.00 0.00 0.00 0.00 0.00 0.00 0.00 0.00
0.00 0.00 0.00 0.00 0.00 0.00 0.00 0.00 0.00 0.00 0.00 0.00 0.00 0.00 0.00 0.00 0.00 0.00 0.00 0.00 0.00 0.00 0.00 0.00 0.00 0.00 0.00 0.00 0.00 0.00 0.00 0.00 0.00 0.00 0.00 0.00 0.00 0.00 0.00 0.00 0.00 0.00 0.00
0.00 0.00 0.00 0.00 0.00 0.00 0.00 0.00 0.00 0.00 0.00 0.00 0.00 0.00 0.00 0.00 0.00 0.00 0.00 0.00 0.00 0.00 0.00 0.00 0.00 0.00 0.00 0.00 0.00 0.00 0.00 0.00 0.00 0.00 0.00 0.00 0.00 0.00 0.00 0.00 0.00 0.00 0.00
0.00 0.00 0.00 0.00 0.00 0.00 0.00 0.00 0.00 0.00 0.00 0.00 0.00 0.00 0.00 0.00 0.00 0.00 0.00 0.00 0.00 0.00 0.00 0.00 0.00 0.00 0.00 0.00 0.00 0.00 0.00 0.00 0.00 0.00 0.00 0.00 0.00 0.00 0.00 0.00 0.00 0.00 0.00
0.00 0.00 0.00 0.00 0.00 0.00 0.00 0.00 0.00 0.00 0.00 0.00 0.00 0.00 0.00 0.00 0.00 0.00 0.00 0.00 0.00 0.00 0.00 0.00 0.00 0.00 0.00 0.00 0.00 0.00 0.00 0.00 0.00 0.00 0.00 0.00 0.00 0.00 0.00 0.00 0.00 0.00 0.00
0.02 0.01 0.00 0.00 0.00 0.00 0.00 0.00 0.00 0.00 0.00 0.00 0.00 0.00 0.00 0.00 0.00 0.00 0.00 0.00 0.00 0.00 0.00 0.00 0.00 0.00 0.00 0.00 0.00 0.00 0.00 0.00 0.00 0.00 0.00 0.00 0.00 0.00 0.00 0.00 0.00 0.00 0.00
0.03 0.03 0.02 0.01 0.00 0.00 0.00 0.00 0.00 0.00 0.00 0.00 0.00 0.00 0.00 0.00 0.00 0.00 0.00 0.00 0.00 0.00 0.00 0.00 0.00 0.00 0.00 0.00 0.00 0.00 0.01 0.01 0.00 0.00 0.00 0.00 0.00 0.00 0.00 0.00 0.00 0.00 0.00
0.07 0.06 0.02 0.01 0.00 0.00 0.00 0.00 0.00 0.00 0.00 0.00 0.00 0.00 0.00 0.00 0.00 0.00 0.00 0.00 0.00 0.00 0.00 0.00 0.00 0.00 0.00 0.00 0.01 0.01 0.02 0.02 0.02 0.00 0.00 0.00 0.00 0.00 0.00 0.00 0.00 0.00 0.00
0.09 0.08 0.06 0.02 0.01 0.01 0.00 0.00 0.00 0.00 0.00 0.00 0.00 0.00 0.00 0.00 0.00 0.00 0.00 0.00 0.00 0.00 0.00 0.00 0.00 0.00 0.00 0.00 0.02 0.03 0.03 0.02 0.01 0.00 0.00 0.00 0.00 0.00 0.00 0.00 0.00 0.00 0.00
0.13 0.15 0.13 0.07 0.03 0.02 0.01 0.00 0.01 0.01 0.01 0.01 0.01 0.01 0.01 0.01 0.01 0.01 0.01 0.00 0.00 0.00 0.00 0.00 0.00 0.01 0.01 0.06 0.07 0.04 0.01 0.00 0.00 0.00 0.00 0.00 0.00 0.00 0.00 0.00 0.00 0.00 0.00
0.08 0.14 0.14 0.11 0.08 0.05 0.04 0.04 0.04 0.03 0.03 0.02 0.02 0.02 0.02 0.02 0.02 0.01 0.01 0.00 0.00 0.00 0.00 0.01 0.00 0.01 0.02 0.03 0.05 0.06 0.04 0.01 0.00 0.00 0.00 0.00 0.00 0.00 0.00 0.00 0.00 0.00 0.00

GFSGL_prec_precacc24_129.txt.gz
Total_Precipitation_Accumulation
0.00 0.01 0.00 0.00 0.00 0.04 0.09 0.22 0.32 0.26 0.14 0.14 0.08 0.15 0.23 0.18 0.15 0.19 0.16 0.12 0.13 0.10 0.02 0.04 0.04 0.02 0.00 0.00 0.00 0.01 0.01 0.03 0.03 0.03 0.01 0.01 0.01 0.02 0.04 0.03 0.02 0.04 0.12
0.34 0.46 0.34 0.22 0.17 0.08 0.08 0.11 0.22 0.33 0.27 0.16 0.23 0.24 0.27 0.25 0.27 0.20 0.33 0.29 0.25 0.21 0.16 0.14 0.11 0.04 0.11 0.07 0.02 0.02 0.03 0.03 0.02 0.02 0.02 0.02 0.03 0.08 0.12 0.14 0.05 0.09 0.13
0.43 0.57 0.56 0.32 0.29 0.35 0.29 0.22 0.22 0.21 0.15 0.16 0.30 0.32 0.32 0.31 0.31 0.51 0.68 0.45 0.35 0.28 0.22 0.20 0.14 0.15 0.24 0.22 0.20 0.17 0.07 0.11 0.20 0.14 0.05 0.05 0.19 0.35 0.51 0.39 0.18 0.25 0.31
0.36 0.31 0.42 0.42 0.28 0.27 0.35 0.39 0.34 0.31 0.37 0.23 0.22 0.20 0.19 0.17 0.21 0.46 0.61 0.71 0.49 0.29 0.56 0.44 0.39 0.49 0.53 0.40 0.33 0.37 0.31 0.29 0.28 0.17 0.22 0.14 0.13 0.31 0.54 0.19 0.21 0.42 0.46
0.34 0.28 0.25 0.31 0.39 0.37 0.41 0.43 0.35 0.26 0.26 0.24 0.27 0.34 0.34 0.23 0.18 0.18 0.22 0.19 0.22 0.29 0.42 0.68 0.69 0.78 0.79 0.56 0.54 0.42 0.36 0.37 0.26 0.24 0.30 0.25 0.24 0.26 0.24 0.11 0.11 0.21 0.33
0.63 0.66 0.65 0.61 0.50 0.34 0.30 0.36 0.31 0.23 0.21 0.18 0.16 0.24 0.34 0.24 0.11 0.12 0.11 0.10 0.14 0.17 0.17 0.19 0.40 0.41 0.31 0.21 0.14 0.10 0.22 0.42 0.44 0.35 0.35 0.33 0.34 0.33 0.22 0.14 0.15 0.28 0.36
1.22 0.67 0.55 0.66 0.47 0.38 0.30 0.42 0.48 0.44 0.41 0.39 0.35 0.41 0.26 0.12 0.11 0.05 0.03 0.00 0.10 0.24 0.32 0.46 0.47 0.35 0.38 0.20 0.10 0.07 0.11 0.19 0.15 0.15 0.22 0.25 0.21 0.19 0.04 0.07 0.16 0.23 0.34
2.14 1.77 0.91 0.73 0.71 0.66 0.50 0.40 0.36 0.35 0.44 0.51 0.38 0.29 0.23 0.16 0.14 0.05 0.02 0.01 0.02 0.20 0.29 0.29 0.33 0.31 0.32 0.17 0.13 0.06 0.03 0.07 0.04 0.01 0.01 0.08 0.01 0.00 0.00 0.01 0.02 0.07 0.13
1.43 1.69 1.41 0.85 0.71 0.71 0.69 0.77 0.71 0.57 0.48 0.40 0.23 0.13 0.08 0.04 0.08 0.04 0.03 0.04 0.07 0.12 0.09 0.08 0.09 0.07 0.05 0.01 0.00 0.00 0.01 0.01 0.01 0.00 0.00 0.01 0.00 0.00 0.00 0.00 0.01 0.06 0.20
1.75 1.27 1.29 1.33 1.14 0.98 1.24 1.36 1.22 1.03 0.70 0.49 0.43 0.32 0.23 0.13 0.15 0.11 0.06 0.02 0.05 0.08 0.05 0.03 0.06 0.04 0.02 0.01 0.01 0.05 0.16 0.12 0.09 0.02 0.00 0.00 0.00 0.00 0.00 0.00 0.00 0.00 0.01
1.84 1.92 1.40 1.28 1.51 1.42 1.40 1.45 1.48 1.42 1.41 1.16 1.04 0.76 0.59 0.46 0.37 0.31 0.15 0.08 0.09 0.16 0.19 0.08 0.02 0.02 0.01 0.00 0.00 0.01 0.04 0.05 0.05 0.03 0.01 0.00 0.00 0.00 0.00 0.00 0.00 0.00 0.00
2.05 1.92 2.38 1.96 1.77 1.67 1.64 1.63 1.54 1.52 1.44 1.20 1.22 1.14 0.94 0.83 0.71 0.52 0.36 0.09 0.06 0.06 0.06 0.05 0.04 0.01 0.00 0.00 0.00 0.01 0.01 0.00 0.00 0.00 0.00 0.00 0.00 0.00 0.01 0.00 0.00 0.00 0.00
0.96 1.12 1.70 2.73 1.79 1.22 1.03 0.94 0.90 0.78 0.58 0.43 0.50 0.62 0.65 0.60 0.55 0.40 0.20 0.09 0.07 0.08 0.06 0.04 0.02 0.02 0.01 0.01 0.01 0.01 0.01 0.01 0.01 0.01 0.00 0.00 0.00 0.00 0.00 0.00 0.00 0.00 0.00
1.01 1.15 1.25 1.14 0.66 0.37 0.27 0.27 0.40 0.47 0.55 0.57 0.39 0.29 0.30 0.25 0.20 0.14 0.11 0.04 0.01 0.00 0.00 0.00 0.00 0.00 0.00 0.00 0.00 0.00 0.00 0.00 0.00 0.00 0.00 0.00 0.00 0.00 0.00 0.00 0.00 0.00 0.00
0.31 0.25 0.16 0.15 0.19 0.11 0.11 0.12 0.14 0.17 0.22 0.40 0.52 0.28 0.17 0.10 0.04 0.02 0.01 0.00 0.00 0.00 0.00 0.00 0.00 0.00 0.00 0.00 0.00 0.00 0.00 0.00 0.00 0.00 0.00 0.00 0.00 0.00 0.00 0.00 0.00 0.00 0.00
0.08 0.02 0.02 0.04 0.03 0.03 0.01 0.00 0.01 0.04 0.04 0.03 0.04 0.05 0.03 0.02 0.00 0.00 0.00 0.00 0.00 0.00 0.00 0.00 0.00 0.00 0.00 0.00 0.00 0.00 0.00 0.00 0.00 0.00 0.00 0.00 0.00 0.00 0.00 0.00 0.00 0.00 0.00
0.00 0.00 0.00 0.00 0.00 0.00 0.00 0.00 0.00 0.00 0.00 0.00 0.00 0.00 0.00 0.00 0.00 0.00 0.00 0.00 0.00 0.00 0.00 0.00 0.00 0.00 0.00 0.00 0.00 0.00 0.00 0.00 0.00 0.00 0.00 0.00 0.00 0.00 0.00 0.00 0.00 0.00 0.00
0.00 0.00 0.00 0.00 0.00 0.00 0.00 0.00 0.00 0.00 0.00 0.00 0.00 0.00 0.00 0.00 0.00 0.00 0.00 0.00 0.00 0.00 0.00 0.00 0.00 0.00 0.00 0.00 0.00 0.00 0.00 0.00 0.00 0.00 0.00 0.00 0.00 0.00 0.00 0.00 0.00 0.00 0.00
0.00 0.00 0.00 0.00 0.00 0.00 0.00 0.00 0.00 0.00 0.00 0.00 0.00 0.00 0.00 0.00 0.00 0.00 0.00 0.00 0.00 0.00 0.00 0.00 0.00 0.00 0.00 0.00 0.00 0.00 0.00 0.00 0.00 0.00 0.00 0.00 0.00 0.00 0.00 0.00 0.00 0.00 0.00
0.00 0.00 0.00 0.00 0.00 0.00 0.00 0.00 0.00 0.00 0.00 0.00 0.00 0.00 0.00 0.00 0.00 0.00 0.00 0.00 0.00 0.00 0.00 0.00 0.00 0.00 0.00 0.00 0.00 0.00 0.00 0.00 0.00 0.00 0.00 0.00 0.00 0.00 0.00 0.00 0.00 0.00 0.00
0.02 0.01 0.00 0.00 0.00 0.00 0.00 0.00 0.00 0.00 0.00 0.00 0.00 0.00 0.00 0.00 0.00 0.00 0.00 0.00 0.00 0.00 0.00 0.00 0.00 0.00 0.00 0.00 0.00 0.00 0.00 0.00 0.00 0.00 0.00 0.00 0.00 0.00 0.00 0.00 0.00 0.00 0.00
0.02 0.03 0.02 0.01 0.00 0.00 0.00 0.00 0.00 0.00 0.00 0.00 0.00 0.00 0.00 0.00 0.00 0.00 0.00 0.00 0.00 0.00 0.00 0.00 0.00 0.00 0.00 0.00 0.00 0.00 0.01 0.02 0.02 0.04 0.03 0.02 0.00 0.00 0.00 0.00 0.00 0.00 0.00
0.01 0.01 0.01 0.01 0.00 0.00 0.00 0.00 0.00 0.00 0.00 0.00 0.00 0.00 0.00 0.00 0.00 0.00 0.00 0.00 0.00 0.00 0.00 0.00 0.00 0.00 0.00 0.00 0.01 0.01 0.02 0.02 0.05 0.05 0.03 0.00 0.00 0.00 0.00 0.00 0.00 0.00 0.00
0.02 0.03 0.02 0.01 0.01 0.01 0.00 0.00 0.00 0.00 0.00 0.00 0.00 0.00 0.00 0.00 0.00 0.00 0.00 0.00 0.00 0.00 0.00 0.00 0.00 0.00 0.00 0.00 0.02 0.03 0.03 0.02 0.04 0.03 0.02 0.01 0.00 0.00 0.00 0.00 0.00 0.00 0.00
0.02 0.04 0.06 0.04 0.03 0.02 0.01 0.00 0.01 0.01 0.01 0.01 0.01 0.01 0.01 0.01 0.01 0.01 0.01 0.00 0.00 0.00 0.00 0.00 0.00 0.01 0.01 0.06 0.07 0.04 0.01 0.00 0.00 0.00 0.00 0.00 0.00 0.00 0.00 0.00 0.00 0.00 0.00
0.00 0.01 0.03 0.04 0.06 0.05 0.04 0.04 0.04 0.03 0.03 0.02 0.02 0.02 0.02 0.02 0.02 0.01 0.01 0.00 0.00 0.00 0.00 0.01 0.00 0.01 0.02 0.03 0.05 0.06 0.04 0.01 0.00 0.00 0.00 0.00 0.01 0.01 0.01 0.00 0.00 0.00 0.00